<?xml version="1.0" encoding="UTF-8" standalone="no" ?>
<gpx xmlns="http://www.topografix.com/GPX/1/1" xmlns:xsi="http://www.w3.org/2001/XMLSchema-instance" xsi:schemaLocation="http://www.topografix.com/GPX/1/1 http://www.topografix.com/GPX/1/1/gpx.xsd" version="1.1" creator="VisuGPX - https://www.visugpx.com">
  <metadata>
    <name>VTT - Jouques</name>
    <desc><![CDATA[Sortie sans difficulté technique]]></desc>
  </metadata>
  <trk>
    <name><![CDATA[VTT - Jouques]]></name>
    <trkseg>
      <trkpt lat="43.63701" lon="5.6384">
        <ele>271.60000610352</ele>
        <time>2013-03-16T08:26:37.000Z</time>
      </trkpt>
      <trkpt lat="43.63704" lon="5.63841">
        <ele>272</ele>
        <time>2013-03-16T08:26:58.000Z</time>
      </trkpt>
      <trkpt lat="43.63709" lon="5.6387">
        <ele>272.60000610352</ele>
        <time>2013-03-16T08:27:06.000Z</time>
      </trkpt>
      <trkpt lat="43.63712" lon="5.63907">
        <ele>272.39999389648</ele>
        <time>2013-03-16T08:27:13.000Z</time>
      </trkpt>
      <trkpt lat="43.63712" lon="5.63913">
        <ele>272.39999389648</ele>
        <time>2013-03-16T08:27:14.000Z</time>
      </trkpt>
      <trkpt lat="43.63717" lon="5.63957">
        <ele>273.20001220703</ele>
        <time>2013-03-16T08:27:22.000Z</time>
      </trkpt>
      <trkpt lat="43.63717" lon="5.63963">
        <ele>273.20001220703</ele>
        <time>2013-03-16T08:27:23.000Z</time>
      </trkpt>
      <trkpt lat="43.63721" lon="5.6402">
        <ele>273.60000610352</ele>
        <time>2013-03-16T08:27:33.000Z</time>
      </trkpt>
      <trkpt lat="43.6372" lon="5.64021">
        <ele>273.60000610352</ele>
        <time>2013-03-16T08:27:34.000Z</time>
      </trkpt>
      <trkpt lat="43.63719" lon="5.6402">
        <ele>273.39999389648</ele>
        <time>2013-03-16T08:27:35.000Z</time>
      </trkpt>
      <trkpt lat="43.63718" lon="5.64018">
        <ele>273.20001220703</ele>
        <time>2013-03-16T08:27:36.000Z</time>
      </trkpt>
      <trkpt lat="43.63717" lon="5.64018">
        <ele>273</ele>
        <time>2013-03-16T08:27:37.000Z</time>
      </trkpt>
      <trkpt lat="43.63715" lon="5.64018">
        <ele>272.79998779297</ele>
        <time>2013-03-16T08:27:38.000Z</time>
      </trkpt>
      <trkpt lat="43.63713" lon="5.64017">
        <ele>272.60000610352</ele>
        <time>2013-03-16T08:27:39.000Z</time>
      </trkpt>
      <trkpt lat="43.63711" lon="5.64016">
        <ele>272.20001220703</ele>
        <time>2013-03-16T08:27:40.000Z</time>
      </trkpt>
      <trkpt lat="43.63705" lon="5.64015">
        <ele>271.39999389648</ele>
        <time>2013-03-16T08:27:43.000Z</time>
      </trkpt>
      <trkpt lat="43.63702" lon="5.64015">
        <ele>271</ele>
        <time>2013-03-16T08:27:44.000Z</time>
      </trkpt>
      <trkpt lat="43.63673" lon="5.64011">
        <ele>267</ele>
        <time>2013-03-16T08:27:52.000Z</time>
      </trkpt>
      <trkpt lat="43.63669" lon="5.64011">
        <ele>266.39999389648</ele>
        <time>2013-03-16T08:27:53.000Z</time>
      </trkpt>
      <trkpt lat="43.63607" lon="5.6401">
        <ele>265.79998779297</ele>
        <time>2013-03-16T08:28:05.000Z</time>
      </trkpt>
      <trkpt lat="43.63577" lon="5.64007">
        <ele>266.20001220703</ele>
        <time>2013-03-16T08:28:11.000Z</time>
      </trkpt>
      <trkpt lat="43.63562" lon="5.64003">
        <ele>267.20001220703</ele>
        <time>2013-03-16T08:28:14.000Z</time>
      </trkpt>
      <trkpt lat="43.63557" lon="5.64004">
        <ele>267.39999389648</ele>
        <time>2013-03-16T08:28:15.000Z</time>
      </trkpt>
      <trkpt lat="43.63552" lon="5.64008">
        <ele>267.60000610352</ele>
        <time>2013-03-16T08:28:16.000Z</time>
      </trkpt>
      <trkpt lat="43.63549" lon="5.64013">
        <ele>267.79998779297</ele>
        <time>2013-03-16T08:28:17.000Z</time>
      </trkpt>
      <trkpt lat="43.63547" lon="5.6402">
        <ele>267.60000610352</ele>
        <time>2013-03-16T08:28:18.000Z</time>
      </trkpt>
      <trkpt lat="43.63546" lon="5.64027">
        <ele>267.60000610352</ele>
        <time>2013-03-16T08:28:19.000Z</time>
      </trkpt>
      <trkpt lat="43.63522" lon="5.6409">
        <ele>268</ele>
        <time>2013-03-16T08:28:29.000Z</time>
      </trkpt>
      <trkpt lat="43.63486" lon="5.64137">
        <ele>267.79998779297</ele>
        <time>2013-03-16T08:28:40.000Z</time>
      </trkpt>
      <trkpt lat="43.63466" lon="5.6415">
        <ele>267.60000610352</ele>
        <time>2013-03-16T08:28:49.000Z</time>
      </trkpt>
      <trkpt lat="43.63441" lon="5.64166">
        <ele>266.39999389648</ele>
        <time>2013-03-16T08:28:58.000Z</time>
      </trkpt>
      <trkpt lat="43.63409" lon="5.64186">
        <ele>267.20001220703</ele>
        <time>2013-03-16T08:29:10.000Z</time>
      </trkpt>
      <trkpt lat="43.6338" lon="5.64205">
        <ele>268</ele>
        <time>2013-03-16T08:29:21.000Z</time>
      </trkpt>
      <trkpt lat="43.63345" lon="5.64236">
        <ele>266.39999389648</ele>
        <time>2013-03-16T08:29:35.000Z</time>
      </trkpt>
      <trkpt lat="43.63315" lon="5.64278">
        <ele>266.20001220703</ele>
        <time>2013-03-16T08:29:48.000Z</time>
      </trkpt>
      <trkpt lat="43.63289" lon="5.64326">
        <ele>266.79998779297</ele>
        <time>2013-03-16T08:30:02.000Z</time>
      </trkpt>
      <trkpt lat="43.63273" lon="5.64375">
        <ele>267.39999389648</ele>
        <time>2013-03-16T08:30:16.000Z</time>
      </trkpt>
      <trkpt lat="43.63258" lon="5.64418">
        <ele>267.39999389648</ele>
        <time>2013-03-16T08:30:26.000Z</time>
      </trkpt>
      <trkpt lat="43.63244" lon="5.64461">
        <ele>267.39999389648</ele>
        <time>2013-03-16T08:30:36.000Z</time>
      </trkpt>
      <trkpt lat="43.63222" lon="5.6453">
        <ele>268.20001220703</ele>
        <time>2013-03-16T08:30:52.000Z</time>
      </trkpt>
      <trkpt lat="43.63199" lon="5.646">
        <ele>270.20001220703</ele>
        <time>2013-03-16T08:31:07.000Z</time>
      </trkpt>
      <trkpt lat="43.6318" lon="5.64661">
        <ele>272.79998779297</ele>
        <time>2013-03-16T08:31:20.000Z</time>
      </trkpt>
      <trkpt lat="43.63158" lon="5.64728">
        <ele>271.39999389648</ele>
        <time>2013-03-16T08:31:34.000Z</time>
      </trkpt>
      <trkpt lat="43.63137" lon="5.64791">
        <ele>271</ele>
        <time>2013-03-16T08:31:47.000Z</time>
      </trkpt>
      <trkpt lat="43.63114" lon="5.64862">
        <ele>269.39999389648</ele>
        <time>2013-03-16T08:32:02.000Z</time>
      </trkpt>
      <trkpt lat="43.63092" lon="5.64927">
        <ele>269.39999389648</ele>
        <time>2013-03-16T08:32:15.000Z</time>
      </trkpt>
      <trkpt lat="43.63067" lon="5.64991">
        <ele>269</ele>
        <time>2013-03-16T08:32:27.000Z</time>
      </trkpt>
      <trkpt lat="43.63045" lon="5.65046">
        <ele>270.39999389648</ele>
        <time>2013-03-16T08:32:39.000Z</time>
      </trkpt>
      <trkpt lat="43.63025" lon="5.65098">
        <ele>273.20001220703</ele>
        <time>2013-03-16T08:32:50.000Z</time>
      </trkpt>
      <trkpt lat="43.63019" lon="5.65113">
        <ele>274.20001220703</ele>
        <time>2013-03-16T08:32:53.000Z</time>
      </trkpt>
      <trkpt lat="43.63017" lon="5.65118">
        <ele>274.60000610352</ele>
        <time>2013-03-16T08:32:54.000Z</time>
      </trkpt>
      <trkpt lat="43.62994" lon="5.65182">
        <ele>277.79998779297</ele>
        <time>2013-03-16T08:33:07.000Z</time>
      </trkpt>
      <trkpt lat="43.62975" lon="5.65229">
        <ele>276.60000610352</ele>
        <time>2013-03-16T08:33:17.000Z</time>
      </trkpt>
      <trkpt lat="43.62947" lon="5.65286">
        <ele>274.79998779297</ele>
        <time>2013-03-16T08:33:29.000Z</time>
      </trkpt>
      <trkpt lat="43.62918" lon="5.65343">
        <ele>272</ele>
        <time>2013-03-16T08:33:41.000Z</time>
      </trkpt>
      <trkpt lat="43.62897" lon="5.65386">
        <ele>273.79998779297</ele>
        <time>2013-03-16T08:33:50.000Z</time>
      </trkpt>
      <trkpt lat="43.62895" lon="5.65391">
        <ele>273.79998779297</ele>
        <time>2013-03-16T08:33:51.000Z</time>
      </trkpt>
      <trkpt lat="43.62865" lon="5.65468">
        <ele>273.79998779297</ele>
        <time>2013-03-16T08:34:06.000Z</time>
      </trkpt>
      <trkpt lat="43.62846" lon="5.65536">
        <ele>274</ele>
        <time>2013-03-16T08:34:19.000Z</time>
      </trkpt>
      <trkpt lat="43.62826" lon="5.65612">
        <ele>275.39999389648</ele>
        <time>2013-03-16T08:34:33.000Z</time>
      </trkpt>
      <trkpt lat="43.62804" lon="5.65693">
        <ele>276.20001220703</ele>
        <time>2013-03-16T08:34:48.000Z</time>
      </trkpt>
      <trkpt lat="43.62785" lon="5.65761">
        <ele>276.79998779297</ele>
        <time>2013-03-16T08:35:01.000Z</time>
      </trkpt>
      <trkpt lat="43.62755" lon="5.65841">
        <ele>277.79998779297</ele>
        <time>2013-03-16T08:35:17.000Z</time>
      </trkpt>
      <trkpt lat="43.62728" lon="5.65911">
        <ele>278.39999389648</ele>
        <time>2013-03-16T08:35:31.000Z</time>
      </trkpt>
      <trkpt lat="43.62706" lon="5.65969">
        <ele>277.79998779297</ele>
        <time>2013-03-16T08:35:43.000Z</time>
      </trkpt>
      <trkpt lat="43.62679" lon="5.6604">
        <ele>276.79998779297</ele>
        <time>2013-03-16T08:35:58.000Z</time>
      </trkpt>
      <trkpt lat="43.6266" lon="5.66071">
        <ele>277.20001220703</ele>
        <time>2013-03-16T08:36:07.000Z</time>
      </trkpt>
      <trkpt lat="43.62658" lon="5.66075">
        <ele>277.20001220703</ele>
        <time>2013-03-16T08:36:08.000Z</time>
      </trkpt>
      <trkpt lat="43.62656" lon="5.66078">
        <ele>277.39999389648</ele>
        <time>2013-03-16T08:36:09.000Z</time>
      </trkpt>
      <trkpt lat="43.62655" lon="5.66082">
        <ele>277.60000610352</ele>
        <time>2013-03-16T08:36:10.000Z</time>
      </trkpt>
      <trkpt lat="43.62653" lon="5.66086">
        <ele>277.79998779297</ele>
        <time>2013-03-16T08:36:11.000Z</time>
      </trkpt>
      <trkpt lat="43.62652" lon="5.6609">
        <ele>277.79998779297</ele>
        <time>2013-03-16T08:36:12.000Z</time>
      </trkpt>
      <trkpt lat="43.6265" lon="5.66093">
        <ele>278</ele>
        <time>2013-03-16T08:36:13.000Z</time>
      </trkpt>
      <trkpt lat="43.62648" lon="5.66096">
        <ele>278</ele>
        <time>2013-03-16T08:36:14.000Z</time>
      </trkpt>
      <trkpt lat="43.62646" lon="5.66099">
        <ele>278.20001220703</ele>
        <time>2013-03-16T08:36:15.000Z</time>
      </trkpt>
      <trkpt lat="43.62643" lon="5.66101">
        <ele>278.39999389648</ele>
        <time>2013-03-16T08:36:16.000Z</time>
      </trkpt>
      <trkpt lat="43.6264" lon="5.66102">
        <ele>278.60000610352</ele>
        <time>2013-03-16T08:36:17.000Z</time>
      </trkpt>
      <trkpt lat="43.62637" lon="5.66102">
        <ele>278.79998779297</ele>
        <time>2013-03-16T08:36:18.000Z</time>
      </trkpt>
      <trkpt lat="43.62634" lon="5.66102">
        <ele>279</ele>
        <time>2013-03-16T08:36:19.000Z</time>
      </trkpt>
      <trkpt lat="43.62631" lon="5.66101">
        <ele>279.20001220703</ele>
        <time>2013-03-16T08:36:20.000Z</time>
      </trkpt>
      <trkpt lat="43.62627" lon="5.661">
        <ele>279.39999389648</ele>
        <time>2013-03-16T08:36:21.000Z</time>
      </trkpt>
      <trkpt lat="43.626" lon="5.66079">
        <ele>280.79998779297</ele>
        <time>2013-03-16T08:36:31.000Z</time>
      </trkpt>
      <trkpt lat="43.62571" lon="5.66063">
        <ele>281.79998779297</ele>
        <time>2013-03-16T08:36:40.000Z</time>
      </trkpt>
      <trkpt lat="43.62558" lon="5.66063">
        <ele>282.79998779297</ele>
        <time>2013-03-16T08:36:43.000Z</time>
      </trkpt>
      <trkpt lat="43.62553" lon="5.66061">
        <ele>283</ele>
        <time>2013-03-16T08:36:44.000Z</time>
      </trkpt>
      <trkpt lat="43.62549" lon="5.66058">
        <ele>283.20001220703</ele>
        <time>2013-03-16T08:36:45.000Z</time>
      </trkpt>
      <trkpt lat="43.62535" lon="5.66048">
        <ele>283.60000610352</ele>
        <time>2013-03-16T08:36:48.000Z</time>
      </trkpt>
      <trkpt lat="43.62532" lon="5.66044">
        <ele>283.39999389648</ele>
        <time>2013-03-16T08:36:49.000Z</time>
      </trkpt>
      <trkpt lat="43.62529" lon="5.66039">
        <ele>283.20001220703</ele>
        <time>2013-03-16T08:36:50.000Z</time>
      </trkpt>
      <trkpt lat="43.62526" lon="5.66034">
        <ele>283.20001220703</ele>
        <time>2013-03-16T08:36:51.000Z</time>
      </trkpt>
      <trkpt lat="43.62523" lon="5.66031">
        <ele>283</ele>
        <time>2013-03-16T08:36:52.000Z</time>
      </trkpt>
      <trkpt lat="43.6252" lon="5.66027">
        <ele>283</ele>
        <time>2013-03-16T08:36:53.000Z</time>
      </trkpt>
      <trkpt lat="43.62498" lon="5.66001">
        <ele>282.20001220703</ele>
        <time>2013-03-16T08:37:01.000Z</time>
      </trkpt>
      <trkpt lat="43.62494" lon="5.66">
        <ele>282.39999389648</ele>
        <time>2013-03-16T08:37:02.000Z</time>
      </trkpt>
      <trkpt lat="43.62481" lon="5.65997">
        <ele>283.39999389648</ele>
        <time>2013-03-16T08:37:05.000Z</time>
      </trkpt>
      <trkpt lat="43.62447" lon="5.65995">
        <ele>286</ele>
        <time>2013-03-16T08:37:13.000Z</time>
      </trkpt>
      <trkpt lat="43.62443" lon="5.65994">
        <ele>286.20001220703</ele>
        <time>2013-03-16T08:37:14.000Z</time>
      </trkpt>
      <trkpt lat="43.62395" lon="5.65982">
        <ele>287.20001220703</ele>
        <time>2013-03-16T08:37:26.000Z</time>
      </trkpt>
      <trkpt lat="43.62351" lon="5.65982">
        <ele>287.60000610352</ele>
        <time>2013-03-16T08:37:38.000Z</time>
      </trkpt>
      <trkpt lat="43.62302" lon="5.65996">
        <ele>288.39999389648</ele>
        <time>2013-03-16T08:37:52.000Z</time>
      </trkpt>
      <trkpt lat="43.62252" lon="5.66022">
        <ele>291</ele>
        <time>2013-03-16T08:38:07.000Z</time>
      </trkpt>
      <trkpt lat="43.62215" lon="5.66052">
        <ele>294.60000610352</ele>
        <time>2013-03-16T08:38:19.000Z</time>
      </trkpt>
      <trkpt lat="43.6218" lon="5.6608">
        <ele>294.79998779297</ele>
        <time>2013-03-16T08:38:31.000Z</time>
      </trkpt>
      <trkpt lat="43.62139" lon="5.66099">
        <ele>296</ele>
        <time>2013-03-16T08:38:44.000Z</time>
      </trkpt>
      <trkpt lat="43.62102" lon="5.66109">
        <ele>296.60000610352</ele>
        <time>2013-03-16T08:38:55.000Z</time>
      </trkpt>
      <trkpt lat="43.62075" lon="5.66132">
        <ele>296</ele>
        <time>2013-03-16T08:39:04.000Z</time>
      </trkpt>
      <trkpt lat="43.62072" lon="5.66132">
        <ele>295.79998779297</ele>
        <time>2013-03-16T08:39:05.000Z</time>
      </trkpt>
      <trkpt lat="43.62069" lon="5.6613">
        <ele>295.60000610352</ele>
        <time>2013-03-16T08:39:06.000Z</time>
      </trkpt>
      <trkpt lat="43.62066" lon="5.66129">
        <ele>295.60000610352</ele>
        <time>2013-03-16T08:39:07.000Z</time>
      </trkpt>
      <trkpt lat="43.62063" lon="5.66127">
        <ele>295.39999389648</ele>
        <time>2013-03-16T08:39:08.000Z</time>
      </trkpt>
      <trkpt lat="43.62039" lon="5.66134">
        <ele>294.20001220703</ele>
        <time>2013-03-16T08:39:15.000Z</time>
      </trkpt>
      <trkpt lat="43.62026" lon="5.66167">
        <ele>291.79998779297</ele>
        <time>2013-03-16T08:39:23.000Z</time>
      </trkpt>
      <trkpt lat="43.62" lon="5.66234">
        <ele>290.79998779297</ele>
        <time>2013-03-16T08:39:35.000Z</time>
      </trkpt>
      <trkpt lat="43.6199" lon="5.66295">
        <ele>290.39999389648</ele>
        <time>2013-03-16T08:39:45.000Z</time>
      </trkpt>
      <trkpt lat="43.61989" lon="5.66299">
        <ele>290.39999389648</ele>
        <time>2013-03-16T08:39:46.000Z</time>
      </trkpt>
      <trkpt lat="43.61986" lon="5.66302">
        <ele>290.20001220703</ele>
        <time>2013-03-16T08:39:47.000Z</time>
      </trkpt>
      <trkpt lat="43.61984" lon="5.66303">
        <ele>290.20001220703</ele>
        <time>2013-03-16T08:39:48.000Z</time>
      </trkpt>
      <trkpt lat="43.6198" lon="5.66303">
        <ele>290</ele>
        <time>2013-03-16T08:39:49.000Z</time>
      </trkpt>
      <trkpt lat="43.61977" lon="5.66302">
        <ele>289.79998779297</ele>
        <time>2013-03-16T08:39:50.000Z</time>
      </trkpt>
      <trkpt lat="43.61974" lon="5.663">
        <ele>289.79998779297</ele>
        <time>2013-03-16T08:39:51.000Z</time>
      </trkpt>
      <trkpt lat="43.61933" lon="5.66282">
        <ele>287.39999389648</ele>
        <time>2013-03-16T08:40:03.000Z</time>
      </trkpt>
      <trkpt lat="43.61897" lon="5.66298">
        <ele>288</ele>
        <time>2013-03-16T08:40:13.000Z</time>
      </trkpt>
      <trkpt lat="43.61859" lon="5.66315">
        <ele>290.79998779297</ele>
        <time>2013-03-16T08:40:24.000Z</time>
      </trkpt>
      <trkpt lat="43.61826" lon="5.66323">
        <ele>294.20001220703</ele>
        <time>2013-03-16T08:40:34.000Z</time>
      </trkpt>
      <trkpt lat="43.61806" lon="5.66301">
        <ele>295.79998779297</ele>
        <time>2013-03-16T08:40:41.000Z</time>
      </trkpt>
      <trkpt lat="43.61781" lon="5.6626">
        <ele>297</ele>
        <time>2013-03-16T08:40:51.000Z</time>
      </trkpt>
      <trkpt lat="43.61753" lon="5.66221">
        <ele>299.39999389648</ele>
        <time>2013-03-16T08:41:02.000Z</time>
      </trkpt>
      <trkpt lat="43.61731" lon="5.66221">
        <ele>299.20001220703</ele>
        <time>2013-03-16T08:41:09.000Z</time>
      </trkpt>
      <trkpt lat="43.6171" lon="5.6624">
        <ele>299.20001220703</ele>
        <time>2013-03-16T08:41:17.000Z</time>
      </trkpt>
      <trkpt lat="43.6169" lon="5.66276">
        <ele>300.20001220703</ele>
        <time>2013-03-16T08:41:27.000Z</time>
      </trkpt>
      <trkpt lat="43.61663" lon="5.66324">
        <ele>302.20001220703</ele>
        <time>2013-03-16T08:41:40.000Z</time>
      </trkpt>
      <trkpt lat="43.6164" lon="5.66332">
        <ele>302.20001220703</ele>
        <time>2013-03-16T08:41:48.000Z</time>
      </trkpt>
      <trkpt lat="43.6162" lon="5.66354">
        <ele>302.60000610352</ele>
        <time>2013-03-16T08:41:57.000Z</time>
      </trkpt>
      <trkpt lat="43.61595" lon="5.66362">
        <ele>302.60000610352</ele>
        <time>2013-03-16T08:42:04.000Z</time>
      </trkpt>
      <trkpt lat="43.6159" lon="5.66361">
        <ele>302.39999389648</ele>
        <time>2013-03-16T08:42:05.000Z</time>
      </trkpt>
      <trkpt lat="43.61584" lon="5.66359">
        <ele>302.20001220703</ele>
        <time>2013-03-16T08:42:06.000Z</time>
      </trkpt>
      <trkpt lat="43.61578" lon="5.66357">
        <ele>301.79998779297</ele>
        <time>2013-03-16T08:42:07.000Z</time>
      </trkpt>
      <trkpt lat="43.61572" lon="5.66354">
        <ele>301.39999389648</ele>
        <time>2013-03-16T08:42:08.000Z</time>
      </trkpt>
      <trkpt lat="43.61513" lon="5.6632">
        <ele>298.39999389648</ele>
        <time>2013-03-16T08:42:20.000Z</time>
      </trkpt>
      <trkpt lat="43.61509" lon="5.66317">
        <ele>298.20001220703</ele>
        <time>2013-03-16T08:42:21.000Z</time>
      </trkpt>
      <trkpt lat="43.61481" lon="5.66301">
        <ele>298.39999389648</ele>
        <time>2013-03-16T08:42:28.000Z</time>
      </trkpt>
      <trkpt lat="43.61477" lon="5.663">
        <ele>298.39999389648</ele>
        <time>2013-03-16T08:42:29.000Z</time>
      </trkpt>
      <trkpt lat="43.61473" lon="5.66301">
        <ele>298.39999389648</ele>
        <time>2013-03-16T08:42:30.000Z</time>
      </trkpt>
      <trkpt lat="43.61469" lon="5.66304">
        <ele>298.39999389648</ele>
        <time>2013-03-16T08:42:31.000Z</time>
      </trkpt>
      <trkpt lat="43.61466" lon="5.66307">
        <ele>298.39999389648</ele>
        <time>2013-03-16T08:42:32.000Z</time>
      </trkpt>
      <trkpt lat="43.61428" lon="5.66348">
        <ele>299.20001220703</ele>
        <time>2013-03-16T08:42:44.000Z</time>
      </trkpt>
      <trkpt lat="43.61392" lon="5.66391">
        <ele>301.79998779297</ele>
        <time>2013-03-16T08:42:57.000Z</time>
      </trkpt>
      <trkpt lat="43.61371" lon="5.66408">
        <ele>303.79998779297</ele>
        <time>2013-03-16T08:43:04.000Z</time>
      </trkpt>
      <trkpt lat="43.61343" lon="5.66436">
        <ele>307.20001220703</ele>
        <time>2013-03-16T08:43:14.000Z</time>
      </trkpt>
      <trkpt lat="43.61312" lon="5.66477">
        <ele>310</ele>
        <time>2013-03-16T08:43:26.000Z</time>
      </trkpt>
      <trkpt lat="43.61291" lon="5.66515">
        <ele>312.20001220703</ele>
        <time>2013-03-16T08:43:36.000Z</time>
      </trkpt>
      <trkpt lat="43.6127" lon="5.66563">
        <ele>313.39999389648</ele>
        <time>2013-03-16T08:43:48.000Z</time>
      </trkpt>
      <trkpt lat="43.61251" lon="5.66596">
        <ele>314</ele>
        <time>2013-03-16T08:43:58.000Z</time>
      </trkpt>
      <trkpt lat="43.61224" lon="5.66602">
        <ele>317.20001220703</ele>
        <time>2013-03-16T08:44:07.000Z</time>
      </trkpt>
      <trkpt lat="43.61197" lon="5.66591">
        <ele>320.39999389648</ele>
        <time>2013-03-16T08:44:17.000Z</time>
      </trkpt>
      <trkpt lat="43.61194" lon="5.66591">
        <ele>320.79998779297</ele>
        <time>2013-03-16T08:44:18.000Z</time>
      </trkpt>
      <trkpt lat="43.61175" lon="5.66588">
        <ele>323</ele>
        <time>2013-03-16T08:44:26.000Z</time>
      </trkpt>
      <trkpt lat="43.61173" lon="5.66589">
        <ele>323.20001220703</ele>
        <time>2013-03-16T08:44:27.000Z</time>
      </trkpt>
      <trkpt lat="43.61172" lon="5.66591">
        <ele>323.39999389648</ele>
        <time>2013-03-16T08:44:28.000Z</time>
      </trkpt>
      <trkpt lat="43.61171" lon="5.66593">
        <ele>323.60000610352</ele>
        <time>2013-03-16T08:44:29.000Z</time>
      </trkpt>
      <trkpt lat="43.6117" lon="5.66596">
        <ele>323.79998779297</ele>
        <time>2013-03-16T08:44:30.000Z</time>
      </trkpt>
      <trkpt lat="43.6117" lon="5.66598">
        <ele>323.79998779297</ele>
        <time>2013-03-16T08:44:31.000Z</time>
      </trkpt>
      <trkpt lat="43.61171" lon="5.666">
        <ele>323.79998779297</ele>
        <time>2013-03-16T08:44:32.000Z</time>
      </trkpt>
      <trkpt lat="43.6118" lon="5.66617">
        <ele>323</ele>
        <time>2013-03-16T08:44:43.000Z</time>
      </trkpt>
      <trkpt lat="43.61187" lon="5.6664">
        <ele>322.60000610352</ele>
        <time>2013-03-16T08:44:55.000Z</time>
      </trkpt>
      <trkpt lat="43.61187" lon="5.66644">
        <ele>322.79998779297</ele>
        <time>2013-03-16T08:45:06.000Z</time>
      </trkpt>
      <trkpt lat="43.61187" lon="5.66644">
        <ele>322.79998779297</ele>
        <time>2013-03-16T08:45:22.000Z</time>
      </trkpt>
      <trkpt lat="43.61188" lon="5.66643">
        <ele>322.60000610352</ele>
        <time>2013-03-16T08:45:49.000Z</time>
      </trkpt>
      <trkpt lat="43.61188" lon="5.66645">
        <ele>322.60000610352</ele>
        <time>2013-03-16T08:46:16.000Z</time>
      </trkpt>
      <trkpt lat="43.61186" lon="5.66644">
        <ele>322.79998779297</ele>
        <time>2013-03-16T08:46:41.000Z</time>
      </trkpt>
      <trkpt lat="43.61186" lon="5.66642">
        <ele>322.79998779297</ele>
        <time>2013-03-16T08:47:00.000Z</time>
      </trkpt>
      <trkpt lat="43.61186" lon="5.66641">
        <ele>322.79998779297</ele>
        <time>2013-03-16T08:47:26.000Z</time>
      </trkpt>
      <trkpt lat="43.61184" lon="5.66644">
        <ele>323.20001220703</ele>
        <time>2013-03-16T08:47:45.000Z</time>
      </trkpt>
      <trkpt lat="43.61184" lon="5.66646">
        <ele>323.20001220703</ele>
        <time>2013-03-16T08:47:49.000Z</time>
      </trkpt>
      <trkpt lat="43.61185" lon="5.6666">
        <ele>323.39999389648</ele>
        <time>2013-03-16T08:47:56.000Z</time>
      </trkpt>
      <trkpt lat="43.61177" lon="5.66696">
        <ele>324</ele>
        <time>2013-03-16T08:48:05.000Z</time>
      </trkpt>
      <trkpt lat="43.61164" lon="5.66748">
        <ele>324.20001220703</ele>
        <time>2013-03-16T08:48:16.000Z</time>
      </trkpt>
      <trkpt lat="43.61146" lon="5.66796">
        <ele>328.20001220703</ele>
        <time>2013-03-16T08:48:28.000Z</time>
      </trkpt>
      <trkpt lat="43.61131" lon="5.66837">
        <ele>331.20001220703</ele>
        <time>2013-03-16T08:48:39.000Z</time>
      </trkpt>
      <trkpt lat="43.61116" lon="5.66885">
        <ele>332.20001220703</ele>
        <time>2013-03-16T08:48:50.000Z</time>
      </trkpt>
      <trkpt lat="43.61105" lon="5.66938">
        <ele>332.39999389648</ele>
        <time>2013-03-16T08:49:01.000Z</time>
      </trkpt>
      <trkpt lat="43.61099" lon="5.6699">
        <ele>332.79998779297</ele>
        <time>2013-03-16T08:49:12.000Z</time>
      </trkpt>
      <trkpt lat="43.61078" lon="5.67049">
        <ele>333.20001220703</ele>
        <time>2013-03-16T08:49:26.000Z</time>
      </trkpt>
      <trkpt lat="43.61078" lon="5.6709">
        <ele>333</ele>
        <time>2013-03-16T08:49:34.000Z</time>
      </trkpt>
      <trkpt lat="43.61079" lon="5.67096">
        <ele>333</ele>
        <time>2013-03-16T08:49:35.000Z</time>
      </trkpt>
      <trkpt lat="43.61078" lon="5.67102">
        <ele>332.79998779297</ele>
        <time>2013-03-16T08:49:36.000Z</time>
      </trkpt>
      <trkpt lat="43.61077" lon="5.67108">
        <ele>332.79998779297</ele>
        <time>2013-03-16T08:49:37.000Z</time>
      </trkpt>
      <trkpt lat="43.61075" lon="5.67113">
        <ele>332.79998779297</ele>
        <time>2013-03-16T08:49:38.000Z</time>
      </trkpt>
      <trkpt lat="43.61072" lon="5.67118">
        <ele>332.79998779297</ele>
        <time>2013-03-16T08:49:39.000Z</time>
      </trkpt>
      <trkpt lat="43.61034" lon="5.6719">
        <ele>333.39999389648</ele>
        <time>2013-03-16T08:49:54.000Z</time>
      </trkpt>
      <trkpt lat="43.61026" lon="5.6721">
        <ele>333.20001220703</ele>
        <time>2013-03-16T08:49:58.000Z</time>
      </trkpt>
      <trkpt lat="43.61023" lon="5.67215">
        <ele>333.20001220703</ele>
        <time>2013-03-16T08:49:59.000Z</time>
      </trkpt>
      <trkpt lat="43.6102" lon="5.67219">
        <ele>333</ele>
        <time>2013-03-16T08:50:00.000Z</time>
      </trkpt>
      <trkpt lat="43.61017" lon="5.67222">
        <ele>333</ele>
        <time>2013-03-16T08:50:01.000Z</time>
      </trkpt>
      <trkpt lat="43.61013" lon="5.67226">
        <ele>332.79998779297</ele>
        <time>2013-03-16T08:50:02.000Z</time>
      </trkpt>
      <trkpt lat="43.61009" lon="5.67228">
        <ele>332.79998779297</ele>
        <time>2013-03-16T08:50:03.000Z</time>
      </trkpt>
      <trkpt lat="43.61005" lon="5.6723">
        <ele>332.60000610352</ele>
        <time>2013-03-16T08:50:04.000Z</time>
      </trkpt>
      <trkpt lat="43.60975" lon="5.67249">
        <ele>332.20001220703</ele>
        <time>2013-03-16T08:50:12.000Z</time>
      </trkpt>
      <trkpt lat="43.60951" lon="5.67261">
        <ele>332</ele>
        <time>2013-03-16T08:50:18.000Z</time>
      </trkpt>
      <trkpt lat="43.60947" lon="5.67263">
        <ele>331.79998779297</ele>
        <time>2013-03-16T08:50:19.000Z</time>
      </trkpt>
      <trkpt lat="43.60888" lon="5.6729">
        <ele>332.60000610352</ele>
        <time>2013-03-16T08:50:32.000Z</time>
      </trkpt>
      <trkpt lat="43.60868" lon="5.67297">
        <ele>333.39999389648</ele>
        <time>2013-03-16T08:50:36.000Z</time>
      </trkpt>
      <trkpt lat="43.60863" lon="5.67296">
        <ele>333.79998779297</ele>
        <time>2013-03-16T08:50:37.000Z</time>
      </trkpt>
      <trkpt lat="43.60858" lon="5.67294">
        <ele>334.39999389648</ele>
        <time>2013-03-16T08:50:38.000Z</time>
      </trkpt>
      <trkpt lat="43.60851" lon="5.67291">
        <ele>335.20001220703</ele>
        <time>2013-03-16T08:50:40.000Z</time>
      </trkpt>
      <trkpt lat="43.60846" lon="5.6729">
        <ele>335.60000610352</ele>
        <time>2013-03-16T08:50:41.000Z</time>
      </trkpt>
      <trkpt lat="43.60841" lon="5.6729">
        <ele>336</ele>
        <time>2013-03-16T08:50:42.000Z</time>
      </trkpt>
      <trkpt lat="43.60805" lon="5.67296">
        <ele>338.20001220703</ele>
        <time>2013-03-16T08:50:51.000Z</time>
      </trkpt>
      <trkpt lat="43.60766" lon="5.67328">
        <ele>338.20001220703</ele>
        <time>2013-03-16T08:51:03.000Z</time>
      </trkpt>
      <trkpt lat="43.60723" lon="5.67355">
        <ele>338.60000610352</ele>
        <time>2013-03-16T08:51:15.000Z</time>
      </trkpt>
      <trkpt lat="43.60691" lon="5.6735">
        <ele>339.20001220703</ele>
        <time>2013-03-16T08:51:24.000Z</time>
      </trkpt>
      <trkpt lat="43.60661" lon="5.67341">
        <ele>339.60000610352</ele>
        <time>2013-03-16T08:51:33.000Z</time>
      </trkpt>
      <trkpt lat="43.60624" lon="5.6736">
        <ele>339.60000610352</ele>
        <time>2013-03-16T08:51:42.000Z</time>
      </trkpt>
      <trkpt lat="43.60604" lon="5.67375">
        <ele>340</ele>
        <time>2013-03-16T08:51:47.000Z</time>
      </trkpt>
      <trkpt lat="43.60576" lon="5.67403">
        <ele>341.60000610352</ele>
        <time>2013-03-16T08:51:56.000Z</time>
      </trkpt>
      <trkpt lat="43.60566" lon="5.67424">
        <ele>342.60000610352</ele>
        <time>2013-03-16T08:52:01.000Z</time>
      </trkpt>
      <trkpt lat="43.6055" lon="5.67443">
        <ele>343.79998779297</ele>
        <time>2013-03-16T08:52:07.000Z</time>
      </trkpt>
      <trkpt lat="43.60515" lon="5.67477">
        <ele>345.79998779297</ele>
        <time>2013-03-16T08:52:19.000Z</time>
      </trkpt>
      <trkpt lat="43.60499" lon="5.67496">
        <ele>346.79998779297</ele>
        <time>2013-03-16T08:52:25.000Z</time>
      </trkpt>
      <trkpt lat="43.60496" lon="5.67498">
        <ele>347</ele>
        <time>2013-03-16T08:52:26.000Z</time>
      </trkpt>
      <trkpt lat="43.60491" lon="5.67506">
        <ele>347.20001220703</ele>
        <time>2013-03-16T08:52:29.000Z</time>
      </trkpt>
      <trkpt lat="43.60484" lon="5.6754">
        <ele>348</ele>
        <time>2013-03-16T08:52:39.000Z</time>
      </trkpt>
      <trkpt lat="43.60485" lon="5.67556">
        <ele>348.20001220703</ele>
        <time>2013-03-16T08:52:48.000Z</time>
      </trkpt>
      <trkpt lat="43.60492" lon="5.67575">
        <ele>348.20001220703</ele>
        <time>2013-03-16T08:53:01.000Z</time>
      </trkpt>
      <trkpt lat="43.60502" lon="5.67593">
        <ele>348.20001220703</ele>
        <time>2013-03-16T08:53:12.000Z</time>
      </trkpt>
      <trkpt lat="43.60515" lon="5.67614">
        <ele>348.60000610352</ele>
        <time>2013-03-16T08:53:23.000Z</time>
      </trkpt>
      <trkpt lat="43.60535" lon="5.67646">
        <ele>349.39999389648</ele>
        <time>2013-03-16T08:53:33.000Z</time>
      </trkpt>
      <trkpt lat="43.60559" lon="5.67684">
        <ele>349.79998779297</ele>
        <time>2013-03-16T08:53:43.000Z</time>
      </trkpt>
      <trkpt lat="43.60596" lon="5.67743">
        <ele>348.20001220703</ele>
        <time>2013-03-16T08:53:54.000Z</time>
      </trkpt>
      <trkpt lat="43.6061" lon="5.67766">
        <ele>348.60000610352</ele>
        <time>2013-03-16T08:53:58.000Z</time>
      </trkpt>
      <trkpt lat="43.60614" lon="5.67771">
        <ele>348.60000610352</ele>
        <time>2013-03-16T08:53:59.000Z</time>
      </trkpt>
      <trkpt lat="43.60618" lon="5.67775">
        <ele>348.79998779297</ele>
        <time>2013-03-16T08:54:00.000Z</time>
      </trkpt>
      <trkpt lat="43.60623" lon="5.67779">
        <ele>349</ele>
        <time>2013-03-16T08:54:01.000Z</time>
      </trkpt>
      <trkpt lat="43.60628" lon="5.67782">
        <ele>349</ele>
        <time>2013-03-16T08:54:02.000Z</time>
      </trkpt>
      <trkpt lat="43.60633" lon="5.67784">
        <ele>349</ele>
        <time>2013-03-16T08:54:03.000Z</time>
      </trkpt>
      <trkpt lat="43.60638" lon="5.67785">
        <ele>349.20001220703</ele>
        <time>2013-03-16T08:54:04.000Z</time>
      </trkpt>
      <trkpt lat="43.60643" lon="5.67787">
        <ele>349.20001220703</ele>
        <time>2013-03-16T08:54:05.000Z</time>
      </trkpt>
      <trkpt lat="43.60648" lon="5.6779">
        <ele>349.20001220703</ele>
        <time>2013-03-16T08:54:06.000Z</time>
      </trkpt>
      <trkpt lat="43.60652" lon="5.67793">
        <ele>349.39999389648</ele>
        <time>2013-03-16T08:54:07.000Z</time>
      </trkpt>
      <trkpt lat="43.60656" lon="5.67798">
        <ele>349.39999389648</ele>
        <time>2013-03-16T08:54:08.000Z</time>
      </trkpt>
      <trkpt lat="43.60659" lon="5.67803">
        <ele>349.60000610352</ele>
        <time>2013-03-16T08:54:09.000Z</time>
      </trkpt>
      <trkpt lat="43.60662" lon="5.67808">
        <ele>349.60000610352</ele>
        <time>2013-03-16T08:54:10.000Z</time>
      </trkpt>
      <trkpt lat="43.60672" lon="5.6783">
        <ele>349.79998779297</ele>
        <time>2013-03-16T08:54:14.000Z</time>
      </trkpt>
      <trkpt lat="43.6069" lon="5.67862">
        <ele>349.60000610352</ele>
        <time>2013-03-16T08:54:20.000Z</time>
      </trkpt>
      <trkpt lat="43.60729" lon="5.67927">
        <ele>349</ele>
        <time>2013-03-16T08:54:32.000Z</time>
      </trkpt>
      <trkpt lat="43.60753" lon="5.67965">
        <ele>347.60000610352</ele>
        <time>2013-03-16T08:54:39.000Z</time>
      </trkpt>
      <trkpt lat="43.60757" lon="5.67971">
        <ele>347.39999389648</ele>
        <time>2013-03-16T08:54:40.000Z</time>
      </trkpt>
      <trkpt lat="43.6076" lon="5.67976">
        <ele>347.39999389648</ele>
        <time>2013-03-16T08:54:41.000Z</time>
      </trkpt>
      <trkpt lat="43.60763" lon="5.67981">
        <ele>347.20001220703</ele>
        <time>2013-03-16T08:54:42.000Z</time>
      </trkpt>
      <trkpt lat="43.60767" lon="5.67986">
        <ele>347</ele>
        <time>2013-03-16T08:54:43.000Z</time>
      </trkpt>
      <trkpt lat="43.60771" lon="5.6799">
        <ele>346.79998779297</ele>
        <time>2013-03-16T08:54:44.000Z</time>
      </trkpt>
      <trkpt lat="43.60775" lon="5.67994">
        <ele>346.39999389648</ele>
        <time>2013-03-16T08:54:45.000Z</time>
      </trkpt>
      <trkpt lat="43.60779" lon="5.67997">
        <ele>346.20001220703</ele>
        <time>2013-03-16T08:54:46.000Z</time>
      </trkpt>
      <trkpt lat="43.60783" lon="5.68">
        <ele>346</ele>
        <time>2013-03-16T08:54:47.000Z</time>
      </trkpt>
      <trkpt lat="43.60787" lon="5.68002">
        <ele>346</ele>
        <time>2013-03-16T08:54:48.000Z</time>
      </trkpt>
      <trkpt lat="43.6079" lon="5.68003">
        <ele>346</ele>
        <time>2013-03-16T08:54:49.000Z</time>
      </trkpt>
      <trkpt lat="43.60793" lon="5.68004">
        <ele>345.79998779297</ele>
        <time>2013-03-16T08:54:50.000Z</time>
      </trkpt>
      <trkpt lat="43.60795" lon="5.68005">
        <ele>345.79998779297</ele>
        <time>2013-03-16T08:54:51.000Z</time>
      </trkpt>
      <trkpt lat="43.60797" lon="5.68007">
        <ele>345.79998779297</ele>
        <time>2013-03-16T08:54:52.000Z</time>
      </trkpt>
      <trkpt lat="43.60798" lon="5.68009">
        <ele>345.60000610352</ele>
        <time>2013-03-16T08:54:53.000Z</time>
      </trkpt>
      <trkpt lat="43.60791" lon="5.68024">
        <ele>345.79998779297</ele>
        <time>2013-03-16T08:54:59.000Z</time>
      </trkpt>
      <trkpt lat="43.60797" lon="5.68025">
        <ele>345.60000610352</ele>
        <time>2013-03-16T08:55:03.000Z</time>
      </trkpt>
      <trkpt lat="43.608" lon="5.68023">
        <ele>345.60000610352</ele>
        <time>2013-03-16T08:55:06.000Z</time>
      </trkpt>
      <trkpt lat="43.60803" lon="5.68023">
        <ele>345.39999389648</ele>
        <time>2013-03-16T08:55:13.000Z</time>
      </trkpt>
      <trkpt lat="43.60805" lon="5.68024">
        <ele>345.39999389648</ele>
        <time>2013-03-16T08:55:15.000Z</time>
      </trkpt>
      <trkpt lat="43.60808" lon="5.68026">
        <ele>345.20001220703</ele>
        <time>2013-03-16T08:55:19.000Z</time>
      </trkpt>
      <trkpt lat="43.60809" lon="5.68028">
        <ele>345.20001220703</ele>
        <time>2013-03-16T08:55:20.000Z</time>
      </trkpt>
      <trkpt lat="43.6081" lon="5.6803">
        <ele>345.20001220703</ele>
        <time>2013-03-16T08:55:21.000Z</time>
      </trkpt>
      <trkpt lat="43.60811" lon="5.68033">
        <ele>345.20001220703</ele>
        <time>2013-03-16T08:55:22.000Z</time>
      </trkpt>
      <trkpt lat="43.60813" lon="5.68037">
        <ele>345</ele>
        <time>2013-03-16T08:55:30.000Z</time>
      </trkpt>
      <trkpt lat="43.60814" lon="5.68038">
        <ele>345</ele>
        <time>2013-03-16T08:55:31.000Z</time>
      </trkpt>
      <trkpt lat="43.60814" lon="5.6804">
        <ele>345</ele>
        <time>2013-03-16T08:55:32.000Z</time>
      </trkpt>
      <trkpt lat="43.60814" lon="5.68042">
        <ele>345</ele>
        <time>2013-03-16T08:55:33.000Z</time>
      </trkpt>
      <trkpt lat="43.60813" lon="5.68046">
        <ele>345</ele>
        <time>2013-03-16T08:55:34.000Z</time>
      </trkpt>
      <trkpt lat="43.60813" lon="5.68049">
        <ele>345</ele>
        <time>2013-03-16T08:55:35.000Z</time>
      </trkpt>
      <trkpt lat="43.60814" lon="5.68084">
        <ele>344.60000610352</ele>
        <time>2013-03-16T08:55:42.000Z</time>
      </trkpt>
      <trkpt lat="43.60819" lon="5.68104">
        <ele>344.60000610352</ele>
        <time>2013-03-16T08:55:45.000Z</time>
      </trkpt>
      <trkpt lat="43.6084" lon="5.68191">
        <ele>343.39999389648</ele>
        <time>2013-03-16T08:55:57.000Z</time>
      </trkpt>
      <trkpt lat="43.60853" lon="5.68236">
        <ele>342.60000610352</ele>
        <time>2013-03-16T08:56:03.000Z</time>
      </trkpt>
      <trkpt lat="43.60856" lon="5.68244">
        <ele>342.39999389648</ele>
        <time>2013-03-16T08:56:04.000Z</time>
      </trkpt>
      <trkpt lat="43.60859" lon="5.68251">
        <ele>342</ele>
        <time>2013-03-16T08:56:05.000Z</time>
      </trkpt>
      <trkpt lat="43.60897" lon="5.68327">
        <ele>338.20001220703</ele>
        <time>2013-03-16T08:56:16.000Z</time>
      </trkpt>
      <trkpt lat="43.60934" lon="5.68414">
        <ele>336</ele>
        <time>2013-03-16T08:56:28.000Z</time>
      </trkpt>
      <trkpt lat="43.60976" lon="5.68483">
        <ele>334.79998779297</ele>
        <time>2013-03-16T08:56:39.000Z</time>
      </trkpt>
      <trkpt lat="43.61023" lon="5.68547">
        <ele>335.60000610352</ele>
        <time>2013-03-16T08:56:50.000Z</time>
      </trkpt>
      <trkpt lat="43.6104" lon="5.6857">
        <ele>336.39999389648</ele>
        <time>2013-03-16T08:56:54.000Z</time>
      </trkpt>
      <trkpt lat="43.61044" lon="5.68577">
        <ele>336.60000610352</ele>
        <time>2013-03-16T08:56:55.000Z</time>
      </trkpt>
      <trkpt lat="43.61087" lon="5.68649">
        <ele>336.79998779297</ele>
        <time>2013-03-16T08:57:06.000Z</time>
      </trkpt>
      <trkpt lat="43.61119" lon="5.68742">
        <ele>335.39999389648</ele>
        <time>2013-03-16T08:57:18.000Z</time>
      </trkpt>
      <trkpt lat="43.61123" lon="5.68773">
        <ele>334</ele>
        <time>2013-03-16T08:57:22.000Z</time>
      </trkpt>
      <trkpt lat="43.6113" lon="5.68854">
        <ele>331</ele>
        <time>2013-03-16T08:57:32.000Z</time>
      </trkpt>
      <trkpt lat="43.6113" lon="5.68863">
        <ele>331</ele>
        <time>2013-03-16T08:57:33.000Z</time>
      </trkpt>
      <trkpt lat="43.61129" lon="5.68871">
        <ele>331.20001220703</ele>
        <time>2013-03-16T08:57:34.000Z</time>
      </trkpt>
      <trkpt lat="43.61114" lon="5.68959">
        <ele>331</ele>
        <time>2013-03-16T08:57:44.000Z</time>
      </trkpt>
      <trkpt lat="43.61109" lon="5.69023">
        <ele>330.60000610352</ele>
        <time>2013-03-16T08:57:52.000Z</time>
      </trkpt>
      <trkpt lat="43.61109" lon="5.69031">
        <ele>330.79998779297</ele>
        <time>2013-03-16T08:57:53.000Z</time>
      </trkpt>
      <trkpt lat="43.61121" lon="5.69149">
        <ele>330.20001220703</ele>
        <time>2013-03-16T08:58:07.000Z</time>
      </trkpt>
      <trkpt lat="43.6113" lon="5.69255">
        <ele>326.20001220703</ele>
        <time>2013-03-16T08:58:19.000Z</time>
      </trkpt>
      <trkpt lat="43.61144" lon="5.69352">
        <ele>324.60000610352</ele>
        <time>2013-03-16T08:58:31.000Z</time>
      </trkpt>
      <trkpt lat="43.61168" lon="5.69446">
        <ele>325</ele>
        <time>2013-03-16T08:58:44.000Z</time>
      </trkpt>
      <trkpt lat="43.6117" lon="5.69453">
        <ele>325.20001220703</ele>
        <time>2013-03-16T08:58:45.000Z</time>
      </trkpt>
      <trkpt lat="43.61183" lon="5.69503">
        <ele>326</ele>
        <time>2013-03-16T08:58:52.000Z</time>
      </trkpt>
      <trkpt lat="43.61188" lon="5.69526">
        <ele>325.60000610352</ele>
        <time>2013-03-16T08:58:55.000Z</time>
      </trkpt>
      <trkpt lat="43.61189" lon="5.69534">
        <ele>325.39999389648</ele>
        <time>2013-03-16T08:58:56.000Z</time>
      </trkpt>
      <trkpt lat="43.61204" lon="5.69646">
        <ele>324.20001220703</ele>
        <time>2013-03-16T08:59:10.000Z</time>
      </trkpt>
      <trkpt lat="43.61192" lon="5.6973">
        <ele>322.39999389648</ele>
        <time>2013-03-16T08:59:19.000Z</time>
      </trkpt>
      <trkpt lat="43.61181" lon="5.69762">
        <ele>321.39999389648</ele>
        <time>2013-03-16T08:59:22.000Z</time>
      </trkpt>
      <trkpt lat="43.61168" lon="5.69804">
        <ele>319</ele>
        <time>2013-03-16T08:59:26.000Z</time>
      </trkpt>
      <trkpt lat="43.61166" lon="5.69814">
        <ele>318.20001220703</ele>
        <time>2013-03-16T08:59:27.000Z</time>
      </trkpt>
      <trkpt lat="43.61166" lon="5.69824">
        <ele>317.60000610352</ele>
        <time>2013-03-16T08:59:28.000Z</time>
      </trkpt>
      <trkpt lat="43.61165" lon="5.69833">
        <ele>316.79998779297</ele>
        <time>2013-03-16T08:59:29.000Z</time>
      </trkpt>
      <trkpt lat="43.61163" lon="5.69841">
        <ele>316.39999389648</ele>
        <time>2013-03-16T08:59:30.000Z</time>
      </trkpt>
      <trkpt lat="43.61159" lon="5.69848">
        <ele>316</ele>
        <time>2013-03-16T08:59:31.000Z</time>
      </trkpt>
      <trkpt lat="43.61155" lon="5.69855">
        <ele>315.60000610352</ele>
        <time>2013-03-16T08:59:32.000Z</time>
      </trkpt>
      <trkpt lat="43.61153" lon="5.69863">
        <ele>315.20001220703</ele>
        <time>2013-03-16T08:59:33.000Z</time>
      </trkpt>
      <trkpt lat="43.6115" lon="5.69871">
        <ele>314.79998779297</ele>
        <time>2013-03-16T08:59:34.000Z</time>
      </trkpt>
      <trkpt lat="43.61148" lon="5.69879">
        <ele>314.39999389648</ele>
        <time>2013-03-16T08:59:35.000Z</time>
      </trkpt>
      <trkpt lat="43.61147" lon="5.69888">
        <ele>314</ele>
        <time>2013-03-16T08:59:36.000Z</time>
      </trkpt>
      <trkpt lat="43.61146" lon="5.69897">
        <ele>313.60000610352</ele>
        <time>2013-03-16T08:59:37.000Z</time>
      </trkpt>
      <trkpt lat="43.61145" lon="5.69906">
        <ele>313.20001220703</ele>
        <time>2013-03-16T08:59:38.000Z</time>
      </trkpt>
      <trkpt lat="43.6115" lon="5.69996">
        <ele>312.39999389648</ele>
        <time>2013-03-16T08:59:49.000Z</time>
      </trkpt>
      <trkpt lat="43.61162" lon="5.70075">
        <ele>314.79998779297</ele>
        <time>2013-03-16T09:00:00.000Z</time>
      </trkpt>
      <trkpt lat="43.61175" lon="5.70119">
        <ele>316.79998779297</ele>
        <time>2013-03-16T09:00:07.000Z</time>
      </trkpt>
      <trkpt lat="43.6119" lon="5.70146">
        <ele>317.60000610352</ele>
        <time>2013-03-16T09:00:12.000Z</time>
      </trkpt>
      <trkpt lat="43.61193" lon="5.7015">
        <ele>317.79998779297</ele>
        <time>2013-03-16T09:00:13.000Z</time>
      </trkpt>
      <trkpt lat="43.61226" lon="5.70198">
        <ele>318.39999389648</ele>
        <time>2013-03-16T09:00:23.000Z</time>
      </trkpt>
      <trkpt lat="43.61228" lon="5.70204">
        <ele>318.39999389648</ele>
        <time>2013-03-16T09:00:24.000Z</time>
      </trkpt>
      <trkpt lat="43.6123" lon="5.7021">
        <ele>318.39999389648</ele>
        <time>2013-03-16T09:00:25.000Z</time>
      </trkpt>
      <trkpt lat="43.61232" lon="5.70217">
        <ele>318.60000610352</ele>
        <time>2013-03-16T09:00:26.000Z</time>
      </trkpt>
      <trkpt lat="43.61233" lon="5.70224">
        <ele>318.79998779297</ele>
        <time>2013-03-16T09:00:27.000Z</time>
      </trkpt>
      <trkpt lat="43.61234" lon="5.70231">
        <ele>319</ele>
        <time>2013-03-16T09:00:28.000Z</time>
      </trkpt>
      <trkpt lat="43.61234" lon="5.70238">
        <ele>319.20001220703</ele>
        <time>2013-03-16T09:00:29.000Z</time>
      </trkpt>
      <trkpt lat="43.61233" lon="5.70245">
        <ele>319.60000610352</ele>
        <time>2013-03-16T09:00:30.000Z</time>
      </trkpt>
      <trkpt lat="43.61231" lon="5.70259">
        <ele>320</ele>
        <time>2013-03-16T09:00:32.000Z</time>
      </trkpt>
      <trkpt lat="43.61212" lon="5.70328">
        <ele>322</ele>
        <time>2013-03-16T09:00:43.000Z</time>
      </trkpt>
      <trkpt lat="43.61198" lon="5.70423">
        <ele>324.20001220703</ele>
        <time>2013-03-16T09:00:57.000Z</time>
      </trkpt>
      <trkpt lat="43.61185" lon="5.70509">
        <ele>324.39999389648</ele>
        <time>2013-03-16T09:01:10.000Z</time>
      </trkpt>
      <trkpt lat="43.61177" lon="5.70602">
        <ele>323.20001220703</ele>
        <time>2013-03-16T09:01:24.000Z</time>
      </trkpt>
      <trkpt lat="43.61173" lon="5.70679">
        <ele>320.39999389648</ele>
        <time>2013-03-16T09:01:36.000Z</time>
      </trkpt>
      <trkpt lat="43.61165" lon="5.708">
        <ele>318.39999389648</ele>
        <time>2013-03-16T09:01:51.000Z</time>
      </trkpt>
      <trkpt lat="43.61156" lon="5.70922">
        <ele>319</ele>
        <time>2013-03-16T09:02:06.000Z</time>
      </trkpt>
      <trkpt lat="43.61147" lon="5.71036">
        <ele>316</ele>
        <time>2013-03-16T09:02:20.000Z</time>
      </trkpt>
      <trkpt lat="43.61137" lon="5.71167">
        <ele>315</ele>
        <time>2013-03-16T09:02:36.000Z</time>
      </trkpt>
      <trkpt lat="43.61135" lon="5.71289">
        <ele>315.20001220703</ele>
        <time>2013-03-16T09:02:51.000Z</time>
      </trkpt>
      <trkpt lat="43.61139" lon="5.71391">
        <ele>316.79998779297</ele>
        <time>2013-03-16T09:03:03.000Z</time>
      </trkpt>
      <trkpt lat="43.61144" lon="5.71513">
        <ele>320.39999389648</ele>
        <time>2013-03-16T09:03:18.000Z</time>
      </trkpt>
      <trkpt lat="43.6115" lon="5.71627">
        <ele>321.79998779297</ele>
        <time>2013-03-16T09:03:30.000Z</time>
      </trkpt>
      <trkpt lat="43.61155" lon="5.71712">
        <ele>322.20001220703</ele>
        <time>2013-03-16T09:03:40.000Z</time>
      </trkpt>
      <trkpt lat="43.61153" lon="5.71719">
        <ele>322.39999389648</ele>
        <time>2013-03-16T09:03:41.000Z</time>
      </trkpt>
      <trkpt lat="43.6115" lon="5.71724">
        <ele>322.39999389648</ele>
        <time>2013-03-16T09:03:42.000Z</time>
      </trkpt>
      <trkpt lat="43.61146" lon="5.71727">
        <ele>322.60000610352</ele>
        <time>2013-03-16T09:03:43.000Z</time>
      </trkpt>
      <trkpt lat="43.61142" lon="5.71728">
        <ele>322.60000610352</ele>
        <time>2013-03-16T09:03:44.000Z</time>
      </trkpt>
      <trkpt lat="43.61138" lon="5.71727">
        <ele>322.79998779297</ele>
        <time>2013-03-16T09:03:45.000Z</time>
      </trkpt>
      <trkpt lat="43.61112" lon="5.71725">
        <ele>323</ele>
        <time>2013-03-16T09:03:54.000Z</time>
      </trkpt>
      <trkpt lat="43.6109" lon="5.71722">
        <ele>323.20001220703</ele>
        <time>2013-03-16T09:04:04.000Z</time>
      </trkpt>
      <trkpt lat="43.6107" lon="5.71719">
        <ele>323.20001220703</ele>
        <time>2013-03-16T09:04:14.000Z</time>
      </trkpt>
      <trkpt lat="43.61045" lon="5.71716">
        <ele>323.39999389648</ele>
        <time>2013-03-16T09:04:26.000Z</time>
      </trkpt>
      <trkpt lat="43.61015" lon="5.71713">
        <ele>323.39999389648</ele>
        <time>2013-03-16T09:04:39.000Z</time>
      </trkpt>
      <trkpt lat="43.60988" lon="5.71703">
        <ele>323.79998779297</ele>
        <time>2013-03-16T09:04:51.000Z</time>
      </trkpt>
      <trkpt lat="43.60963" lon="5.71691">
        <ele>324.39999389648</ele>
        <time>2013-03-16T09:05:02.000Z</time>
      </trkpt>
      <trkpt lat="43.60934" lon="5.71677">
        <ele>325</ele>
        <time>2013-03-16T09:05:13.000Z</time>
      </trkpt>
      <trkpt lat="43.60901" lon="5.71663">
        <ele>324.79998779297</ele>
        <time>2013-03-16T09:05:23.000Z</time>
      </trkpt>
      <trkpt lat="43.60861" lon="5.71648">
        <ele>324.60000610352</ele>
        <time>2013-03-16T09:05:33.000Z</time>
      </trkpt>
      <trkpt lat="43.60857" lon="5.71647">
        <ele>324.60000610352</ele>
        <time>2013-03-16T09:05:34.000Z</time>
      </trkpt>
      <trkpt lat="43.60853" lon="5.71646">
        <ele>324.60000610352</ele>
        <time>2013-03-16T09:05:35.000Z</time>
      </trkpt>
      <trkpt lat="43.60813" lon="5.7164">
        <ele>324.39999389648</ele>
        <time>2013-03-16T09:05:45.000Z</time>
      </trkpt>
      <trkpt lat="43.60774" lon="5.71649">
        <ele>324.79998779297</ele>
        <time>2013-03-16T09:05:55.000Z</time>
      </trkpt>
      <trkpt lat="43.60762" lon="5.71653">
        <ele>325</ele>
        <time>2013-03-16T09:05:58.000Z</time>
      </trkpt>
      <trkpt lat="43.60716" lon="5.71672">
        <ele>325.79998779297</ele>
        <time>2013-03-16T09:06:09.000Z</time>
      </trkpt>
      <trkpt lat="43.60658" lon="5.71691">
        <ele>328.39999389648</ele>
        <time>2013-03-16T09:06:23.000Z</time>
      </trkpt>
      <trkpt lat="43.60618" lon="5.71689">
        <ele>330</ele>
        <time>2013-03-16T09:06:33.000Z</time>
      </trkpt>
      <trkpt lat="43.60595" lon="5.71683">
        <ele>330.39999389648</ele>
        <time>2013-03-16T09:06:39.000Z</time>
      </trkpt>
      <trkpt lat="43.60591" lon="5.71682">
        <ele>330.39999389648</ele>
        <time>2013-03-16T09:06:40.000Z</time>
      </trkpt>
      <trkpt lat="43.60559" lon="5.71667">
        <ele>330.20001220703</ele>
        <time>2013-03-16T09:06:50.000Z</time>
      </trkpt>
      <trkpt lat="43.60557" lon="5.71666">
        <ele>330.20001220703</ele>
        <time>2013-03-16T09:06:51.000Z</time>
      </trkpt>
      <trkpt lat="43.60534" lon="5.71661">
        <ele>330.79998779297</ele>
        <time>2013-03-16T09:07:00.000Z</time>
      </trkpt>
      <trkpt lat="43.60508" lon="5.71664">
        <ele>332.39999389648</ele>
        <time>2013-03-16T09:07:09.000Z</time>
      </trkpt>
      <trkpt lat="43.60475" lon="5.7169">
        <ele>332.20001220703</ele>
        <time>2013-03-16T09:07:19.000Z</time>
      </trkpt>
      <trkpt lat="43.60472" lon="5.71694">
        <ele>332</ele>
        <time>2013-03-16T09:07:20.000Z</time>
      </trkpt>
      <trkpt lat="43.60444" lon="5.71745">
        <ele>332</ele>
        <time>2013-03-16T09:07:28.000Z</time>
      </trkpt>
      <trkpt lat="43.60391" lon="5.71817">
        <ele>331.60000610352</ele>
        <time>2013-03-16T09:07:39.000Z</time>
      </trkpt>
      <trkpt lat="43.60386" lon="5.71821">
        <ele>331.60000610352</ele>
        <time>2013-03-16T09:07:40.000Z</time>
      </trkpt>
      <trkpt lat="43.60338" lon="5.71878">
        <ele>330.39999389648</ele>
        <time>2013-03-16T09:07:53.000Z</time>
      </trkpt>
      <trkpt lat="43.60309" lon="5.71932">
        <ele>330.79998779297</ele>
        <time>2013-03-16T09:08:04.000Z</time>
      </trkpt>
      <trkpt lat="43.60286" lon="5.71978">
        <ele>333</ele>
        <time>2013-03-16T09:08:13.000Z</time>
      </trkpt>
      <trkpt lat="43.60264" lon="5.71993">
        <ele>334.20001220703</ele>
        <time>2013-03-16T09:08:20.000Z</time>
      </trkpt>
      <trkpt lat="43.6026" lon="5.71989">
        <ele>334.20001220703</ele>
        <time>2013-03-16T09:08:21.000Z</time>
      </trkpt>
      <trkpt lat="43.60257" lon="5.71984">
        <ele>334</ele>
        <time>2013-03-16T09:08:22.000Z</time>
      </trkpt>
      <trkpt lat="43.60253" lon="5.71979">
        <ele>334</ele>
        <time>2013-03-16T09:08:23.000Z</time>
      </trkpt>
      <trkpt lat="43.6025" lon="5.71974">
        <ele>334</ele>
        <time>2013-03-16T09:08:24.000Z</time>
      </trkpt>
      <trkpt lat="43.60247" lon="5.7197">
        <ele>334.20001220703</ele>
        <time>2013-03-16T09:08:25.000Z</time>
      </trkpt>
      <trkpt lat="43.60237" lon="5.7195">
        <ele>334.79998779297</ele>
        <time>2013-03-16T09:08:31.000Z</time>
      </trkpt>
      <trkpt lat="43.60235" lon="5.71949">
        <ele>335</ele>
        <time>2013-03-16T09:08:32.000Z</time>
      </trkpt>
      <trkpt lat="43.60234" lon="5.71951">
        <ele>335.20001220703</ele>
        <time>2013-03-16T09:08:33.000Z</time>
      </trkpt>
      <trkpt lat="43.60232" lon="5.71957">
        <ele>335.79998779297</ele>
        <time>2013-03-16T09:08:35.000Z</time>
      </trkpt>
      <trkpt lat="43.60226" lon="5.71976">
        <ele>337</ele>
        <time>2013-03-16T09:08:39.000Z</time>
      </trkpt>
      <trkpt lat="43.60223" lon="5.7198">
        <ele>337.60000610352</ele>
        <time>2013-03-16T09:08:40.000Z</time>
      </trkpt>
      <trkpt lat="43.6022" lon="5.71983">
        <ele>338</ele>
        <time>2013-03-16T09:08:41.000Z</time>
      </trkpt>
      <trkpt lat="43.60216" lon="5.71985">
        <ele>338.60000610352</ele>
        <time>2013-03-16T09:08:42.000Z</time>
      </trkpt>
      <trkpt lat="43.60212" lon="5.71988">
        <ele>339.20001220703</ele>
        <time>2013-03-16T09:08:43.000Z</time>
      </trkpt>
      <trkpt lat="43.60209" lon="5.71992">
        <ele>339.60000610352</ele>
        <time>2013-03-16T09:08:44.000Z</time>
      </trkpt>
      <trkpt lat="43.60207" lon="5.71996">
        <ele>340</ele>
        <time>2013-03-16T09:08:45.000Z</time>
      </trkpt>
      <trkpt lat="43.60204" lon="5.72">
        <ele>340.39999389648</ele>
        <time>2013-03-16T09:08:46.000Z</time>
      </trkpt>
      <trkpt lat="43.60184" lon="5.72034">
        <ele>341.39999389648</ele>
        <time>2013-03-16T09:08:56.000Z</time>
      </trkpt>
      <trkpt lat="43.60157" lon="5.72059">
        <ele>342.60000610352</ele>
        <time>2013-03-16T09:09:05.000Z</time>
      </trkpt>
      <trkpt lat="43.60128" lon="5.72089">
        <ele>346.79998779297</ele>
        <time>2013-03-16T09:09:14.000Z</time>
      </trkpt>
      <trkpt lat="43.60106" lon="5.72122">
        <ele>348.79998779297</ele>
        <time>2013-03-16T09:09:22.000Z</time>
      </trkpt>
      <trkpt lat="43.60103" lon="5.72127">
        <ele>348.79998779297</ele>
        <time>2013-03-16T09:09:23.000Z</time>
      </trkpt>
      <trkpt lat="43.60101" lon="5.72132">
        <ele>348.60000610352</ele>
        <time>2013-03-16T09:09:24.000Z</time>
      </trkpt>
      <trkpt lat="43.601" lon="5.72137">
        <ele>348.20001220703</ele>
        <time>2013-03-16T09:09:25.000Z</time>
      </trkpt>
      <trkpt lat="43.60098" lon="5.72143">
        <ele>348</ele>
        <time>2013-03-16T09:09:26.000Z</time>
      </trkpt>
      <trkpt lat="43.60093" lon="5.72165">
        <ele>346</ele>
        <time>2013-03-16T09:09:30.000Z</time>
      </trkpt>
      <trkpt lat="43.60085" lon="5.72213">
        <ele>343.39999389648</ele>
        <time>2013-03-16T09:09:39.000Z</time>
      </trkpt>
      <trkpt lat="43.60076" lon="5.72262">
        <ele>341.39999389648</ele>
        <time>2013-03-16T09:09:49.000Z</time>
      </trkpt>
      <trkpt lat="43.60059" lon="5.72297">
        <ele>341.20001220703</ele>
        <time>2013-03-16T09:09:58.000Z</time>
      </trkpt>
      <trkpt lat="43.60036" lon="5.72293">
        <ele>342.20001220703</ele>
        <time>2013-03-16T09:10:06.000Z</time>
      </trkpt>
      <trkpt lat="43.60012" lon="5.72268">
        <ele>345.79998779297</ele>
        <time>2013-03-16T09:10:15.000Z</time>
      </trkpt>
      <trkpt lat="43.60004" lon="5.72263">
        <ele>347</ele>
        <time>2013-03-16T09:10:23.000Z</time>
      </trkpt>
      <trkpt lat="43.60005" lon="5.72265">
        <ele>346.79998779297</ele>
        <time>2013-03-16T09:10:40.000Z</time>
      </trkpt>
      <trkpt lat="43.60004" lon="5.72266">
        <ele>346.79998779297</ele>
        <time>2013-03-16T09:10:54.000Z</time>
      </trkpt>
      <trkpt lat="43.60007" lon="5.72266">
        <ele>346.39999389648</ele>
        <time>2013-03-16T09:11:12.000Z</time>
      </trkpt>
      <trkpt lat="43.60005" lon="5.72263">
        <ele>347</ele>
        <time>2013-03-16T09:11:25.000Z</time>
      </trkpt>
      <trkpt lat="43.60003" lon="5.72261">
        <ele>347.39999389648</ele>
        <time>2013-03-16T09:11:42.000Z</time>
      </trkpt>
      <trkpt lat="43.60003" lon="5.72258">
        <ele>347.60000610352</ele>
        <time>2013-03-16T09:11:56.000Z</time>
      </trkpt>
      <trkpt lat="43.60004" lon="5.72256">
        <ele>347.79998779297</ele>
        <time>2013-03-16T09:12:17.000Z</time>
      </trkpt>
      <trkpt lat="43.60004" lon="5.72255">
        <ele>348</ele>
        <time>2013-03-16T09:12:40.000Z</time>
      </trkpt>
      <trkpt lat="43.60008" lon="5.72256">
        <ele>347.39999389648</ele>
        <time>2013-03-16T09:13:01.000Z</time>
      </trkpt>
      <trkpt lat="43.60007" lon="5.72263">
        <ele>346.79998779297</ele>
        <time>2013-03-16T09:13:24.000Z</time>
      </trkpt>
      <trkpt lat="43.60006" lon="5.72263">
        <ele>346.79998779297</ele>
        <time>2013-03-16T09:13:43.000Z</time>
      </trkpt>
      <trkpt lat="43.60006" lon="5.72263">
        <ele>346.79998779297</ele>
        <time>2013-03-16T09:14:02.000Z</time>
      </trkpt>
      <trkpt lat="43.60004" lon="5.7226">
        <ele>347.39999389648</ele>
        <time>2013-03-16T09:14:24.000Z</time>
      </trkpt>
      <trkpt lat="43.60004" lon="5.72258">
        <ele>347.60000610352</ele>
        <time>2013-03-16T09:14:38.000Z</time>
      </trkpt>
      <trkpt lat="43.59992" lon="5.72249">
        <ele>348.39999389648</ele>
        <time>2013-03-16T09:14:47.000Z</time>
      </trkpt>
      <trkpt lat="43.59979" lon="5.7224">
        <ele>349</ele>
        <time>2013-03-16T09:14:55.000Z</time>
      </trkpt>
      <trkpt lat="43.59961" lon="5.72228">
        <ele>349.60000610352</ele>
        <time>2013-03-16T09:15:06.000Z</time>
      </trkpt>
      <trkpt lat="43.59938" lon="5.72212">
        <ele>349.79998779297</ele>
        <time>2013-03-16T09:15:15.000Z</time>
      </trkpt>
      <trkpt lat="43.59914" lon="5.72191">
        <ele>350.60000610352</ele>
        <time>2013-03-16T09:15:24.000Z</time>
      </trkpt>
      <trkpt lat="43.59889" lon="5.72172">
        <ele>350</ele>
        <time>2013-03-16T09:15:33.000Z</time>
      </trkpt>
      <trkpt lat="43.5985" lon="5.72159">
        <ele>347</ele>
        <time>2013-03-16T09:15:43.000Z</time>
      </trkpt>
      <trkpt lat="43.59817" lon="5.72161">
        <ele>346.39999389648</ele>
        <time>2013-03-16T09:15:52.000Z</time>
      </trkpt>
      <trkpt lat="43.5979" lon="5.72169">
        <ele>347.60000610352</ele>
        <time>2013-03-16T09:15:59.000Z</time>
      </trkpt>
      <trkpt lat="43.59756" lon="5.72182">
        <ele>350</ele>
        <time>2013-03-16T09:16:08.000Z</time>
      </trkpt>
      <trkpt lat="43.59728" lon="5.72207">
        <ele>353.20001220703</ele>
        <time>2013-03-16T09:16:17.000Z</time>
      </trkpt>
      <trkpt lat="43.59697" lon="5.72246">
        <ele>351.79998779297</ele>
        <time>2013-03-16T09:16:28.000Z</time>
      </trkpt>
      <trkpt lat="43.59668" lon="5.72262">
        <ele>353.20001220703</ele>
        <time>2013-03-16T09:16:37.000Z</time>
      </trkpt>
      <trkpt lat="43.59635" lon="5.72272">
        <ele>356.20001220703</ele>
        <time>2013-03-16T09:16:46.000Z</time>
      </trkpt>
      <trkpt lat="43.59597" lon="5.72297">
        <ele>355.20001220703</ele>
        <time>2013-03-16T09:16:57.000Z</time>
      </trkpt>
      <trkpt lat="43.59567" lon="5.72314">
        <ele>355</ele>
        <time>2013-03-16T09:17:06.000Z</time>
      </trkpt>
      <trkpt lat="43.59539" lon="5.72336">
        <ele>355.39999389648</ele>
        <time>2013-03-16T09:17:15.000Z</time>
      </trkpt>
      <trkpt lat="43.59506" lon="5.72356">
        <ele>358.79998779297</ele>
        <time>2013-03-16T09:17:25.000Z</time>
      </trkpt>
      <trkpt lat="43.59497" lon="5.72367">
        <ele>358.39999389648</ele>
        <time>2013-03-16T09:17:28.000Z</time>
      </trkpt>
      <trkpt lat="43.59495" lon="5.72373">
        <ele>357.79998779297</ele>
        <time>2013-03-16T09:17:29.000Z</time>
      </trkpt>
      <trkpt lat="43.59487" lon="5.72391">
        <ele>356</ele>
        <time>2013-03-16T09:17:32.000Z</time>
      </trkpt>
      <trkpt lat="43.59484" lon="5.72395">
        <ele>355.60000610352</ele>
        <time>2013-03-16T09:17:33.000Z</time>
      </trkpt>
      <trkpt lat="43.5948" lon="5.72399">
        <ele>355.39999389648</ele>
        <time>2013-03-16T09:17:34.000Z</time>
      </trkpt>
      <trkpt lat="43.59455" lon="5.72423">
        <ele>355</ele>
        <time>2013-03-16T09:17:43.000Z</time>
      </trkpt>
      <trkpt lat="43.59453" lon="5.72425">
        <ele>355.39999389648</ele>
        <time>2013-03-16T09:17:44.000Z</time>
      </trkpt>
      <trkpt lat="43.59437" lon="5.72441">
        <ele>358.20001220703</ele>
        <time>2013-03-16T09:17:51.000Z</time>
      </trkpt>
      <trkpt lat="43.59406" lon="5.72445">
        <ele>362.39999389648</ele>
        <time>2013-03-16T09:17:59.000Z</time>
      </trkpt>
      <trkpt lat="43.59391" lon="5.72434">
        <ele>364.79998779297</ele>
        <time>2013-03-16T09:18:03.000Z</time>
      </trkpt>
      <trkpt lat="43.59388" lon="5.7243">
        <ele>365</ele>
        <time>2013-03-16T09:18:04.000Z</time>
      </trkpt>
      <trkpt lat="43.59385" lon="5.72425">
        <ele>364.79998779297</ele>
        <time>2013-03-16T09:18:05.000Z</time>
      </trkpt>
      <trkpt lat="43.59383" lon="5.7242">
        <ele>364.60000610352</ele>
        <time>2013-03-16T09:18:06.000Z</time>
      </trkpt>
      <trkpt lat="43.59382" lon="5.72415">
        <ele>364.60000610352</ele>
        <time>2013-03-16T09:18:07.000Z</time>
      </trkpt>
      <trkpt lat="43.5938" lon="5.7241">
        <ele>365.39999389648</ele>
        <time>2013-03-16T09:18:08.000Z</time>
      </trkpt>
      <trkpt lat="43.59378" lon="5.72357">
        <ele>369.39999389648</ele>
        <time>2013-03-16T09:18:18.000Z</time>
      </trkpt>
      <trkpt lat="43.59382" lon="5.72313">
        <ele>371</ele>
        <time>2013-03-16T09:18:27.000Z</time>
      </trkpt>
      <trkpt lat="43.59384" lon="5.72307">
        <ele>371</ele>
        <time>2013-03-16T09:18:28.000Z</time>
      </trkpt>
      <trkpt lat="43.59385" lon="5.72302">
        <ele>371</ele>
        <time>2013-03-16T09:18:29.000Z</time>
      </trkpt>
      <trkpt lat="43.59387" lon="5.72296">
        <ele>371.20001220703</ele>
        <time>2013-03-16T09:18:30.000Z</time>
      </trkpt>
      <trkpt lat="43.59387" lon="5.7229">
        <ele>371.39999389648</ele>
        <time>2013-03-16T09:18:31.000Z</time>
      </trkpt>
      <trkpt lat="43.59386" lon="5.72285">
        <ele>371.60000610352</ele>
        <time>2013-03-16T09:18:32.000Z</time>
      </trkpt>
      <trkpt lat="43.59385" lon="5.72279">
        <ele>371.79998779297</ele>
        <time>2013-03-16T09:18:33.000Z</time>
      </trkpt>
      <trkpt lat="43.59384" lon="5.72274">
        <ele>372</ele>
        <time>2013-03-16T09:18:34.000Z</time>
      </trkpt>
      <trkpt lat="43.59383" lon="5.72269">
        <ele>372.20001220703</ele>
        <time>2013-03-16T09:18:35.000Z</time>
      </trkpt>
      <trkpt lat="43.59383" lon="5.72264">
        <ele>372.39999389648</ele>
        <time>2013-03-16T09:18:36.000Z</time>
      </trkpt>
      <trkpt lat="43.59383" lon="5.72259">
        <ele>372.60000610352</ele>
        <time>2013-03-16T09:18:37.000Z</time>
      </trkpt>
      <trkpt lat="43.59382" lon="5.72255">
        <ele>372.60000610352</ele>
        <time>2013-03-16T09:18:38.000Z</time>
      </trkpt>
      <trkpt lat="43.59371" lon="5.72197">
        <ele>373.20001220703</ele>
        <time>2013-03-16T09:18:49.000Z</time>
      </trkpt>
      <trkpt lat="43.59369" lon="5.72192">
        <ele>372.79998779297</ele>
        <time>2013-03-16T09:18:50.000Z</time>
      </trkpt>
      <trkpt lat="43.59349" lon="5.72145">
        <ele>368.20001220703</ele>
        <time>2013-03-16T09:19:00.000Z</time>
      </trkpt>
      <trkpt lat="43.59328" lon="5.721">
        <ele>362.79998779297</ele>
        <time>2013-03-16T09:19:10.000Z</time>
      </trkpt>
      <trkpt lat="43.5932" lon="5.72087">
        <ele>362.79998779297</ele>
        <time>2013-03-16T09:19:13.000Z</time>
      </trkpt>
      <trkpt lat="43.59317" lon="5.72083">
        <ele>362.79998779297</ele>
        <time>2013-03-16T09:19:14.000Z</time>
      </trkpt>
      <trkpt lat="43.59311" lon="5.72074">
        <ele>365.39999389648</ele>
        <time>2013-03-16T09:19:16.000Z</time>
      </trkpt>
      <trkpt lat="43.59293" lon="5.72047">
        <ele>372.20001220703</ele>
        <time>2013-03-16T09:19:23.000Z</time>
      </trkpt>
      <trkpt lat="43.59288" lon="5.72047">
        <ele>372</ele>
        <time>2013-03-16T09:19:24.000Z</time>
      </trkpt>
      <trkpt lat="43.59284" lon="5.72049">
        <ele>371.20001220703</ele>
        <time>2013-03-16T09:19:25.000Z</time>
      </trkpt>
      <trkpt lat="43.5928" lon="5.72054">
        <ele>369.79998779297</ele>
        <time>2013-03-16T09:19:26.000Z</time>
      </trkpt>
      <trkpt lat="43.59278" lon="5.72059">
        <ele>368.39999389648</ele>
        <time>2013-03-16T09:19:27.000Z</time>
      </trkpt>
      <trkpt lat="43.59277" lon="5.72065">
        <ele>366.79998779297</ele>
        <time>2013-03-16T09:19:28.000Z</time>
      </trkpt>
      <trkpt lat="43.59274" lon="5.72093">
        <ele>362.20001220703</ele>
        <time>2013-03-16T09:19:33.000Z</time>
      </trkpt>
      <trkpt lat="43.59257" lon="5.72137">
        <ele>362</ele>
        <time>2013-03-16T09:19:42.000Z</time>
      </trkpt>
      <trkpt lat="43.59239" lon="5.72153">
        <ele>362.60000610352</ele>
        <time>2013-03-16T09:19:47.000Z</time>
      </trkpt>
      <trkpt lat="43.59228" lon="5.7216">
        <ele>363</ele>
        <time>2013-03-16T09:19:50.000Z</time>
      </trkpt>
      <trkpt lat="43.59224" lon="5.72163">
        <ele>363</ele>
        <time>2013-03-16T09:19:51.000Z</time>
      </trkpt>
      <trkpt lat="43.5922" lon="5.72166">
        <ele>363</ele>
        <time>2013-03-16T09:19:52.000Z</time>
      </trkpt>
      <trkpt lat="43.59217" lon="5.72169">
        <ele>363.39999389648</ele>
        <time>2013-03-16T09:19:53.000Z</time>
      </trkpt>
      <trkpt lat="43.59214" lon="5.72171">
        <ele>363.79998779297</ele>
        <time>2013-03-16T09:19:54.000Z</time>
      </trkpt>
      <trkpt lat="43.5921" lon="5.72173">
        <ele>364.20001220703</ele>
        <time>2013-03-16T09:19:55.000Z</time>
      </trkpt>
      <trkpt lat="43.59206" lon="5.72175">
        <ele>364.39999389648</ele>
        <time>2013-03-16T09:19:56.000Z</time>
      </trkpt>
      <trkpt lat="43.59194" lon="5.72181">
        <ele>365.20001220703</ele>
        <time>2013-03-16T09:19:59.000Z</time>
      </trkpt>
      <trkpt lat="43.5919" lon="5.72184">
        <ele>365.39999389648</ele>
        <time>2013-03-16T09:20:00.000Z</time>
      </trkpt>
      <trkpt lat="43.59186" lon="5.72188">
        <ele>365.60000610352</ele>
        <time>2013-03-16T09:20:01.000Z</time>
      </trkpt>
      <trkpt lat="43.59183" lon="5.72193">
        <ele>366</ele>
        <time>2013-03-16T09:20:02.000Z</time>
      </trkpt>
      <trkpt lat="43.5918" lon="5.72197">
        <ele>366.20001220703</ele>
        <time>2013-03-16T09:20:03.000Z</time>
      </trkpt>
      <trkpt lat="43.5915" lon="5.72238">
        <ele>366.39999389648</ele>
        <time>2013-03-16T09:20:13.000Z</time>
      </trkpt>
      <trkpt lat="43.59131" lon="5.72262">
        <ele>367.39999389648</ele>
        <time>2013-03-16T09:20:19.000Z</time>
      </trkpt>
      <trkpt lat="43.59127" lon="5.72266">
        <ele>367.79998779297</ele>
        <time>2013-03-16T09:20:20.000Z</time>
      </trkpt>
      <trkpt lat="43.59108" lon="5.7229">
        <ele>369</ele>
        <time>2013-03-16T09:20:26.000Z</time>
      </trkpt>
      <trkpt lat="43.591" lon="5.72303">
        <ele>369.20001220703</ele>
        <time>2013-03-16T09:20:29.000Z</time>
      </trkpt>
      <trkpt lat="43.59097" lon="5.72306">
        <ele>369.20001220703</ele>
        <time>2013-03-16T09:20:30.000Z</time>
      </trkpt>
      <trkpt lat="43.59094" lon="5.72309">
        <ele>369</ele>
        <time>2013-03-16T09:20:31.000Z</time>
      </trkpt>
      <trkpt lat="43.5909" lon="5.72312">
        <ele>368.79998779297</ele>
        <time>2013-03-16T09:20:32.000Z</time>
      </trkpt>
      <trkpt lat="43.59086" lon="5.72314">
        <ele>368.39999389648</ele>
        <time>2013-03-16T09:20:33.000Z</time>
      </trkpt>
      <trkpt lat="43.59082" lon="5.72315">
        <ele>368.20001220703</ele>
        <time>2013-03-16T09:20:34.000Z</time>
      </trkpt>
      <trkpt lat="43.59078" lon="5.72315">
        <ele>369</ele>
        <time>2013-03-16T09:20:35.000Z</time>
      </trkpt>
      <trkpt lat="43.59073" lon="5.72315">
        <ele>369.79998779297</ele>
        <time>2013-03-16T09:20:36.000Z</time>
      </trkpt>
      <trkpt lat="43.59069" lon="5.72314">
        <ele>370.60000610352</ele>
        <time>2013-03-16T09:20:37.000Z</time>
      </trkpt>
      <trkpt lat="43.59065" lon="5.72312">
        <ele>371.20001220703</ele>
        <time>2013-03-16T09:20:38.000Z</time>
      </trkpt>
      <trkpt lat="43.59053" lon="5.72308">
        <ele>372.79998779297</ele>
        <time>2013-03-16T09:20:41.000Z</time>
      </trkpt>
      <trkpt lat="43.59049" lon="5.72305">
        <ele>373.20001220703</ele>
        <time>2013-03-16T09:20:42.000Z</time>
      </trkpt>
      <trkpt lat="43.59045" lon="5.72301">
        <ele>373.39999389648</ele>
        <time>2013-03-16T09:20:43.000Z</time>
      </trkpt>
      <trkpt lat="43.59041" lon="5.72297">
        <ele>373.20001220703</ele>
        <time>2013-03-16T09:20:44.000Z</time>
      </trkpt>
      <trkpt lat="43.59039" lon="5.72291">
        <ele>373</ele>
        <time>2013-03-16T09:20:45.000Z</time>
      </trkpt>
      <trkpt lat="43.59038" lon="5.72285">
        <ele>372.39999389648</ele>
        <time>2013-03-16T09:20:46.000Z</time>
      </trkpt>
      <trkpt lat="43.59038" lon="5.72279">
        <ele>371.39999389648</ele>
        <time>2013-03-16T09:20:47.000Z</time>
      </trkpt>
      <trkpt lat="43.59038" lon="5.72272">
        <ele>370.60000610352</ele>
        <time>2013-03-16T09:20:48.000Z</time>
      </trkpt>
      <trkpt lat="43.5904" lon="5.72239">
        <ele>367.39999389648</ele>
        <time>2013-03-16T09:20:53.000Z</time>
      </trkpt>
      <trkpt lat="43.59037" lon="5.72197">
        <ele>367.20001220703</ele>
        <time>2013-03-16T09:21:00.000Z</time>
      </trkpt>
      <trkpt lat="43.59034" lon="5.72185">
        <ele>367</ele>
        <time>2013-03-16T09:21:02.000Z</time>
      </trkpt>
      <trkpt lat="43.5903" lon="5.72174">
        <ele>366.79998779297</ele>
        <time>2013-03-16T09:21:04.000Z</time>
      </trkpt>
      <trkpt lat="43.59025" lon="5.72165">
        <ele>366.60000610352</ele>
        <time>2013-03-16T09:21:06.000Z</time>
      </trkpt>
      <trkpt lat="43.59012" lon="5.72148">
        <ele>367.79998779297</ele>
        <time>2013-03-16T09:21:10.000Z</time>
      </trkpt>
      <trkpt lat="43.58989" lon="5.7213">
        <ele>369.20001220703</ele>
        <time>2013-03-16T09:21:16.000Z</time>
      </trkpt>
      <trkpt lat="43.58985" lon="5.72128">
        <ele>369.39999389648</ele>
        <time>2013-03-16T09:21:17.000Z</time>
      </trkpt>
      <trkpt lat="43.58981" lon="5.72127">
        <ele>369.60000610352</ele>
        <time>2013-03-16T09:21:18.000Z</time>
      </trkpt>
      <trkpt lat="43.58972" lon="5.72126">
        <ele>369.79998779297</ele>
        <time>2013-03-16T09:21:20.000Z</time>
      </trkpt>
      <trkpt lat="43.58967" lon="5.72126">
        <ele>369.79998779297</ele>
        <time>2013-03-16T09:21:21.000Z</time>
      </trkpt>
      <trkpt lat="43.58932" lon="5.72125">
        <ele>370.60000610352</ele>
        <time>2013-03-16T09:21:29.000Z</time>
      </trkpt>
      <trkpt lat="43.58915" lon="5.72128">
        <ele>371</ele>
        <time>2013-03-16T09:21:33.000Z</time>
      </trkpt>
      <trkpt lat="43.58884" lon="5.72145">
        <ele>376.20001220703</ele>
        <time>2013-03-16T09:21:41.000Z</time>
      </trkpt>
      <trkpt lat="43.58882" lon="5.7215">
        <ele>376</ele>
        <time>2013-03-16T09:21:42.000Z</time>
      </trkpt>
      <trkpt lat="43.5888" lon="5.72156">
        <ele>375.39999389648</ele>
        <time>2013-03-16T09:21:43.000Z</time>
      </trkpt>
      <trkpt lat="43.58871" lon="5.72186">
        <ele>375.20001220703</ele>
        <time>2013-03-16T09:21:48.000Z</time>
      </trkpt>
      <trkpt lat="43.58871" lon="5.72192">
        <ele>375.39999389648</ele>
        <time>2013-03-16T09:21:49.000Z</time>
      </trkpt>
      <trkpt lat="43.58871" lon="5.72198">
        <ele>375.39999389648</ele>
        <time>2013-03-16T09:21:50.000Z</time>
      </trkpt>
      <trkpt lat="43.58872" lon="5.72204">
        <ele>375.20001220703</ele>
        <time>2013-03-16T09:21:51.000Z</time>
      </trkpt>
      <trkpt lat="43.58873" lon="5.72209">
        <ele>375.20001220703</ele>
        <time>2013-03-16T09:21:52.000Z</time>
      </trkpt>
      <trkpt lat="43.58875" lon="5.72214">
        <ele>375</ele>
        <time>2013-03-16T09:21:53.000Z</time>
      </trkpt>
      <trkpt lat="43.58884" lon="5.72241">
        <ele>374.60000610352</ele>
        <time>2013-03-16T09:21:58.000Z</time>
      </trkpt>
      <trkpt lat="43.58886" lon="5.72246">
        <ele>374.60000610352</ele>
        <time>2013-03-16T09:21:59.000Z</time>
      </trkpt>
      <trkpt lat="43.58887" lon="5.72252">
        <ele>374.79998779297</ele>
        <time>2013-03-16T09:22:00.000Z</time>
      </trkpt>
      <trkpt lat="43.58887" lon="5.72258">
        <ele>375</ele>
        <time>2013-03-16T09:22:01.000Z</time>
      </trkpt>
      <trkpt lat="43.58886" lon="5.72264">
        <ele>375.20001220703</ele>
        <time>2013-03-16T09:22:02.000Z</time>
      </trkpt>
      <trkpt lat="43.58885" lon="5.7227">
        <ele>375.60000610352</ele>
        <time>2013-03-16T09:22:03.000Z</time>
      </trkpt>
      <trkpt lat="43.58884" lon="5.72276">
        <ele>375.79998779297</ele>
        <time>2013-03-16T09:22:04.000Z</time>
      </trkpt>
      <trkpt lat="43.58882" lon="5.72281">
        <ele>376</ele>
        <time>2013-03-16T09:22:05.000Z</time>
      </trkpt>
      <trkpt lat="43.58879" lon="5.72287">
        <ele>376.20001220703</ele>
        <time>2013-03-16T09:22:06.000Z</time>
      </trkpt>
      <trkpt lat="43.58858" lon="5.7234">
        <ele>376.60000610352</ele>
        <time>2013-03-16T09:22:16.000Z</time>
      </trkpt>
      <trkpt lat="43.58857" lon="5.72345">
        <ele>376.60000610352</ele>
        <time>2013-03-16T09:22:17.000Z</time>
      </trkpt>
      <trkpt lat="43.58856" lon="5.72351">
        <ele>376.60000610352</ele>
        <time>2013-03-16T09:22:18.000Z</time>
      </trkpt>
      <trkpt lat="43.58856" lon="5.72356">
        <ele>376.79998779297</ele>
        <time>2013-03-16T09:22:19.000Z</time>
      </trkpt>
      <trkpt lat="43.58856" lon="5.72362">
        <ele>376.79998779297</ele>
        <time>2013-03-16T09:22:20.000Z</time>
      </trkpt>
      <trkpt lat="43.58856" lon="5.72368">
        <ele>376.79998779297</ele>
        <time>2013-03-16T09:22:21.000Z</time>
      </trkpt>
      <trkpt lat="43.58854" lon="5.72373">
        <ele>376.79998779297</ele>
        <time>2013-03-16T09:22:22.000Z</time>
      </trkpt>
      <trkpt lat="43.58852" lon="5.72378">
        <ele>376.60000610352</ele>
        <time>2013-03-16T09:22:23.000Z</time>
      </trkpt>
      <trkpt lat="43.5885" lon="5.72383">
        <ele>376.20001220703</ele>
        <time>2013-03-16T09:22:24.000Z</time>
      </trkpt>
      <trkpt lat="43.58847" lon="5.72386">
        <ele>375.60000610352</ele>
        <time>2013-03-16T09:22:25.000Z</time>
      </trkpt>
      <trkpt lat="43.58843" lon="5.72389">
        <ele>374.79998779297</ele>
        <time>2013-03-16T09:22:26.000Z</time>
      </trkpt>
      <trkpt lat="43.5884" lon="5.72392">
        <ele>374.20001220703</ele>
        <time>2013-03-16T09:22:27.000Z</time>
      </trkpt>
      <trkpt lat="43.58836" lon="5.72393">
        <ele>373.39999389648</ele>
        <time>2013-03-16T09:22:28.000Z</time>
      </trkpt>
      <trkpt lat="43.58821" lon="5.724">
        <ele>374.79998779297</ele>
        <time>2013-03-16T09:22:32.000Z</time>
      </trkpt>
      <trkpt lat="43.58817" lon="5.72404">
        <ele>375.20001220703</ele>
        <time>2013-03-16T09:22:33.000Z</time>
      </trkpt>
      <trkpt lat="43.58814" lon="5.72408">
        <ele>375.60000610352</ele>
        <time>2013-03-16T09:22:34.000Z</time>
      </trkpt>
      <trkpt lat="43.58811" lon="5.72414">
        <ele>375.60000610352</ele>
        <time>2013-03-16T09:22:35.000Z</time>
      </trkpt>
      <trkpt lat="43.58809" lon="5.7242">
        <ele>375.79998779297</ele>
        <time>2013-03-16T09:22:36.000Z</time>
      </trkpt>
      <trkpt lat="43.58807" lon="5.72426">
        <ele>375.79998779297</ele>
        <time>2013-03-16T09:22:37.000Z</time>
      </trkpt>
      <trkpt lat="43.58807" lon="5.72432">
        <ele>375.79998779297</ele>
        <time>2013-03-16T09:22:38.000Z</time>
      </trkpt>
      <trkpt lat="43.58806" lon="5.72438">
        <ele>375.79998779297</ele>
        <time>2013-03-16T09:22:39.000Z</time>
      </trkpt>
      <trkpt lat="43.58803" lon="5.72475">
        <ele>375.39999389648</ele>
        <time>2013-03-16T09:22:45.000Z</time>
      </trkpt>
      <trkpt lat="43.588" lon="5.7248">
        <ele>375.20001220703</ele>
        <time>2013-03-16T09:22:46.000Z</time>
      </trkpt>
      <trkpt lat="43.58798" lon="5.72485">
        <ele>375.20001220703</ele>
        <time>2013-03-16T09:22:47.000Z</time>
      </trkpt>
      <trkpt lat="43.58795" lon="5.72488">
        <ele>375</ele>
        <time>2013-03-16T09:22:48.000Z</time>
      </trkpt>
      <trkpt lat="43.58791" lon="5.72491">
        <ele>374.79998779297</ele>
        <time>2013-03-16T09:22:49.000Z</time>
      </trkpt>
      <trkpt lat="43.58788" lon="5.72494">
        <ele>374.60000610352</ele>
        <time>2013-03-16T09:22:50.000Z</time>
      </trkpt>
      <trkpt lat="43.58777" lon="5.72502">
        <ele>374</ele>
        <time>2013-03-16T09:22:53.000Z</time>
      </trkpt>
      <trkpt lat="43.58738" lon="5.72529">
        <ele>374</ele>
        <time>2013-03-16T09:23:03.000Z</time>
      </trkpt>
      <trkpt lat="43.58734" lon="5.7253">
        <ele>374.20001220703</ele>
        <time>2013-03-16T09:23:04.000Z</time>
      </trkpt>
      <trkpt lat="43.58729" lon="5.7253">
        <ele>374.20001220703</ele>
        <time>2013-03-16T09:23:05.000Z</time>
      </trkpt>
      <trkpt lat="43.5868" lon="5.72526">
        <ele>375.79998779297</ele>
        <time>2013-03-16T09:23:16.000Z</time>
      </trkpt>
      <trkpt lat="43.5863" lon="5.72524">
        <ele>378.60000610352</ele>
        <time>2013-03-16T09:23:28.000Z</time>
      </trkpt>
      <trkpt lat="43.5859" lon="5.7253">
        <ele>380.79998779297</ele>
        <time>2013-03-16T09:23:37.000Z</time>
      </trkpt>
      <trkpt lat="43.58567" lon="5.72536">
        <ele>381.39999389648</ele>
        <time>2013-03-16T09:23:42.000Z</time>
      </trkpt>
      <trkpt lat="43.58546" lon="5.72533">
        <ele>381.79998779297</ele>
        <time>2013-03-16T09:23:47.000Z</time>
      </trkpt>
      <trkpt lat="43.58542" lon="5.7253">
        <ele>382</ele>
        <time>2013-03-16T09:23:48.000Z</time>
      </trkpt>
      <trkpt lat="43.58536" lon="5.72523">
        <ele>381.79998779297</ele>
        <time>2013-03-16T09:23:50.000Z</time>
      </trkpt>
      <trkpt lat="43.58533" lon="5.72519">
        <ele>381.79998779297</ele>
        <time>2013-03-16T09:23:51.000Z</time>
      </trkpt>
      <trkpt lat="43.58519" lon="5.72503">
        <ele>381.20001220703</ele>
        <time>2013-03-16T09:23:55.000Z</time>
      </trkpt>
      <trkpt lat="43.58494" lon="5.72485">
        <ele>384.39999389648</ele>
        <time>2013-03-16T09:24:02.000Z</time>
      </trkpt>
      <trkpt lat="43.58469" lon="5.72473">
        <ele>386</ele>
        <time>2013-03-16T09:24:08.000Z</time>
      </trkpt>
      <trkpt lat="43.58435" lon="5.7248">
        <ele>383</ele>
        <time>2013-03-16T09:24:17.000Z</time>
      </trkpt>
      <trkpt lat="43.5842" lon="5.72491">
        <ele>380.39999389648</ele>
        <time>2013-03-16T09:24:21.000Z</time>
      </trkpt>
      <trkpt lat="43.58416" lon="5.72492">
        <ele>380.20001220703</ele>
        <time>2013-03-16T09:24:22.000Z</time>
      </trkpt>
      <trkpt lat="43.58412" lon="5.72492">
        <ele>381</ele>
        <time>2013-03-16T09:24:23.000Z</time>
      </trkpt>
      <trkpt lat="43.58408" lon="5.72489">
        <ele>382</ele>
        <time>2013-03-16T09:24:24.000Z</time>
      </trkpt>
      <trkpt lat="43.58405" lon="5.72486">
        <ele>383</ele>
        <time>2013-03-16T09:24:25.000Z</time>
      </trkpt>
      <trkpt lat="43.58402" lon="5.72482">
        <ele>384</ele>
        <time>2013-03-16T09:24:26.000Z</time>
      </trkpt>
      <trkpt lat="43.58399" lon="5.72477">
        <ele>384.79998779297</ele>
        <time>2013-03-16T09:24:27.000Z</time>
      </trkpt>
      <trkpt lat="43.58364" lon="5.72418">
        <ele>388.60000610352</ele>
        <time>2013-03-16T09:24:40.000Z</time>
      </trkpt>
      <trkpt lat="43.58345" lon="5.72395">
        <ele>387.20001220703</ele>
        <time>2013-03-16T09:24:46.000Z</time>
      </trkpt>
      <trkpt lat="43.58342" lon="5.7239">
        <ele>387</ele>
        <time>2013-03-16T09:24:47.000Z</time>
      </trkpt>
      <trkpt lat="43.5834" lon="5.72386">
        <ele>386.60000610352</ele>
        <time>2013-03-16T09:24:48.000Z</time>
      </trkpt>
      <trkpt lat="43.58313" lon="5.72341">
        <ele>386.20001220703</ele>
        <time>2013-03-16T09:25:00.000Z</time>
      </trkpt>
      <trkpt lat="43.58312" lon="5.72336">
        <ele>386</ele>
        <time>2013-03-16T09:25:02.000Z</time>
      </trkpt>
      <trkpt lat="43.58316" lon="5.72335">
        <ele>385.79998779297</ele>
        <time>2013-03-16T09:25:11.000Z</time>
      </trkpt>
      <trkpt lat="43.58319" lon="5.72334">
        <ele>385.60000610352</ele>
        <time>2013-03-16T09:25:42.000Z</time>
      </trkpt>
      <trkpt lat="43.58321" lon="5.72333">
        <ele>385.39999389648</ele>
        <time>2013-03-16T09:26:09.000Z</time>
      </trkpt>
      <trkpt lat="43.58317" lon="5.72336">
        <ele>385.79998779297</ele>
        <time>2013-03-16T09:26:18.000Z</time>
      </trkpt>
      <trkpt lat="43.58316" lon="5.72338">
        <ele>386</ele>
        <time>2013-03-16T09:26:19.000Z</time>
      </trkpt>
      <trkpt lat="43.58315" lon="5.72343">
        <ele>386.20001220703</ele>
        <time>2013-03-16T09:26:27.000Z</time>
      </trkpt>
      <trkpt lat="43.5831" lon="5.72341">
        <ele>386.39999389648</ele>
        <time>2013-03-16T09:26:39.000Z</time>
      </trkpt>
      <trkpt lat="43.58312" lon="5.72341">
        <ele>386.20001220703</ele>
        <time>2013-03-16T09:26:52.000Z</time>
      </trkpt>
      <trkpt lat="43.58309" lon="5.72343">
        <ele>386.39999389648</ele>
        <time>2013-03-16T09:27:05.000Z</time>
      </trkpt>
      <trkpt lat="43.58308" lon="5.72347">
        <ele>386.79998779297</ele>
        <time>2013-03-16T09:27:20.000Z</time>
      </trkpt>
      <trkpt lat="43.5831" lon="5.72349">
        <ele>386.79998779297</ele>
        <time>2013-03-16T09:27:35.000Z</time>
      </trkpt>
      <trkpt lat="43.58311" lon="5.72349">
        <ele>386.60000610352</ele>
        <time>2013-03-16T09:27:37.000Z</time>
      </trkpt>
      <trkpt lat="43.58311" lon="5.7235">
        <ele>386.60000610352</ele>
        <time>2013-03-16T09:27:38.000Z</time>
      </trkpt>
      <trkpt lat="43.58306" lon="5.7236">
        <ele>387.39999389648</ele>
        <time>2013-03-16T09:27:46.000Z</time>
      </trkpt>
      <trkpt lat="43.58306" lon="5.72362">
        <ele>387.60000610352</ele>
        <time>2013-03-16T09:27:47.000Z</time>
      </trkpt>
      <trkpt lat="43.58306" lon="5.72364">
        <ele>387.60000610352</ele>
        <time>2013-03-16T09:27:48.000Z</time>
      </trkpt>
      <trkpt lat="43.58308" lon="5.72369">
        <ele>387.79998779297</ele>
        <time>2013-03-16T09:27:50.000Z</time>
      </trkpt>
      <trkpt lat="43.58308" lon="5.72371">
        <ele>387.79998779297</ele>
        <time>2013-03-16T09:27:51.000Z</time>
      </trkpt>
      <trkpt lat="43.58309" lon="5.72374">
        <ele>387.79998779297</ele>
        <time>2013-03-16T09:27:52.000Z</time>
      </trkpt>
      <trkpt lat="43.58323" lon="5.72405">
        <ele>387.20001220703</ele>
        <time>2013-03-16T09:28:01.000Z</time>
      </trkpt>
      <trkpt lat="43.58343" lon="5.72433">
        <ele>388</ele>
        <time>2013-03-16T09:28:09.000Z</time>
      </trkpt>
      <trkpt lat="43.58364" lon="5.72463">
        <ele>388.79998779297</ele>
        <time>2013-03-16T09:28:16.000Z</time>
      </trkpt>
      <trkpt lat="43.58367" lon="5.72468">
        <ele>388.60000610352</ele>
        <time>2013-03-16T09:28:17.000Z</time>
      </trkpt>
      <trkpt lat="43.58369" lon="5.72472">
        <ele>388.39999389648</ele>
        <time>2013-03-16T09:28:18.000Z</time>
      </trkpt>
      <trkpt lat="43.58372" lon="5.72477">
        <ele>388</ele>
        <time>2013-03-16T09:28:19.000Z</time>
      </trkpt>
      <trkpt lat="43.58374" lon="5.72482">
        <ele>387.60000610352</ele>
        <time>2013-03-16T09:28:20.000Z</time>
      </trkpt>
      <trkpt lat="43.58377" lon="5.72487">
        <ele>387</ele>
        <time>2013-03-16T09:28:21.000Z</time>
      </trkpt>
      <trkpt lat="43.58385" lon="5.72501">
        <ele>385</ele>
        <time>2013-03-16T09:28:24.000Z</time>
      </trkpt>
      <trkpt lat="43.58392" lon="5.7251">
        <ele>384.60000610352</ele>
        <time>2013-03-16T09:28:26.000Z</time>
      </trkpt>
      <trkpt lat="43.58396" lon="5.72513">
        <ele>384.20001220703</ele>
        <time>2013-03-16T09:28:27.000Z</time>
      </trkpt>
      <trkpt lat="43.58401" lon="5.72515">
        <ele>383.39999389648</ele>
        <time>2013-03-16T09:28:28.000Z</time>
      </trkpt>
      <trkpt lat="43.58405" lon="5.72517">
        <ele>382.79998779297</ele>
        <time>2013-03-16T09:28:29.000Z</time>
      </trkpt>
      <trkpt lat="43.58409" lon="5.72521">
        <ele>382.39999389648</ele>
        <time>2013-03-16T09:28:30.000Z</time>
      </trkpt>
      <trkpt lat="43.58411" lon="5.72526">
        <ele>382.39999389648</ele>
        <time>2013-03-16T09:28:31.000Z</time>
      </trkpt>
      <trkpt lat="43.58413" lon="5.72532">
        <ele>382.60000610352</ele>
        <time>2013-03-16T09:28:32.000Z</time>
      </trkpt>
      <trkpt lat="43.58413" lon="5.72538">
        <ele>382.79998779297</ele>
        <time>2013-03-16T09:28:33.000Z</time>
      </trkpt>
      <trkpt lat="43.58415" lon="5.72556">
        <ele>384</ele>
        <time>2013-03-16T09:28:36.000Z</time>
      </trkpt>
      <trkpt lat="43.58418" lon="5.72607">
        <ele>386.20001220703</ele>
        <time>2013-03-16T09:28:46.000Z</time>
      </trkpt>
      <trkpt lat="43.58421" lon="5.72618">
        <ele>386.39999389648</ele>
        <time>2013-03-16T09:28:48.000Z</time>
      </trkpt>
      <trkpt lat="43.58423" lon="5.72623">
        <ele>386.60000610352</ele>
        <time>2013-03-16T09:28:49.000Z</time>
      </trkpt>
      <trkpt lat="43.58435" lon="5.72646">
        <ele>387.60000610352</ele>
        <time>2013-03-16T09:28:54.000Z</time>
      </trkpt>
      <trkpt lat="43.58444" lon="5.72679">
        <ele>388.79998779297</ele>
        <time>2013-03-16T09:29:01.000Z</time>
      </trkpt>
      <trkpt lat="43.58442" lon="5.72683">
        <ele>388.60000610352</ele>
        <time>2013-03-16T09:29:02.000Z</time>
      </trkpt>
      <trkpt lat="43.58439" lon="5.72687">
        <ele>388.39999389648</ele>
        <time>2013-03-16T09:29:03.000Z</time>
      </trkpt>
      <trkpt lat="43.58437" lon="5.72691">
        <ele>388.20001220703</ele>
        <time>2013-03-16T09:29:04.000Z</time>
      </trkpt>
      <trkpt lat="43.58435" lon="5.72695">
        <ele>388</ele>
        <time>2013-03-16T09:29:05.000Z</time>
      </trkpt>
      <trkpt lat="43.58432" lon="5.727">
        <ele>387.79998779297</ele>
        <time>2013-03-16T09:29:06.000Z</time>
      </trkpt>
      <trkpt lat="43.58428" lon="5.72732">
        <ele>387.20001220703</ele>
        <time>2013-03-16T09:29:13.000Z</time>
      </trkpt>
      <trkpt lat="43.58444" lon="5.7277">
        <ele>388.20001220703</ele>
        <time>2013-03-16T09:29:22.000Z</time>
      </trkpt>
      <trkpt lat="43.58448" lon="5.72801">
        <ele>387.79998779297</ele>
        <time>2013-03-16T09:29:30.000Z</time>
      </trkpt>
      <trkpt lat="43.58448" lon="5.72807">
        <ele>387.60000610352</ele>
        <time>2013-03-16T09:29:39.000Z</time>
      </trkpt>
      <trkpt lat="43.58448" lon="5.72808">
        <ele>387.60000610352</ele>
        <time>2013-03-16T09:29:42.000Z</time>
      </trkpt>
      <trkpt lat="43.58448" lon="5.7281">
        <ele>387.60000610352</ele>
        <time>2013-03-16T09:29:43.000Z</time>
      </trkpt>
      <trkpt lat="43.58449" lon="5.72813">
        <ele>387.60000610352</ele>
        <time>2013-03-16T09:29:44.000Z</time>
      </trkpt>
      <trkpt lat="43.58449" lon="5.72817">
        <ele>387.39999389648</ele>
        <time>2013-03-16T09:29:45.000Z</time>
      </trkpt>
      <trkpt lat="43.5845" lon="5.72821">
        <ele>387.39999389648</ele>
        <time>2013-03-16T09:29:46.000Z</time>
      </trkpt>
      <trkpt lat="43.5845" lon="5.72826">
        <ele>387.20001220703</ele>
        <time>2013-03-16T09:29:47.000Z</time>
      </trkpt>
      <trkpt lat="43.58461" lon="5.72877">
        <ele>386.39999389648</ele>
        <time>2013-03-16T09:29:58.000Z</time>
      </trkpt>
      <trkpt lat="43.58476" lon="5.72906">
        <ele>387</ele>
        <time>2013-03-16T09:30:08.000Z</time>
      </trkpt>
      <trkpt lat="43.58488" lon="5.72945">
        <ele>388</ele>
        <time>2013-03-16T09:30:18.000Z</time>
      </trkpt>
      <trkpt lat="43.58497" lon="5.72979">
        <ele>388.20001220703</ele>
        <time>2013-03-16T09:30:28.000Z</time>
      </trkpt>
      <trkpt lat="43.58515" lon="5.73001">
        <ele>391.20001220703</ele>
        <time>2013-03-16T09:30:38.000Z</time>
      </trkpt>
      <trkpt lat="43.5854" lon="5.73033">
        <ele>397.39999389648</ele>
        <time>2013-03-16T09:30:51.000Z</time>
      </trkpt>
      <trkpt lat="43.58555" lon="5.7305">
        <ele>398.39999389648</ele>
        <time>2013-03-16T09:31:00.000Z</time>
      </trkpt>
      <trkpt lat="43.58557" lon="5.73052">
        <ele>398.39999389648</ele>
        <time>2013-03-16T09:31:01.000Z</time>
      </trkpt>
      <trkpt lat="43.58559" lon="5.73055">
        <ele>398.39999389648</ele>
        <time>2013-03-16T09:31:02.000Z</time>
      </trkpt>
      <trkpt lat="43.58561" lon="5.73057">
        <ele>398.39999389648</ele>
        <time>2013-03-16T09:31:03.000Z</time>
      </trkpt>
      <trkpt lat="43.58563" lon="5.73059">
        <ele>398.20001220703</ele>
        <time>2013-03-16T09:31:04.000Z</time>
      </trkpt>
      <trkpt lat="43.58564" lon="5.73061">
        <ele>398</ele>
        <time>2013-03-16T09:31:05.000Z</time>
      </trkpt>
      <trkpt lat="43.58574" lon="5.73079">
        <ele>396.20001220703</ele>
        <time>2013-03-16T09:31:12.000Z</time>
      </trkpt>
      <trkpt lat="43.58578" lon="5.73093">
        <ele>396</ele>
        <time>2013-03-16T09:31:17.000Z</time>
      </trkpt>
      <trkpt lat="43.58578" lon="5.73096">
        <ele>396.20001220703</ele>
        <time>2013-03-16T09:31:18.000Z</time>
      </trkpt>
      <trkpt lat="43.58577" lon="5.73099">
        <ele>396.39999389648</ele>
        <time>2013-03-16T09:31:19.000Z</time>
      </trkpt>
      <trkpt lat="43.58575" lon="5.73102">
        <ele>396.79998779297</ele>
        <time>2013-03-16T09:31:20.000Z</time>
      </trkpt>
      <trkpt lat="43.58574" lon="5.73105">
        <ele>397.20001220703</ele>
        <time>2013-03-16T09:31:21.000Z</time>
      </trkpt>
      <trkpt lat="43.58572" lon="5.73109">
        <ele>397.60000610352</ele>
        <time>2013-03-16T09:31:22.000Z</time>
      </trkpt>
      <trkpt lat="43.58569" lon="5.73145">
        <ele>400.79998779297</ele>
        <time>2013-03-16T09:31:32.000Z</time>
      </trkpt>
      <trkpt lat="43.58568" lon="5.73173">
        <ele>402.79998779297</ele>
        <time>2013-03-16T09:31:42.000Z</time>
      </trkpt>
      <trkpt lat="43.58569" lon="5.73176">
        <ele>402.79998779297</ele>
        <time>2013-03-16T09:31:43.000Z</time>
      </trkpt>
      <trkpt lat="43.58569" lon="5.73178">
        <ele>402.79998779297</ele>
        <time>2013-03-16T09:31:44.000Z</time>
      </trkpt>
      <trkpt lat="43.58573" lon="5.73204">
        <ele>402.79998779297</ele>
        <time>2013-03-16T09:31:53.000Z</time>
      </trkpt>
      <trkpt lat="43.58583" lon="5.73226">
        <ele>400.39999389648</ele>
        <time>2013-03-16T09:32:03.000Z</time>
      </trkpt>
      <trkpt lat="43.58591" lon="5.73251">
        <ele>402</ele>
        <time>2013-03-16T09:32:11.000Z</time>
      </trkpt>
      <trkpt lat="43.58596" lon="5.73279">
        <ele>405</ele>
        <time>2013-03-16T09:32:19.000Z</time>
      </trkpt>
      <trkpt lat="43.58606" lon="5.73309">
        <ele>408.60000610352</ele>
        <time>2013-03-16T09:32:28.000Z</time>
      </trkpt>
      <trkpt lat="43.58621" lon="5.73353">
        <ele>413.60000610352</ele>
        <time>2013-03-16T09:32:40.000Z</time>
      </trkpt>
      <trkpt lat="43.58633" lon="5.734">
        <ele>418</ele>
        <time>2013-03-16T09:32:52.000Z</time>
      </trkpt>
      <trkpt lat="43.58634" lon="5.73437">
        <ele>420.60000610352</ele>
        <time>2013-03-16T09:33:01.000Z</time>
      </trkpt>
      <trkpt lat="43.58639" lon="5.73467">
        <ele>421.39999389648</ele>
        <time>2013-03-16T09:33:09.000Z</time>
      </trkpt>
      <trkpt lat="43.58649" lon="5.73499">
        <ele>421.20001220703</ele>
        <time>2013-03-16T09:33:18.000Z</time>
      </trkpt>
      <trkpt lat="43.58666" lon="5.7353">
        <ele>421.39999389648</ele>
        <time>2013-03-16T09:33:28.000Z</time>
      </trkpt>
      <trkpt lat="43.58691" lon="5.73541">
        <ele>426.20001220703</ele>
        <time>2013-03-16T09:33:38.000Z</time>
      </trkpt>
      <trkpt lat="43.58707" lon="5.73565">
        <ele>428.60000610352</ele>
        <time>2013-03-16T09:33:47.000Z</time>
      </trkpt>
      <trkpt lat="43.58725" lon="5.73588">
        <ele>430</ele>
        <time>2013-03-16T09:33:57.000Z</time>
      </trkpt>
      <trkpt lat="43.58746" lon="5.73618">
        <ele>431.20001220703</ele>
        <time>2013-03-16T09:34:08.000Z</time>
      </trkpt>
      <trkpt lat="43.5877" lon="5.73667">
        <ele>433.79998779297</ele>
        <time>2013-03-16T09:34:22.000Z</time>
      </trkpt>
      <trkpt lat="43.58795" lon="5.73684">
        <ele>438.39999389648</ele>
        <time>2013-03-16T09:34:32.000Z</time>
      </trkpt>
      <trkpt lat="43.58812" lon="5.73709">
        <ele>440.39999389648</ele>
        <time>2013-03-16T09:34:42.000Z</time>
      </trkpt>
      <trkpt lat="43.58837" lon="5.73725">
        <ele>441.20001220703</ele>
        <time>2013-03-16T09:34:54.000Z</time>
      </trkpt>
      <trkpt lat="43.58847" lon="5.73734">
        <ele>442</ele>
        <time>2013-03-16T09:34:59.000Z</time>
      </trkpt>
      <trkpt lat="43.58849" lon="5.73735">
        <ele>442.20001220703</ele>
        <time>2013-03-16T09:35:00.000Z</time>
      </trkpt>
      <trkpt lat="43.58851" lon="5.73737">
        <ele>442.39999389648</ele>
        <time>2013-03-16T09:35:01.000Z</time>
      </trkpt>
      <trkpt lat="43.58864" lon="5.73756">
        <ele>443.20001220703</ele>
        <time>2013-03-16T09:35:09.000Z</time>
      </trkpt>
      <trkpt lat="43.58869" lon="5.73767">
        <ele>444.39999389648</ele>
        <time>2013-03-16T09:35:13.000Z</time>
      </trkpt>
      <trkpt lat="43.58869" lon="5.73771">
        <ele>444.60000610352</ele>
        <time>2013-03-16T09:35:14.000Z</time>
      </trkpt>
      <trkpt lat="43.5887" lon="5.73774">
        <ele>445</ele>
        <time>2013-03-16T09:35:15.000Z</time>
      </trkpt>
      <trkpt lat="43.58871" lon="5.73777">
        <ele>445.20001220703</ele>
        <time>2013-03-16T09:35:16.000Z</time>
      </trkpt>
      <trkpt lat="43.58882" lon="5.73812">
        <ele>447</ele>
        <time>2013-03-16T09:35:27.000Z</time>
      </trkpt>
      <trkpt lat="43.58881" lon="5.73844">
        <ele>448.79998779297</ele>
        <time>2013-03-16T09:35:38.000Z</time>
      </trkpt>
      <trkpt lat="43.58865" lon="5.73867">
        <ele>450.79998779297</ele>
        <time>2013-03-16T09:35:48.000Z</time>
      </trkpt>
      <trkpt lat="43.58847" lon="5.73886">
        <ele>452.39999389648</ele>
        <time>2013-03-16T09:35:59.000Z</time>
      </trkpt>
      <trkpt lat="43.58844" lon="5.73886">
        <ele>452.39999389648</ele>
        <time>2013-03-16T09:36:00.000Z</time>
      </trkpt>
      <trkpt lat="43.58842" lon="5.73884">
        <ele>452.39999389648</ele>
        <time>2013-03-16T09:36:01.000Z</time>
      </trkpt>
      <trkpt lat="43.5884" lon="5.73882">
        <ele>452.39999389648</ele>
        <time>2013-03-16T09:36:02.000Z</time>
      </trkpt>
      <trkpt lat="43.58839" lon="5.73879">
        <ele>452.39999389648</ele>
        <time>2013-03-16T09:36:03.000Z</time>
      </trkpt>
      <trkpt lat="43.58838" lon="5.73876">
        <ele>452.20001220703</ele>
        <time>2013-03-16T09:36:04.000Z</time>
      </trkpt>
      <trkpt lat="43.58838" lon="5.73872">
        <ele>452.20001220703</ele>
        <time>2013-03-16T09:36:05.000Z</time>
      </trkpt>
      <trkpt lat="43.58837" lon="5.73869">
        <ele>452</ele>
        <time>2013-03-16T09:36:06.000Z</time>
      </trkpt>
      <trkpt lat="43.58837" lon="5.73866">
        <ele>452</ele>
        <time>2013-03-16T09:36:07.000Z</time>
      </trkpt>
      <trkpt lat="43.58838" lon="5.73863">
        <ele>451.79998779297</ele>
        <time>2013-03-16T09:36:08.000Z</time>
      </trkpt>
      <trkpt lat="43.58838" lon="5.7386">
        <ele>451.60000610352</ele>
        <time>2013-03-16T09:36:09.000Z</time>
      </trkpt>
      <trkpt lat="43.58842" lon="5.73821">
        <ele>449</ele>
        <time>2013-03-16T09:36:21.000Z</time>
      </trkpt>
      <trkpt lat="43.58824" lon="5.73804">
        <ele>447.79998779297</ele>
        <time>2013-03-16T09:36:30.000Z</time>
      </trkpt>
      <trkpt lat="43.58797" lon="5.73793">
        <ele>448.39999389648</ele>
        <time>2013-03-16T09:36:41.000Z</time>
      </trkpt>
      <trkpt lat="43.58768" lon="5.73779">
        <ele>448.20001220703</ele>
        <time>2013-03-16T09:36:53.000Z</time>
      </trkpt>
      <trkpt lat="43.58741" lon="5.7379">
        <ele>452.60000610352</ele>
        <time>2013-03-16T09:37:03.000Z</time>
      </trkpt>
      <trkpt lat="43.58715" lon="5.73802">
        <ele>457</ele>
        <time>2013-03-16T09:37:12.000Z</time>
      </trkpt>
      <trkpt lat="43.58713" lon="5.73805">
        <ele>457.60000610352</ele>
        <time>2013-03-16T09:37:13.000Z</time>
      </trkpt>
      <trkpt lat="43.58712" lon="5.73808">
        <ele>458.20001220703</ele>
        <time>2013-03-16T09:37:14.000Z</time>
      </trkpt>
      <trkpt lat="43.58713" lon="5.73811">
        <ele>458.60000610352</ele>
        <time>2013-03-16T09:37:15.000Z</time>
      </trkpt>
      <trkpt lat="43.58715" lon="5.73813">
        <ele>458.79998779297</ele>
        <time>2013-03-16T09:37:16.000Z</time>
      </trkpt>
      <trkpt lat="43.58718" lon="5.73813">
        <ele>458.60000610352</ele>
        <time>2013-03-16T09:37:17.000Z</time>
      </trkpt>
      <trkpt lat="43.58721" lon="5.73812">
        <ele>458.20001220703</ele>
        <time>2013-03-16T09:37:18.000Z</time>
      </trkpt>
      <trkpt lat="43.58724" lon="5.73811">
        <ele>457.79998779297</ele>
        <time>2013-03-16T09:37:19.000Z</time>
      </trkpt>
      <trkpt lat="43.58728" lon="5.73811">
        <ele>457.39999389648</ele>
        <time>2013-03-16T09:37:20.000Z</time>
      </trkpt>
      <trkpt lat="43.58731" lon="5.73811">
        <ele>457.20001220703</ele>
        <time>2013-03-16T09:37:21.000Z</time>
      </trkpt>
      <trkpt lat="43.58734" lon="5.7381">
        <ele>456.79998779297</ele>
        <time>2013-03-16T09:37:22.000Z</time>
      </trkpt>
      <trkpt lat="43.58764" lon="5.73824">
        <ele>456.60000610352</ele>
        <time>2013-03-16T09:37:32.000Z</time>
      </trkpt>
      <trkpt lat="43.58772" lon="5.73864">
        <ele>460.20001220703</ele>
        <time>2013-03-16T09:37:42.000Z</time>
      </trkpt>
      <trkpt lat="43.58769" lon="5.73911">
        <ele>465</ele>
        <time>2013-03-16T09:37:54.000Z</time>
      </trkpt>
      <trkpt lat="43.58771" lon="5.73959">
        <ele>468.20001220703</ele>
        <time>2013-03-16T09:38:05.000Z</time>
      </trkpt>
      <trkpt lat="43.58777" lon="5.73994">
        <ele>470</ele>
        <time>2013-03-16T09:38:14.000Z</time>
      </trkpt>
      <trkpt lat="43.58783" lon="5.74033">
        <ele>471.79998779297</ele>
        <time>2013-03-16T09:38:24.000Z</time>
      </trkpt>
      <trkpt lat="43.58785" lon="5.74077">
        <ele>474.79998779297</ele>
        <time>2013-03-16T09:38:35.000Z</time>
      </trkpt>
      <trkpt lat="43.58782" lon="5.74121">
        <ele>476</ele>
        <time>2013-03-16T09:38:46.000Z</time>
      </trkpt>
      <trkpt lat="43.58776" lon="5.74135">
        <ele>476.39999389648</ele>
        <time>2013-03-16T09:38:52.000Z</time>
      </trkpt>
      <trkpt lat="43.58773" lon="5.74136">
        <ele>476.39999389648</ele>
        <time>2013-03-16T09:39:01.000Z</time>
      </trkpt>
      <trkpt lat="43.58767" lon="5.74138">
        <ele>476.39999389648</ele>
        <time>2013-03-16T09:39:17.000Z</time>
      </trkpt>
      <trkpt lat="43.5877" lon="5.74136">
        <ele>476.39999389648</ele>
        <time>2013-03-16T09:39:37.000Z</time>
      </trkpt>
      <trkpt lat="43.58768" lon="5.74135">
        <ele>476.39999389648</ele>
        <time>2013-03-16T09:40:09.000Z</time>
      </trkpt>
      <trkpt lat="43.58772" lon="5.74137">
        <ele>476.39999389648</ele>
        <time>2013-03-16T09:40:44.000Z</time>
      </trkpt>
      <trkpt lat="43.58773" lon="5.74137">
        <ele>476.39999389648</ele>
        <time>2013-03-16T09:41:23.000Z</time>
      </trkpt>
      <trkpt lat="43.58776" lon="5.74136">
        <ele>476.39999389648</ele>
        <time>2013-03-16T09:41:53.000Z</time>
      </trkpt>
      <trkpt lat="43.58776" lon="5.74136">
        <ele>476.39999389648</ele>
        <time>2013-03-16T09:42:36.000Z</time>
      </trkpt>
      <trkpt lat="43.58774" lon="5.74139">
        <ele>476.39999389648</ele>
        <time>2013-03-16T09:43:11.000Z</time>
      </trkpt>
      <trkpt lat="43.58774" lon="5.74136">
        <ele>476.39999389648</ele>
        <time>2013-03-16T09:43:39.000Z</time>
      </trkpt>
      <trkpt lat="43.58772" lon="5.74135">
        <ele>476.39999389648</ele>
        <time>2013-03-16T09:44:18.000Z</time>
      </trkpt>
      <trkpt lat="43.58772" lon="5.74136">
        <ele>476.39999389648</ele>
        <time>2013-03-16T09:44:46.000Z</time>
      </trkpt>
      <trkpt lat="43.58772" lon="5.74136">
        <ele>476.39999389648</ele>
        <time>2013-03-16T09:45:22.000Z</time>
      </trkpt>
      <trkpt lat="43.58776" lon="5.74138">
        <ele>476.39999389648</ele>
        <time>2013-03-16T09:45:58.000Z</time>
      </trkpt>
      <trkpt lat="43.58775" lon="5.74137">
        <ele>476.39999389648</ele>
        <time>2013-03-16T09:46:22.000Z</time>
      </trkpt>
      <trkpt lat="43.58771" lon="5.74134">
        <ele>476.39999389648</ele>
        <time>2013-03-16T09:46:53.000Z</time>
      </trkpt>
      <trkpt lat="43.5877" lon="5.74136">
        <ele>476.39999389648</ele>
        <time>2013-03-16T09:47:33.000Z</time>
      </trkpt>
      <trkpt lat="43.5877" lon="5.74134">
        <ele>476.39999389648</ele>
        <time>2013-03-16T09:48:10.000Z</time>
      </trkpt>
      <trkpt lat="43.58771" lon="5.74134">
        <ele>476.39999389648</ele>
        <time>2013-03-16T09:48:36.000Z</time>
      </trkpt>
      <trkpt lat="43.58774" lon="5.74136">
        <ele>476.39999389648</ele>
        <time>2013-03-16T09:49:02.000Z</time>
      </trkpt>
      <trkpt lat="43.58775" lon="5.74134">
        <ele>476.39999389648</ele>
        <time>2013-03-16T09:49:25.000Z</time>
      </trkpt>
      <trkpt lat="43.58777" lon="5.74133">
        <ele>476.39999389648</ele>
        <time>2013-03-16T09:49:47.000Z</time>
      </trkpt>
      <trkpt lat="43.58773" lon="5.74135">
        <ele>476.39999389648</ele>
        <time>2013-03-16T09:50:16.000Z</time>
      </trkpt>
      <trkpt lat="43.58769" lon="5.74135">
        <ele>476.39999389648</ele>
        <time>2013-03-16T09:50:19.000Z</time>
      </trkpt>
      <trkpt lat="43.58768" lon="5.74136">
        <ele>476.39999389648</ele>
        <time>2013-03-16T09:50:20.000Z</time>
      </trkpt>
      <trkpt lat="43.58749" lon="5.74132">
        <ele>476.79998779297</ele>
        <time>2013-03-16T09:50:28.000Z</time>
      </trkpt>
      <trkpt lat="43.58717" lon="5.7412">
        <ele>477.79998779297</ele>
        <time>2013-03-16T09:50:39.000Z</time>
      </trkpt>
      <trkpt lat="43.58691" lon="5.74103">
        <ele>479.20001220703</ele>
        <time>2013-03-16T09:50:48.000Z</time>
      </trkpt>
      <trkpt lat="43.58659" lon="5.74108">
        <ele>479.39999389648</ele>
        <time>2013-03-16T09:50:57.000Z</time>
      </trkpt>
      <trkpt lat="43.5861" lon="5.74123">
        <ele>477.20001220703</ele>
        <time>2013-03-16T09:51:09.000Z</time>
      </trkpt>
      <trkpt lat="43.58606" lon="5.74124">
        <ele>477</ele>
        <time>2013-03-16T09:51:10.000Z</time>
      </trkpt>
      <trkpt lat="43.58597" lon="5.74127">
        <ele>476.79998779297</ele>
        <time>2013-03-16T09:51:12.000Z</time>
      </trkpt>
      <trkpt lat="43.58587" lon="5.7413">
        <ele>476.39999389648</ele>
        <time>2013-03-16T09:51:14.000Z</time>
      </trkpt>
      <trkpt lat="43.58582" lon="5.74132">
        <ele>476</ele>
        <time>2013-03-16T09:51:15.000Z</time>
      </trkpt>
      <trkpt lat="43.58566" lon="5.74135">
        <ele>475.39999389648</ele>
        <time>2013-03-16T09:51:18.000Z</time>
      </trkpt>
      <trkpt lat="43.58561" lon="5.74134">
        <ele>475.39999389648</ele>
        <time>2013-03-16T09:51:19.000Z</time>
      </trkpt>
      <trkpt lat="43.58541" lon="5.74128">
        <ele>475</ele>
        <time>2013-03-16T09:51:23.000Z</time>
      </trkpt>
      <trkpt lat="43.58537" lon="5.74126">
        <ele>475</ele>
        <time>2013-03-16T09:51:24.000Z</time>
      </trkpt>
      <trkpt lat="43.58502" lon="5.74113">
        <ele>474.60000610352</ele>
        <time>2013-03-16T09:51:32.000Z</time>
      </trkpt>
      <trkpt lat="43.58497" lon="5.74112">
        <ele>474.39999389648</ele>
        <time>2013-03-16T09:51:33.000Z</time>
      </trkpt>
      <trkpt lat="43.58456" lon="5.74099">
        <ele>473.20001220703</ele>
        <time>2013-03-16T09:51:42.000Z</time>
      </trkpt>
      <trkpt lat="43.58452" lon="5.74096">
        <ele>473</ele>
        <time>2013-03-16T09:51:43.000Z</time>
      </trkpt>
      <trkpt lat="43.58447" lon="5.74093">
        <ele>473</ele>
        <time>2013-03-16T09:51:44.000Z</time>
      </trkpt>
      <trkpt lat="43.58444" lon="5.74089">
        <ele>473</ele>
        <time>2013-03-16T09:51:45.000Z</time>
      </trkpt>
      <trkpt lat="43.58441" lon="5.74085">
        <ele>473</ele>
        <time>2013-03-16T09:51:46.000Z</time>
      </trkpt>
      <trkpt lat="43.58439" lon="5.7408">
        <ele>473</ele>
        <time>2013-03-16T09:51:47.000Z</time>
      </trkpt>
      <trkpt lat="43.58438" lon="5.74074">
        <ele>473</ele>
        <time>2013-03-16T09:51:48.000Z</time>
      </trkpt>
      <trkpt lat="43.58438" lon="5.74069">
        <ele>473</ele>
        <time>2013-03-16T09:51:49.000Z</time>
      </trkpt>
      <trkpt lat="43.58437" lon="5.74063">
        <ele>473.20001220703</ele>
        <time>2013-03-16T09:51:50.000Z</time>
      </trkpt>
      <trkpt lat="43.58437" lon="5.74058">
        <ele>473.20001220703</ele>
        <time>2013-03-16T09:51:51.000Z</time>
      </trkpt>
      <trkpt lat="43.58438" lon="5.74052">
        <ele>473.20001220703</ele>
        <time>2013-03-16T09:51:52.000Z</time>
      </trkpt>
      <trkpt lat="43.58439" lon="5.74046">
        <ele>473.39999389648</ele>
        <time>2013-03-16T09:51:53.000Z</time>
      </trkpt>
      <trkpt lat="43.5844" lon="5.73998">
        <ele>474</ele>
        <time>2013-03-16T09:52:03.000Z</time>
      </trkpt>
      <trkpt lat="43.58431" lon="5.73985">
        <ele>474</ele>
        <time>2013-03-16T09:52:06.000Z</time>
      </trkpt>
      <trkpt lat="43.58428" lon="5.73982">
        <ele>474</ele>
        <time>2013-03-16T09:52:07.000Z</time>
      </trkpt>
      <trkpt lat="43.58424" lon="5.73977">
        <ele>474</ele>
        <time>2013-03-16T09:52:08.000Z</time>
      </trkpt>
      <trkpt lat="43.58421" lon="5.73973">
        <ele>474</ele>
        <time>2013-03-16T09:52:09.000Z</time>
      </trkpt>
      <trkpt lat="43.58418" lon="5.7397">
        <ele>474</ele>
        <time>2013-03-16T09:52:10.000Z</time>
      </trkpt>
      <trkpt lat="43.58385" lon="5.73945">
        <ele>473</ele>
        <time>2013-03-16T09:52:20.000Z</time>
      </trkpt>
      <trkpt lat="43.58373" lon="5.7394">
        <ele>472.39999389648</ele>
        <time>2013-03-16T09:52:23.000Z</time>
      </trkpt>
      <trkpt lat="43.58369" lon="5.73939">
        <ele>472.20001220703</ele>
        <time>2013-03-16T09:52:24.000Z</time>
      </trkpt>
      <trkpt lat="43.58364" lon="5.73939">
        <ele>471.79998779297</ele>
        <time>2013-03-16T09:52:25.000Z</time>
      </trkpt>
      <trkpt lat="43.58359" lon="5.73941">
        <ele>471.60000610352</ele>
        <time>2013-03-16T09:52:26.000Z</time>
      </trkpt>
      <trkpt lat="43.58355" lon="5.73943">
        <ele>471.20001220703</ele>
        <time>2013-03-16T09:52:27.000Z</time>
      </trkpt>
      <trkpt lat="43.58352" lon="5.73947">
        <ele>471</ele>
        <time>2013-03-16T09:52:28.000Z</time>
      </trkpt>
      <trkpt lat="43.58349" lon="5.73952">
        <ele>470.79998779297</ele>
        <time>2013-03-16T09:52:29.000Z</time>
      </trkpt>
      <trkpt lat="43.58346" lon="5.73957">
        <ele>470.60000610352</ele>
        <time>2013-03-16T09:52:30.000Z</time>
      </trkpt>
      <trkpt lat="43.58343" lon="5.73962">
        <ele>470.39999389648</ele>
        <time>2013-03-16T09:52:31.000Z</time>
      </trkpt>
      <trkpt lat="43.58341" lon="5.73968">
        <ele>470.20001220703</ele>
        <time>2013-03-16T09:52:32.000Z</time>
      </trkpt>
      <trkpt lat="43.58335" lon="5.73988">
        <ele>470</ele>
        <time>2013-03-16T09:52:35.000Z</time>
      </trkpt>
      <trkpt lat="43.58333" lon="5.73995">
        <ele>469.79998779297</ele>
        <time>2013-03-16T09:52:36.000Z</time>
      </trkpt>
      <trkpt lat="43.58332" lon="5.74002">
        <ele>469.60000610352</ele>
        <time>2013-03-16T09:52:37.000Z</time>
      </trkpt>
      <trkpt lat="43.5833" lon="5.74015">
        <ele>469</ele>
        <time>2013-03-16T09:52:39.000Z</time>
      </trkpt>
      <trkpt lat="43.58328" lon="5.74031">
        <ele>468.20001220703</ele>
        <time>2013-03-16T09:52:42.000Z</time>
      </trkpt>
      <trkpt lat="43.58324" lon="5.74049">
        <ele>467.20001220703</ele>
        <time>2013-03-16T09:52:45.000Z</time>
      </trkpt>
      <trkpt lat="43.58323" lon="5.74056">
        <ele>467</ele>
        <time>2013-03-16T09:52:46.000Z</time>
      </trkpt>
      <trkpt lat="43.58321" lon="5.74076">
        <ele>466.20001220703</ele>
        <time>2013-03-16T09:52:49.000Z</time>
      </trkpt>
      <trkpt lat="43.58321" lon="5.74089">
        <ele>465.79998779297</ele>
        <time>2013-03-16T09:52:51.000Z</time>
      </trkpt>
      <trkpt lat="43.5832" lon="5.74127">
        <ele>465</ele>
        <time>2013-03-16T09:52:57.000Z</time>
      </trkpt>
      <trkpt lat="43.58321" lon="5.74133">
        <ele>465</ele>
        <time>2013-03-16T09:52:58.000Z</time>
      </trkpt>
      <trkpt lat="43.58321" lon="5.74139">
        <ele>464.79998779297</ele>
        <time>2013-03-16T09:52:59.000Z</time>
      </trkpt>
      <trkpt lat="43.58321" lon="5.74146">
        <ele>464.79998779297</ele>
        <time>2013-03-16T09:53:00.000Z</time>
      </trkpt>
      <trkpt lat="43.5832" lon="5.74152">
        <ele>464.60000610352</ele>
        <time>2013-03-16T09:53:01.000Z</time>
      </trkpt>
      <trkpt lat="43.58319" lon="5.74158">
        <ele>464.39999389648</ele>
        <time>2013-03-16T09:53:02.000Z</time>
      </trkpt>
      <trkpt lat="43.58316" lon="5.7417">
        <ele>464</ele>
        <time>2013-03-16T09:53:04.000Z</time>
      </trkpt>
      <trkpt lat="43.58308" lon="5.74189">
        <ele>463.39999389648</ele>
        <time>2013-03-16T09:53:07.000Z</time>
      </trkpt>
      <trkpt lat="43.58306" lon="5.74195">
        <ele>463.20001220703</ele>
        <time>2013-03-16T09:53:08.000Z</time>
      </trkpt>
      <trkpt lat="43.58294" lon="5.74219">
        <ele>462.39999389648</ele>
        <time>2013-03-16T09:53:12.000Z</time>
      </trkpt>
      <trkpt lat="43.58291" lon="5.74224">
        <ele>462.20001220703</ele>
        <time>2013-03-16T09:53:13.000Z</time>
      </trkpt>
      <trkpt lat="43.58278" lon="5.74246">
        <ele>461.60000610352</ele>
        <time>2013-03-16T09:53:17.000Z</time>
      </trkpt>
      <trkpt lat="43.58275" lon="5.74251">
        <ele>461.60000610352</ele>
        <time>2013-03-16T09:53:18.000Z</time>
      </trkpt>
      <trkpt lat="43.58272" lon="5.74256">
        <ele>461.60000610352</ele>
        <time>2013-03-16T09:53:19.000Z</time>
      </trkpt>
      <trkpt lat="43.58269" lon="5.74262">
        <ele>461.60000610352</ele>
        <time>2013-03-16T09:53:20.000Z</time>
      </trkpt>
      <trkpt lat="43.58266" lon="5.74267">
        <ele>461.60000610352</ele>
        <time>2013-03-16T09:53:21.000Z</time>
      </trkpt>
      <trkpt lat="43.58262" lon="5.74273">
        <ele>461.60000610352</ele>
        <time>2013-03-16T09:53:22.000Z</time>
      </trkpt>
      <trkpt lat="43.58224" lon="5.74341">
        <ele>462</ele>
        <time>2013-03-16T09:53:34.000Z</time>
      </trkpt>
      <trkpt lat="43.58186" lon="5.74387">
        <ele>462.39999389648</ele>
        <time>2013-03-16T09:53:44.000Z</time>
      </trkpt>
      <trkpt lat="43.58181" lon="5.74389">
        <ele>462.60000610352</ele>
        <time>2013-03-16T09:53:45.000Z</time>
      </trkpt>
      <trkpt lat="43.58175" lon="5.7439">
        <ele>462.60000610352</ele>
        <time>2013-03-16T09:53:46.000Z</time>
      </trkpt>
      <trkpt lat="43.58137" lon="5.74384">
        <ele>461.20001220703</ele>
        <time>2013-03-16T09:53:53.000Z</time>
      </trkpt>
      <trkpt lat="43.58132" lon="5.74383">
        <ele>461</ele>
        <time>2013-03-16T09:53:54.000Z</time>
      </trkpt>
      <trkpt lat="43.58127" lon="5.74383">
        <ele>460.79998779297</ele>
        <time>2013-03-16T09:53:55.000Z</time>
      </trkpt>
      <trkpt lat="43.58122" lon="5.74383">
        <ele>460.79998779297</ele>
        <time>2013-03-16T09:53:56.000Z</time>
      </trkpt>
      <trkpt lat="43.58118" lon="5.74385">
        <ele>460.60000610352</ele>
        <time>2013-03-16T09:53:57.000Z</time>
      </trkpt>
      <trkpt lat="43.58114" lon="5.74388">
        <ele>460.60000610352</ele>
        <time>2013-03-16T09:53:58.000Z</time>
      </trkpt>
      <trkpt lat="43.58106" lon="5.74395">
        <ele>460.60000610352</ele>
        <time>2013-03-16T09:54:00.000Z</time>
      </trkpt>
      <trkpt lat="43.58104" lon="5.74399">
        <ele>460.79998779297</ele>
        <time>2013-03-16T09:54:01.000Z</time>
      </trkpt>
      <trkpt lat="43.5809" lon="5.7442">
        <ele>461.20001220703</ele>
        <time>2013-03-16T09:54:06.000Z</time>
      </trkpt>
      <trkpt lat="43.58086" lon="5.74424">
        <ele>461.20001220703</ele>
        <time>2013-03-16T09:54:07.000Z</time>
      </trkpt>
      <trkpt lat="43.58065" lon="5.74448">
        <ele>461.60000610352</ele>
        <time>2013-03-16T09:54:12.000Z</time>
      </trkpt>
      <trkpt lat="43.58054" lon="5.74463">
        <ele>461.60000610352</ele>
        <time>2013-03-16T09:54:15.000Z</time>
      </trkpt>
      <trkpt lat="43.58008" lon="5.74502">
        <ele>461.20001220703</ele>
        <time>2013-03-16T09:54:26.000Z</time>
      </trkpt>
      <trkpt lat="43.58001" lon="5.7451">
        <ele>461</ele>
        <time>2013-03-16T09:54:28.000Z</time>
      </trkpt>
      <trkpt lat="43.5799" lon="5.74521">
        <ele>461</ele>
        <time>2013-03-16T09:54:31.000Z</time>
      </trkpt>
      <trkpt lat="43.57986" lon="5.74525">
        <ele>460.79998779297</ele>
        <time>2013-03-16T09:54:32.000Z</time>
      </trkpt>
      <trkpt lat="43.57974" lon="5.74535">
        <ele>460.60000610352</ele>
        <time>2013-03-16T09:54:35.000Z</time>
      </trkpt>
      <trkpt lat="43.5797" lon="5.7454">
        <ele>460.60000610352</ele>
        <time>2013-03-16T09:54:36.000Z</time>
      </trkpt>
      <trkpt lat="43.57959" lon="5.74553">
        <ele>460.60000610352</ele>
        <time>2013-03-16T09:54:39.000Z</time>
      </trkpt>
      <trkpt lat="43.57956" lon="5.74559">
        <ele>460.60000610352</ele>
        <time>2013-03-16T09:54:40.000Z</time>
      </trkpt>
      <trkpt lat="43.57953" lon="5.74564">
        <ele>460.60000610352</ele>
        <time>2013-03-16T09:54:41.000Z</time>
      </trkpt>
      <trkpt lat="43.57944" lon="5.7458">
        <ele>460.60000610352</ele>
        <time>2013-03-16T09:54:44.000Z</time>
      </trkpt>
      <trkpt lat="43.57928" lon="5.74619">
        <ele>461</ele>
        <time>2013-03-16T09:54:51.000Z</time>
      </trkpt>
      <trkpt lat="43.57926" lon="5.74625">
        <ele>461</ele>
        <time>2013-03-16T09:54:52.000Z</time>
      </trkpt>
      <trkpt lat="43.57908" lon="5.74662">
        <ele>461.60000610352</ele>
        <time>2013-03-16T09:54:59.000Z</time>
      </trkpt>
      <trkpt lat="43.57906" lon="5.74668">
        <ele>461.60000610352</ele>
        <time>2013-03-16T09:55:00.000Z</time>
      </trkpt>
      <trkpt lat="43.57903" lon="5.74672">
        <ele>461.60000610352</ele>
        <time>2013-03-16T09:55:01.000Z</time>
      </trkpt>
      <trkpt lat="43.579" lon="5.74677">
        <ele>461.60000610352</ele>
        <time>2013-03-16T09:55:02.000Z</time>
      </trkpt>
      <trkpt lat="43.57897" lon="5.74682">
        <ele>461.79998779297</ele>
        <time>2013-03-16T09:55:03.000Z</time>
      </trkpt>
      <trkpt lat="43.57895" lon="5.74689">
        <ele>461.79998779297</ele>
        <time>2013-03-16T09:55:04.000Z</time>
      </trkpt>
      <trkpt lat="43.57893" lon="5.74695">
        <ele>462</ele>
        <time>2013-03-16T09:55:05.000Z</time>
      </trkpt>
      <trkpt lat="43.57892" lon="5.74701">
        <ele>462</ele>
        <time>2013-03-16T09:55:06.000Z</time>
      </trkpt>
      <trkpt lat="43.57891" lon="5.74708">
        <ele>462.20001220703</ele>
        <time>2013-03-16T09:55:07.000Z</time>
      </trkpt>
      <trkpt lat="43.57891" lon="5.74715">
        <ele>462.39999389648</ele>
        <time>2013-03-16T09:55:08.000Z</time>
      </trkpt>
      <trkpt lat="43.57891" lon="5.74723">
        <ele>462.60000610352</ele>
        <time>2013-03-16T09:55:09.000Z</time>
      </trkpt>
      <trkpt lat="43.57891" lon="5.7473">
        <ele>462.79998779297</ele>
        <time>2013-03-16T09:55:10.000Z</time>
      </trkpt>
      <trkpt lat="43.57892" lon="5.74738">
        <ele>463</ele>
        <time>2013-03-16T09:55:11.000Z</time>
      </trkpt>
      <trkpt lat="43.57893" lon="5.74745">
        <ele>463</ele>
        <time>2013-03-16T09:55:12.000Z</time>
      </trkpt>
      <trkpt lat="43.57911" lon="5.74845">
        <ele>460.79998779297</ele>
        <time>2013-03-16T09:55:25.000Z</time>
      </trkpt>
      <trkpt lat="43.57912" lon="5.74852">
        <ele>460.79998779297</ele>
        <time>2013-03-16T09:55:26.000Z</time>
      </trkpt>
      <trkpt lat="43.57916" lon="5.74878">
        <ele>460.39999389648</ele>
        <time>2013-03-16T09:55:33.000Z</time>
      </trkpt>
      <trkpt lat="43.57913" lon="5.74879">
        <ele>460.39999389648</ele>
        <time>2013-03-16T09:55:46.000Z</time>
      </trkpt>
      <trkpt lat="43.57915" lon="5.7488">
        <ele>460.39999389648</ele>
        <time>2013-03-16T09:55:58.000Z</time>
      </trkpt>
      <trkpt lat="43.57916" lon="5.74883">
        <ele>460.39999389648</ele>
        <time>2013-03-16T09:56:10.000Z</time>
      </trkpt>
      <trkpt lat="43.57915" lon="5.74882">
        <ele>460.39999389648</ele>
        <time>2013-03-16T09:56:28.000Z</time>
      </trkpt>
      <trkpt lat="43.57915" lon="5.7488">
        <ele>460.39999389648</ele>
        <time>2013-03-16T09:56:45.000Z</time>
      </trkpt>
      <trkpt lat="43.57915" lon="5.74881">
        <ele>460.39999389648</ele>
        <time>2013-03-16T09:57:00.000Z</time>
      </trkpt>
      <trkpt lat="43.57914" lon="5.74879">
        <ele>460.39999389648</ele>
        <time>2013-03-16T09:57:21.000Z</time>
      </trkpt>
      <trkpt lat="43.57916" lon="5.74886">
        <ele>460.20001220703</ele>
        <time>2013-03-16T09:57:42.000Z</time>
      </trkpt>
      <trkpt lat="43.5792" lon="5.74903">
        <ele>460</ele>
        <time>2013-03-16T09:57:48.000Z</time>
      </trkpt>
      <trkpt lat="43.57919" lon="5.74906">
        <ele>460</ele>
        <time>2013-03-16T09:57:49.000Z</time>
      </trkpt>
      <trkpt lat="43.57919" lon="5.74908">
        <ele>460</ele>
        <time>2013-03-16T09:57:50.000Z</time>
      </trkpt>
      <trkpt lat="43.57917" lon="5.74909">
        <ele>460</ele>
        <time>2013-03-16T09:57:51.000Z</time>
      </trkpt>
      <trkpt lat="43.57915" lon="5.74911">
        <ele>460</ele>
        <time>2013-03-16T09:57:52.000Z</time>
      </trkpt>
      <trkpt lat="43.57912" lon="5.74912">
        <ele>460</ele>
        <time>2013-03-16T09:57:53.000Z</time>
      </trkpt>
      <trkpt lat="43.57893" lon="5.74915">
        <ele>460.39999389648</ele>
        <time>2013-03-16T09:58:03.000Z</time>
      </trkpt>
      <trkpt lat="43.57868" lon="5.74927">
        <ele>461.20001220703</ele>
        <time>2013-03-16T09:58:12.000Z</time>
      </trkpt>
      <trkpt lat="43.5784" lon="5.7494">
        <ele>462.20001220703</ele>
        <time>2013-03-16T09:58:22.000Z</time>
      </trkpt>
      <trkpt lat="43.57816" lon="5.74949">
        <ele>463</ele>
        <time>2013-03-16T09:58:30.000Z</time>
      </trkpt>
      <trkpt lat="43.57784" lon="5.74963">
        <ele>464.20001220703</ele>
        <time>2013-03-16T09:58:40.000Z</time>
      </trkpt>
      <trkpt lat="43.57737" lon="5.74976">
        <ele>465.79998779297</ele>
        <time>2013-03-16T09:58:54.000Z</time>
      </trkpt>
      <trkpt lat="43.57685" lon="5.74971">
        <ele>467.60000610352</ele>
        <time>2013-03-16T09:59:07.000Z</time>
      </trkpt>
      <trkpt lat="43.57666" lon="5.74961">
        <ele>467.60000610352</ele>
        <time>2013-03-16T09:59:12.000Z</time>
      </trkpt>
      <trkpt lat="43.57618" lon="5.74937">
        <ele>468.20001220703</ele>
        <time>2013-03-16T09:59:24.000Z</time>
      </trkpt>
      <trkpt lat="43.57602" lon="5.74928">
        <ele>468.39999389648</ele>
        <time>2013-03-16T09:59:28.000Z</time>
      </trkpt>
      <trkpt lat="43.57539" lon="5.74887">
        <ele>466.60000610352</ele>
        <time>2013-03-16T09:59:43.000Z</time>
      </trkpt>
      <trkpt lat="43.5751" lon="5.74883">
        <ele>465.79998779297</ele>
        <time>2013-03-16T09:59:49.000Z</time>
      </trkpt>
      <trkpt lat="43.5746" lon="5.74893">
        <ele>465.60000610352</ele>
        <time>2013-03-16T09:59:58.000Z</time>
      </trkpt>
      <trkpt lat="43.57455" lon="5.74896">
        <ele>465.79998779297</ele>
        <time>2013-03-16T09:59:59.000Z</time>
      </trkpt>
      <trkpt lat="43.57439" lon="5.74906">
        <ele>466.60000610352</ele>
        <time>2013-03-16T10:00:02.000Z</time>
      </trkpt>
      <trkpt lat="43.57433" lon="5.74908">
        <ele>466.79998779297</ele>
        <time>2013-03-16T10:00:03.000Z</time>
      </trkpt>
      <trkpt lat="43.57427" lon="5.74908">
        <ele>466.79998779297</ele>
        <time>2013-03-16T10:00:04.000Z</time>
      </trkpt>
      <trkpt lat="43.57421" lon="5.74905">
        <ele>466.39999389648</ele>
        <time>2013-03-16T10:00:05.000Z</time>
      </trkpt>
      <trkpt lat="43.57415" lon="5.749">
        <ele>466</ele>
        <time>2013-03-16T10:00:06.000Z</time>
      </trkpt>
      <trkpt lat="43.5741" lon="5.74895">
        <ele>465.79998779297</ele>
        <time>2013-03-16T10:00:07.000Z</time>
      </trkpt>
      <trkpt lat="43.57406" lon="5.74888">
        <ele>465.20001220703</ele>
        <time>2013-03-16T10:00:08.000Z</time>
      </trkpt>
      <trkpt lat="43.57403" lon="5.74881">
        <ele>464.60000610352</ele>
        <time>2013-03-16T10:00:09.000Z</time>
      </trkpt>
      <trkpt lat="43.57399" lon="5.74873">
        <ele>464</ele>
        <time>2013-03-16T10:00:10.000Z</time>
      </trkpt>
      <trkpt lat="43.57395" lon="5.74865">
        <ele>463.39999389648</ele>
        <time>2013-03-16T10:00:11.000Z</time>
      </trkpt>
      <trkpt lat="43.5739" lon="5.74858">
        <ele>463</ele>
        <time>2013-03-16T10:00:12.000Z</time>
      </trkpt>
      <trkpt lat="43.57385" lon="5.74852">
        <ele>462.79998779297</ele>
        <time>2013-03-16T10:00:13.000Z</time>
      </trkpt>
      <trkpt lat="43.57317" lon="5.7479">
        <ele>459.39999389648</ele>
        <time>2013-03-16T10:00:24.000Z</time>
      </trkpt>
      <trkpt lat="43.57298" lon="5.7477">
        <ele>456.79998779297</ele>
        <time>2013-03-16T10:00:27.000Z</time>
      </trkpt>
      <trkpt lat="43.57291" lon="5.74766">
        <ele>456.20001220703</ele>
        <time>2013-03-16T10:00:28.000Z</time>
      </trkpt>
      <trkpt lat="43.57284" lon="5.74764">
        <ele>455.79998779297</ele>
        <time>2013-03-16T10:00:29.000Z</time>
      </trkpt>
      <trkpt lat="43.57276" lon="5.74763">
        <ele>455.79998779297</ele>
        <time>2013-03-16T10:00:30.000Z</time>
      </trkpt>
      <trkpt lat="43.57269" lon="5.74763">
        <ele>456</ele>
        <time>2013-03-16T10:00:31.000Z</time>
      </trkpt>
      <trkpt lat="43.57262" lon="5.74765">
        <ele>456.20001220703</ele>
        <time>2013-03-16T10:00:32.000Z</time>
      </trkpt>
      <trkpt lat="43.57248" lon="5.74768">
        <ele>456.79998779297</ele>
        <time>2013-03-16T10:00:34.000Z</time>
      </trkpt>
      <trkpt lat="43.57241" lon="5.74768">
        <ele>457.39999389648</ele>
        <time>2013-03-16T10:00:35.000Z</time>
      </trkpt>
      <trkpt lat="43.57234" lon="5.74766">
        <ele>457.60000610352</ele>
        <time>2013-03-16T10:00:36.000Z</time>
      </trkpt>
      <trkpt lat="43.57227" lon="5.74763">
        <ele>457.79998779297</ele>
        <time>2013-03-16T10:00:37.000Z</time>
      </trkpt>
      <trkpt lat="43.57221" lon="5.74759">
        <ele>457.60000610352</ele>
        <time>2013-03-16T10:00:38.000Z</time>
      </trkpt>
      <trkpt lat="43.57215" lon="5.74754">
        <ele>457.39999389648</ele>
        <time>2013-03-16T10:00:39.000Z</time>
      </trkpt>
      <trkpt lat="43.57209" lon="5.74747">
        <ele>457</ele>
        <time>2013-03-16T10:00:40.000Z</time>
      </trkpt>
      <trkpt lat="43.57205" lon="5.74738">
        <ele>456.60000610352</ele>
        <time>2013-03-16T10:00:41.000Z</time>
      </trkpt>
      <trkpt lat="43.57203" lon="5.74727">
        <ele>455.79998779297</ele>
        <time>2013-03-16T10:00:42.000Z</time>
      </trkpt>
      <trkpt lat="43.57203" lon="5.74716">
        <ele>454.79998779297</ele>
        <time>2013-03-16T10:00:43.000Z</time>
      </trkpt>
      <trkpt lat="43.57203" lon="5.74704">
        <ele>453.79998779297</ele>
        <time>2013-03-16T10:00:44.000Z</time>
      </trkpt>
      <trkpt lat="43.57202" lon="5.74683">
        <ele>452</ele>
        <time>2013-03-16T10:00:46.000Z</time>
      </trkpt>
      <trkpt lat="43.57199" lon="5.74673">
        <ele>451.60000610352</ele>
        <time>2013-03-16T10:00:47.000Z</time>
      </trkpt>
      <trkpt lat="43.57195" lon="5.74665">
        <ele>451.39999389648</ele>
        <time>2013-03-16T10:00:48.000Z</time>
      </trkpt>
      <trkpt lat="43.5719" lon="5.74659">
        <ele>451.60000610352</ele>
        <time>2013-03-16T10:00:49.000Z</time>
      </trkpt>
      <trkpt lat="43.57183" lon="5.74653">
        <ele>451.79998779297</ele>
        <time>2013-03-16T10:00:50.000Z</time>
      </trkpt>
      <trkpt lat="43.57177" lon="5.74648">
        <ele>452.20001220703</ele>
        <time>2013-03-16T10:00:51.000Z</time>
      </trkpt>
      <trkpt lat="43.57076" lon="5.74574">
        <ele>449.39999389648</ele>
        <time>2013-03-16T10:01:06.000Z</time>
      </trkpt>
      <trkpt lat="43.56985" lon="5.74521">
        <ele>445.20001220703</ele>
        <time>2013-03-16T10:01:18.000Z</time>
      </trkpt>
      <trkpt lat="43.56932" lon="5.74493">
        <ele>441.39999389648</ele>
        <time>2013-03-16T10:01:25.000Z</time>
      </trkpt>
      <trkpt lat="43.56924" lon="5.74488">
        <ele>440.79998779297</ele>
        <time>2013-03-16T10:01:26.000Z</time>
      </trkpt>
      <trkpt lat="43.56902" lon="5.74471">
        <ele>440.39999389648</ele>
        <time>2013-03-16T10:01:29.000Z</time>
      </trkpt>
      <trkpt lat="43.56895" lon="5.74463">
        <ele>440.39999389648</ele>
        <time>2013-03-16T10:01:30.000Z</time>
      </trkpt>
      <trkpt lat="43.56884" lon="5.74444">
        <ele>440.39999389648</ele>
        <time>2013-03-16T10:01:32.000Z</time>
      </trkpt>
      <trkpt lat="43.56821" lon="5.7434">
        <ele>439.60000610352</ele>
        <time>2013-03-16T10:01:44.000Z</time>
      </trkpt>
      <trkpt lat="43.56788" lon="5.74283">
        <ele>439.20001220703</ele>
        <time>2013-03-16T10:01:51.000Z</time>
      </trkpt>
      <trkpt lat="43.56784" lon="5.74273">
        <ele>439</ele>
        <time>2013-03-16T10:01:52.000Z</time>
      </trkpt>
      <trkpt lat="43.56783" lon="5.74263">
        <ele>438.79998779297</ele>
        <time>2013-03-16T10:01:53.000Z</time>
      </trkpt>
      <trkpt lat="43.56783" lon="5.74252">
        <ele>438.60000610352</ele>
        <time>2013-03-16T10:01:54.000Z</time>
      </trkpt>
      <trkpt lat="43.56784" lon="5.74241">
        <ele>437.79998779297</ele>
        <time>2013-03-16T10:01:55.000Z</time>
      </trkpt>
      <trkpt lat="43.56787" lon="5.7423">
        <ele>437.20001220703</ele>
        <time>2013-03-16T10:01:56.000Z</time>
      </trkpt>
      <trkpt lat="43.5679" lon="5.74221">
        <ele>436.39999389648</ele>
        <time>2013-03-16T10:01:57.000Z</time>
      </trkpt>
      <trkpt lat="43.56794" lon="5.74212">
        <ele>435.79998779297</ele>
        <time>2013-03-16T10:01:58.000Z</time>
      </trkpt>
      <trkpt lat="43.56798" lon="5.74202">
        <ele>435.20001220703</ele>
        <time>2013-03-16T10:01:59.000Z</time>
      </trkpt>
      <trkpt lat="43.56854" lon="5.7408">
        <ele>429.39999389648</ele>
        <time>2013-03-16T10:02:12.000Z</time>
      </trkpt>
      <trkpt lat="43.56902" lon="5.73998">
        <ele>426.79998779297</ele>
        <time>2013-03-16T10:02:21.000Z</time>
      </trkpt>
      <trkpt lat="43.56906" lon="5.73987">
        <ele>425.60000610352</ele>
        <time>2013-03-16T10:02:22.000Z</time>
      </trkpt>
      <trkpt lat="43.56909" lon="5.73976">
        <ele>424.60000610352</ele>
        <time>2013-03-16T10:02:23.000Z</time>
      </trkpt>
      <trkpt lat="43.5691" lon="5.73963">
        <ele>423.39999389648</ele>
        <time>2013-03-16T10:02:24.000Z</time>
      </trkpt>
      <trkpt lat="43.56909" lon="5.73951">
        <ele>422.60000610352</ele>
        <time>2013-03-16T10:02:25.000Z</time>
      </trkpt>
      <trkpt lat="43.56905" lon="5.73939">
        <ele>422</ele>
        <time>2013-03-16T10:02:26.000Z</time>
      </trkpt>
      <trkpt lat="43.569" lon="5.73928">
        <ele>421.79998779297</ele>
        <time>2013-03-16T10:02:27.000Z</time>
      </trkpt>
      <trkpt lat="43.56894" lon="5.73917">
        <ele>421.60000610352</ele>
        <time>2013-03-16T10:02:28.000Z</time>
      </trkpt>
      <trkpt lat="43.56857" lon="5.73839">
        <ele>421.39999389648</ele>
        <time>2013-03-16T10:02:35.000Z</time>
      </trkpt>
      <trkpt lat="43.56838" lon="5.7378">
        <ele>419</ele>
        <time>2013-03-16T10:02:41.000Z</time>
      </trkpt>
      <trkpt lat="43.56836" lon="5.73771">
        <ele>418.39999389648</ele>
        <time>2013-03-16T10:02:42.000Z</time>
      </trkpt>
      <trkpt lat="43.56827" lon="5.73729">
        <ele>417</ele>
        <time>2013-03-16T10:02:47.000Z</time>
      </trkpt>
      <trkpt lat="43.56827" lon="5.73721">
        <ele>416.79998779297</ele>
        <time>2013-03-16T10:02:48.000Z</time>
      </trkpt>
      <trkpt lat="43.56828" lon="5.7364">
        <ele>416.39999389648</ele>
        <time>2013-03-16T10:02:57.000Z</time>
      </trkpt>
      <trkpt lat="43.56829" lon="5.73587">
        <ele>417</ele>
        <time>2013-03-16T10:03:03.000Z</time>
      </trkpt>
      <trkpt lat="43.56829" lon="5.73578">
        <ele>417.39999389648</ele>
        <time>2013-03-16T10:03:04.000Z</time>
      </trkpt>
      <trkpt lat="43.56831" lon="5.73549">
        <ele>419</ele>
        <time>2013-03-16T10:03:07.000Z</time>
      </trkpt>
      <trkpt lat="43.56831" lon="5.73496">
        <ele>422.20001220703</ele>
        <time>2013-03-16T10:03:13.000Z</time>
      </trkpt>
      <trkpt lat="43.5683" lon="5.73489">
        <ele>422.79998779297</ele>
        <time>2013-03-16T10:03:14.000Z</time>
      </trkpt>
      <trkpt lat="43.56827" lon="5.73482">
        <ele>423.20001220703</ele>
        <time>2013-03-16T10:03:15.000Z</time>
      </trkpt>
      <trkpt lat="43.56824" lon="5.73478">
        <ele>423.60000610352</ele>
        <time>2013-03-16T10:03:16.000Z</time>
      </trkpt>
      <trkpt lat="43.5682" lon="5.73475">
        <ele>423.79998779297</ele>
        <time>2013-03-16T10:03:17.000Z</time>
      </trkpt>
      <trkpt lat="43.56816" lon="5.73474">
        <ele>423.79998779297</ele>
        <time>2013-03-16T10:03:18.000Z</time>
      </trkpt>
      <trkpt lat="43.56812" lon="5.73474">
        <ele>423.60000610352</ele>
        <time>2013-03-16T10:03:19.000Z</time>
      </trkpt>
      <trkpt lat="43.56808" lon="5.73474">
        <ele>423.60000610352</ele>
        <time>2013-03-16T10:03:20.000Z</time>
      </trkpt>
      <trkpt lat="43.56805" lon="5.73473">
        <ele>423.60000610352</ele>
        <time>2013-03-16T10:03:21.000Z</time>
      </trkpt>
      <trkpt lat="43.56801" lon="5.73471">
        <ele>423.60000610352</ele>
        <time>2013-03-16T10:03:22.000Z</time>
      </trkpt>
      <trkpt lat="43.56798" lon="5.73469">
        <ele>423.79998779297</ele>
        <time>2013-03-16T10:03:23.000Z</time>
      </trkpt>
      <trkpt lat="43.56795" lon="5.73467">
        <ele>423.79998779297</ele>
        <time>2013-03-16T10:03:24.000Z</time>
      </trkpt>
      <trkpt lat="43.56793" lon="5.73463">
        <ele>424</ele>
        <time>2013-03-16T10:03:25.000Z</time>
      </trkpt>
      <trkpt lat="43.56791" lon="5.73459">
        <ele>424.39999389648</ele>
        <time>2013-03-16T10:03:26.000Z</time>
      </trkpt>
      <trkpt lat="43.5679" lon="5.73455">
        <ele>424.60000610352</ele>
        <time>2013-03-16T10:03:27.000Z</time>
      </trkpt>
      <trkpt lat="43.5679" lon="5.73451">
        <ele>425</ele>
        <time>2013-03-16T10:03:28.000Z</time>
      </trkpt>
      <trkpt lat="43.56796" lon="5.73416">
        <ele>427.60000610352</ele>
        <time>2013-03-16T10:03:36.000Z</time>
      </trkpt>
      <trkpt lat="43.5681" lon="5.73385">
        <ele>428.39999389648</ele>
        <time>2013-03-16T10:03:46.000Z</time>
      </trkpt>
      <trkpt lat="43.56829" lon="5.73372">
        <ele>428.79998779297</ele>
        <time>2013-03-16T10:03:56.000Z</time>
      </trkpt>
      <trkpt lat="43.56845" lon="5.73364">
        <ele>430.79998779297</ele>
        <time>2013-03-16T10:04:05.000Z</time>
      </trkpt>
      <trkpt lat="43.56862" lon="5.73352">
        <ele>433</ele>
        <time>2013-03-16T10:04:16.000Z</time>
      </trkpt>
      <trkpt lat="43.56871" lon="5.73345">
        <ele>434</ele>
        <time>2013-03-16T10:04:22.000Z</time>
      </trkpt>
      <trkpt lat="43.56872" lon="5.73343">
        <ele>434.20001220703</ele>
        <time>2013-03-16T10:04:23.000Z</time>
      </trkpt>
      <trkpt lat="43.56888" lon="5.7333">
        <ele>436.20001220703</ele>
        <time>2013-03-16T10:04:33.000Z</time>
      </trkpt>
      <trkpt lat="43.56909" lon="5.73315">
        <ele>439</ele>
        <time>2013-03-16T10:04:44.000Z</time>
      </trkpt>
      <trkpt lat="43.56924" lon="5.73297">
        <ele>440.79998779297</ele>
        <time>2013-03-16T10:04:52.000Z</time>
      </trkpt>
      <trkpt lat="43.5694" lon="5.73283">
        <ele>442.20001220703</ele>
        <time>2013-03-16T10:05:01.000Z</time>
      </trkpt>
      <trkpt lat="43.56957" lon="5.73269">
        <ele>443.39999389648</ele>
        <time>2013-03-16T10:05:10.000Z</time>
      </trkpt>
      <trkpt lat="43.56969" lon="5.73254">
        <ele>443.79998779297</ele>
        <time>2013-03-16T10:05:17.000Z</time>
      </trkpt>
      <trkpt lat="43.56984" lon="5.7323">
        <ele>445.60000610352</ele>
        <time>2013-03-16T10:05:27.000Z</time>
      </trkpt>
      <trkpt lat="43.56996" lon="5.73201">
        <ele>447.39999389648</ele>
        <time>2013-03-16T10:05:37.000Z</time>
      </trkpt>
      <trkpt lat="43.57012" lon="5.73176">
        <ele>449.60000610352</ele>
        <time>2013-03-16T10:05:48.000Z</time>
      </trkpt>
      <trkpt lat="43.57037" lon="5.73147">
        <ele>453</ele>
        <time>2013-03-16T10:06:02.000Z</time>
      </trkpt>
      <trkpt lat="43.57058" lon="5.73117">
        <ele>455.39999389648</ele>
        <time>2013-03-16T10:06:14.000Z</time>
      </trkpt>
      <trkpt lat="43.57075" lon="5.73088">
        <ele>456.60000610352</ele>
        <time>2013-03-16T10:06:25.000Z</time>
      </trkpt>
      <trkpt lat="43.57095" lon="5.73055">
        <ele>458.20001220703</ele>
        <time>2013-03-16T10:06:37.000Z</time>
      </trkpt>
      <trkpt lat="43.57104" lon="5.73044">
        <ele>459</ele>
        <time>2013-03-16T10:06:42.000Z</time>
      </trkpt>
      <trkpt lat="43.57105" lon="5.73041">
        <ele>459</ele>
        <time>2013-03-16T10:06:43.000Z</time>
      </trkpt>
      <trkpt lat="43.57113" lon="5.73025">
        <ele>460</ele>
        <time>2013-03-16T10:06:49.000Z</time>
      </trkpt>
      <trkpt lat="43.57113" lon="5.73023">
        <ele>460.20001220703</ele>
        <time>2013-03-16T10:06:50.000Z</time>
      </trkpt>
      <trkpt lat="43.57114" lon="5.7302">
        <ele>460.39999389648</ele>
        <time>2013-03-16T10:06:51.000Z</time>
      </trkpt>
      <trkpt lat="43.57115" lon="5.73018">
        <ele>460.60000610352</ele>
        <time>2013-03-16T10:06:52.000Z</time>
      </trkpt>
      <trkpt lat="43.57116" lon="5.73016">
        <ele>460.60000610352</ele>
        <time>2013-03-16T10:06:53.000Z</time>
      </trkpt>
      <trkpt lat="43.57116" lon="5.73014">
        <ele>460.79998779297</ele>
        <time>2013-03-16T10:06:54.000Z</time>
      </trkpt>
      <trkpt lat="43.57117" lon="5.73012">
        <ele>461</ele>
        <time>2013-03-16T10:06:55.000Z</time>
      </trkpt>
      <trkpt lat="43.57118" lon="5.73009">
        <ele>461.20001220703</ele>
        <time>2013-03-16T10:06:56.000Z</time>
      </trkpt>
      <trkpt lat="43.5712" lon="5.73006">
        <ele>461.39999389648</ele>
        <time>2013-03-16T10:07:05.000Z</time>
      </trkpt>
      <trkpt lat="43.57121" lon="5.73002">
        <ele>461.60000610352</ele>
        <time>2013-03-16T10:07:08.000Z</time>
      </trkpt>
      <trkpt lat="43.57122" lon="5.73">
        <ele>461.79998779297</ele>
        <time>2013-03-16T10:07:09.000Z</time>
      </trkpt>
      <trkpt lat="43.57122" lon="5.72998">
        <ele>462</ele>
        <time>2013-03-16T10:07:10.000Z</time>
      </trkpt>
      <trkpt lat="43.57123" lon="5.72995">
        <ele>462</ele>
        <time>2013-03-16T10:07:11.000Z</time>
      </trkpt>
      <trkpt lat="43.57124" lon="5.72992">
        <ele>462.20001220703</ele>
        <time>2013-03-16T10:07:12.000Z</time>
      </trkpt>
      <trkpt lat="43.57125" lon="5.7299">
        <ele>462.39999389648</ele>
        <time>2013-03-16T10:07:13.000Z</time>
      </trkpt>
      <trkpt lat="43.57126" lon="5.72988">
        <ele>462.60000610352</ele>
        <time>2013-03-16T10:07:14.000Z</time>
      </trkpt>
      <trkpt lat="43.57127" lon="5.72985">
        <ele>462.60000610352</ele>
        <time>2013-03-16T10:07:15.000Z</time>
      </trkpt>
      <trkpt lat="43.57129" lon="5.72982">
        <ele>462.79998779297</ele>
        <time>2013-03-16T10:07:16.000Z</time>
      </trkpt>
      <trkpt lat="43.57146" lon="5.72951">
        <ele>464.39999389648</ele>
        <time>2013-03-16T10:07:24.000Z</time>
      </trkpt>
      <trkpt lat="43.57148" lon="5.72946">
        <ele>464.60000610352</ele>
        <time>2013-03-16T10:07:25.000Z</time>
      </trkpt>
      <trkpt lat="43.57156" lon="5.72929">
        <ele>465.39999389648</ele>
        <time>2013-03-16T10:07:28.000Z</time>
      </trkpt>
      <trkpt lat="43.57165" lon="5.72908">
        <ele>466.20001220703</ele>
        <time>2013-03-16T10:07:31.000Z</time>
      </trkpt>
      <trkpt lat="43.5717" lon="5.72895">
        <ele>466.60000610352</ele>
        <time>2013-03-16T10:07:33.000Z</time>
      </trkpt>
      <trkpt lat="43.57182" lon="5.72863">
        <ele>467.79998779297</ele>
        <time>2013-03-16T10:07:38.000Z</time>
      </trkpt>
      <trkpt lat="43.57187" lon="5.72813">
        <ele>469.39999389648</ele>
        <time>2013-03-16T10:07:47.000Z</time>
      </trkpt>
      <trkpt lat="43.57187" lon="5.72785">
        <ele>470.60000610352</ele>
        <time>2013-03-16T10:07:54.000Z</time>
      </trkpt>
      <trkpt lat="43.57186" lon="5.72743">
        <ele>472.39999389648</ele>
        <time>2013-03-16T10:08:03.000Z</time>
      </trkpt>
      <trkpt lat="43.57184" lon="5.7268">
        <ele>476.39999389648</ele>
        <time>2013-03-16T10:08:17.000Z</time>
      </trkpt>
      <trkpt lat="43.57192" lon="5.72647">
        <ele>477.79998779297</ele>
        <time>2013-03-16T10:08:25.000Z</time>
      </trkpt>
      <trkpt lat="43.57204" lon="5.72595">
        <ele>479.39999389648</ele>
        <time>2013-03-16T10:08:37.000Z</time>
      </trkpt>
      <trkpt lat="43.57213" lon="5.72554">
        <ele>481.20001220703</ele>
        <time>2013-03-16T10:08:47.000Z</time>
      </trkpt>
      <trkpt lat="43.57209" lon="5.72523">
        <ele>482.39999389648</ele>
        <time>2013-03-16T10:08:55.000Z</time>
      </trkpt>
      <trkpt lat="43.57201" lon="5.7249">
        <ele>483.79998779297</ele>
        <time>2013-03-16T10:09:04.000Z</time>
      </trkpt>
      <trkpt lat="43.57185" lon="5.72446">
        <ele>486.20001220703</ele>
        <time>2013-03-16T10:09:15.000Z</time>
      </trkpt>
      <trkpt lat="43.57179" lon="5.72407">
        <ele>488.39999389648</ele>
        <time>2013-03-16T10:09:24.000Z</time>
      </trkpt>
      <trkpt lat="43.57188" lon="5.72367">
        <ele>490.60000610352</ele>
        <time>2013-03-16T10:09:34.000Z</time>
      </trkpt>
      <trkpt lat="43.57198" lon="5.7234">
        <ele>492.20001220703</ele>
        <time>2013-03-16T10:09:41.000Z</time>
      </trkpt>
      <trkpt lat="43.57214" lon="5.72291">
        <ele>495.60000610352</ele>
        <time>2013-03-16T10:09:53.000Z</time>
      </trkpt>
      <trkpt lat="43.57231" lon="5.72241">
        <ele>499.20001220703</ele>
        <time>2013-03-16T10:10:05.000Z</time>
      </trkpt>
      <trkpt lat="43.57244" lon="5.722">
        <ele>500.39999389648</ele>
        <time>2013-03-16T10:10:14.000Z</time>
      </trkpt>
      <trkpt lat="43.5725" lon="5.72185">
        <ele>500.60000610352</ele>
        <time>2013-03-16T10:10:19.000Z</time>
      </trkpt>
      <trkpt lat="43.57253" lon="5.72179">
        <ele>500.60000610352</ele>
        <time>2013-03-16T10:10:28.000Z</time>
      </trkpt>
      <trkpt lat="43.57255" lon="5.72177">
        <ele>500.60000610352</ele>
        <time>2013-03-16T10:10:45.000Z</time>
      </trkpt>
      <trkpt lat="43.57255" lon="5.72177">
        <ele>500.60000610352</ele>
        <time>2013-03-16T10:11:11.000Z</time>
      </trkpt>
      <trkpt lat="43.57253" lon="5.72176">
        <ele>500.79998779297</ele>
        <time>2013-03-16T10:11:34.000Z</time>
      </trkpt>
      <trkpt lat="43.57253" lon="5.72176">
        <ele>500.79998779297</ele>
        <time>2013-03-16T10:11:52.000Z</time>
      </trkpt>
      <trkpt lat="43.57255" lon="5.72179">
        <ele>500.60000610352</ele>
        <time>2013-03-16T10:12:16.000Z</time>
      </trkpt>
      <trkpt lat="43.57255" lon="5.72179">
        <ele>500.60000610352</ele>
        <time>2013-03-16T10:12:42.000Z</time>
      </trkpt>
      <trkpt lat="43.57256" lon="5.72176">
        <ele>500.60000610352</ele>
        <time>2013-03-16T10:12:58.000Z</time>
      </trkpt>
      <trkpt lat="43.57257" lon="5.72174">
        <ele>500.60000610352</ele>
        <time>2013-03-16T10:12:59.000Z</time>
      </trkpt>
      <trkpt lat="43.57258" lon="5.72172">
        <ele>500.60000610352</ele>
        <time>2013-03-16T10:13:00.000Z</time>
      </trkpt>
      <trkpt lat="43.57259" lon="5.7217">
        <ele>500.60000610352</ele>
        <time>2013-03-16T10:13:01.000Z</time>
      </trkpt>
      <trkpt lat="43.57261" lon="5.72168">
        <ele>500.60000610352</ele>
        <time>2013-03-16T10:13:02.000Z</time>
      </trkpt>
      <trkpt lat="43.57263" lon="5.72166">
        <ele>500.60000610352</ele>
        <time>2013-03-16T10:13:03.000Z</time>
      </trkpt>
      <trkpt lat="43.57265" lon="5.72165">
        <ele>500.60000610352</ele>
        <time>2013-03-16T10:13:04.000Z</time>
      </trkpt>
      <trkpt lat="43.57266" lon="5.72163">
        <ele>500.60000610352</ele>
        <time>2013-03-16T10:13:05.000Z</time>
      </trkpt>
      <trkpt lat="43.57268" lon="5.72162">
        <ele>500.60000610352</ele>
        <time>2013-03-16T10:13:06.000Z</time>
      </trkpt>
      <trkpt lat="43.57271" lon="5.72162">
        <ele>500.39999389648</ele>
        <time>2013-03-16T10:13:07.000Z</time>
      </trkpt>
      <trkpt lat="43.57274" lon="5.72161">
        <ele>500.39999389648</ele>
        <time>2013-03-16T10:13:08.000Z</time>
      </trkpt>
      <trkpt lat="43.57305" lon="5.72159">
        <ele>499.79998779297</ele>
        <time>2013-03-16T10:13:19.000Z</time>
      </trkpt>
      <trkpt lat="43.57336" lon="5.72163">
        <ele>499</ele>
        <time>2013-03-16T10:13:28.000Z</time>
      </trkpt>
      <trkpt lat="43.57347" lon="5.72157">
        <ele>498.39999389648</ele>
        <time>2013-03-16T10:13:31.000Z</time>
      </trkpt>
      <trkpt lat="43.5735" lon="5.72154">
        <ele>498.20001220703</ele>
        <time>2013-03-16T10:13:32.000Z</time>
      </trkpt>
      <trkpt lat="43.57353" lon="5.72149">
        <ele>498.20001220703</ele>
        <time>2013-03-16T10:13:33.000Z</time>
      </trkpt>
      <trkpt lat="43.57356" lon="5.72144">
        <ele>498.20001220703</ele>
        <time>2013-03-16T10:13:34.000Z</time>
      </trkpt>
      <trkpt lat="43.57358" lon="5.72139">
        <ele>498.20001220703</ele>
        <time>2013-03-16T10:13:35.000Z</time>
      </trkpt>
      <trkpt lat="43.57362" lon="5.72092">
        <ele>499</ele>
        <time>2013-03-16T10:13:44.000Z</time>
      </trkpt>
      <trkpt lat="43.5736" lon="5.72087">
        <ele>499.20001220703</ele>
        <time>2013-03-16T10:13:45.000Z</time>
      </trkpt>
      <trkpt lat="43.57357" lon="5.72082">
        <ele>499.39999389648</ele>
        <time>2013-03-16T10:13:46.000Z</time>
      </trkpt>
      <trkpt lat="43.57355" lon="5.72078">
        <ele>499.39999389648</ele>
        <time>2013-03-16T10:13:47.000Z</time>
      </trkpt>
      <trkpt lat="43.57351" lon="5.72075">
        <ele>499.39999389648</ele>
        <time>2013-03-16T10:13:48.000Z</time>
      </trkpt>
      <trkpt lat="43.57348" lon="5.72071">
        <ele>499.39999389648</ele>
        <time>2013-03-16T10:13:49.000Z</time>
      </trkpt>
      <trkpt lat="43.57345" lon="5.72068">
        <ele>499.60000610352</ele>
        <time>2013-03-16T10:13:50.000Z</time>
      </trkpt>
      <trkpt lat="43.57342" lon="5.72065">
        <ele>499.60000610352</ele>
        <time>2013-03-16T10:13:51.000Z</time>
      </trkpt>
      <trkpt lat="43.57308" lon="5.72024">
        <ele>498.60000610352</ele>
        <time>2013-03-16T10:14:03.000Z</time>
      </trkpt>
      <trkpt lat="43.57273" lon="5.71979">
        <ele>498.20001220703</ele>
        <time>2013-03-16T10:14:15.000Z</time>
      </trkpt>
      <trkpt lat="43.57264" lon="5.71966">
        <ele>498.60000610352</ele>
        <time>2013-03-16T10:14:18.000Z</time>
      </trkpt>
      <trkpt lat="43.57261" lon="5.71961">
        <ele>498.79998779297</ele>
        <time>2013-03-16T10:14:19.000Z</time>
      </trkpt>
      <trkpt lat="43.57238" lon="5.71926">
        <ele>501.20001220703</ele>
        <time>2013-03-16T10:14:29.000Z</time>
      </trkpt>
      <trkpt lat="43.57226" lon="5.7191">
        <ele>502.39999389648</ele>
        <time>2013-03-16T10:14:34.000Z</time>
      </trkpt>
      <trkpt lat="43.5721" lon="5.71881">
        <ele>505</ele>
        <time>2013-03-16T10:14:44.000Z</time>
      </trkpt>
      <trkpt lat="43.57191" lon="5.71839">
        <ele>509.20001220703</ele>
        <time>2013-03-16T10:14:57.000Z</time>
      </trkpt>
      <trkpt lat="43.57169" lon="5.71798">
        <ele>513.40002441406</ele>
        <time>2013-03-16T10:15:11.000Z</time>
      </trkpt>
      <trkpt lat="43.57161" lon="5.71783">
        <ele>514.20001220703</ele>
        <time>2013-03-16T10:15:16.000Z</time>
      </trkpt>
      <trkpt lat="43.57145" lon="5.71749">
        <ele>516</ele>
        <time>2013-03-16T10:15:26.000Z</time>
      </trkpt>
      <trkpt lat="43.57136" lon="5.71733">
        <ele>516.40002441406</ele>
        <time>2013-03-16T10:15:31.000Z</time>
      </trkpt>
      <trkpt lat="43.57122" lon="5.71705">
        <ele>518</ele>
        <time>2013-03-16T10:15:40.000Z</time>
      </trkpt>
      <trkpt lat="43.57107" lon="5.71671">
        <ele>520.59997558594</ele>
        <time>2013-03-16T10:15:50.000Z</time>
      </trkpt>
      <trkpt lat="43.57088" lon="5.71635">
        <ele>524.20001220703</ele>
        <time>2013-03-16T10:16:01.000Z</time>
      </trkpt>
      <trkpt lat="43.57075" lon="5.71616">
        <ele>526.20001220703</ele>
        <time>2013-03-16T10:16:10.000Z</time>
      </trkpt>
      <trkpt lat="43.57053" lon="5.71598">
        <ele>528.59997558594</ele>
        <time>2013-03-16T10:16:22.000Z</time>
      </trkpt>
      <trkpt lat="43.57049" lon="5.71596">
        <ele>529</ele>
        <time>2013-03-16T10:16:24.000Z</time>
      </trkpt>
      <trkpt lat="43.57048" lon="5.71594">
        <ele>529.20001220703</ele>
        <time>2013-03-16T10:16:25.000Z</time>
      </trkpt>
      <trkpt lat="43.57046" lon="5.71592">
        <ele>529.40002441406</ele>
        <time>2013-03-16T10:16:26.000Z</time>
      </trkpt>
      <trkpt lat="43.57025" lon="5.71575">
        <ele>532.79998779297</ele>
        <time>2013-03-16T10:16:38.000Z</time>
      </trkpt>
      <trkpt lat="43.57003" lon="5.71558">
        <ele>536.59997558594</ele>
        <time>2013-03-16T10:16:49.000Z</time>
      </trkpt>
      <trkpt lat="43.56977" lon="5.71548">
        <ele>539.79998779297</ele>
        <time>2013-03-16T10:17:00.000Z</time>
      </trkpt>
      <trkpt lat="43.56951" lon="5.71537">
        <ele>542.59997558594</ele>
        <time>2013-03-16T10:17:12.000Z</time>
      </trkpt>
      <trkpt lat="43.56925" lon="5.7153">
        <ele>544.59997558594</ele>
        <time>2013-03-16T10:17:24.000Z</time>
      </trkpt>
      <trkpt lat="43.56919" lon="5.71529">
        <ele>545</ele>
        <time>2013-03-16T10:17:27.000Z</time>
      </trkpt>
      <trkpt lat="43.5691" lon="5.71529">
        <ele>545.59997558594</ele>
        <time>2013-03-16T10:17:31.000Z</time>
      </trkpt>
      <trkpt lat="43.56908" lon="5.71528">
        <ele>545.59997558594</ele>
        <time>2013-03-16T10:17:32.000Z</time>
      </trkpt>
      <trkpt lat="43.56905" lon="5.71528">
        <ele>545.79998779297</ele>
        <time>2013-03-16T10:17:33.000Z</time>
      </trkpt>
      <trkpt lat="43.56903" lon="5.71528">
        <ele>545.79998779297</ele>
        <time>2013-03-16T10:17:34.000Z</time>
      </trkpt>
      <trkpt lat="43.56901" lon="5.71527">
        <ele>546</ele>
        <time>2013-03-16T10:17:35.000Z</time>
      </trkpt>
      <trkpt lat="43.56874" lon="5.71528">
        <ele>547.20001220703</ele>
        <time>2013-03-16T10:17:46.000Z</time>
      </trkpt>
      <trkpt lat="43.56844" lon="5.71537">
        <ele>549</ele>
        <time>2013-03-16T10:17:58.000Z</time>
      </trkpt>
      <trkpt lat="43.56819" lon="5.71548">
        <ele>550.20001220703</ele>
        <time>2013-03-16T10:18:08.000Z</time>
      </trkpt>
      <trkpt lat="43.56786" lon="5.71553">
        <ele>550.20001220703</ele>
        <time>2013-03-16T10:18:18.000Z</time>
      </trkpt>
      <trkpt lat="43.56763" lon="5.71555">
        <ele>550.20001220703</ele>
        <time>2013-03-16T10:18:28.000Z</time>
      </trkpt>
      <trkpt lat="43.5676" lon="5.71554">
        <ele>550.20001220703</ele>
        <time>2013-03-16T10:18:36.000Z</time>
      </trkpt>
      <trkpt lat="43.56758" lon="5.71554">
        <ele>550.20001220703</ele>
        <time>2013-03-16T10:18:45.000Z</time>
      </trkpt>
      <trkpt lat="43.56758" lon="5.71554">
        <ele>550.20001220703</ele>
        <time>2013-03-16T10:19:03.000Z</time>
      </trkpt>
      <trkpt lat="43.56758" lon="5.71555">
        <ele>550.20001220703</ele>
        <time>2013-03-16T10:19:26.000Z</time>
      </trkpt>
      <trkpt lat="43.56758" lon="5.71555">
        <ele>550.20001220703</ele>
        <time>2013-03-16T10:19:48.000Z</time>
      </trkpt>
      <trkpt lat="43.56758" lon="5.71554">
        <ele>550.20001220703</ele>
        <time>2013-03-16T10:20:09.000Z</time>
      </trkpt>
      <trkpt lat="43.56753" lon="5.71555">
        <ele>550.20001220703</ele>
        <time>2013-03-16T10:20:24.000Z</time>
      </trkpt>
      <trkpt lat="43.56725" lon="5.71566">
        <ele>550</ele>
        <time>2013-03-16T10:20:33.000Z</time>
      </trkpt>
      <trkpt lat="43.56721" lon="5.71568">
        <ele>550</ele>
        <time>2013-03-16T10:20:34.000Z</time>
      </trkpt>
      <trkpt lat="43.56717" lon="5.71569">
        <ele>549.79998779297</ele>
        <time>2013-03-16T10:20:35.000Z</time>
      </trkpt>
      <trkpt lat="43.56699" lon="5.71571">
        <ele>549.40002441406</ele>
        <time>2013-03-16T10:20:39.000Z</time>
      </trkpt>
      <trkpt lat="43.56677" lon="5.71568">
        <ele>548.40002441406</ele>
        <time>2013-03-16T10:20:43.000Z</time>
      </trkpt>
      <trkpt lat="43.56671" lon="5.71566">
        <ele>548</ele>
        <time>2013-03-16T10:20:44.000Z</time>
      </trkpt>
      <trkpt lat="43.56608" lon="5.71527">
        <ele>546.40002441406</ele>
        <time>2013-03-16T10:20:54.000Z</time>
      </trkpt>
      <trkpt lat="43.56558" lon="5.71481">
        <ele>544.20001220703</ele>
        <time>2013-03-16T10:21:02.000Z</time>
      </trkpt>
      <trkpt lat="43.56553" lon="5.71473">
        <ele>543.40002441406</ele>
        <time>2013-03-16T10:21:03.000Z</time>
      </trkpt>
      <trkpt lat="43.56549" lon="5.71463">
        <ele>542.40002441406</ele>
        <time>2013-03-16T10:21:04.000Z</time>
      </trkpt>
      <trkpt lat="43.56547" lon="5.71453">
        <ele>541.59997558594</ele>
        <time>2013-03-16T10:21:05.000Z</time>
      </trkpt>
      <trkpt lat="43.56544" lon="5.71441">
        <ele>540.59997558594</ele>
        <time>2013-03-16T10:21:06.000Z</time>
      </trkpt>
      <trkpt lat="43.56543" lon="5.71429">
        <ele>539.79998779297</ele>
        <time>2013-03-16T10:21:07.000Z</time>
      </trkpt>
      <trkpt lat="43.56532" lon="5.71367">
        <ele>537.20001220703</ele>
        <time>2013-03-16T10:21:12.000Z</time>
      </trkpt>
      <trkpt lat="43.5653" lon="5.71354">
        <ele>537</ele>
        <time>2013-03-16T10:21:13.000Z</time>
      </trkpt>
      <trkpt lat="43.56521" lon="5.7132">
        <ele>537.40002441406</ele>
        <time>2013-03-16T10:21:16.000Z</time>
      </trkpt>
      <trkpt lat="43.56513" lon="5.71288">
        <ele>539</ele>
        <time>2013-03-16T10:21:19.000Z</time>
      </trkpt>
      <trkpt lat="43.56508" lon="5.71278">
        <ele>539.59997558594</ele>
        <time>2013-03-16T10:21:20.000Z</time>
      </trkpt>
      <trkpt lat="43.56489" lon="5.71243">
        <ele>541</ele>
        <time>2013-03-16T10:21:24.000Z</time>
      </trkpt>
      <trkpt lat="43.56483" lon="5.71236">
        <ele>541.20001220703</ele>
        <time>2013-03-16T10:21:25.000Z</time>
      </trkpt>
      <trkpt lat="43.56477" lon="5.7123">
        <ele>541.40002441406</ele>
        <time>2013-03-16T10:21:26.000Z</time>
      </trkpt>
      <trkpt lat="43.56471" lon="5.71224">
        <ele>541.59997558594</ele>
        <time>2013-03-16T10:21:27.000Z</time>
      </trkpt>
      <trkpt lat="43.5641" lon="5.71177">
        <ele>544.59997558594</ele>
        <time>2013-03-16T10:21:38.000Z</time>
      </trkpt>
      <trkpt lat="43.56368" lon="5.71141">
        <ele>545.59997558594</ele>
        <time>2013-03-16T10:21:49.000Z</time>
      </trkpt>
      <trkpt lat="43.56341" lon="5.71115">
        <ele>547</ele>
        <time>2013-03-16T10:21:59.000Z</time>
      </trkpt>
      <trkpt lat="43.56315" lon="5.7108">
        <ele>549.79998779297</ele>
        <time>2013-03-16T10:22:11.000Z</time>
      </trkpt>
      <trkpt lat="43.56298" lon="5.71055">
        <ele>552</ele>
        <time>2013-03-16T10:22:21.000Z</time>
      </trkpt>
      <trkpt lat="43.56284" lon="5.71026">
        <ele>554</ele>
        <time>2013-03-16T10:22:31.000Z</time>
      </trkpt>
      <trkpt lat="43.5627" lon="5.70999">
        <ele>556</ele>
        <time>2013-03-16T10:22:40.000Z</time>
      </trkpt>
      <trkpt lat="43.56251" lon="5.70964">
        <ele>558.59997558594</ele>
        <time>2013-03-16T10:22:51.000Z</time>
      </trkpt>
      <trkpt lat="43.56244" lon="5.70952">
        <ele>559.40002441406</ele>
        <time>2013-03-16T10:22:55.000Z</time>
      </trkpt>
      <trkpt lat="43.56227" lon="5.70916">
        <ele>562.20001220703</ele>
        <time>2013-03-16T10:23:06.000Z</time>
      </trkpt>
      <trkpt lat="43.56216" lon="5.70879">
        <ele>564</ele>
        <time>2013-03-16T10:23:16.000Z</time>
      </trkpt>
      <trkpt lat="43.56211" lon="5.70841">
        <ele>565.40002441406</ele>
        <time>2013-03-16T10:23:26.000Z</time>
      </trkpt>
      <trkpt lat="43.56199" lon="5.70789">
        <ele>567.40002441406</ele>
        <time>2013-03-16T10:23:37.000Z</time>
      </trkpt>
      <trkpt lat="43.56186" lon="5.70731">
        <ele>568.20001220703</ele>
        <time>2013-03-16T10:23:49.000Z</time>
      </trkpt>
      <trkpt lat="43.56178" lon="5.70699">
        <ele>567.79998779297</ele>
        <time>2013-03-16T10:23:59.000Z</time>
      </trkpt>
      <trkpt lat="43.56175" lon="5.70692">
        <ele>568</ele>
        <time>2013-03-16T10:24:07.000Z</time>
      </trkpt>
      <trkpt lat="43.56174" lon="5.70691">
        <ele>568</ele>
        <time>2013-03-16T10:24:31.000Z</time>
      </trkpt>
      <trkpt lat="43.56173" lon="5.70688">
        <ele>568</ele>
        <time>2013-03-16T10:24:52.000Z</time>
      </trkpt>
      <trkpt lat="43.56174" lon="5.70688">
        <ele>567.79998779297</ele>
        <time>2013-03-16T10:25:10.000Z</time>
      </trkpt>
      <trkpt lat="43.56172" lon="5.70665">
        <ele>567.20001220703</ele>
        <time>2013-03-16T10:25:18.000Z</time>
      </trkpt>
      <trkpt lat="43.56162" lon="5.70611">
        <ele>565.40002441406</ele>
        <time>2013-03-16T10:25:28.000Z</time>
      </trkpt>
      <trkpt lat="43.56137" lon="5.70547">
        <ele>561</ele>
        <time>2013-03-16T10:25:37.000Z</time>
      </trkpt>
      <trkpt lat="43.56102" lon="5.70492">
        <ele>556.59997558594</ele>
        <time>2013-03-16T10:25:45.000Z</time>
      </trkpt>
      <trkpt lat="43.56093" lon="5.70479">
        <ele>556</ele>
        <time>2013-03-16T10:25:47.000Z</time>
      </trkpt>
      <trkpt lat="43.56079" lon="5.70459">
        <ele>554.79998779297</ele>
        <time>2013-03-16T10:25:50.000Z</time>
      </trkpt>
      <trkpt lat="43.56034" lon="5.70393">
        <ele>549.79998779297</ele>
        <time>2013-03-16T10:25:58.000Z</time>
      </trkpt>
      <trkpt lat="43.56016" lon="5.70365">
        <ele>547.59997558594</ele>
        <time>2013-03-16T10:26:01.000Z</time>
      </trkpt>
      <trkpt lat="43.55999" lon="5.70334">
        <ele>545.79998779297</ele>
        <time>2013-03-16T10:26:04.000Z</time>
      </trkpt>
      <trkpt lat="43.55973" lon="5.70295">
        <ele>545</ele>
        <time>2013-03-16T10:26:08.000Z</time>
      </trkpt>
      <trkpt lat="43.55948" lon="5.70271">
        <ele>545.40002441406</ele>
        <time>2013-03-16T10:26:12.000Z</time>
      </trkpt>
      <trkpt lat="43.55935" lon="5.70257">
        <ele>546.40002441406</ele>
        <time>2013-03-16T10:26:15.000Z</time>
      </trkpt>
      <trkpt lat="43.55931" lon="5.70253">
        <ele>546.59997558594</ele>
        <time>2013-03-16T10:26:16.000Z</time>
      </trkpt>
      <trkpt lat="43.55927" lon="5.70248">
        <ele>547</ele>
        <time>2013-03-16T10:26:17.000Z</time>
      </trkpt>
      <trkpt lat="43.55923" lon="5.70244">
        <ele>547.20001220703</ele>
        <time>2013-03-16T10:26:18.000Z</time>
      </trkpt>
      <trkpt lat="43.55919" lon="5.70239">
        <ele>547.20001220703</ele>
        <time>2013-03-16T10:26:19.000Z</time>
      </trkpt>
      <trkpt lat="43.55916" lon="5.70234">
        <ele>547.40002441406</ele>
        <time>2013-03-16T10:26:20.000Z</time>
      </trkpt>
      <trkpt lat="43.55913" lon="5.7023">
        <ele>547</ele>
        <time>2013-03-16T10:26:21.000Z</time>
      </trkpt>
      <trkpt lat="43.5591" lon="5.70226">
        <ele>546.79998779297</ele>
        <time>2013-03-16T10:26:22.000Z</time>
      </trkpt>
      <trkpt lat="43.55907" lon="5.70222">
        <ele>546.59997558594</ele>
        <time>2013-03-16T10:26:23.000Z</time>
      </trkpt>
      <trkpt lat="43.55905" lon="5.70217">
        <ele>546.59997558594</ele>
        <time>2013-03-16T10:26:24.000Z</time>
      </trkpt>
      <trkpt lat="43.55905" lon="5.70212">
        <ele>546.79998779297</ele>
        <time>2013-03-16T10:26:25.000Z</time>
      </trkpt>
      <trkpt lat="43.55906" lon="5.70208">
        <ele>547</ele>
        <time>2013-03-16T10:26:26.000Z</time>
      </trkpt>
      <trkpt lat="43.55907" lon="5.70205">
        <ele>547.40002441406</ele>
        <time>2013-03-16T10:26:27.000Z</time>
      </trkpt>
      <trkpt lat="43.55909" lon="5.70201">
        <ele>547.79998779297</ele>
        <time>2013-03-16T10:26:28.000Z</time>
      </trkpt>
      <trkpt lat="43.5591" lon="5.70198">
        <ele>548</ele>
        <time>2013-03-16T10:26:29.000Z</time>
      </trkpt>
      <trkpt lat="43.55912" lon="5.70194">
        <ele>548.40002441406</ele>
        <time>2013-03-16T10:26:30.000Z</time>
      </trkpt>
      <trkpt lat="43.55913" lon="5.7019">
        <ele>548.59997558594</ele>
        <time>2013-03-16T10:26:31.000Z</time>
      </trkpt>
      <trkpt lat="43.55914" lon="5.70187">
        <ele>549</ele>
        <time>2013-03-16T10:26:32.000Z</time>
      </trkpt>
      <trkpt lat="43.55916" lon="5.70183">
        <ele>549.20001220703</ele>
        <time>2013-03-16T10:26:33.000Z</time>
      </trkpt>
      <trkpt lat="43.55917" lon="5.7018">
        <ele>549.40002441406</ele>
        <time>2013-03-16T10:26:34.000Z</time>
      </trkpt>
      <trkpt lat="43.55918" lon="5.70175">
        <ele>549.59997558594</ele>
        <time>2013-03-16T10:26:35.000Z</time>
      </trkpt>
      <trkpt lat="43.55919" lon="5.70171">
        <ele>549.59997558594</ele>
        <time>2013-03-16T10:26:36.000Z</time>
      </trkpt>
      <trkpt lat="43.55921" lon="5.70167">
        <ele>549.79998779297</ele>
        <time>2013-03-16T10:26:37.000Z</time>
      </trkpt>
      <trkpt lat="43.55926" lon="5.70153">
        <ele>550.40002441406</ele>
        <time>2013-03-16T10:26:43.000Z</time>
      </trkpt>
      <trkpt lat="43.55926" lon="5.70152">
        <ele>550.40002441406</ele>
        <time>2013-03-16T10:26:44.000Z</time>
      </trkpt>
      <trkpt lat="43.55925" lon="5.7015">
        <ele>550.59997558594</ele>
        <time>2013-03-16T10:26:45.000Z</time>
      </trkpt>
      <trkpt lat="43.55924" lon="5.70148">
        <ele>550.79998779297</ele>
        <time>2013-03-16T10:26:46.000Z</time>
      </trkpt>
      <trkpt lat="43.55923" lon="5.70147">
        <ele>550.79998779297</ele>
        <time>2013-03-16T10:26:47.000Z</time>
      </trkpt>
      <trkpt lat="43.55921" lon="5.70145">
        <ele>551</ele>
        <time>2013-03-16T10:26:48.000Z</time>
      </trkpt>
      <trkpt lat="43.5592" lon="5.70142">
        <ele>551.20001220703</ele>
        <time>2013-03-16T10:26:49.000Z</time>
      </trkpt>
      <trkpt lat="43.5592" lon="5.70139">
        <ele>551.40002441406</ele>
        <time>2013-03-16T10:26:50.000Z</time>
      </trkpt>
      <trkpt lat="43.55921" lon="5.70136">
        <ele>551.59997558594</ele>
        <time>2013-03-16T10:26:51.000Z</time>
      </trkpt>
      <trkpt lat="43.55923" lon="5.70133">
        <ele>551.59997558594</ele>
        <time>2013-03-16T10:26:52.000Z</time>
      </trkpt>
      <trkpt lat="43.55925" lon="5.70131">
        <ele>551.59997558594</ele>
        <time>2013-03-16T10:26:53.000Z</time>
      </trkpt>
      <trkpt lat="43.55927" lon="5.70129">
        <ele>551.59997558594</ele>
        <time>2013-03-16T10:26:54.000Z</time>
      </trkpt>
      <trkpt lat="43.55928" lon="5.70126">
        <ele>551.59997558594</ele>
        <time>2013-03-16T10:26:55.000Z</time>
      </trkpt>
      <trkpt lat="43.5593" lon="5.70123">
        <ele>551.79998779297</ele>
        <time>2013-03-16T10:26:56.000Z</time>
      </trkpt>
      <trkpt lat="43.5594" lon="5.701">
        <ele>552</ele>
        <time>2013-03-16T10:27:04.000Z</time>
      </trkpt>
      <trkpt lat="43.55954" lon="5.70067">
        <ele>551.40002441406</ele>
        <time>2013-03-16T10:27:13.000Z</time>
      </trkpt>
      <trkpt lat="43.5597" lon="5.70018">
        <ele>550.40002441406</ele>
        <time>2013-03-16T10:27:24.000Z</time>
      </trkpt>
      <trkpt lat="43.55975" lon="5.69936">
        <ele>549.59997558594</ele>
        <time>2013-03-16T10:27:37.000Z</time>
      </trkpt>
      <trkpt lat="43.55976" lon="5.69865">
        <ele>547.79998779297</ele>
        <time>2013-03-16T10:27:47.000Z</time>
      </trkpt>
      <trkpt lat="43.55974" lon="5.69852">
        <ele>547.59997558594</ele>
        <time>2013-03-16T10:27:49.000Z</time>
      </trkpt>
      <trkpt lat="43.55973" lon="5.69846">
        <ele>547.40002441406</ele>
        <time>2013-03-16T10:27:50.000Z</time>
      </trkpt>
      <trkpt lat="43.55973" lon="5.6984">
        <ele>547.20001220703</ele>
        <time>2013-03-16T10:27:51.000Z</time>
      </trkpt>
      <trkpt lat="43.55974" lon="5.69833">
        <ele>547</ele>
        <time>2013-03-16T10:27:52.000Z</time>
      </trkpt>
      <trkpt lat="43.55973" lon="5.69826">
        <ele>546.79998779297</ele>
        <time>2013-03-16T10:27:53.000Z</time>
      </trkpt>
      <trkpt lat="43.55973" lon="5.69819">
        <ele>546.79998779297</ele>
        <time>2013-03-16T10:27:54.000Z</time>
      </trkpt>
      <trkpt lat="43.5597" lon="5.69776">
        <ele>546</ele>
        <time>2013-03-16T10:28:00.000Z</time>
      </trkpt>
      <trkpt lat="43.55979" lon="5.69723">
        <ele>542.79998779297</ele>
        <time>2013-03-16T10:28:06.000Z</time>
      </trkpt>
      <trkpt lat="43.5598" lon="5.69713">
        <ele>542.20001220703</ele>
        <time>2013-03-16T10:28:07.000Z</time>
      </trkpt>
      <trkpt lat="43.55979" lon="5.69702">
        <ele>542</ele>
        <time>2013-03-16T10:28:08.000Z</time>
      </trkpt>
      <trkpt lat="43.55978" lon="5.69693">
        <ele>541.79998779297</ele>
        <time>2013-03-16T10:28:09.000Z</time>
      </trkpt>
      <trkpt lat="43.55976" lon="5.69683">
        <ele>541.79998779297</ele>
        <time>2013-03-16T10:28:10.000Z</time>
      </trkpt>
      <trkpt lat="43.55972" lon="5.69676">
        <ele>542.20001220703</ele>
        <time>2013-03-16T10:28:11.000Z</time>
      </trkpt>
      <trkpt lat="43.55969" lon="5.69668">
        <ele>542.59997558594</ele>
        <time>2013-03-16T10:28:12.000Z</time>
      </trkpt>
      <trkpt lat="43.55967" lon="5.69661">
        <ele>543</ele>
        <time>2013-03-16T10:28:13.000Z</time>
      </trkpt>
      <trkpt lat="43.55966" lon="5.69654">
        <ele>543.20001220703</ele>
        <time>2013-03-16T10:28:14.000Z</time>
      </trkpt>
      <trkpt lat="43.55965" lon="5.69646">
        <ele>543.20001220703</ele>
        <time>2013-03-16T10:28:15.000Z</time>
      </trkpt>
      <trkpt lat="43.55965" lon="5.69638">
        <ele>543.20001220703</ele>
        <time>2013-03-16T10:28:16.000Z</time>
      </trkpt>
      <trkpt lat="43.55967" lon="5.69601">
        <ele>543</ele>
        <time>2013-03-16T10:28:20.000Z</time>
      </trkpt>
      <trkpt lat="43.55968" lon="5.6959">
        <ele>543</ele>
        <time>2013-03-16T10:28:21.000Z</time>
      </trkpt>
      <trkpt lat="43.55971" lon="5.69558">
        <ele>542.20001220703</ele>
        <time>2013-03-16T10:28:24.000Z</time>
      </trkpt>
      <trkpt lat="43.5597" lon="5.69547">
        <ele>542.20001220703</ele>
        <time>2013-03-16T10:28:25.000Z</time>
      </trkpt>
      <trkpt lat="43.55969" lon="5.69526">
        <ele>542.20001220703</ele>
        <time>2013-03-16T10:28:27.000Z</time>
      </trkpt>
      <trkpt lat="43.55969" lon="5.69516">
        <ele>542.20001220703</ele>
        <time>2013-03-16T10:28:28.000Z</time>
      </trkpt>
      <trkpt lat="43.55974" lon="5.69457">
        <ele>542</ele>
        <time>2013-03-16T10:28:34.000Z</time>
      </trkpt>
      <trkpt lat="43.55977" lon="5.69448">
        <ele>541.79998779297</ele>
        <time>2013-03-16T10:28:35.000Z</time>
      </trkpt>
      <trkpt lat="43.5598" lon="5.6944">
        <ele>541.40002441406</ele>
        <time>2013-03-16T10:28:36.000Z</time>
      </trkpt>
      <trkpt lat="43.56" lon="5.69396">
        <ele>539.20001220703</ele>
        <time>2013-03-16T10:28:42.000Z</time>
      </trkpt>
      <trkpt lat="43.56005" lon="5.69389">
        <ele>538.79998779297</ele>
        <time>2013-03-16T10:28:43.000Z</time>
      </trkpt>
      <trkpt lat="43.56042" lon="5.69342">
        <ele>535.40002441406</ele>
        <time>2013-03-16T10:28:50.000Z</time>
      </trkpt>
      <trkpt lat="43.56053" lon="5.69328">
        <ele>534.20001220703</ele>
        <time>2013-03-16T10:28:52.000Z</time>
      </trkpt>
      <trkpt lat="43.56056" lon="5.69319">
        <ele>533.59997558594</ele>
        <time>2013-03-16T10:28:53.000Z</time>
      </trkpt>
      <trkpt lat="43.56057" lon="5.6931">
        <ele>533.59997558594</ele>
        <time>2013-03-16T10:28:54.000Z</time>
      </trkpt>
      <trkpt lat="43.56056" lon="5.69301">
        <ele>533.59997558594</ele>
        <time>2013-03-16T10:28:55.000Z</time>
      </trkpt>
      <trkpt lat="43.56053" lon="5.69293">
        <ele>533.79998779297</ele>
        <time>2013-03-16T10:28:56.000Z</time>
      </trkpt>
      <trkpt lat="43.56049" lon="5.69286">
        <ele>534</ele>
        <time>2013-03-16T10:28:57.000Z</time>
      </trkpt>
      <trkpt lat="43.56044" lon="5.69279">
        <ele>534.20001220703</ele>
        <time>2013-03-16T10:28:58.000Z</time>
      </trkpt>
      <trkpt lat="43.56015" lon="5.6923">
        <ele>535.20001220703</ele>
        <time>2013-03-16T10:29:04.000Z</time>
      </trkpt>
      <trkpt lat="43.5598" lon="5.69153">
        <ele>537</ele>
        <time>2013-03-16T10:29:12.000Z</time>
      </trkpt>
      <trkpt lat="43.55956" lon="5.69093">
        <ele>539.40002441406</ele>
        <time>2013-03-16T10:29:21.000Z</time>
      </trkpt>
      <trkpt lat="43.55954" lon="5.69088">
        <ele>539.40002441406</ele>
        <time>2013-03-16T10:29:22.000Z</time>
      </trkpt>
      <trkpt lat="43.55952" lon="5.69082">
        <ele>539.59997558594</ele>
        <time>2013-03-16T10:29:23.000Z</time>
      </trkpt>
      <trkpt lat="43.55949" lon="5.69076">
        <ele>539.59997558594</ele>
        <time>2013-03-16T10:29:24.000Z</time>
      </trkpt>
      <trkpt lat="43.55947" lon="5.6907">
        <ele>539.79998779297</ele>
        <time>2013-03-16T10:29:25.000Z</time>
      </trkpt>
      <trkpt lat="43.55945" lon="5.69063">
        <ele>539.79998779297</ele>
        <time>2013-03-16T10:29:26.000Z</time>
      </trkpt>
      <trkpt lat="43.55943" lon="5.69051">
        <ele>540</ele>
        <time>2013-03-16T10:29:28.000Z</time>
      </trkpt>
      <trkpt lat="43.55941" lon="5.69026">
        <ele>540.20001220703</ele>
        <time>2013-03-16T10:29:32.000Z</time>
      </trkpt>
      <trkpt lat="43.55942" lon="5.69007">
        <ele>540.40002441406</ele>
        <time>2013-03-16T10:29:35.000Z</time>
      </trkpt>
      <trkpt lat="43.55942" lon="5.69">
        <ele>540.40002441406</ele>
        <time>2013-03-16T10:29:36.000Z</time>
      </trkpt>
      <trkpt lat="43.55932" lon="5.68923">
        <ele>542</ele>
        <time>2013-03-16T10:29:48.000Z</time>
      </trkpt>
      <trkpt lat="43.55931" lon="5.68917">
        <ele>542</ele>
        <time>2013-03-16T10:29:49.000Z</time>
      </trkpt>
      <trkpt lat="43.55929" lon="5.68912">
        <ele>542</ele>
        <time>2013-03-16T10:29:50.000Z</time>
      </trkpt>
      <trkpt lat="43.55918" lon="5.68885">
        <ele>541.79998779297</ele>
        <time>2013-03-16T10:29:56.000Z</time>
      </trkpt>
      <trkpt lat="43.55919" lon="5.68881">
        <ele>542</ele>
        <time>2013-03-16T10:29:57.000Z</time>
      </trkpt>
      <trkpt lat="43.55921" lon="5.68879">
        <ele>542.20001220703</ele>
        <time>2013-03-16T10:29:58.000Z</time>
      </trkpt>
      <trkpt lat="43.55923" lon="5.68877">
        <ele>542.40002441406</ele>
        <time>2013-03-16T10:29:59.000Z</time>
      </trkpt>
      <trkpt lat="43.55926" lon="5.68876">
        <ele>542.79998779297</ele>
        <time>2013-03-16T10:30:00.000Z</time>
      </trkpt>
      <trkpt lat="43.55929" lon="5.68874">
        <ele>543</ele>
        <time>2013-03-16T10:30:01.000Z</time>
      </trkpt>
      <trkpt lat="43.55932" lon="5.68873">
        <ele>543.40002441406</ele>
        <time>2013-03-16T10:30:02.000Z</time>
      </trkpt>
      <trkpt lat="43.55935" lon="5.68871">
        <ele>543.79998779297</ele>
        <time>2013-03-16T10:30:03.000Z</time>
      </trkpt>
      <trkpt lat="43.55954" lon="5.68869">
        <ele>545.59997558594</ele>
        <time>2013-03-16T10:30:10.000Z</time>
      </trkpt>
      <trkpt lat="43.5596" lon="5.68873">
        <ele>546.20001220703</ele>
        <time>2013-03-16T10:30:13.000Z</time>
      </trkpt>
      <trkpt lat="43.55965" lon="5.68878">
        <ele>546.40002441406</ele>
        <time>2013-03-16T10:30:16.000Z</time>
      </trkpt>
      <trkpt lat="43.55983" lon="5.68878">
        <ele>548.20001220703</ele>
        <time>2013-03-16T10:30:24.000Z</time>
      </trkpt>
      <trkpt lat="43.55998" lon="5.68858">
        <ele>550.40002441406</ele>
        <time>2013-03-16T10:30:34.000Z</time>
      </trkpt>
      <trkpt lat="43.55999" lon="5.68857">
        <ele>550.59997558594</ele>
        <time>2013-03-16T10:30:35.000Z</time>
      </trkpt>
      <trkpt lat="43.56001" lon="5.68856">
        <ele>550.79998779297</ele>
        <time>2013-03-16T10:30:36.000Z</time>
      </trkpt>
      <trkpt lat="43.56003" lon="5.68855">
        <ele>551</ele>
        <time>2013-03-16T10:30:37.000Z</time>
      </trkpt>
      <trkpt lat="43.56004" lon="5.68854">
        <ele>551.20001220703</ele>
        <time>2013-03-16T10:30:38.000Z</time>
      </trkpt>
      <trkpt lat="43.56006" lon="5.68853">
        <ele>551.40002441406</ele>
        <time>2013-03-16T10:30:39.000Z</time>
      </trkpt>
      <trkpt lat="43.56007" lon="5.68852">
        <ele>551.59997558594</ele>
        <time>2013-03-16T10:30:40.000Z</time>
      </trkpt>
      <trkpt lat="43.56025" lon="5.68845">
        <ele>553.40002441406</ele>
        <time>2013-03-16T10:30:50.000Z</time>
      </trkpt>
      <trkpt lat="43.56044" lon="5.68831">
        <ele>555.79998779297</ele>
        <time>2013-03-16T10:31:00.000Z</time>
      </trkpt>
      <trkpt lat="43.56046" lon="5.68829">
        <ele>556</ele>
        <time>2013-03-16T10:31:01.000Z</time>
      </trkpt>
      <trkpt lat="43.56062" lon="5.68829">
        <ele>557.20001220703</ele>
        <time>2013-03-16T10:31:10.000Z</time>
      </trkpt>
      <trkpt lat="43.56064" lon="5.68829">
        <ele>557.40002441406</ele>
        <time>2013-03-16T10:31:11.000Z</time>
      </trkpt>
      <trkpt lat="43.56066" lon="5.6883">
        <ele>557.59997558594</ele>
        <time>2013-03-16T10:31:12.000Z</time>
      </trkpt>
      <trkpt lat="43.56075" lon="5.68835">
        <ele>558.20001220703</ele>
        <time>2013-03-16T10:31:16.000Z</time>
      </trkpt>
      <trkpt lat="43.56078" lon="5.68835">
        <ele>558.40002441406</ele>
        <time>2013-03-16T10:31:17.000Z</time>
      </trkpt>
      <trkpt lat="43.56081" lon="5.68836">
        <ele>558.59997558594</ele>
        <time>2013-03-16T10:31:18.000Z</time>
      </trkpt>
      <trkpt lat="43.56083" lon="5.68837">
        <ele>558.59997558594</ele>
        <time>2013-03-16T10:31:19.000Z</time>
      </trkpt>
      <trkpt lat="43.56085" lon="5.68838">
        <ele>558.59997558594</ele>
        <time>2013-03-16T10:31:20.000Z</time>
      </trkpt>
      <trkpt lat="43.56087" lon="5.68839">
        <ele>558.59997558594</ele>
        <time>2013-03-16T10:31:21.000Z</time>
      </trkpt>
      <trkpt lat="43.56088" lon="5.6884">
        <ele>558.59997558594</ele>
        <time>2013-03-16T10:31:22.000Z</time>
      </trkpt>
      <trkpt lat="43.5609" lon="5.68841">
        <ele>558.59997558594</ele>
        <time>2013-03-16T10:31:23.000Z</time>
      </trkpt>
      <trkpt lat="43.56091" lon="5.68841">
        <ele>558.59997558594</ele>
        <time>2013-03-16T10:31:24.000Z</time>
      </trkpt>
      <trkpt lat="43.56093" lon="5.68841">
        <ele>558.59997558594</ele>
        <time>2013-03-16T10:31:34.000Z</time>
      </trkpt>
      <trkpt lat="43.56091" lon="5.6884">
        <ele>558.59997558594</ele>
        <time>2013-03-16T10:31:53.000Z</time>
      </trkpt>
      <trkpt lat="43.56092" lon="5.68841">
        <ele>558.59997558594</ele>
        <time>2013-03-16T10:32:11.000Z</time>
      </trkpt>
      <trkpt lat="43.56093" lon="5.68841">
        <ele>558.59997558594</ele>
        <time>2013-03-16T10:32:25.000Z</time>
      </trkpt>
      <trkpt lat="43.56094" lon="5.68842">
        <ele>558.40002441406</ele>
        <time>2013-03-16T10:32:26.000Z</time>
      </trkpt>
      <trkpt lat="43.56095" lon="5.68843">
        <ele>558.40002441406</ele>
        <time>2013-03-16T10:32:27.000Z</time>
      </trkpt>
      <trkpt lat="43.56097" lon="5.68844">
        <ele>558.40002441406</ele>
        <time>2013-03-16T10:32:28.000Z</time>
      </trkpt>
      <trkpt lat="43.56099" lon="5.68844">
        <ele>558.40002441406</ele>
        <time>2013-03-16T10:32:29.000Z</time>
      </trkpt>
      <trkpt lat="43.56131" lon="5.68846">
        <ele>558.40002441406</ele>
        <time>2013-03-16T10:32:39.000Z</time>
      </trkpt>
      <trkpt lat="43.56139" lon="5.68848">
        <ele>558.40002441406</ele>
        <time>2013-03-16T10:32:41.000Z</time>
      </trkpt>
      <trkpt lat="43.56143" lon="5.68849">
        <ele>558.40002441406</ele>
        <time>2013-03-16T10:32:42.000Z</time>
      </trkpt>
      <trkpt lat="43.56147" lon="5.68851">
        <ele>558.40002441406</ele>
        <time>2013-03-16T10:32:43.000Z</time>
      </trkpt>
      <trkpt lat="43.5616" lon="5.6886">
        <ele>558.20001220703</ele>
        <time>2013-03-16T10:32:46.000Z</time>
      </trkpt>
      <trkpt lat="43.56164" lon="5.68864">
        <ele>558.20001220703</ele>
        <time>2013-03-16T10:32:47.000Z</time>
      </trkpt>
      <trkpt lat="43.56181" lon="5.68881">
        <ele>557.40002441406</ele>
        <time>2013-03-16T10:32:51.000Z</time>
      </trkpt>
      <trkpt lat="43.56213" lon="5.68906">
        <ele>556.40002441406</ele>
        <time>2013-03-16T10:32:58.000Z</time>
      </trkpt>
      <trkpt lat="43.56218" lon="5.68908">
        <ele>556.20001220703</ele>
        <time>2013-03-16T10:32:59.000Z</time>
      </trkpt>
      <trkpt lat="43.56232" lon="5.68914">
        <ele>556</ele>
        <time>2013-03-16T10:33:02.000Z</time>
      </trkpt>
      <trkpt lat="43.56237" lon="5.68917">
        <ele>556</ele>
        <time>2013-03-16T10:33:03.000Z</time>
      </trkpt>
      <trkpt lat="43.56252" lon="5.68931">
        <ele>555.59997558594</ele>
        <time>2013-03-16T10:33:07.000Z</time>
      </trkpt>
      <trkpt lat="43.56256" lon="5.68932">
        <ele>555</ele>
        <time>2013-03-16T10:33:08.000Z</time>
      </trkpt>
      <trkpt lat="43.56261" lon="5.68931">
        <ele>554.20001220703</ele>
        <time>2013-03-16T10:33:09.000Z</time>
      </trkpt>
      <trkpt lat="43.56266" lon="5.68929">
        <ele>553.59997558594</ele>
        <time>2013-03-16T10:33:10.000Z</time>
      </trkpt>
      <trkpt lat="43.5627" lon="5.68927">
        <ele>553</ele>
        <time>2013-03-16T10:33:11.000Z</time>
      </trkpt>
      <trkpt lat="43.56274" lon="5.68922">
        <ele>552.40002441406</ele>
        <time>2013-03-16T10:33:12.000Z</time>
      </trkpt>
      <trkpt lat="43.56276" lon="5.68917">
        <ele>552.20001220703</ele>
        <time>2013-03-16T10:33:13.000Z</time>
      </trkpt>
      <trkpt lat="43.56279" lon="5.6891">
        <ele>551.79998779297</ele>
        <time>2013-03-16T10:33:14.000Z</time>
      </trkpt>
      <trkpt lat="43.5628" lon="5.68902">
        <ele>551.40002441406</ele>
        <time>2013-03-16T10:33:15.000Z</time>
      </trkpt>
      <trkpt lat="43.56282" lon="5.68895">
        <ele>551.20001220703</ele>
        <time>2013-03-16T10:33:16.000Z</time>
      </trkpt>
      <trkpt lat="43.56283" lon="5.68887">
        <ele>551</ele>
        <time>2013-03-16T10:33:17.000Z</time>
      </trkpt>
      <trkpt lat="43.56283" lon="5.68879">
        <ele>550.79998779297</ele>
        <time>2013-03-16T10:33:18.000Z</time>
      </trkpt>
      <trkpt lat="43.56284" lon="5.68872">
        <ele>550.79998779297</ele>
        <time>2013-03-16T10:33:19.000Z</time>
      </trkpt>
      <trkpt lat="43.56284" lon="5.68847">
        <ele>550.59997558594</ele>
        <time>2013-03-16T10:33:22.000Z</time>
      </trkpt>
      <trkpt lat="43.56283" lon="5.68838">
        <ele>550.59997558594</ele>
        <time>2013-03-16T10:33:23.000Z</time>
      </trkpt>
      <trkpt lat="43.56282" lon="5.6883">
        <ele>550.79998779297</ele>
        <time>2013-03-16T10:33:24.000Z</time>
      </trkpt>
      <trkpt lat="43.56281" lon="5.68821">
        <ele>551</ele>
        <time>2013-03-16T10:33:25.000Z</time>
      </trkpt>
      <trkpt lat="43.56282" lon="5.68811">
        <ele>551.40002441406</ele>
        <time>2013-03-16T10:33:26.000Z</time>
      </trkpt>
      <trkpt lat="43.56281" lon="5.68801">
        <ele>551.79998779297</ele>
        <time>2013-03-16T10:33:27.000Z</time>
      </trkpt>
      <trkpt lat="43.56277" lon="5.68793">
        <ele>552.40002441406</ele>
        <time>2013-03-16T10:33:28.000Z</time>
      </trkpt>
      <trkpt lat="43.56274" lon="5.68787">
        <ele>553.20001220703</ele>
        <time>2013-03-16T10:33:29.000Z</time>
      </trkpt>
      <trkpt lat="43.5627" lon="5.68782">
        <ele>553.79998779297</ele>
        <time>2013-03-16T10:33:30.000Z</time>
      </trkpt>
      <trkpt lat="43.56262" lon="5.68773">
        <ele>555.20001220703</ele>
        <time>2013-03-16T10:33:32.000Z</time>
      </trkpt>
      <trkpt lat="43.56254" lon="5.68765">
        <ele>556.79998779297</ele>
        <time>2013-03-16T10:33:34.000Z</time>
      </trkpt>
      <trkpt lat="43.56245" lon="5.68759">
        <ele>557.79998779297</ele>
        <time>2013-03-16T10:33:36.000Z</time>
      </trkpt>
      <trkpt lat="43.56237" lon="5.68755">
        <ele>558</ele>
        <time>2013-03-16T10:33:38.000Z</time>
      </trkpt>
      <trkpt lat="43.56219" lon="5.68744">
        <ele>558.59997558594</ele>
        <time>2013-03-16T10:33:43.000Z</time>
      </trkpt>
      <trkpt lat="43.56215" lon="5.68741">
        <ele>558.79998779297</ele>
        <time>2013-03-16T10:33:44.000Z</time>
      </trkpt>
      <trkpt lat="43.5621" lon="5.68738">
        <ele>559</ele>
        <time>2013-03-16T10:33:45.000Z</time>
      </trkpt>
      <trkpt lat="43.56206" lon="5.68734">
        <ele>559.20001220703</ele>
        <time>2013-03-16T10:33:46.000Z</time>
      </trkpt>
      <trkpt lat="43.56203" lon="5.6873">
        <ele>559.40002441406</ele>
        <time>2013-03-16T10:33:47.000Z</time>
      </trkpt>
      <trkpt lat="43.562" lon="5.68725">
        <ele>559.59997558594</ele>
        <time>2013-03-16T10:33:48.000Z</time>
      </trkpt>
      <trkpt lat="43.56188" lon="5.68705">
        <ele>560.40002441406</ele>
        <time>2013-03-16T10:33:56.000Z</time>
      </trkpt>
      <trkpt lat="43.56176" lon="5.68674">
        <ele>562</ele>
        <time>2013-03-16T10:34:07.000Z</time>
      </trkpt>
      <trkpt lat="43.5618" lon="5.68621">
        <ele>562.59997558594</ele>
        <time>2013-03-16T10:34:17.000Z</time>
      </trkpt>
      <trkpt lat="43.56173" lon="5.68566">
        <ele>563.40002441406</ele>
        <time>2013-03-16T10:34:28.000Z</time>
      </trkpt>
      <trkpt lat="43.56154" lon="5.68525">
        <ele>564.40002441406</ele>
        <time>2013-03-16T10:34:38.000Z</time>
      </trkpt>
      <trkpt lat="43.56118" lon="5.68492">
        <ele>566.40002441406</ele>
        <time>2013-03-16T10:34:50.000Z</time>
      </trkpt>
      <trkpt lat="43.56101" lon="5.6846">
        <ele>568</ele>
        <time>2013-03-16T10:34:58.000Z</time>
      </trkpt>
      <trkpt lat="43.56081" lon="5.68392">
        <ele>571.40002441406</ele>
        <time>2013-03-16T10:35:13.000Z</time>
      </trkpt>
      <trkpt lat="43.56083" lon="5.68359">
        <ele>573.40002441406</ele>
        <time>2013-03-16T10:35:19.000Z</time>
      </trkpt>
      <trkpt lat="43.56084" lon="5.68354">
        <ele>573.59997558594</ele>
        <time>2013-03-16T10:35:20.000Z</time>
      </trkpt>
      <trkpt lat="43.56103" lon="5.68284">
        <ele>573.79998779297</ele>
        <time>2013-03-16T10:35:32.000Z</time>
      </trkpt>
      <trkpt lat="43.56105" lon="5.68279">
        <ele>573.59997558594</ele>
        <time>2013-03-16T10:35:33.000Z</time>
      </trkpt>
      <trkpt lat="43.56108" lon="5.68275">
        <ele>573.40002441406</ele>
        <time>2013-03-16T10:35:34.000Z</time>
      </trkpt>
      <trkpt lat="43.56112" lon="5.68271">
        <ele>573.20001220703</ele>
        <time>2013-03-16T10:35:35.000Z</time>
      </trkpt>
      <trkpt lat="43.56117" lon="5.68268">
        <ele>572.79998779297</ele>
        <time>2013-03-16T10:35:36.000Z</time>
      </trkpt>
      <trkpt lat="43.56129" lon="5.68259">
        <ele>572</ele>
        <time>2013-03-16T10:35:38.000Z</time>
      </trkpt>
      <trkpt lat="43.56135" lon="5.68253">
        <ele>571.59997558594</ele>
        <time>2013-03-16T10:35:39.000Z</time>
      </trkpt>
      <trkpt lat="43.5614" lon="5.68247">
        <ele>571.40002441406</ele>
        <time>2013-03-16T10:35:40.000Z</time>
      </trkpt>
      <trkpt lat="43.56145" lon="5.6824">
        <ele>571.40002441406</ele>
        <time>2013-03-16T10:35:41.000Z</time>
      </trkpt>
      <trkpt lat="43.56149" lon="5.68232">
        <ele>571.59997558594</ele>
        <time>2013-03-16T10:35:42.000Z</time>
      </trkpt>
      <trkpt lat="43.56152" lon="5.68224">
        <ele>571.79998779297</ele>
        <time>2013-03-16T10:35:43.000Z</time>
      </trkpt>
      <trkpt lat="43.56153" lon="5.68216">
        <ele>572.40002441406</ele>
        <time>2013-03-16T10:35:44.000Z</time>
      </trkpt>
      <trkpt lat="43.56154" lon="5.68209">
        <ele>572.79998779297</ele>
        <time>2013-03-16T10:35:45.000Z</time>
      </trkpt>
      <trkpt lat="43.56156" lon="5.68202">
        <ele>573.20001220703</ele>
        <time>2013-03-16T10:35:46.000Z</time>
      </trkpt>
      <trkpt lat="43.56158" lon="5.68195">
        <ele>573.40002441406</ele>
        <time>2013-03-16T10:35:47.000Z</time>
      </trkpt>
      <trkpt lat="43.56161" lon="5.6819">
        <ele>573.59997558594</ele>
        <time>2013-03-16T10:35:48.000Z</time>
      </trkpt>
      <trkpt lat="43.56164" lon="5.68184">
        <ele>573.79998779297</ele>
        <time>2013-03-16T10:35:49.000Z</time>
      </trkpt>
      <trkpt lat="43.56168" lon="5.6818">
        <ele>574</ele>
        <time>2013-03-16T10:35:50.000Z</time>
      </trkpt>
      <trkpt lat="43.56172" lon="5.68175">
        <ele>574.20001220703</ele>
        <time>2013-03-16T10:35:51.000Z</time>
      </trkpt>
      <trkpt lat="43.56176" lon="5.68172">
        <ele>574.40002441406</ele>
        <time>2013-03-16T10:35:52.000Z</time>
      </trkpt>
      <trkpt lat="43.56201" lon="5.68144">
        <ele>574.59997558594</ele>
        <time>2013-03-16T10:35:58.000Z</time>
      </trkpt>
      <trkpt lat="43.56208" lon="5.68133">
        <ele>574.79998779297</ele>
        <time>2013-03-16T10:36:00.000Z</time>
      </trkpt>
      <trkpt lat="43.56211" lon="5.68127">
        <ele>574.79998779297</ele>
        <time>2013-03-16T10:36:01.000Z</time>
      </trkpt>
      <trkpt lat="43.56214" lon="5.68121">
        <ele>574.79998779297</ele>
        <time>2013-03-16T10:36:02.000Z</time>
      </trkpt>
      <trkpt lat="43.56218" lon="5.68116">
        <ele>574.79998779297</ele>
        <time>2013-03-16T10:36:03.000Z</time>
      </trkpt>
      <trkpt lat="43.56222" lon="5.68113">
        <ele>574.59997558594</ele>
        <time>2013-03-16T10:36:04.000Z</time>
      </trkpt>
      <trkpt lat="43.56226" lon="5.6811">
        <ele>574.59997558594</ele>
        <time>2013-03-16T10:36:05.000Z</time>
      </trkpt>
      <trkpt lat="43.56231" lon="5.68107">
        <ele>574.40002441406</ele>
        <time>2013-03-16T10:36:06.000Z</time>
      </trkpt>
      <trkpt lat="43.56236" lon="5.68105">
        <ele>574.20001220703</ele>
        <time>2013-03-16T10:36:07.000Z</time>
      </trkpt>
      <trkpt lat="43.56242" lon="5.68105">
        <ele>574</ele>
        <time>2013-03-16T10:36:08.000Z</time>
      </trkpt>
      <trkpt lat="43.56247" lon="5.68104">
        <ele>573.79998779297</ele>
        <time>2013-03-16T10:36:09.000Z</time>
      </trkpt>
      <trkpt lat="43.56252" lon="5.68105">
        <ele>573.40002441406</ele>
        <time>2013-03-16T10:36:10.000Z</time>
      </trkpt>
      <trkpt lat="43.56267" lon="5.68105">
        <ele>571.40002441406</ele>
        <time>2013-03-16T10:36:13.000Z</time>
      </trkpt>
      <trkpt lat="43.56272" lon="5.68102">
        <ele>570.79998779297</ele>
        <time>2013-03-16T10:36:14.000Z</time>
      </trkpt>
      <trkpt lat="43.56276" lon="5.68098">
        <ele>570.40002441406</ele>
        <time>2013-03-16T10:36:15.000Z</time>
      </trkpt>
      <trkpt lat="43.56279" lon="5.68092">
        <ele>570</ele>
        <time>2013-03-16T10:36:16.000Z</time>
      </trkpt>
      <trkpt lat="43.56279" lon="5.68085">
        <ele>570</ele>
        <time>2013-03-16T10:36:17.000Z</time>
      </trkpt>
      <trkpt lat="43.56279" lon="5.68078">
        <ele>570.20001220703</ele>
        <time>2013-03-16T10:36:18.000Z</time>
      </trkpt>
      <trkpt lat="43.56277" lon="5.68071">
        <ele>570.20001220703</ele>
        <time>2013-03-16T10:36:19.000Z</time>
      </trkpt>
      <trkpt lat="43.56276" lon="5.68063">
        <ele>570.40002441406</ele>
        <time>2013-03-16T10:36:20.000Z</time>
      </trkpt>
      <trkpt lat="43.56272" lon="5.68005">
        <ele>570.79998779297</ele>
        <time>2013-03-16T10:36:27.000Z</time>
      </trkpt>
      <trkpt lat="43.56272" lon="5.67997">
        <ele>570.79998779297</ele>
        <time>2013-03-16T10:36:28.000Z</time>
      </trkpt>
      <trkpt lat="43.56276" lon="5.67928">
        <ele>569.20001220703</ele>
        <time>2013-03-16T10:36:37.000Z</time>
      </trkpt>
      <trkpt lat="43.56276" lon="5.6791">
        <ele>569.20001220703</ele>
        <time>2013-03-16T10:36:40.000Z</time>
      </trkpt>
      <trkpt lat="43.56275" lon="5.679">
        <ele>569.40002441406</ele>
        <time>2013-03-16T10:36:42.000Z</time>
      </trkpt>
      <trkpt lat="43.56272" lon="5.67896">
        <ele>569.59997558594</ele>
        <time>2013-03-16T10:36:43.000Z</time>
      </trkpt>
      <trkpt lat="43.56268" lon="5.67892">
        <ele>569.79998779297</ele>
        <time>2013-03-16T10:36:44.000Z</time>
      </trkpt>
      <trkpt lat="43.56263" lon="5.67888">
        <ele>570</ele>
        <time>2013-03-16T10:36:45.000Z</time>
      </trkpt>
      <trkpt lat="43.56259" lon="5.67886">
        <ele>570</ele>
        <time>2013-03-16T10:36:46.000Z</time>
      </trkpt>
      <trkpt lat="43.56254" lon="5.67885">
        <ele>570.20001220703</ele>
        <time>2013-03-16T10:36:47.000Z</time>
      </trkpt>
      <trkpt lat="43.56249" lon="5.67885">
        <ele>570.40002441406</ele>
        <time>2013-03-16T10:36:48.000Z</time>
      </trkpt>
      <trkpt lat="43.56241" lon="5.67885">
        <ele>570.59997558594</ele>
        <time>2013-03-16T10:36:50.000Z</time>
      </trkpt>
      <trkpt lat="43.56238" lon="5.67883">
        <ele>570.59997558594</ele>
        <time>2013-03-16T10:36:51.000Z</time>
      </trkpt>
      <trkpt lat="43.56237" lon="5.6788">
        <ele>570.79998779297</ele>
        <time>2013-03-16T10:36:52.000Z</time>
      </trkpt>
      <trkpt lat="43.56237" lon="5.67877">
        <ele>570.79998779297</ele>
        <time>2013-03-16T10:36:53.000Z</time>
      </trkpt>
      <trkpt lat="43.56239" lon="5.67874">
        <ele>570.79998779297</ele>
        <time>2013-03-16T10:36:54.000Z</time>
      </trkpt>
      <trkpt lat="43.56242" lon="5.67871">
        <ele>570.59997558594</ele>
        <time>2013-03-16T10:36:55.000Z</time>
      </trkpt>
      <trkpt lat="43.56245" lon="5.67868">
        <ele>570.59997558594</ele>
        <time>2013-03-16T10:36:56.000Z</time>
      </trkpt>
      <trkpt lat="43.56249" lon="5.67864">
        <ele>570.59997558594</ele>
        <time>2013-03-16T10:36:57.000Z</time>
      </trkpt>
      <trkpt lat="43.56268" lon="5.67855">
        <ele>570.40002441406</ele>
        <time>2013-03-16T10:37:04.000Z</time>
      </trkpt>
      <trkpt lat="43.56278" lon="5.67849">
        <ele>570.59997558594</ele>
        <time>2013-03-16T10:37:13.000Z</time>
      </trkpt>
      <trkpt lat="43.56278" lon="5.67849">
        <ele>570.59997558594</ele>
        <time>2013-03-16T10:37:28.000Z</time>
      </trkpt>
      <trkpt lat="43.56279" lon="5.6785">
        <ele>570.40002441406</ele>
        <time>2013-03-16T10:37:47.000Z</time>
      </trkpt>
      <trkpt lat="43.56279" lon="5.6785">
        <ele>570.40002441406</ele>
        <time>2013-03-16T10:38:12.000Z</time>
      </trkpt>
      <trkpt lat="43.56279" lon="5.67849">
        <ele>570.59997558594</ele>
        <time>2013-03-16T10:38:28.000Z</time>
      </trkpt>
      <trkpt lat="43.56282" lon="5.67841">
        <ele>570.59997558594</ele>
        <time>2013-03-16T10:38:40.000Z</time>
      </trkpt>
      <trkpt lat="43.56281" lon="5.67807">
        <ele>572.59997558594</ele>
        <time>2013-03-16T10:38:49.000Z</time>
      </trkpt>
      <trkpt lat="43.56293" lon="5.67767">
        <ele>574.40002441406</ele>
        <time>2013-03-16T10:38:58.000Z</time>
      </trkpt>
      <trkpt lat="43.56325" lon="5.67733">
        <ele>574.20001220703</ele>
        <time>2013-03-16T10:39:09.000Z</time>
      </trkpt>
      <trkpt lat="43.56328" lon="5.67702">
        <ele>575.59997558594</ele>
        <time>2013-03-16T10:39:17.000Z</time>
      </trkpt>
      <trkpt lat="43.56315" lon="5.67675">
        <ele>577.59997558594</ele>
        <time>2013-03-16T10:39:25.000Z</time>
      </trkpt>
      <trkpt lat="43.56288" lon="5.67648">
        <ele>580</ele>
        <time>2013-03-16T10:39:36.000Z</time>
      </trkpt>
      <trkpt lat="43.56279" lon="5.67602">
        <ele>581</ele>
        <time>2013-03-16T10:39:46.000Z</time>
      </trkpt>
      <trkpt lat="43.56289" lon="5.67549">
        <ele>582.79998779297</ele>
        <time>2013-03-16T10:39:58.000Z</time>
      </trkpt>
      <trkpt lat="43.56313" lon="5.67491">
        <ele>585.40002441406</ele>
        <time>2013-03-16T10:40:14.000Z</time>
      </trkpt>
      <trkpt lat="43.56331" lon="5.67442">
        <ele>587.79998779297</ele>
        <time>2013-03-16T10:40:28.000Z</time>
      </trkpt>
      <trkpt lat="43.56336" lon="5.67401">
        <ele>590.20001220703</ele>
        <time>2013-03-16T10:40:40.000Z</time>
      </trkpt>
      <trkpt lat="43.56326" lon="5.67359">
        <ele>592.20001220703</ele>
        <time>2013-03-16T10:40:52.000Z</time>
      </trkpt>
      <trkpt lat="43.56306" lon="5.67338">
        <ele>592.79998779297</ele>
        <time>2013-03-16T10:41:02.000Z</time>
      </trkpt>
      <trkpt lat="43.56276" lon="5.67329">
        <ele>592</ele>
        <time>2013-03-16T10:41:14.000Z</time>
      </trkpt>
      <trkpt lat="43.5626" lon="5.67296">
        <ele>592.79998779297</ele>
        <time>2013-03-16T10:41:25.000Z</time>
      </trkpt>
      <trkpt lat="43.56254" lon="5.67251">
        <ele>594.20001220703</ele>
        <time>2013-03-16T10:41:36.000Z</time>
      </trkpt>
      <trkpt lat="43.56252" lon="5.67193">
        <ele>596.79998779297</ele>
        <time>2013-03-16T10:41:49.000Z</time>
      </trkpt>
      <trkpt lat="43.56247" lon="5.67147">
        <ele>599</ele>
        <time>2013-03-16T10:42:00.000Z</time>
      </trkpt>
      <trkpt lat="43.56243" lon="5.67087">
        <ele>602</ele>
        <time>2013-03-16T10:42:15.000Z</time>
      </trkpt>
      <trkpt lat="43.56237" lon="5.67038">
        <ele>605.40002441406</ele>
        <time>2013-03-16T10:42:28.000Z</time>
      </trkpt>
      <trkpt lat="43.56233" lon="5.6699">
        <ele>608.59997558594</ele>
        <time>2013-03-16T10:42:40.000Z</time>
      </trkpt>
      <trkpt lat="43.56215" lon="5.66962">
        <ele>610.20001220703</ele>
        <time>2013-03-16T10:42:50.000Z</time>
      </trkpt>
      <trkpt lat="43.56206" lon="5.66953">
        <ele>610.59997558594</ele>
        <time>2013-03-16T10:42:55.000Z</time>
      </trkpt>
      <trkpt lat="43.56205" lon="5.6695">
        <ele>610.79998779297</ele>
        <time>2013-03-16T10:42:56.000Z</time>
      </trkpt>
      <trkpt lat="43.56206" lon="5.66948">
        <ele>610.79998779297</ele>
        <time>2013-03-16T10:42:57.000Z</time>
      </trkpt>
      <trkpt lat="43.56207" lon="5.66946">
        <ele>611</ele>
        <time>2013-03-16T10:42:58.000Z</time>
      </trkpt>
      <trkpt lat="43.56209" lon="5.66945">
        <ele>611</ele>
        <time>2013-03-16T10:42:59.000Z</time>
      </trkpt>
      <trkpt lat="43.5621" lon="5.66944">
        <ele>611</ele>
        <time>2013-03-16T10:43:00.000Z</time>
      </trkpt>
      <trkpt lat="43.56211" lon="5.66944">
        <ele>611.20001220703</ele>
        <time>2013-03-16T10:43:01.000Z</time>
      </trkpt>
      <trkpt lat="43.56213" lon="5.66945">
        <ele>611</ele>
        <time>2013-03-16T10:43:11.000Z</time>
      </trkpt>
      <trkpt lat="43.56215" lon="5.66943">
        <ele>611.20001220703</ele>
        <time>2013-03-16T10:43:23.000Z</time>
      </trkpt>
      <trkpt lat="43.56214" lon="5.66946">
        <ele>611</ele>
        <time>2013-03-16T10:43:48.000Z</time>
      </trkpt>
      <trkpt lat="43.56213" lon="5.66946">
        <ele>611</ele>
        <time>2013-03-16T10:44:16.000Z</time>
      </trkpt>
      <trkpt lat="43.56211" lon="5.66949">
        <ele>610.79998779297</ele>
        <time>2013-03-16T10:44:47.000Z</time>
      </trkpt>
      <trkpt lat="43.56212" lon="5.66948">
        <ele>611</ele>
        <time>2013-03-16T10:45:14.000Z</time>
      </trkpt>
      <trkpt lat="43.56214" lon="5.66946">
        <ele>611</ele>
        <time>2013-03-16T10:45:23.000Z</time>
      </trkpt>
      <trkpt lat="43.5622" lon="5.66946">
        <ele>611</ele>
        <time>2013-03-16T10:45:27.000Z</time>
      </trkpt>
      <trkpt lat="43.56222" lon="5.66947">
        <ele>611</ele>
        <time>2013-03-16T10:45:28.000Z</time>
      </trkpt>
      <trkpt lat="43.56242" lon="5.66954">
        <ele>610.59997558594</ele>
        <time>2013-03-16T10:45:37.000Z</time>
      </trkpt>
      <trkpt lat="43.56256" lon="5.66978">
        <ele>609.59997558594</ele>
        <time>2013-03-16T10:45:44.000Z</time>
      </trkpt>
      <trkpt lat="43.56275" lon="5.67015">
        <ele>608.40002441406</ele>
        <time>2013-03-16T10:45:54.000Z</time>
      </trkpt>
      <trkpt lat="43.56304" lon="5.67053">
        <ele>608.59997558594</ele>
        <time>2013-03-16T10:46:05.000Z</time>
      </trkpt>
      <trkpt lat="43.56333" lon="5.67058">
        <ele>610.79998779297</ele>
        <time>2013-03-16T10:46:13.000Z</time>
      </trkpt>
      <trkpt lat="43.56341" lon="5.67057">
        <ele>611</ele>
        <time>2013-03-16T10:46:15.000Z</time>
      </trkpt>
      <trkpt lat="43.56382" lon="5.67049">
        <ele>612.59997558594</ele>
        <time>2013-03-16T10:46:26.000Z</time>
      </trkpt>
      <trkpt lat="43.5642" lon="5.67038">
        <ele>613.40002441406</ele>
        <time>2013-03-16T10:46:38.000Z</time>
      </trkpt>
      <trkpt lat="43.56436" lon="5.67029">
        <ele>609.79998779297</ele>
        <time>2013-03-16T10:46:46.000Z</time>
      </trkpt>
      <trkpt lat="43.56438" lon="5.67026">
        <ele>609.59997558594</ele>
        <time>2013-03-16T10:46:47.000Z</time>
      </trkpt>
      <trkpt lat="43.56437" lon="5.67023">
        <ele>609.59997558594</ele>
        <time>2013-03-16T10:46:48.000Z</time>
      </trkpt>
      <trkpt lat="43.56437" lon="5.6702">
        <ele>609.79998779297</ele>
        <time>2013-03-16T10:46:49.000Z</time>
      </trkpt>
      <trkpt lat="43.56437" lon="5.67018">
        <ele>609.79998779297</ele>
        <time>2013-03-16T10:46:50.000Z</time>
      </trkpt>
      <trkpt lat="43.56437" lon="5.67016">
        <ele>610</ele>
        <time>2013-03-16T10:46:51.000Z</time>
      </trkpt>
      <trkpt lat="43.56437" lon="5.67013">
        <ele>610</ele>
        <time>2013-03-16T10:46:52.000Z</time>
      </trkpt>
      <trkpt lat="43.56444" lon="5.66988">
        <ele>608.59997558594</ele>
        <time>2013-03-16T10:46:59.000Z</time>
      </trkpt>
      <trkpt lat="43.5645" lon="5.6697">
        <ele>607</ele>
        <time>2013-03-16T10:47:03.000Z</time>
      </trkpt>
      <trkpt lat="43.56453" lon="5.66965">
        <ele>606.20001220703</ele>
        <time>2013-03-16T10:47:04.000Z</time>
      </trkpt>
      <trkpt lat="43.56456" lon="5.66961">
        <ele>605.40002441406</ele>
        <time>2013-03-16T10:47:05.000Z</time>
      </trkpt>
      <trkpt lat="43.56459" lon="5.66957">
        <ele>604.59997558594</ele>
        <time>2013-03-16T10:47:06.000Z</time>
      </trkpt>
      <trkpt lat="43.56467" lon="5.66953">
        <ele>602.20001220703</ele>
        <time>2013-03-16T10:47:09.000Z</time>
      </trkpt>
      <trkpt lat="43.56469" lon="5.66952">
        <ele>601.59997558594</ele>
        <time>2013-03-16T10:47:10.000Z</time>
      </trkpt>
      <trkpt lat="43.5647" lon="5.6695">
        <ele>601.20001220703</ele>
        <time>2013-03-16T10:47:11.000Z</time>
      </trkpt>
      <trkpt lat="43.5647" lon="5.66947">
        <ele>601.20001220703</ele>
        <time>2013-03-16T10:47:12.000Z</time>
      </trkpt>
      <trkpt lat="43.56469" lon="5.66945">
        <ele>601.40002441406</ele>
        <time>2013-03-16T10:47:13.000Z</time>
      </trkpt>
      <trkpt lat="43.56469" lon="5.66934">
        <ele>601.59997558594</ele>
        <time>2013-03-16T10:47:18.000Z</time>
      </trkpt>
      <trkpt lat="43.56469" lon="5.66932">
        <ele>601.59997558594</ele>
        <time>2013-03-16T10:47:19.000Z</time>
      </trkpt>
      <trkpt lat="43.5647" lon="5.6693">
        <ele>601.40002441406</ele>
        <time>2013-03-16T10:47:20.000Z</time>
      </trkpt>
      <trkpt lat="43.56471" lon="5.66928">
        <ele>601</ele>
        <time>2013-03-16T10:47:21.000Z</time>
      </trkpt>
      <trkpt lat="43.56472" lon="5.66927">
        <ele>600.79998779297</ele>
        <time>2013-03-16T10:47:22.000Z</time>
      </trkpt>
      <trkpt lat="43.56473" lon="5.66927">
        <ele>600.40002441406</ele>
        <time>2013-03-16T10:47:23.000Z</time>
      </trkpt>
      <trkpt lat="43.56474" lon="5.66926">
        <ele>600</ele>
        <time>2013-03-16T10:47:24.000Z</time>
      </trkpt>
      <trkpt lat="43.56474" lon="5.66921">
        <ele>600</ele>
        <time>2013-03-16T10:47:26.000Z</time>
      </trkpt>
      <trkpt lat="43.56475" lon="5.66918">
        <ele>599.79998779297</ele>
        <time>2013-03-16T10:47:27.000Z</time>
      </trkpt>
      <trkpt lat="43.56478" lon="5.66906">
        <ele>598.40002441406</ele>
        <time>2013-03-16T10:47:30.000Z</time>
      </trkpt>
      <trkpt lat="43.56475" lon="5.66885">
        <ele>598.20001220703</ele>
        <time>2013-03-16T10:47:35.000Z</time>
      </trkpt>
      <trkpt lat="43.56476" lon="5.66882">
        <ele>597.79998779297</ele>
        <time>2013-03-16T10:47:36.000Z</time>
      </trkpt>
      <trkpt lat="43.56479" lon="5.66874">
        <ele>596.59997558594</ele>
        <time>2013-03-16T10:47:38.000Z</time>
      </trkpt>
      <trkpt lat="43.56481" lon="5.6687">
        <ele>595.79998779297</ele>
        <time>2013-03-16T10:47:39.000Z</time>
      </trkpt>
      <trkpt lat="43.56482" lon="5.66868">
        <ele>595.20001220703</ele>
        <time>2013-03-16T10:47:40.000Z</time>
      </trkpt>
      <trkpt lat="43.56484" lon="5.66865">
        <ele>594.59997558594</ele>
        <time>2013-03-16T10:47:41.000Z</time>
      </trkpt>
      <trkpt lat="43.56485" lon="5.66862">
        <ele>594</ele>
        <time>2013-03-16T10:47:42.000Z</time>
      </trkpt>
      <trkpt lat="43.56487" lon="5.6686">
        <ele>593.40002441406</ele>
        <time>2013-03-16T10:47:43.000Z</time>
      </trkpt>
      <trkpt lat="43.5649" lon="5.66854">
        <ele>592</ele>
        <time>2013-03-16T10:47:45.000Z</time>
      </trkpt>
      <trkpt lat="43.56493" lon="5.66847">
        <ele>590.79998779297</ele>
        <time>2013-03-16T10:47:49.000Z</time>
      </trkpt>
      <trkpt lat="43.56494" lon="5.66845">
        <ele>590.40002441406</ele>
        <time>2013-03-16T10:47:50.000Z</time>
      </trkpt>
      <trkpt lat="43.56499" lon="5.66835">
        <ele>588.20001220703</ele>
        <time>2013-03-16T10:47:56.000Z</time>
      </trkpt>
      <trkpt lat="43.56503" lon="5.66827">
        <ele>586.40002441406</ele>
        <time>2013-03-16T10:47:58.000Z</time>
      </trkpt>
      <trkpt lat="43.56504" lon="5.66822">
        <ele>585.59997558594</ele>
        <time>2013-03-16T10:47:59.000Z</time>
      </trkpt>
      <trkpt lat="43.56506" lon="5.66817">
        <ele>584.59997558594</ele>
        <time>2013-03-16T10:48:00.000Z</time>
      </trkpt>
      <trkpt lat="43.56507" lon="5.66812">
        <ele>583.59997558594</ele>
        <time>2013-03-16T10:48:01.000Z</time>
      </trkpt>
      <trkpt lat="43.56516" lon="5.66793">
        <ele>579</ele>
        <time>2013-03-16T10:48:05.000Z</time>
      </trkpt>
      <trkpt lat="43.56522" lon="5.66777">
        <ele>576.20001220703</ele>
        <time>2013-03-16T10:48:08.000Z</time>
      </trkpt>
      <trkpt lat="43.56524" lon="5.66772">
        <ele>575</ele>
        <time>2013-03-16T10:48:09.000Z</time>
      </trkpt>
      <trkpt lat="43.56528" lon="5.66769">
        <ele>573.59997558594</ele>
        <time>2013-03-16T10:48:10.000Z</time>
      </trkpt>
      <trkpt lat="43.56539" lon="5.66758">
        <ele>569.59997558594</ele>
        <time>2013-03-16T10:48:13.000Z</time>
      </trkpt>
      <trkpt lat="43.56542" lon="5.66753">
        <ele>568.40002441406</ele>
        <time>2013-03-16T10:48:14.000Z</time>
      </trkpt>
      <trkpt lat="43.56545" lon="5.66747">
        <ele>567.20001220703</ele>
        <time>2013-03-16T10:48:15.000Z</time>
      </trkpt>
      <trkpt lat="43.56548" lon="5.66741">
        <ele>566</ele>
        <time>2013-03-16T10:48:16.000Z</time>
      </trkpt>
      <trkpt lat="43.56551" lon="5.66733">
        <ele>565</ele>
        <time>2013-03-16T10:48:17.000Z</time>
      </trkpt>
      <trkpt lat="43.56554" lon="5.66725">
        <ele>564</ele>
        <time>2013-03-16T10:48:18.000Z</time>
      </trkpt>
      <trkpt lat="43.56563" lon="5.66706">
        <ele>561.20001220703</ele>
        <time>2013-03-16T10:48:20.000Z</time>
      </trkpt>
      <trkpt lat="43.56568" lon="5.66697">
        <ele>559.40002441406</ele>
        <time>2013-03-16T10:48:21.000Z</time>
      </trkpt>
      <trkpt lat="43.56587" lon="5.66668">
        <ele>555.20001220703</ele>
        <time>2013-03-16T10:48:24.000Z</time>
      </trkpt>
      <trkpt lat="43.56595" lon="5.6666">
        <ele>555.59997558594</ele>
        <time>2013-03-16T10:48:25.000Z</time>
      </trkpt>
      <trkpt lat="43.56602" lon="5.66653">
        <ele>556.20001220703</ele>
        <time>2013-03-16T10:48:26.000Z</time>
      </trkpt>
      <trkpt lat="43.5661" lon="5.66648">
        <ele>556.59997558594</ele>
        <time>2013-03-16T10:48:27.000Z</time>
      </trkpt>
      <trkpt lat="43.56617" lon="5.66643">
        <ele>557.20001220703</ele>
        <time>2013-03-16T10:48:28.000Z</time>
      </trkpt>
      <trkpt lat="43.56632" lon="5.66634">
        <ele>558.40002441406</ele>
        <time>2013-03-16T10:48:30.000Z</time>
      </trkpt>
      <trkpt lat="43.5664" lon="5.66628">
        <ele>559</ele>
        <time>2013-03-16T10:48:31.000Z</time>
      </trkpt>
      <trkpt lat="43.56646" lon="5.6662">
        <ele>559.59997558594</ele>
        <time>2013-03-16T10:48:32.000Z</time>
      </trkpt>
      <trkpt lat="43.56652" lon="5.66612">
        <ele>560.20001220703</ele>
        <time>2013-03-16T10:48:33.000Z</time>
      </trkpt>
      <trkpt lat="43.56658" lon="5.66604">
        <ele>560.79998779297</ele>
        <time>2013-03-16T10:48:34.000Z</time>
      </trkpt>
      <trkpt lat="43.56668" lon="5.66589">
        <ele>561.79998779297</ele>
        <time>2013-03-16T10:48:36.000Z</time>
      </trkpt>
      <trkpt lat="43.56672" lon="5.66583">
        <ele>561.79998779297</ele>
        <time>2013-03-16T10:48:37.000Z</time>
      </trkpt>
      <trkpt lat="43.56678" lon="5.66579">
        <ele>562.20001220703</ele>
        <time>2013-03-16T10:48:38.000Z</time>
      </trkpt>
      <trkpt lat="43.56683" lon="5.66575">
        <ele>562.40002441406</ele>
        <time>2013-03-16T10:48:39.000Z</time>
      </trkpt>
      <trkpt lat="43.56688" lon="5.66571">
        <ele>562.59997558594</ele>
        <time>2013-03-16T10:48:40.000Z</time>
      </trkpt>
      <trkpt lat="43.56693" lon="5.66568">
        <ele>562.59997558594</ele>
        <time>2013-03-16T10:48:41.000Z</time>
      </trkpt>
      <trkpt lat="43.56699" lon="5.66564">
        <ele>562.79998779297</ele>
        <time>2013-03-16T10:48:45.000Z</time>
      </trkpt>
      <trkpt lat="43.56714" lon="5.66556">
        <ele>562.40002441406</ele>
        <time>2013-03-16T10:48:53.000Z</time>
      </trkpt>
      <trkpt lat="43.56716" lon="5.66555">
        <ele>562.40002441406</ele>
        <time>2013-03-16T10:48:54.000Z</time>
      </trkpt>
      <trkpt lat="43.56717" lon="5.66554">
        <ele>562.20001220703</ele>
        <time>2013-03-16T10:48:55.000Z</time>
      </trkpt>
      <trkpt lat="43.56719" lon="5.66552">
        <ele>562.20001220703</ele>
        <time>2013-03-16T10:48:56.000Z</time>
      </trkpt>
      <trkpt lat="43.56721" lon="5.6655">
        <ele>562.20001220703</ele>
        <time>2013-03-16T10:48:57.000Z</time>
      </trkpt>
      <trkpt lat="43.56724" lon="5.66548">
        <ele>562.20001220703</ele>
        <time>2013-03-16T10:48:58.000Z</time>
      </trkpt>
      <trkpt lat="43.56745" lon="5.66535">
        <ele>560.59997558594</ele>
        <time>2013-03-16T10:49:05.000Z</time>
      </trkpt>
      <trkpt lat="43.56758" lon="5.66527">
        <ele>558.59997558594</ele>
        <time>2013-03-16T10:49:08.000Z</time>
      </trkpt>
      <trkpt lat="43.56763" lon="5.66524">
        <ele>557.59997558594</ele>
        <time>2013-03-16T10:49:09.000Z</time>
      </trkpt>
      <trkpt lat="43.56785" lon="5.66503">
        <ele>552.20001220703</ele>
        <time>2013-03-16T10:49:14.000Z</time>
      </trkpt>
      <trkpt lat="43.568" lon="5.66486">
        <ele>549.59997558594</ele>
        <time>2013-03-16T10:49:18.000Z</time>
      </trkpt>
      <trkpt lat="43.56817" lon="5.66458">
        <ele>547</ele>
        <time>2013-03-16T10:49:23.000Z</time>
      </trkpt>
      <trkpt lat="43.56841" lon="5.66404">
        <ele>543.59997558594</ele>
        <time>2013-03-16T10:49:30.000Z</time>
      </trkpt>
      <trkpt lat="43.56876" lon="5.66332">
        <ele>540</ele>
        <time>2013-03-16T10:49:39.000Z</time>
      </trkpt>
      <trkpt lat="43.56892" lon="5.66299">
        <ele>536.59997558594</ele>
        <time>2013-03-16T10:49:43.000Z</time>
      </trkpt>
      <trkpt lat="43.56901" lon="5.66245">
        <ele>535.59997558594</ele>
        <time>2013-03-16T10:49:48.000Z</time>
      </trkpt>
      <trkpt lat="43.5692" lon="5.66211">
        <ele>538.20001220703</ele>
        <time>2013-03-16T10:49:52.000Z</time>
      </trkpt>
      <trkpt lat="43.56926" lon="5.66205">
        <ele>538.20001220703</ele>
        <time>2013-03-16T10:49:53.000Z</time>
      </trkpt>
      <trkpt lat="43.56984" lon="5.66156">
        <ele>537.79998779297</ele>
        <time>2013-03-16T10:50:03.000Z</time>
      </trkpt>
      <trkpt lat="43.57013" lon="5.66129">
        <ele>536.79998779297</ele>
        <time>2013-03-16T10:50:09.000Z</time>
      </trkpt>
      <trkpt lat="43.57018" lon="5.66124">
        <ele>536.40002441406</ele>
        <time>2013-03-16T10:50:10.000Z</time>
      </trkpt>
      <trkpt lat="43.57023" lon="5.6612">
        <ele>536</ele>
        <time>2013-03-16T10:50:11.000Z</time>
      </trkpt>
      <trkpt lat="43.57028" lon="5.66116">
        <ele>535.40002441406</ele>
        <time>2013-03-16T10:50:12.000Z</time>
      </trkpt>
      <trkpt lat="43.57033" lon="5.66112">
        <ele>535</ele>
        <time>2013-03-16T10:50:13.000Z</time>
      </trkpt>
      <trkpt lat="43.57038" lon="5.66108">
        <ele>534.59997558594</ele>
        <time>2013-03-16T10:50:14.000Z</time>
      </trkpt>
      <trkpt lat="43.57042" lon="5.66103">
        <ele>534.20001220703</ele>
        <time>2013-03-16T10:50:15.000Z</time>
      </trkpt>
      <trkpt lat="43.57046" lon="5.66097">
        <ele>534.20001220703</ele>
        <time>2013-03-16T10:50:16.000Z</time>
      </trkpt>
      <trkpt lat="43.57048" lon="5.66091">
        <ele>534.20001220703</ele>
        <time>2013-03-16T10:50:17.000Z</time>
      </trkpt>
      <trkpt lat="43.57055" lon="5.66074">
        <ele>534.40002441406</ele>
        <time>2013-03-16T10:50:22.000Z</time>
      </trkpt>
      <trkpt lat="43.57058" lon="5.66072">
        <ele>534</ele>
        <time>2013-03-16T10:50:23.000Z</time>
      </trkpt>
      <trkpt lat="43.57062" lon="5.66071">
        <ele>533.40002441406</ele>
        <time>2013-03-16T10:50:24.000Z</time>
      </trkpt>
      <trkpt lat="43.57066" lon="5.66069">
        <ele>532.40002441406</ele>
        <time>2013-03-16T10:50:25.000Z</time>
      </trkpt>
      <trkpt lat="43.57071" lon="5.66066">
        <ele>531.40002441406</ele>
        <time>2013-03-16T10:50:26.000Z</time>
      </trkpt>
      <trkpt lat="43.57076" lon="5.66062">
        <ele>530.79998779297</ele>
        <time>2013-03-16T10:50:27.000Z</time>
      </trkpt>
      <trkpt lat="43.57078" lon="5.66057">
        <ele>530.40002441406</ele>
        <time>2013-03-16T10:50:28.000Z</time>
      </trkpt>
      <trkpt lat="43.5708" lon="5.66051">
        <ele>530.40002441406</ele>
        <time>2013-03-16T10:50:29.000Z</time>
      </trkpt>
      <trkpt lat="43.57082" lon="5.66047">
        <ele>530</ele>
        <time>2013-03-16T10:50:30.000Z</time>
      </trkpt>
      <trkpt lat="43.57086" lon="5.66045">
        <ele>529.79998779297</ele>
        <time>2013-03-16T10:50:31.000Z</time>
      </trkpt>
      <trkpt lat="43.57091" lon="5.66046">
        <ele>529.59997558594</ele>
        <time>2013-03-16T10:50:32.000Z</time>
      </trkpt>
      <trkpt lat="43.57096" lon="5.66047">
        <ele>529.59997558594</ele>
        <time>2013-03-16T10:50:33.000Z</time>
      </trkpt>
      <trkpt lat="43.57115" lon="5.66052">
        <ele>529.20001220703</ele>
        <time>2013-03-16T10:50:36.000Z</time>
      </trkpt>
      <trkpt lat="43.57147" lon="5.66057">
        <ele>529</ele>
        <time>2013-03-16T10:50:42.000Z</time>
      </trkpt>
      <trkpt lat="43.57168" lon="5.66065">
        <ele>528.79998779297</ele>
        <time>2013-03-16T10:50:48.000Z</time>
      </trkpt>
      <trkpt lat="43.57169" lon="5.66068">
        <ele>528.79998779297</ele>
        <time>2013-03-16T10:50:49.000Z</time>
      </trkpt>
      <trkpt lat="43.5717" lon="5.66071">
        <ele>529</ele>
        <time>2013-03-16T10:50:56.000Z</time>
      </trkpt>
      <trkpt lat="43.57171" lon="5.66072">
        <ele>529</ele>
        <time>2013-03-16T10:51:07.000Z</time>
      </trkpt>
      <trkpt lat="43.5717" lon="5.66069">
        <ele>529</ele>
        <time>2013-03-16T10:51:10.000Z</time>
      </trkpt>
      <trkpt lat="43.57171" lon="5.66066">
        <ele>529.20001220703</ele>
        <time>2013-03-16T10:51:15.000Z</time>
      </trkpt>
      <trkpt lat="43.5717" lon="5.66067">
        <ele>529</ele>
        <time>2013-03-16T10:51:29.000Z</time>
      </trkpt>
      <trkpt lat="43.57171" lon="5.66068">
        <ele>529</ele>
        <time>2013-03-16T10:52:02.000Z</time>
      </trkpt>
      <trkpt lat="43.5717" lon="5.6607">
        <ele>529</ele>
        <time>2013-03-16T10:52:32.000Z</time>
      </trkpt>
      <trkpt lat="43.57169" lon="5.66069">
        <ele>528.79998779297</ele>
        <time>2013-03-16T10:52:55.000Z</time>
      </trkpt>
      <trkpt lat="43.57168" lon="5.66065">
        <ele>528.79998779297</ele>
        <time>2013-03-16T10:53:10.000Z</time>
      </trkpt>
      <trkpt lat="43.57171" lon="5.66072">
        <ele>529</ele>
        <time>2013-03-16T10:53:20.000Z</time>
      </trkpt>
      <trkpt lat="43.57172" lon="5.66076">
        <ele>529</ele>
        <time>2013-03-16T10:53:31.000Z</time>
      </trkpt>
      <trkpt lat="43.57172" lon="5.66076">
        <ele>529</ele>
        <time>2013-03-16T10:53:37.000Z</time>
      </trkpt>
      <trkpt lat="43.57173" lon="5.66087">
        <ele>529</ele>
        <time>2013-03-16T10:53:44.000Z</time>
      </trkpt>
      <trkpt lat="43.5718" lon="5.66126">
        <ele>529</ele>
        <time>2013-03-16T10:53:55.000Z</time>
      </trkpt>
      <trkpt lat="43.57181" lon="5.66134">
        <ele>529</ele>
        <time>2013-03-16T10:53:57.000Z</time>
      </trkpt>
      <trkpt lat="43.57182" lon="5.66138">
        <ele>529.20001220703</ele>
        <time>2013-03-16T10:53:58.000Z</time>
      </trkpt>
      <trkpt lat="43.57188" lon="5.66197">
        <ele>528</ele>
        <time>2013-03-16T10:54:12.000Z</time>
      </trkpt>
      <trkpt lat="43.57186" lon="5.66243">
        <ele>526.20001220703</ele>
        <time>2013-03-16T10:54:20.000Z</time>
      </trkpt>
      <trkpt lat="43.57187" lon="5.66251">
        <ele>526.20001220703</ele>
        <time>2013-03-16T10:54:22.000Z</time>
      </trkpt>
      <trkpt lat="43.57189" lon="5.66252">
        <ele>526.40002441406</ele>
        <time>2013-03-16T10:54:23.000Z</time>
      </trkpt>
      <trkpt lat="43.57191" lon="5.66253">
        <ele>526.59997558594</ele>
        <time>2013-03-16T10:54:24.000Z</time>
      </trkpt>
      <trkpt lat="43.57192" lon="5.66252">
        <ele>526.79998779297</ele>
        <time>2013-03-16T10:54:25.000Z</time>
      </trkpt>
      <trkpt lat="43.57193" lon="5.6625">
        <ele>527</ele>
        <time>2013-03-16T10:54:26.000Z</time>
      </trkpt>
      <trkpt lat="43.57201" lon="5.66227">
        <ele>529</ele>
        <time>2013-03-16T10:54:34.000Z</time>
      </trkpt>
      <trkpt lat="43.57204" lon="5.662">
        <ele>530.59997558594</ele>
        <time>2013-03-16T10:54:44.000Z</time>
      </trkpt>
      <trkpt lat="43.5721" lon="5.66169">
        <ele>532.59997558594</ele>
        <time>2013-03-16T10:54:56.000Z</time>
      </trkpt>
      <trkpt lat="43.57212" lon="5.66134">
        <ele>534</ele>
        <time>2013-03-16T10:55:08.000Z</time>
      </trkpt>
      <trkpt lat="43.57213" lon="5.66091">
        <ele>535.40002441406</ele>
        <time>2013-03-16T10:55:21.000Z</time>
      </trkpt>
      <trkpt lat="43.57215" lon="5.66057">
        <ele>537</ele>
        <time>2013-03-16T10:55:32.000Z</time>
      </trkpt>
      <trkpt lat="43.57218" lon="5.66027">
        <ele>538.59997558594</ele>
        <time>2013-03-16T10:55:43.000Z</time>
      </trkpt>
      <trkpt lat="43.57226" lon="5.66001">
        <ele>540.79998779297</ele>
        <time>2013-03-16T10:55:53.000Z</time>
      </trkpt>
      <trkpt lat="43.57241" lon="5.65977">
        <ele>544.40002441406</ele>
        <time>2013-03-16T10:56:05.000Z</time>
      </trkpt>
      <trkpt lat="43.57246" lon="5.65973">
        <ele>545.40002441406</ele>
        <time>2013-03-16T10:56:08.000Z</time>
      </trkpt>
      <trkpt lat="43.57247" lon="5.65972">
        <ele>545.79998779297</ele>
        <time>2013-03-16T10:56:09.000Z</time>
      </trkpt>
      <trkpt lat="43.57249" lon="5.6597">
        <ele>546.20001220703</ele>
        <time>2013-03-16T10:56:10.000Z</time>
      </trkpt>
      <trkpt lat="43.5725" lon="5.65969">
        <ele>546.40002441406</ele>
        <time>2013-03-16T10:56:11.000Z</time>
      </trkpt>
      <trkpt lat="43.57252" lon="5.65969">
        <ele>546.40002441406</ele>
        <time>2013-03-16T10:56:12.000Z</time>
      </trkpt>
      <trkpt lat="43.57254" lon="5.65968">
        <ele>546.40002441406</ele>
        <time>2013-03-16T10:56:13.000Z</time>
      </trkpt>
      <trkpt lat="43.57255" lon="5.65967">
        <ele>546.59997558594</ele>
        <time>2013-03-16T10:56:14.000Z</time>
      </trkpt>
      <trkpt lat="43.57256" lon="5.65965">
        <ele>546.59997558594</ele>
        <time>2013-03-16T10:56:15.000Z</time>
      </trkpt>
      <trkpt lat="43.57257" lon="5.65964">
        <ele>546.59997558594</ele>
        <time>2013-03-16T10:56:16.000Z</time>
      </trkpt>
      <trkpt lat="43.57259" lon="5.65963">
        <ele>546.79998779297</ele>
        <time>2013-03-16T10:56:17.000Z</time>
      </trkpt>
      <trkpt lat="43.5726" lon="5.65962">
        <ele>546.79998779297</ele>
        <time>2013-03-16T10:56:18.000Z</time>
      </trkpt>
      <trkpt lat="43.57261" lon="5.65961">
        <ele>546.79998779297</ele>
        <time>2013-03-16T10:56:19.000Z</time>
      </trkpt>
      <trkpt lat="43.57282" lon="5.65937">
        <ele>547.79998779297</ele>
        <time>2013-03-16T10:56:30.000Z</time>
      </trkpt>
      <trkpt lat="43.57308" lon="5.65888">
        <ele>548</ele>
        <time>2013-03-16T10:56:42.000Z</time>
      </trkpt>
      <trkpt lat="43.5731" lon="5.65883">
        <ele>547.79998779297</ele>
        <time>2013-03-16T10:56:43.000Z</time>
      </trkpt>
      <trkpt lat="43.57311" lon="5.65877">
        <ele>547.79998779297</ele>
        <time>2013-03-16T10:56:44.000Z</time>
      </trkpt>
      <trkpt lat="43.57312" lon="5.65871">
        <ele>547.59997558594</ele>
        <time>2013-03-16T10:56:45.000Z</time>
      </trkpt>
      <trkpt lat="43.57312" lon="5.65865">
        <ele>547.59997558594</ele>
        <time>2013-03-16T10:56:46.000Z</time>
      </trkpt>
      <trkpt lat="43.57311" lon="5.6586">
        <ele>547.59997558594</ele>
        <time>2013-03-16T10:56:47.000Z</time>
      </trkpt>
      <trkpt lat="43.57311" lon="5.65854">
        <ele>547.40002441406</ele>
        <time>2013-03-16T10:56:48.000Z</time>
      </trkpt>
      <trkpt lat="43.57311" lon="5.6585">
        <ele>547.40002441406</ele>
        <time>2013-03-16T10:56:49.000Z</time>
      </trkpt>
      <trkpt lat="43.57311" lon="5.65847">
        <ele>547.40002441406</ele>
        <time>2013-03-16T10:56:50.000Z</time>
      </trkpt>
      <trkpt lat="43.57312" lon="5.65846">
        <ele>547.40002441406</ele>
        <time>2013-03-16T10:56:51.000Z</time>
      </trkpt>
      <trkpt lat="43.57314" lon="5.65847">
        <ele>547.20001220703</ele>
        <time>2013-03-16T10:56:52.000Z</time>
      </trkpt>
      <trkpt lat="43.57317" lon="5.65849">
        <ele>547.20001220703</ele>
        <time>2013-03-16T10:56:53.000Z</time>
      </trkpt>
      <trkpt lat="43.57319" lon="5.6585">
        <ele>547</ele>
        <time>2013-03-16T10:56:54.000Z</time>
      </trkpt>
      <trkpt lat="43.57323" lon="5.65849">
        <ele>546.79998779297</ele>
        <time>2013-03-16T10:56:55.000Z</time>
      </trkpt>
      <trkpt lat="43.57325" lon="5.65847">
        <ele>546.59997558594</ele>
        <time>2013-03-16T10:56:56.000Z</time>
      </trkpt>
      <trkpt lat="43.57327" lon="5.65844">
        <ele>546.40002441406</ele>
        <time>2013-03-16T10:56:57.000Z</time>
      </trkpt>
      <trkpt lat="43.5733" lon="5.6584">
        <ele>546.20001220703</ele>
        <time>2013-03-16T10:56:58.000Z</time>
      </trkpt>
      <trkpt lat="43.57337" lon="5.65831">
        <ele>545.20001220703</ele>
        <time>2013-03-16T10:57:02.000Z</time>
      </trkpt>
      <trkpt lat="43.57339" lon="5.65828">
        <ele>545</ele>
        <time>2013-03-16T10:57:03.000Z</time>
      </trkpt>
      <trkpt lat="43.5734" lon="5.65823">
        <ele>544.79998779297</ele>
        <time>2013-03-16T10:57:04.000Z</time>
      </trkpt>
      <trkpt lat="43.57341" lon="5.65819">
        <ele>544.59997558594</ele>
        <time>2013-03-16T10:57:05.000Z</time>
      </trkpt>
      <trkpt lat="43.57342" lon="5.65814">
        <ele>544.59997558594</ele>
        <time>2013-03-16T10:57:06.000Z</time>
      </trkpt>
      <trkpt lat="43.57345" lon="5.65791">
        <ele>544.40002441406</ele>
        <time>2013-03-16T10:57:11.000Z</time>
      </trkpt>
      <trkpt lat="43.57347" lon="5.65786">
        <ele>544.40002441406</ele>
        <time>2013-03-16T10:57:12.000Z</time>
      </trkpt>
      <trkpt lat="43.57349" lon="5.65782">
        <ele>544</ele>
        <time>2013-03-16T10:57:13.000Z</time>
      </trkpt>
      <trkpt lat="43.57352" lon="5.65781">
        <ele>543.59997558594</ele>
        <time>2013-03-16T10:57:14.000Z</time>
      </trkpt>
      <trkpt lat="43.57355" lon="5.65784">
        <ele>543.20001220703</ele>
        <time>2013-03-16T10:57:15.000Z</time>
      </trkpt>
      <trkpt lat="43.57357" lon="5.65788">
        <ele>542.59997558594</ele>
        <time>2013-03-16T10:57:16.000Z</time>
      </trkpt>
      <trkpt lat="43.57359" lon="5.65792">
        <ele>542.20001220703</ele>
        <time>2013-03-16T10:57:17.000Z</time>
      </trkpt>
      <trkpt lat="43.57361" lon="5.65795">
        <ele>541.79998779297</ele>
        <time>2013-03-16T10:57:18.000Z</time>
      </trkpt>
      <trkpt lat="43.57363" lon="5.65801">
        <ele>541.40002441406</ele>
        <time>2013-03-16T10:57:25.000Z</time>
      </trkpt>
      <trkpt lat="43.57364" lon="5.65802">
        <ele>541.20001220703</ele>
        <time>2013-03-16T10:57:26.000Z</time>
      </trkpt>
      <trkpt lat="43.57365" lon="5.65802">
        <ele>540.79998779297</ele>
        <time>2013-03-16T10:57:27.000Z</time>
      </trkpt>
      <trkpt lat="43.57366" lon="5.658">
        <ele>540.79998779297</ele>
        <time>2013-03-16T10:57:28.000Z</time>
      </trkpt>
      <trkpt lat="43.57367" lon="5.65797">
        <ele>540.79998779297</ele>
        <time>2013-03-16T10:57:29.000Z</time>
      </trkpt>
      <trkpt lat="43.57368" lon="5.65793">
        <ele>540.79998779297</ele>
        <time>2013-03-16T10:57:30.000Z</time>
      </trkpt>
      <trkpt lat="43.57368" lon="5.65788">
        <ele>540.79998779297</ele>
        <time>2013-03-16T10:57:31.000Z</time>
      </trkpt>
      <trkpt lat="43.57372" lon="5.65764">
        <ele>541.20001220703</ele>
        <time>2013-03-16T10:57:35.000Z</time>
      </trkpt>
      <trkpt lat="43.57374" lon="5.65759">
        <ele>541.20001220703</ele>
        <time>2013-03-16T10:57:36.000Z</time>
      </trkpt>
      <trkpt lat="43.57376" lon="5.65755">
        <ele>541</ele>
        <time>2013-03-16T10:57:37.000Z</time>
      </trkpt>
      <trkpt lat="43.57378" lon="5.6575">
        <ele>541</ele>
        <time>2013-03-16T10:57:38.000Z</time>
      </trkpt>
      <trkpt lat="43.5738" lon="5.65745">
        <ele>540.59997558594</ele>
        <time>2013-03-16T10:57:39.000Z</time>
      </trkpt>
      <trkpt lat="43.57382" lon="5.6574">
        <ele>540.40002441406</ele>
        <time>2013-03-16T10:57:40.000Z</time>
      </trkpt>
      <trkpt lat="43.57384" lon="5.65735">
        <ele>540.20001220703</ele>
        <time>2013-03-16T10:57:41.000Z</time>
      </trkpt>
      <trkpt lat="43.57386" lon="5.65731">
        <ele>540</ele>
        <time>2013-03-16T10:57:42.000Z</time>
      </trkpt>
      <trkpt lat="43.57388" lon="5.65726">
        <ele>539.59997558594</ele>
        <time>2013-03-16T10:57:43.000Z</time>
      </trkpt>
      <trkpt lat="43.57395" lon="5.65703">
        <ele>538.79998779297</ele>
        <time>2013-03-16T10:57:47.000Z</time>
      </trkpt>
      <trkpt lat="43.57399" lon="5.65682">
        <ele>538.20001220703</ele>
        <time>2013-03-16T10:57:50.000Z</time>
      </trkpt>
      <trkpt lat="43.57399" lon="5.65676">
        <ele>538.20001220703</ele>
        <time>2013-03-16T10:57:51.000Z</time>
      </trkpt>
      <trkpt lat="43.57401" lon="5.6564">
        <ele>538.40002441406</ele>
        <time>2013-03-16T10:57:58.000Z</time>
      </trkpt>
      <trkpt lat="43.57411" lon="5.65605">
        <ele>538</ele>
        <time>2013-03-16T10:58:07.000Z</time>
      </trkpt>
      <trkpt lat="43.57412" lon="5.65604">
        <ele>537.79998779297</ele>
        <time>2013-03-16T10:58:08.000Z</time>
      </trkpt>
      <trkpt lat="43.57421" lon="5.656">
        <ele>538.20001220703</ele>
        <time>2013-03-16T10:58:16.000Z</time>
      </trkpt>
      <trkpt lat="43.57432" lon="5.65603">
        <ele>540.20001220703</ele>
        <time>2013-03-16T10:58:26.000Z</time>
      </trkpt>
      <trkpt lat="43.57437" lon="5.65603">
        <ele>541.20001220703</ele>
        <time>2013-03-16T10:58:37.000Z</time>
      </trkpt>
      <trkpt lat="43.57445" lon="5.65605">
        <ele>542.40002441406</ele>
        <time>2013-03-16T10:58:47.000Z</time>
      </trkpt>
      <trkpt lat="43.5745" lon="5.65605">
        <ele>543.40002441406</ele>
        <time>2013-03-16T10:58:55.000Z</time>
      </trkpt>
      <trkpt lat="43.57459" lon="5.65602">
        <ele>545</ele>
        <time>2013-03-16T10:59:07.000Z</time>
      </trkpt>
      <trkpt lat="43.57467" lon="5.65604">
        <ele>546.40002441406</ele>
        <time>2013-03-16T10:59:17.000Z</time>
      </trkpt>
      <trkpt lat="43.57475" lon="5.65601">
        <ele>547.79998779297</ele>
        <time>2013-03-16T10:59:28.000Z</time>
      </trkpt>
      <trkpt lat="43.57483" lon="5.65599">
        <ele>549.20001220703</ele>
        <time>2013-03-16T10:59:39.000Z</time>
      </trkpt>
      <trkpt lat="43.57492" lon="5.65603">
        <ele>551</ele>
        <time>2013-03-16T10:59:50.000Z</time>
      </trkpt>
      <trkpt lat="43.57494" lon="5.65604">
        <ele>551.40002441406</ele>
        <time>2013-03-16T10:59:53.000Z</time>
      </trkpt>
      <trkpt lat="43.57502" lon="5.65606">
        <ele>553</ele>
        <time>2013-03-16T11:00:06.000Z</time>
      </trkpt>
      <trkpt lat="43.57511" lon="5.65607">
        <ele>555</ele>
        <time>2013-03-16T11:00:19.000Z</time>
      </trkpt>
      <trkpt lat="43.57518" lon="5.65607">
        <ele>556.79998779297</ele>
        <time>2013-03-16T11:00:29.000Z</time>
      </trkpt>
      <trkpt lat="43.57522" lon="5.65607">
        <ele>557.59997558594</ele>
        <time>2013-03-16T11:00:35.000Z</time>
      </trkpt>
      <trkpt lat="43.5753" lon="5.6561">
        <ele>559.40002441406</ele>
        <time>2013-03-16T11:00:46.000Z</time>
      </trkpt>
      <trkpt lat="43.57533" lon="5.65609">
        <ele>560.20001220703</ele>
        <time>2013-03-16T11:00:58.000Z</time>
      </trkpt>
      <trkpt lat="43.57534" lon="5.65612">
        <ele>560.40002441406</ele>
        <time>2013-03-16T11:01:07.000Z</time>
      </trkpt>
      <trkpt lat="43.57534" lon="5.65612">
        <ele>560.59997558594</ele>
        <time>2013-03-16T11:01:11.000Z</time>
      </trkpt>
      <trkpt lat="43.57546" lon="5.65609">
        <ele>563.20001220703</ele>
        <time>2013-03-16T11:01:21.000Z</time>
      </trkpt>
      <trkpt lat="43.57547" lon="5.65608">
        <ele>563.59997558594</ele>
        <time>2013-03-16T11:01:22.000Z</time>
      </trkpt>
      <trkpt lat="43.57549" lon="5.65609">
        <ele>564</ele>
        <time>2013-03-16T11:01:24.000Z</time>
      </trkpt>
      <trkpt lat="43.57565" lon="5.6561">
        <ele>567.59997558594</ele>
        <time>2013-03-16T11:01:36.000Z</time>
      </trkpt>
      <trkpt lat="43.5758" lon="5.65609">
        <ele>571.20001220703</ele>
        <time>2013-03-16T11:01:48.000Z</time>
      </trkpt>
      <trkpt lat="43.57589" lon="5.65608">
        <ele>572.79998779297</ele>
        <time>2013-03-16T11:01:56.000Z</time>
      </trkpt>
      <trkpt lat="43.57605" lon="5.65606">
        <ele>575</ele>
        <time>2013-03-16T11:02:08.000Z</time>
      </trkpt>
      <trkpt lat="43.57613" lon="5.65603">
        <ele>576.20001220703</ele>
        <time>2013-03-16T11:02:16.000Z</time>
      </trkpt>
      <trkpt lat="43.57622" lon="5.65601">
        <ele>577.40002441406</ele>
        <time>2013-03-16T11:02:23.000Z</time>
      </trkpt>
      <trkpt lat="43.57632" lon="5.656">
        <ele>578.79998779297</ele>
        <time>2013-03-16T11:02:32.000Z</time>
      </trkpt>
      <trkpt lat="43.57644" lon="5.65602">
        <ele>580.59997558594</ele>
        <time>2013-03-16T11:02:44.000Z</time>
      </trkpt>
      <trkpt lat="43.57659" lon="5.656">
        <ele>582.59997558594</ele>
        <time>2013-03-16T11:02:57.000Z</time>
      </trkpt>
      <trkpt lat="43.5767" lon="5.65597">
        <ele>584</ele>
        <time>2013-03-16T11:03:08.000Z</time>
      </trkpt>
      <trkpt lat="43.57678" lon="5.65595">
        <ele>585.20001220703</ele>
        <time>2013-03-16T11:03:16.000Z</time>
      </trkpt>
      <trkpt lat="43.57692" lon="5.65592">
        <ele>587.20001220703</ele>
        <time>2013-03-16T11:03:27.000Z</time>
      </trkpt>
      <trkpt lat="43.577" lon="5.6559">
        <ele>588.40002441406</ele>
        <time>2013-03-16T11:03:35.000Z</time>
      </trkpt>
      <trkpt lat="43.57707" lon="5.65589">
        <ele>589.59997558594</ele>
        <time>2013-03-16T11:03:41.000Z</time>
      </trkpt>
      <trkpt lat="43.57713" lon="5.65586">
        <ele>590.20001220703</ele>
        <time>2013-03-16T11:03:46.000Z</time>
      </trkpt>
      <trkpt lat="43.57724" lon="5.65585">
        <ele>591.79998779297</ele>
        <time>2013-03-16T11:03:55.000Z</time>
      </trkpt>
      <trkpt lat="43.57726" lon="5.65588">
        <ele>592.40002441406</ele>
        <time>2013-03-16T11:03:58.000Z</time>
      </trkpt>
      <trkpt lat="43.57733" lon="5.6559">
        <ele>593.59997558594</ele>
        <time>2013-03-16T11:04:05.000Z</time>
      </trkpt>
      <trkpt lat="43.5774" lon="5.65594">
        <ele>595</ele>
        <time>2013-03-16T11:04:15.000Z</time>
      </trkpt>
      <trkpt lat="43.57742" lon="5.65594">
        <ele>595.20001220703</ele>
        <time>2013-03-16T11:04:17.000Z</time>
      </trkpt>
      <trkpt lat="43.57749" lon="5.65595">
        <ele>596.40002441406</ele>
        <time>2013-03-16T11:04:27.000Z</time>
      </trkpt>
      <trkpt lat="43.57757" lon="5.65592">
        <ele>595.59997558594</ele>
        <time>2013-03-16T11:04:39.000Z</time>
      </trkpt>
      <trkpt lat="43.57761" lon="5.6559">
        <ele>595.20001220703</ele>
        <time>2013-03-16T11:04:46.000Z</time>
      </trkpt>
      <trkpt lat="43.57763" lon="5.65591">
        <ele>595</ele>
        <time>2013-03-16T11:04:48.000Z</time>
      </trkpt>
      <trkpt lat="43.57772" lon="5.65582">
        <ele>593.59997558594</ele>
        <time>2013-03-16T11:05:01.000Z</time>
      </trkpt>
      <trkpt lat="43.57777" lon="5.65576">
        <ele>593.40002441406</ele>
        <time>2013-03-16T11:05:12.000Z</time>
      </trkpt>
      <trkpt lat="43.57778" lon="5.65577">
        <ele>593.20001220703</ele>
        <time>2013-03-16T11:05:29.000Z</time>
      </trkpt>
      <trkpt lat="43.57777" lon="5.65578">
        <ele>593.20001220703</ele>
        <time>2013-03-16T11:05:49.000Z</time>
      </trkpt>
      <trkpt lat="43.57776" lon="5.65578">
        <ele>593.40002441406</ele>
        <time>2013-03-16T11:06:11.000Z</time>
      </trkpt>
      <trkpt lat="43.57778" lon="5.65577">
        <ele>593.20001220703</ele>
        <time>2013-03-16T11:06:37.000Z</time>
      </trkpt>
      <trkpt lat="43.5778" lon="5.65576">
        <ele>593</ele>
        <time>2013-03-16T11:06:52.000Z</time>
      </trkpt>
      <trkpt lat="43.5778" lon="5.65578">
        <ele>593</ele>
        <time>2013-03-16T11:07:08.000Z</time>
      </trkpt>
      <trkpt lat="43.57779" lon="5.65576">
        <ele>593</ele>
        <time>2013-03-16T11:07:25.000Z</time>
      </trkpt>
      <trkpt lat="43.57783" lon="5.65573">
        <ele>592.79998779297</ele>
        <time>2013-03-16T11:07:34.000Z</time>
      </trkpt>
      <trkpt lat="43.57785" lon="5.65574">
        <ele>592.59997558594</ele>
        <time>2013-03-16T11:07:36.000Z</time>
      </trkpt>
      <trkpt lat="43.57789" lon="5.65576">
        <ele>592</ele>
        <time>2013-03-16T11:07:39.000Z</time>
      </trkpt>
      <trkpt lat="43.57791" lon="5.65578">
        <ele>591.79998779297</ele>
        <time>2013-03-16T11:07:40.000Z</time>
      </trkpt>
      <trkpt lat="43.57793" lon="5.6558">
        <ele>591.40002441406</ele>
        <time>2013-03-16T11:07:41.000Z</time>
      </trkpt>
      <trkpt lat="43.57801" lon="5.65584">
        <ele>590.40002441406</ele>
        <time>2013-03-16T11:07:47.000Z</time>
      </trkpt>
      <trkpt lat="43.57802" lon="5.65586">
        <ele>590.40002441406</ele>
        <time>2013-03-16T11:07:48.000Z</time>
      </trkpt>
      <trkpt lat="43.57804" lon="5.65589">
        <ele>590.40002441406</ele>
        <time>2013-03-16T11:07:49.000Z</time>
      </trkpt>
      <trkpt lat="43.57807" lon="5.65592">
        <ele>590.40002441406</ele>
        <time>2013-03-16T11:07:50.000Z</time>
      </trkpt>
      <trkpt lat="43.57809" lon="5.65593">
        <ele>590.20001220703</ele>
        <time>2013-03-16T11:07:51.000Z</time>
      </trkpt>
      <trkpt lat="43.57812" lon="5.65593">
        <ele>589.79998779297</ele>
        <time>2013-03-16T11:07:52.000Z</time>
      </trkpt>
      <trkpt lat="43.57815" lon="5.65591">
        <ele>589.40002441406</ele>
        <time>2013-03-16T11:07:53.000Z</time>
      </trkpt>
      <trkpt lat="43.57818" lon="5.65589">
        <ele>589</ele>
        <time>2013-03-16T11:07:54.000Z</time>
      </trkpt>
      <trkpt lat="43.5782" lon="5.65586">
        <ele>588.59997558594</ele>
        <time>2013-03-16T11:07:55.000Z</time>
      </trkpt>
      <trkpt lat="43.57822" lon="5.65584">
        <ele>588.20001220703</ele>
        <time>2013-03-16T11:07:56.000Z</time>
      </trkpt>
      <trkpt lat="43.57823" lon="5.65581">
        <ele>588.20001220703</ele>
        <time>2013-03-16T11:07:57.000Z</time>
      </trkpt>
      <trkpt lat="43.57824" lon="5.65579">
        <ele>588.20001220703</ele>
        <time>2013-03-16T11:07:58.000Z</time>
      </trkpt>
      <trkpt lat="43.57826" lon="5.65577">
        <ele>588.20001220703</ele>
        <time>2013-03-16T11:07:59.000Z</time>
      </trkpt>
      <trkpt lat="43.57827" lon="5.65574">
        <ele>588.20001220703</ele>
        <time>2013-03-16T11:08:00.000Z</time>
      </trkpt>
      <trkpt lat="43.57829" lon="5.65572">
        <ele>588.20001220703</ele>
        <time>2013-03-16T11:08:01.000Z</time>
      </trkpt>
      <trkpt lat="43.57831" lon="5.6557">
        <ele>588</ele>
        <time>2013-03-16T11:08:02.000Z</time>
      </trkpt>
      <trkpt lat="43.57833" lon="5.65569">
        <ele>588</ele>
        <time>2013-03-16T11:08:03.000Z</time>
      </trkpt>
      <trkpt lat="43.57835" lon="5.65566">
        <ele>587.40002441406</ele>
        <time>2013-03-16T11:08:04.000Z</time>
      </trkpt>
      <trkpt lat="43.57837" lon="5.65562">
        <ele>586.79998779297</ele>
        <time>2013-03-16T11:08:05.000Z</time>
      </trkpt>
      <trkpt lat="43.57839" lon="5.65559">
        <ele>586</ele>
        <time>2013-03-16T11:08:06.000Z</time>
      </trkpt>
      <trkpt lat="43.57841" lon="5.65556">
        <ele>585.20001220703</ele>
        <time>2013-03-16T11:08:07.000Z</time>
      </trkpt>
      <trkpt lat="43.57844" lon="5.65552">
        <ele>584.20001220703</ele>
        <time>2013-03-16T11:08:08.000Z</time>
      </trkpt>
      <trkpt lat="43.57847" lon="5.65548">
        <ele>583.20001220703</ele>
        <time>2013-03-16T11:08:09.000Z</time>
      </trkpt>
      <trkpt lat="43.5785" lon="5.65545">
        <ele>581.79998779297</ele>
        <time>2013-03-16T11:08:10.000Z</time>
      </trkpt>
      <trkpt lat="43.57854" lon="5.65543">
        <ele>580.20001220703</ele>
        <time>2013-03-16T11:08:11.000Z</time>
      </trkpt>
      <trkpt lat="43.57858" lon="5.6554">
        <ele>578.59997558594</ele>
        <time>2013-03-16T11:08:12.000Z</time>
      </trkpt>
      <trkpt lat="43.57871" lon="5.65528">
        <ele>573.79998779297</ele>
        <time>2013-03-16T11:08:15.000Z</time>
      </trkpt>
      <trkpt lat="43.57874" lon="5.65526">
        <ele>572.40002441406</ele>
        <time>2013-03-16T11:08:16.000Z</time>
      </trkpt>
      <trkpt lat="43.57878" lon="5.65522">
        <ele>571.20001220703</ele>
        <time>2013-03-16T11:08:17.000Z</time>
      </trkpt>
      <trkpt lat="43.57881" lon="5.6552">
        <ele>570.20001220703</ele>
        <time>2013-03-16T11:08:18.000Z</time>
      </trkpt>
      <trkpt lat="43.57884" lon="5.6552">
        <ele>568.79998779297</ele>
        <time>2013-03-16T11:08:19.000Z</time>
      </trkpt>
      <trkpt lat="43.57888" lon="5.65518">
        <ele>567</ele>
        <time>2013-03-16T11:08:20.000Z</time>
      </trkpt>
      <trkpt lat="43.57892" lon="5.65516">
        <ele>565.79998779297</ele>
        <time>2013-03-16T11:08:21.000Z</time>
      </trkpt>
      <trkpt lat="43.57895" lon="5.65514">
        <ele>564.79998779297</ele>
        <time>2013-03-16T11:08:22.000Z</time>
      </trkpt>
      <trkpt lat="43.57897" lon="5.65511">
        <ele>564.20001220703</ele>
        <time>2013-03-16T11:08:23.000Z</time>
      </trkpt>
      <trkpt lat="43.57899" lon="5.65507">
        <ele>563.79998779297</ele>
        <time>2013-03-16T11:08:24.000Z</time>
      </trkpt>
      <trkpt lat="43.57902" lon="5.65502">
        <ele>563</ele>
        <time>2013-03-16T11:08:25.000Z</time>
      </trkpt>
      <trkpt lat="43.57905" lon="5.65498">
        <ele>562.20001220703</ele>
        <time>2013-03-16T11:08:26.000Z</time>
      </trkpt>
      <trkpt lat="43.57917" lon="5.65487">
        <ele>559</ele>
        <time>2013-03-16T11:08:30.000Z</time>
      </trkpt>
      <trkpt lat="43.57931" lon="5.65465">
        <ele>557.40002441406</ele>
        <time>2013-03-16T11:08:35.000Z</time>
      </trkpt>
      <trkpt lat="43.57934" lon="5.65459">
        <ele>557.40002441406</ele>
        <time>2013-03-16T11:08:36.000Z</time>
      </trkpt>
      <trkpt lat="43.57937" lon="5.65453">
        <ele>557.59997558594</ele>
        <time>2013-03-16T11:08:37.000Z</time>
      </trkpt>
      <trkpt lat="43.57938" lon="5.65448">
        <ele>557.59997558594</ele>
        <time>2013-03-16T11:08:38.000Z</time>
      </trkpt>
      <trkpt lat="43.5794" lon="5.65444">
        <ele>557.59997558594</ele>
        <time>2013-03-16T11:08:39.000Z</time>
      </trkpt>
      <trkpt lat="43.57941" lon="5.65441">
        <ele>557.59997558594</ele>
        <time>2013-03-16T11:08:40.000Z</time>
      </trkpt>
      <trkpt lat="43.57942" lon="5.65438">
        <ele>557.40002441406</ele>
        <time>2013-03-16T11:08:41.000Z</time>
      </trkpt>
      <trkpt lat="43.57945" lon="5.65435">
        <ele>556.79998779297</ele>
        <time>2013-03-16T11:08:42.000Z</time>
      </trkpt>
      <trkpt lat="43.57948" lon="5.6543">
        <ele>556.40002441406</ele>
        <time>2013-03-16T11:08:43.000Z</time>
      </trkpt>
      <trkpt lat="43.57951" lon="5.65424">
        <ele>556.40002441406</ele>
        <time>2013-03-16T11:08:44.000Z</time>
      </trkpt>
      <trkpt lat="43.57956" lon="5.65408">
        <ele>555.40002441406</ele>
        <time>2013-03-16T11:08:49.000Z</time>
      </trkpt>
      <trkpt lat="43.57956" lon="5.65407">
        <ele>555.59997558594</ele>
        <time>2013-03-16T11:09:01.000Z</time>
      </trkpt>
      <trkpt lat="43.57956" lon="5.65404">
        <ele>555.40002441406</ele>
        <time>2013-03-16T11:09:22.000Z</time>
      </trkpt>
      <trkpt lat="43.57956" lon="5.65403">
        <ele>555.59997558594</ele>
        <time>2013-03-16T11:09:42.000Z</time>
      </trkpt>
      <trkpt lat="43.57955" lon="5.65404">
        <ele>556.20001220703</ele>
        <time>2013-03-16T11:10:05.000Z</time>
      </trkpt>
      <trkpt lat="43.57954" lon="5.65401">
        <ele>556.59997558594</ele>
        <time>2013-03-16T11:10:14.000Z</time>
      </trkpt>
      <trkpt lat="43.57954" lon="5.65398">
        <ele>556.59997558594</ele>
        <time>2013-03-16T11:10:18.000Z</time>
      </trkpt>
      <trkpt lat="43.57955" lon="5.65396">
        <ele>556.40002441406</ele>
        <time>2013-03-16T11:10:19.000Z</time>
      </trkpt>
      <trkpt lat="43.5796" lon="5.6537">
        <ele>554.40002441406</ele>
        <time>2013-03-16T11:10:25.000Z</time>
      </trkpt>
      <trkpt lat="43.5796" lon="5.65361">
        <ele>554.59997558594</ele>
        <time>2013-03-16T11:10:27.000Z</time>
      </trkpt>
      <trkpt lat="43.57962" lon="5.65345">
        <ele>554</ele>
        <time>2013-03-16T11:10:31.000Z</time>
      </trkpt>
      <trkpt lat="43.57965" lon="5.65303">
        <ele>553.59997558594</ele>
        <time>2013-03-16T11:10:40.000Z</time>
      </trkpt>
      <trkpt lat="43.57965" lon="5.65301">
        <ele>553.79998779297</ele>
        <time>2013-03-16T11:10:41.000Z</time>
      </trkpt>
      <trkpt lat="43.57969" lon="5.65281">
        <ele>552</ele>
        <time>2013-03-16T11:10:46.000Z</time>
      </trkpt>
      <trkpt lat="43.57972" lon="5.6527">
        <ele>551</ele>
        <time>2013-03-16T11:10:48.000Z</time>
      </trkpt>
      <trkpt lat="43.57978" lon="5.65257">
        <ele>548.59997558594</ele>
        <time>2013-03-16T11:10:50.000Z</time>
      </trkpt>
      <trkpt lat="43.57985" lon="5.65233">
        <ele>545.79998779297</ele>
        <time>2013-03-16T11:10:53.000Z</time>
      </trkpt>
      <trkpt lat="43.57992" lon="5.65214">
        <ele>543.59997558594</ele>
        <time>2013-03-16T11:10:55.000Z</time>
      </trkpt>
      <trkpt lat="43.57995" lon="5.65189">
        <ele>542.40002441406</ele>
        <time>2013-03-16T11:10:58.000Z</time>
      </trkpt>
      <trkpt lat="43.58" lon="5.65164">
        <ele>541.20001220703</ele>
        <time>2013-03-16T11:11:01.000Z</time>
      </trkpt>
      <trkpt lat="43.58004" lon="5.65133">
        <ele>541.79998779297</ele>
        <time>2013-03-16T11:11:05.000Z</time>
      </trkpt>
      <trkpt lat="43.58002" lon="5.65096">
        <ele>544.59997558594</ele>
        <time>2013-03-16T11:11:14.000Z</time>
      </trkpt>
      <trkpt lat="43.58004" lon="5.65082">
        <ele>545</ele>
        <time>2013-03-16T11:11:18.000Z</time>
      </trkpt>
      <trkpt lat="43.58008" lon="5.65051">
        <ele>546.40002441406</ele>
        <time>2013-03-16T11:11:25.000Z</time>
      </trkpt>
      <trkpt lat="43.58027" lon="5.6502">
        <ele>543.20001220703</ele>
        <time>2013-03-16T11:11:33.000Z</time>
      </trkpt>
      <trkpt lat="43.58038" lon="5.65003">
        <ele>540.79998779297</ele>
        <time>2013-03-16T11:11:37.000Z</time>
      </trkpt>
      <trkpt lat="43.58042" lon="5.64966">
        <ele>541.40002441406</ele>
        <time>2013-03-16T11:11:43.000Z</time>
      </trkpt>
      <trkpt lat="43.58049" lon="5.64953">
        <ele>539.59997558594</ele>
        <time>2013-03-16T11:11:46.000Z</time>
      </trkpt>
      <trkpt lat="43.58048" lon="5.64917">
        <ele>541.59997558594</ele>
        <time>2013-03-16T11:11:52.000Z</time>
      </trkpt>
      <trkpt lat="43.58058" lon="5.64861">
        <ele>538.40002441406</ele>
        <time>2013-03-16T11:12:04.000Z</time>
      </trkpt>
      <trkpt lat="43.58055" lon="5.6484">
        <ele>539.79998779297</ele>
        <time>2013-03-16T11:12:09.000Z</time>
      </trkpt>
      <trkpt lat="43.58058" lon="5.6481">
        <ele>539.20001220703</ele>
        <time>2013-03-16T11:12:16.000Z</time>
      </trkpt>
      <trkpt lat="43.58058" lon="5.64786">
        <ele>540.20001220703</ele>
        <time>2013-03-16T11:12:21.000Z</time>
      </trkpt>
      <trkpt lat="43.5806" lon="5.64772">
        <ele>539.59997558594</ele>
        <time>2013-03-16T11:12:24.000Z</time>
      </trkpt>
      <trkpt lat="43.58065" lon="5.64753">
        <ele>538</ele>
        <time>2013-03-16T11:12:27.000Z</time>
      </trkpt>
      <trkpt lat="43.58072" lon="5.64724">
        <ele>536.20001220703</ele>
        <time>2013-03-16T11:12:31.000Z</time>
      </trkpt>
      <trkpt lat="43.58076" lon="5.64716">
        <ele>534.79998779297</ele>
        <time>2013-03-16T11:12:32.000Z</time>
      </trkpt>
      <trkpt lat="43.58091" lon="5.64685">
        <ele>531.40002441406</ele>
        <time>2013-03-16T11:12:36.000Z</time>
      </trkpt>
      <trkpt lat="43.58095" lon="5.6467">
        <ele>531.20001220703</ele>
        <time>2013-03-16T11:12:38.000Z</time>
      </trkpt>
      <trkpt lat="43.58097" lon="5.64666">
        <ele>531.20001220703</ele>
        <time>2013-03-16T11:12:39.000Z</time>
      </trkpt>
      <trkpt lat="43.58098" lon="5.6466">
        <ele>531.59997558594</ele>
        <time>2013-03-16T11:12:47.000Z</time>
      </trkpt>
      <trkpt lat="43.58097" lon="5.6466">
        <ele>531.59997558594</ele>
        <time>2013-03-16T11:13:09.000Z</time>
      </trkpt>
      <trkpt lat="43.58097" lon="5.64659">
        <ele>531.79998779297</ele>
        <time>2013-03-16T11:13:32.000Z</time>
      </trkpt>
      <trkpt lat="43.58097" lon="5.64661">
        <ele>531.59997558594</ele>
        <time>2013-03-16T11:13:44.000Z</time>
      </trkpt>
      <trkpt lat="43.58103" lon="5.64665">
        <ele>530.20001220703</ele>
        <time>2013-03-16T11:13:47.000Z</time>
      </trkpt>
      <trkpt lat="43.58105" lon="5.64668">
        <ele>529.40002441406</ele>
        <time>2013-03-16T11:13:48.000Z</time>
      </trkpt>
      <trkpt lat="43.58108" lon="5.64672">
        <ele>528.59997558594</ele>
        <time>2013-03-16T11:13:49.000Z</time>
      </trkpt>
      <trkpt lat="43.58117" lon="5.64688">
        <ele>525.59997558594</ele>
        <time>2013-03-16T11:13:52.000Z</time>
      </trkpt>
      <trkpt lat="43.58135" lon="5.64719">
        <ele>519.79998779297</ele>
        <time>2013-03-16T11:13:56.000Z</time>
      </trkpt>
      <trkpt lat="43.58149" lon="5.64744">
        <ele>515.20001220703</ele>
        <time>2013-03-16T11:13:59.000Z</time>
      </trkpt>
      <trkpt lat="43.58153" lon="5.6475">
        <ele>513.79998779297</ele>
        <time>2013-03-16T11:14:00.000Z</time>
      </trkpt>
      <trkpt lat="43.58158" lon="5.64753">
        <ele>512.59997558594</ele>
        <time>2013-03-16T11:14:01.000Z</time>
      </trkpt>
      <trkpt lat="43.58164" lon="5.64752">
        <ele>511.39999389648</ele>
        <time>2013-03-16T11:14:02.000Z</time>
      </trkpt>
      <trkpt lat="43.5817" lon="5.6475">
        <ele>510.39999389648</ele>
        <time>2013-03-16T11:14:03.000Z</time>
      </trkpt>
      <trkpt lat="43.58176" lon="5.64747">
        <ele>509.60000610352</ele>
        <time>2013-03-16T11:14:04.000Z</time>
      </trkpt>
      <trkpt lat="43.58188" lon="5.64742">
        <ele>507.79998779297</ele>
        <time>2013-03-16T11:14:06.000Z</time>
      </trkpt>
      <trkpt lat="43.58194" lon="5.64742">
        <ele>506.79998779297</ele>
        <time>2013-03-16T11:14:07.000Z</time>
      </trkpt>
      <trkpt lat="43.58199" lon="5.64745">
        <ele>505.79998779297</ele>
        <time>2013-03-16T11:14:08.000Z</time>
      </trkpt>
      <trkpt lat="43.58202" lon="5.64748">
        <ele>505</ele>
        <time>2013-03-16T11:14:09.000Z</time>
      </trkpt>
      <trkpt lat="43.58204" lon="5.64754">
        <ele>504.60000610352</ele>
        <time>2013-03-16T11:14:10.000Z</time>
      </trkpt>
      <trkpt lat="43.58206" lon="5.6476">
        <ele>504.20001220703</ele>
        <time>2013-03-16T11:14:11.000Z</time>
      </trkpt>
      <trkpt lat="43.58208" lon="5.64768">
        <ele>503.60000610352</ele>
        <time>2013-03-16T11:14:12.000Z</time>
      </trkpt>
      <trkpt lat="43.58211" lon="5.64777">
        <ele>503</ele>
        <time>2013-03-16T11:14:13.000Z</time>
      </trkpt>
      <trkpt lat="43.58216" lon="5.64785">
        <ele>502</ele>
        <time>2013-03-16T11:14:14.000Z</time>
      </trkpt>
      <trkpt lat="43.58224" lon="5.648">
        <ele>500.20001220703</ele>
        <time>2013-03-16T11:14:16.000Z</time>
      </trkpt>
      <trkpt lat="43.58226" lon="5.64807">
        <ele>499.79998779297</ele>
        <time>2013-03-16T11:14:17.000Z</time>
      </trkpt>
      <trkpt lat="43.58227" lon="5.64814">
        <ele>499.39999389648</ele>
        <time>2013-03-16T11:14:18.000Z</time>
      </trkpt>
      <trkpt lat="43.58229" lon="5.6482">
        <ele>499</ele>
        <time>2013-03-16T11:14:19.000Z</time>
      </trkpt>
      <trkpt lat="43.58232" lon="5.64826">
        <ele>498.20001220703</ele>
        <time>2013-03-16T11:14:20.000Z</time>
      </trkpt>
      <trkpt lat="43.58236" lon="5.64832">
        <ele>497.39999389648</ele>
        <time>2013-03-16T11:14:21.000Z</time>
      </trkpt>
      <trkpt lat="43.5824" lon="5.64839">
        <ele>496.20001220703</ele>
        <time>2013-03-16T11:14:22.000Z</time>
      </trkpt>
      <trkpt lat="43.58243" lon="5.64847">
        <ele>495.20001220703</ele>
        <time>2013-03-16T11:14:23.000Z</time>
      </trkpt>
      <trkpt lat="43.58245" lon="5.64856">
        <ele>494.39999389648</ele>
        <time>2013-03-16T11:14:24.000Z</time>
      </trkpt>
      <trkpt lat="43.58246" lon="5.64865">
        <ele>493.79998779297</ele>
        <time>2013-03-16T11:14:25.000Z</time>
      </trkpt>
      <trkpt lat="43.58245" lon="5.64875">
        <ele>493.39999389648</ele>
        <time>2013-03-16T11:14:26.000Z</time>
      </trkpt>
      <trkpt lat="43.58243" lon="5.64885">
        <ele>493.20001220703</ele>
        <time>2013-03-16T11:14:27.000Z</time>
      </trkpt>
      <trkpt lat="43.58239" lon="5.64895">
        <ele>493.39999389648</ele>
        <time>2013-03-16T11:14:28.000Z</time>
      </trkpt>
      <trkpt lat="43.58236" lon="5.64906">
        <ele>493.20001220703</ele>
        <time>2013-03-16T11:14:29.000Z</time>
      </trkpt>
      <trkpt lat="43.58235" lon="5.64917">
        <ele>493</ele>
        <time>2013-03-16T11:14:30.000Z</time>
      </trkpt>
      <trkpt lat="43.58234" lon="5.64928">
        <ele>492.60000610352</ele>
        <time>2013-03-16T11:14:31.000Z</time>
      </trkpt>
      <trkpt lat="43.58233" lon="5.64938">
        <ele>492.39999389648</ele>
        <time>2013-03-16T11:14:32.000Z</time>
      </trkpt>
      <trkpt lat="43.58231" lon="5.64948">
        <ele>492.39999389648</ele>
        <time>2013-03-16T11:14:33.000Z</time>
      </trkpt>
      <trkpt lat="43.5823" lon="5.64958">
        <ele>492</ele>
        <time>2013-03-16T11:14:34.000Z</time>
      </trkpt>
      <trkpt lat="43.58231" lon="5.64968">
        <ele>491.39999389648</ele>
        <time>2013-03-16T11:14:35.000Z</time>
      </trkpt>
      <trkpt lat="43.58234" lon="5.64978">
        <ele>490.20001220703</ele>
        <time>2013-03-16T11:14:36.000Z</time>
      </trkpt>
      <trkpt lat="43.58239" lon="5.64986">
        <ele>488.39999389648</ele>
        <time>2013-03-16T11:14:37.000Z</time>
      </trkpt>
      <trkpt lat="43.58245" lon="5.64995">
        <ele>486.60000610352</ele>
        <time>2013-03-16T11:14:38.000Z</time>
      </trkpt>
      <trkpt lat="43.58249" lon="5.65004">
        <ele>484.79998779297</ele>
        <time>2013-03-16T11:14:39.000Z</time>
      </trkpt>
      <trkpt lat="43.58252" lon="5.65014">
        <ele>483.20001220703</ele>
        <time>2013-03-16T11:14:40.000Z</time>
      </trkpt>
      <trkpt lat="43.58254" lon="5.65025">
        <ele>481.79998779297</ele>
        <time>2013-03-16T11:14:41.000Z</time>
      </trkpt>
      <trkpt lat="43.58255" lon="5.65036">
        <ele>480.79998779297</ele>
        <time>2013-03-16T11:14:42.000Z</time>
      </trkpt>
      <trkpt lat="43.58255" lon="5.65046">
        <ele>480</ele>
        <time>2013-03-16T11:14:43.000Z</time>
      </trkpt>
      <trkpt lat="43.58258" lon="5.6509">
        <ele>476.60000610352</ele>
        <time>2013-03-16T11:14:47.000Z</time>
      </trkpt>
      <trkpt lat="43.58258" lon="5.65101">
        <ele>476.20001220703</ele>
        <time>2013-03-16T11:14:48.000Z</time>
      </trkpt>
      <trkpt lat="43.58257" lon="5.6512">
        <ele>476</ele>
        <time>2013-03-16T11:14:50.000Z</time>
      </trkpt>
      <trkpt lat="43.58258" lon="5.65126">
        <ele>475.60000610352</ele>
        <time>2013-03-16T11:14:51.000Z</time>
      </trkpt>
      <trkpt lat="43.58261" lon="5.65131">
        <ele>474.79998779297</ele>
        <time>2013-03-16T11:14:52.000Z</time>
      </trkpt>
      <trkpt lat="43.58265" lon="5.65134">
        <ele>473.39999389648</ele>
        <time>2013-03-16T11:14:53.000Z</time>
      </trkpt>
      <trkpt lat="43.58271" lon="5.65134">
        <ele>471.79998779297</ele>
        <time>2013-03-16T11:14:54.000Z</time>
      </trkpt>
      <trkpt lat="43.58278" lon="5.6513">
        <ele>470</ele>
        <time>2013-03-16T11:14:55.000Z</time>
      </trkpt>
      <trkpt lat="43.58286" lon="5.65125">
        <ele>468</ele>
        <time>2013-03-16T11:14:56.000Z</time>
      </trkpt>
      <trkpt lat="43.58302" lon="5.65116">
        <ele>463.60000610352</ele>
        <time>2013-03-16T11:14:58.000Z</time>
      </trkpt>
      <trkpt lat="43.58317" lon="5.65109">
        <ele>459.39999389648</ele>
        <time>2013-03-16T11:15:00.000Z</time>
      </trkpt>
      <trkpt lat="43.58322" lon="5.65103">
        <ele>458</ele>
        <time>2013-03-16T11:15:01.000Z</time>
      </trkpt>
      <trkpt lat="43.58326" lon="5.65096">
        <ele>457</ele>
        <time>2013-03-16T11:15:02.000Z</time>
      </trkpt>
      <trkpt lat="43.58327" lon="5.65088">
        <ele>456.79998779297</ele>
        <time>2013-03-16T11:15:03.000Z</time>
      </trkpt>
      <trkpt lat="43.58326" lon="5.65078">
        <ele>457</ele>
        <time>2013-03-16T11:15:04.000Z</time>
      </trkpt>
      <trkpt lat="43.58325" lon="5.65068">
        <ele>457.60000610352</ele>
        <time>2013-03-16T11:15:05.000Z</time>
      </trkpt>
      <trkpt lat="43.58324" lon="5.65058">
        <ele>458.20001220703</ele>
        <time>2013-03-16T11:15:06.000Z</time>
      </trkpt>
      <trkpt lat="43.58323" lon="5.65047">
        <ele>458.79998779297</ele>
        <time>2013-03-16T11:15:07.000Z</time>
      </trkpt>
      <trkpt lat="43.58324" lon="5.65036">
        <ele>458.79998779297</ele>
        <time>2013-03-16T11:15:08.000Z</time>
      </trkpt>
      <trkpt lat="43.58328" lon="5.65026">
        <ele>458.20001220703</ele>
        <time>2013-03-16T11:15:09.000Z</time>
      </trkpt>
      <trkpt lat="43.58332" lon="5.65015">
        <ele>457</ele>
        <time>2013-03-16T11:15:10.000Z</time>
      </trkpt>
      <trkpt lat="43.58342" lon="5.64993">
        <ele>455</ele>
        <time>2013-03-16T11:15:12.000Z</time>
      </trkpt>
      <trkpt lat="43.58349" lon="5.64983">
        <ele>453.79998779297</ele>
        <time>2013-03-16T11:15:13.000Z</time>
      </trkpt>
      <trkpt lat="43.58363" lon="5.64961">
        <ele>451.20001220703</ele>
        <time>2013-03-16T11:15:15.000Z</time>
      </trkpt>
      <trkpt lat="43.5838" lon="5.64929">
        <ele>448.39999389648</ele>
        <time>2013-03-16T11:15:18.000Z</time>
      </trkpt>
      <trkpt lat="43.58386" lon="5.64921">
        <ele>447</ele>
        <time>2013-03-16T11:15:19.000Z</time>
      </trkpt>
      <trkpt lat="43.58392" lon="5.64913">
        <ele>445.79998779297</ele>
        <time>2013-03-16T11:15:20.000Z</time>
      </trkpt>
      <trkpt lat="43.58415" lon="5.6488">
        <ele>442.39999389648</ele>
        <time>2013-03-16T11:15:24.000Z</time>
      </trkpt>
      <trkpt lat="43.58419" lon="5.6487">
        <ele>442.39999389648</ele>
        <time>2013-03-16T11:15:25.000Z</time>
      </trkpt>
      <trkpt lat="43.58422" lon="5.64861">
        <ele>442.60000610352</ele>
        <time>2013-03-16T11:15:26.000Z</time>
      </trkpt>
      <trkpt lat="43.58432" lon="5.64835">
        <ele>443.39999389648</ele>
        <time>2013-03-16T11:15:29.000Z</time>
      </trkpt>
      <trkpt lat="43.58432" lon="5.64824">
        <ele>444.39999389648</ele>
        <time>2013-03-16T11:15:30.000Z</time>
      </trkpt>
      <trkpt lat="43.58432" lon="5.64812">
        <ele>445.79998779297</ele>
        <time>2013-03-16T11:15:31.000Z</time>
      </trkpt>
      <trkpt lat="43.58431" lon="5.64802">
        <ele>447</ele>
        <time>2013-03-16T11:15:32.000Z</time>
      </trkpt>
      <trkpt lat="43.58432" lon="5.64792">
        <ele>447.79998779297</ele>
        <time>2013-03-16T11:15:33.000Z</time>
      </trkpt>
      <trkpt lat="43.58435" lon="5.64783">
        <ele>448</ele>
        <time>2013-03-16T11:15:34.000Z</time>
      </trkpt>
      <trkpt lat="43.58438" lon="5.64778">
        <ele>447.79998779297</ele>
        <time>2013-03-16T11:15:35.000Z</time>
      </trkpt>
      <trkpt lat="43.58443" lon="5.64775">
        <ele>447</ele>
        <time>2013-03-16T11:15:36.000Z</time>
      </trkpt>
      <trkpt lat="43.58448" lon="5.64772">
        <ele>446</ele>
        <time>2013-03-16T11:15:37.000Z</time>
      </trkpt>
      <trkpt lat="43.58455" lon="5.64769">
        <ele>444.60000610352</ele>
        <time>2013-03-16T11:15:38.000Z</time>
      </trkpt>
      <trkpt lat="43.58463" lon="5.64766">
        <ele>443.20001220703</ele>
        <time>2013-03-16T11:15:39.000Z</time>
      </trkpt>
      <trkpt lat="43.58471" lon="5.64763">
        <ele>441.60000610352</ele>
        <time>2013-03-16T11:15:40.000Z</time>
      </trkpt>
      <trkpt lat="43.58479" lon="5.64761">
        <ele>439.79998779297</ele>
        <time>2013-03-16T11:15:41.000Z</time>
      </trkpt>
      <trkpt lat="43.58487" lon="5.64761">
        <ele>438</ele>
        <time>2013-03-16T11:15:42.000Z</time>
      </trkpt>
      <trkpt lat="43.58494" lon="5.64763">
        <ele>436</ele>
        <time>2013-03-16T11:15:43.000Z</time>
      </trkpt>
      <trkpt lat="43.58503" lon="5.64768">
        <ele>433.79998779297</ele>
        <time>2013-03-16T11:15:44.000Z</time>
      </trkpt>
      <trkpt lat="43.5851" lon="5.64773">
        <ele>432.20001220703</ele>
        <time>2013-03-16T11:15:45.000Z</time>
      </trkpt>
      <trkpt lat="43.58519" lon="5.64777">
        <ele>430.60000610352</ele>
        <time>2013-03-16T11:15:46.000Z</time>
      </trkpt>
      <trkpt lat="43.58527" lon="5.6478">
        <ele>429.20001220703</ele>
        <time>2013-03-16T11:15:47.000Z</time>
      </trkpt>
      <trkpt lat="43.58536" lon="5.64782">
        <ele>428</ele>
        <time>2013-03-16T11:15:48.000Z</time>
      </trkpt>
      <trkpt lat="43.58544" lon="5.64784">
        <ele>426.60000610352</ele>
        <time>2013-03-16T11:15:49.000Z</time>
      </trkpt>
      <trkpt lat="43.58552" lon="5.64787">
        <ele>425.39999389648</ele>
        <time>2013-03-16T11:15:50.000Z</time>
      </trkpt>
      <trkpt lat="43.58568" lon="5.6479">
        <ele>423</ele>
        <time>2013-03-16T11:15:52.000Z</time>
      </trkpt>
      <trkpt lat="43.58575" lon="5.64788">
        <ele>422.20001220703</ele>
        <time>2013-03-16T11:15:53.000Z</time>
      </trkpt>
      <trkpt lat="43.58581" lon="5.64783">
        <ele>421.60000610352</ele>
        <time>2013-03-16T11:15:54.000Z</time>
      </trkpt>
      <trkpt lat="43.58586" lon="5.64777">
        <ele>421.20001220703</ele>
        <time>2013-03-16T11:15:55.000Z</time>
      </trkpt>
      <trkpt lat="43.5859" lon="5.64769">
        <ele>420.79998779297</ele>
        <time>2013-03-16T11:15:56.000Z</time>
      </trkpt>
      <trkpt lat="43.58594" lon="5.64761">
        <ele>420.39999389648</ele>
        <time>2013-03-16T11:15:57.000Z</time>
      </trkpt>
      <trkpt lat="43.58598" lon="5.64752">
        <ele>420</ele>
        <time>2013-03-16T11:15:58.000Z</time>
      </trkpt>
      <trkpt lat="43.58601" lon="5.64744">
        <ele>419.60000610352</ele>
        <time>2013-03-16T11:15:59.000Z</time>
      </trkpt>
      <trkpt lat="43.58603" lon="5.64734">
        <ele>419.39999389648</ele>
        <time>2013-03-16T11:16:00.000Z</time>
      </trkpt>
      <trkpt lat="43.5861" lon="5.64658">
        <ele>419.20001220703</ele>
        <time>2013-03-16T11:16:08.000Z</time>
      </trkpt>
      <trkpt lat="43.58616" lon="5.64628">
        <ele>418</ele>
        <time>2013-03-16T11:16:11.000Z</time>
      </trkpt>
      <trkpt lat="43.58619" lon="5.6462">
        <ele>417.39999389648</ele>
        <time>2013-03-16T11:16:12.000Z</time>
      </trkpt>
      <trkpt lat="43.58623" lon="5.64613">
        <ele>416.60000610352</ele>
        <time>2013-03-16T11:16:13.000Z</time>
      </trkpt>
      <trkpt lat="43.58634" lon="5.64602">
        <ele>415.20001220703</ele>
        <time>2013-03-16T11:16:15.000Z</time>
      </trkpt>
      <trkpt lat="43.58636" lon="5.64594">
        <ele>415</ele>
        <time>2013-03-16T11:16:16.000Z</time>
      </trkpt>
      <trkpt lat="43.58638" lon="5.64586">
        <ele>415</ele>
        <time>2013-03-16T11:16:17.000Z</time>
      </trkpt>
      <trkpt lat="43.58638" lon="5.64578">
        <ele>415.20001220703</ele>
        <time>2013-03-16T11:16:18.000Z</time>
      </trkpt>
      <trkpt lat="43.58637" lon="5.6457">
        <ele>415.60000610352</ele>
        <time>2013-03-16T11:16:19.000Z</time>
      </trkpt>
      <trkpt lat="43.58638" lon="5.64562">
        <ele>416</ele>
        <time>2013-03-16T11:16:20.000Z</time>
      </trkpt>
      <trkpt lat="43.58638" lon="5.6453">
        <ele>417.60000610352</ele>
        <time>2013-03-16T11:16:24.000Z</time>
      </trkpt>
      <trkpt lat="43.58637" lon="5.64523">
        <ele>417.79998779297</ele>
        <time>2013-03-16T11:16:25.000Z</time>
      </trkpt>
      <trkpt lat="43.58632" lon="5.64512">
        <ele>418.39999389648</ele>
        <time>2013-03-16T11:16:27.000Z</time>
      </trkpt>
      <trkpt lat="43.58629" lon="5.64508">
        <ele>418.60000610352</ele>
        <time>2013-03-16T11:16:28.000Z</time>
      </trkpt>
      <trkpt lat="43.58626" lon="5.64505">
        <ele>418.79998779297</ele>
        <time>2013-03-16T11:16:29.000Z</time>
      </trkpt>
      <trkpt lat="43.58623" lon="5.64501">
        <ele>418.79998779297</ele>
        <time>2013-03-16T11:16:30.000Z</time>
      </trkpt>
      <trkpt lat="43.58621" lon="5.64497">
        <ele>419</ele>
        <time>2013-03-16T11:16:31.000Z</time>
      </trkpt>
      <trkpt lat="43.58606" lon="5.64471">
        <ele>420.79998779297</ele>
        <time>2013-03-16T11:16:40.000Z</time>
      </trkpt>
      <trkpt lat="43.58595" lon="5.64439">
        <ele>422.79998779297</ele>
        <time>2013-03-16T11:16:51.000Z</time>
      </trkpt>
      <trkpt lat="43.58585" lon="5.64408">
        <ele>424.60000610352</ele>
        <time>2013-03-16T11:17:02.000Z</time>
      </trkpt>
      <trkpt lat="43.5858" lon="5.64377">
        <ele>427.20001220703</ele>
        <time>2013-03-16T11:17:12.000Z</time>
      </trkpt>
      <trkpt lat="43.58573" lon="5.64346">
        <ele>429.79998779297</ele>
        <time>2013-03-16T11:17:23.000Z</time>
      </trkpt>
      <trkpt lat="43.58576" lon="5.64314">
        <ele>432</ele>
        <time>2013-03-16T11:17:33.000Z</time>
      </trkpt>
      <trkpt lat="43.58578" lon="5.64306">
        <ele>432.39999389648</ele>
        <time>2013-03-16T11:17:36.000Z</time>
      </trkpt>
      <trkpt lat="43.58579" lon="5.64303">
        <ele>432.60000610352</ele>
        <time>2013-03-16T11:17:37.000Z</time>
      </trkpt>
      <trkpt lat="43.5858" lon="5.64301">
        <ele>432.79998779297</ele>
        <time>2013-03-16T11:17:38.000Z</time>
      </trkpt>
      <trkpt lat="43.58586" lon="5.64272">
        <ele>434.60000610352</ele>
        <time>2013-03-16T11:17:48.000Z</time>
      </trkpt>
      <trkpt lat="43.58585" lon="5.64238">
        <ele>436.79998779297</ele>
        <time>2013-03-16T11:17:56.000Z</time>
      </trkpt>
      <trkpt lat="43.58579" lon="5.64198">
        <ele>440.20001220703</ele>
        <time>2013-03-16T11:18:08.000Z</time>
      </trkpt>
      <trkpt lat="43.58577" lon="5.64182">
        <ele>441.39999389648</ele>
        <time>2013-03-16T11:18:15.000Z</time>
      </trkpt>
      <trkpt lat="43.58578" lon="5.64182">
        <ele>441.60000610352</ele>
        <time>2013-03-16T11:18:16.000Z</time>
      </trkpt>
      <trkpt lat="43.58584" lon="5.64182">
        <ele>441.60000610352</ele>
        <time>2013-03-16T11:18:20.000Z</time>
      </trkpt>
      <trkpt lat="43.58588" lon="5.64183">
        <ele>441.20001220703</ele>
        <time>2013-03-16T11:18:25.000Z</time>
      </trkpt>
      <trkpt lat="43.58589" lon="5.64183">
        <ele>441.20001220703</ele>
        <time>2013-03-16T11:18:27.000Z</time>
      </trkpt>
      <trkpt lat="43.58601" lon="5.64184">
        <ele>440.20001220703</ele>
        <time>2013-03-16T11:18:39.000Z</time>
      </trkpt>
      <trkpt lat="43.58608" lon="5.64179">
        <ele>440</ele>
        <time>2013-03-16T11:18:44.000Z</time>
      </trkpt>
      <trkpt lat="43.58609" lon="5.64176">
        <ele>440</ele>
        <time>2013-03-16T11:18:54.000Z</time>
      </trkpt>
      <trkpt lat="43.58609" lon="5.64177">
        <ele>440</ele>
        <time>2013-03-16T11:19:15.000Z</time>
      </trkpt>
      <trkpt lat="43.5861" lon="5.64173">
        <ele>440.20001220703</ele>
        <time>2013-03-16T11:19:31.000Z</time>
      </trkpt>
      <trkpt lat="43.58611" lon="5.64172">
        <ele>440.20001220703</ele>
        <time>2013-03-16T11:19:39.000Z</time>
      </trkpt>
      <trkpt lat="43.58616" lon="5.64172">
        <ele>439.79998779297</ele>
        <time>2013-03-16T11:19:43.000Z</time>
      </trkpt>
      <trkpt lat="43.58619" lon="5.64174">
        <ele>439.39999389648</ele>
        <time>2013-03-16T11:19:44.000Z</time>
      </trkpt>
      <trkpt lat="43.58622" lon="5.64178">
        <ele>439</ele>
        <time>2013-03-16T11:19:45.000Z</time>
      </trkpt>
      <trkpt lat="43.58625" lon="5.64182">
        <ele>438.60000610352</ele>
        <time>2013-03-16T11:19:46.000Z</time>
      </trkpt>
      <trkpt lat="43.58627" lon="5.64187">
        <ele>438.20001220703</ele>
        <time>2013-03-16T11:19:47.000Z</time>
      </trkpt>
      <trkpt lat="43.58634" lon="5.64204">
        <ele>436.79998779297</ele>
        <time>2013-03-16T11:19:50.000Z</time>
      </trkpt>
      <trkpt lat="43.58637" lon="5.64219">
        <ele>436</ele>
        <time>2013-03-16T11:19:52.000Z</time>
      </trkpt>
      <trkpt lat="43.58639" lon="5.64227">
        <ele>435.60000610352</ele>
        <time>2013-03-16T11:19:53.000Z</time>
      </trkpt>
      <trkpt lat="43.58648" lon="5.64262">
        <ele>434</ele>
        <time>2013-03-16T11:19:57.000Z</time>
      </trkpt>
      <trkpt lat="43.58652" lon="5.64281">
        <ele>433.60000610352</ele>
        <time>2013-03-16T11:19:59.000Z</time>
      </trkpt>
      <trkpt lat="43.58656" lon="5.643">
        <ele>433.20001220703</ele>
        <time>2013-03-16T11:20:01.000Z</time>
      </trkpt>
      <trkpt lat="43.58662" lon="5.6432">
        <ele>433</ele>
        <time>2013-03-16T11:20:03.000Z</time>
      </trkpt>
      <trkpt lat="43.58667" lon="5.64329">
        <ele>433</ele>
        <time>2013-03-16T11:20:04.000Z</time>
      </trkpt>
      <trkpt lat="43.58673" lon="5.64337">
        <ele>432.20001220703</ele>
        <time>2013-03-16T11:20:05.000Z</time>
      </trkpt>
      <trkpt lat="43.58679" lon="5.64345">
        <ele>431</ele>
        <time>2013-03-16T11:20:06.000Z</time>
      </trkpt>
      <trkpt lat="43.58687" lon="5.64351">
        <ele>430</ele>
        <time>2013-03-16T11:20:07.000Z</time>
      </trkpt>
      <trkpt lat="43.5871" lon="5.64369">
        <ele>427.39999389648</ele>
        <time>2013-03-16T11:20:10.000Z</time>
      </trkpt>
      <trkpt lat="43.58718" lon="5.64375">
        <ele>426.60000610352</ele>
        <time>2013-03-16T11:20:11.000Z</time>
      </trkpt>
      <trkpt lat="43.58741" lon="5.64395">
        <ele>424.79998779297</ele>
        <time>2013-03-16T11:20:14.000Z</time>
      </trkpt>
      <trkpt lat="43.58755" lon="5.64409">
        <ele>423.60000610352</ele>
        <time>2013-03-16T11:20:16.000Z</time>
      </trkpt>
      <trkpt lat="43.58763" lon="5.64412">
        <ele>423</ele>
        <time>2013-03-16T11:20:17.000Z</time>
      </trkpt>
      <trkpt lat="43.5877" lon="5.64414">
        <ele>422.39999389648</ele>
        <time>2013-03-16T11:20:18.000Z</time>
      </trkpt>
      <trkpt lat="43.58787" lon="5.64416">
        <ele>421.20001220703</ele>
        <time>2013-03-16T11:20:20.000Z</time>
      </trkpt>
      <trkpt lat="43.58795" lon="5.64418">
        <ele>420.60000610352</ele>
        <time>2013-03-16T11:20:21.000Z</time>
      </trkpt>
      <trkpt lat="43.58809" lon="5.64424">
        <ele>419</ele>
        <time>2013-03-16T11:20:23.000Z</time>
      </trkpt>
      <trkpt lat="43.58824" lon="5.64426">
        <ele>418</ele>
        <time>2013-03-16T11:20:25.000Z</time>
      </trkpt>
      <trkpt lat="43.5884" lon="5.64424">
        <ele>417</ele>
        <time>2013-03-16T11:20:27.000Z</time>
      </trkpt>
      <trkpt lat="43.58872" lon="5.6443">
        <ele>414.60000610352</ele>
        <time>2013-03-16T11:20:31.000Z</time>
      </trkpt>
      <trkpt lat="43.58879" lon="5.64434">
        <ele>414</ele>
        <time>2013-03-16T11:20:32.000Z</time>
      </trkpt>
      <trkpt lat="43.58885" lon="5.64438">
        <ele>413.39999389648</ele>
        <time>2013-03-16T11:20:33.000Z</time>
      </trkpt>
      <trkpt lat="43.58892" lon="5.6444">
        <ele>413</ele>
        <time>2013-03-16T11:20:34.000Z</time>
      </trkpt>
      <trkpt lat="43.58899" lon="5.64441">
        <ele>412.39999389648</ele>
        <time>2013-03-16T11:20:35.000Z</time>
      </trkpt>
      <trkpt lat="43.58904" lon="5.64444">
        <ele>412</ele>
        <time>2013-03-16T11:20:36.000Z</time>
      </trkpt>
      <trkpt lat="43.58908" lon="5.64448">
        <ele>411.39999389648</ele>
        <time>2013-03-16T11:20:37.000Z</time>
      </trkpt>
      <trkpt lat="43.58913" lon="5.64452">
        <ele>411</ele>
        <time>2013-03-16T11:20:38.000Z</time>
      </trkpt>
      <trkpt lat="43.58919" lon="5.64455">
        <ele>410.39999389648</ele>
        <time>2013-03-16T11:20:39.000Z</time>
      </trkpt>
      <trkpt lat="43.58954" lon="5.64468">
        <ele>405.79998779297</ele>
        <time>2013-03-16T11:20:44.000Z</time>
      </trkpt>
      <trkpt lat="43.58962" lon="5.64469">
        <ele>405</ele>
        <time>2013-03-16T11:20:45.000Z</time>
      </trkpt>
      <trkpt lat="43.58986" lon="5.64471">
        <ele>402.39999389648</ele>
        <time>2013-03-16T11:20:49.000Z</time>
      </trkpt>
      <trkpt lat="43.58989" lon="5.64468">
        <ele>402.20001220703</ele>
        <time>2013-03-16T11:20:50.000Z</time>
      </trkpt>
      <trkpt lat="43.58991" lon="5.64463">
        <ele>402.20001220703</ele>
        <time>2013-03-16T11:20:51.000Z</time>
      </trkpt>
      <trkpt lat="43.58994" lon="5.64452">
        <ele>402.20001220703</ele>
        <time>2013-03-16T11:20:53.000Z</time>
      </trkpt>
      <trkpt lat="43.59004" lon="5.64426">
        <ele>402.20001220703</ele>
        <time>2013-03-16T11:20:58.000Z</time>
      </trkpt>
      <trkpt lat="43.59021" lon="5.64414">
        <ele>401.39999389648</ele>
        <time>2013-03-16T11:21:03.000Z</time>
      </trkpt>
      <trkpt lat="43.59021" lon="5.64409">
        <ele>401.60000610352</ele>
        <time>2013-03-16T11:21:04.000Z</time>
      </trkpt>
      <trkpt lat="43.59019" lon="5.64401">
        <ele>401.60000610352</ele>
        <time>2013-03-16T11:21:06.000Z</time>
      </trkpt>
      <trkpt lat="43.5902" lon="5.64392">
        <ele>401.79998779297</ele>
        <time>2013-03-16T11:21:08.000Z</time>
      </trkpt>
      <trkpt lat="43.59025" lon="5.64356">
        <ele>402</ele>
        <time>2013-03-16T11:21:14.000Z</time>
      </trkpt>
      <trkpt lat="43.59063" lon="5.64302">
        <ele>402.79998779297</ele>
        <time>2013-03-16T11:21:24.000Z</time>
      </trkpt>
      <trkpt lat="43.59074" lon="5.6428">
        <ele>403.60000610352</ele>
        <time>2013-03-16T11:21:31.000Z</time>
      </trkpt>
      <trkpt lat="43.59075" lon="5.64278">
        <ele>403.60000610352</ele>
        <time>2013-03-16T11:21:32.000Z</time>
      </trkpt>
      <trkpt lat="43.59075" lon="5.64276">
        <ele>403.79998779297</ele>
        <time>2013-03-16T11:21:33.000Z</time>
      </trkpt>
      <trkpt lat="43.59075" lon="5.64274">
        <ele>403.79998779297</ele>
        <time>2013-03-16T11:21:34.000Z</time>
      </trkpt>
      <trkpt lat="43.59074" lon="5.64273">
        <ele>404</ele>
        <time>2013-03-16T11:21:35.000Z</time>
      </trkpt>
      <trkpt lat="43.59073" lon="5.64282">
        <ele>403.60000610352</ele>
        <time>2013-03-16T11:21:40.000Z</time>
      </trkpt>
      <trkpt lat="43.59074" lon="5.64287">
        <ele>403.20001220703</ele>
        <time>2013-03-16T11:21:49.000Z</time>
      </trkpt>
      <trkpt lat="43.59076" lon="5.64289">
        <ele>403.20001220703</ele>
        <time>2013-03-16T11:22:00.000Z</time>
      </trkpt>
      <trkpt lat="43.59074" lon="5.64292">
        <ele>403</ele>
        <time>2013-03-16T11:22:15.000Z</time>
      </trkpt>
      <trkpt lat="43.59075" lon="5.64318">
        <ele>401.79998779297</ele>
        <time>2013-03-16T11:22:24.000Z</time>
      </trkpt>
      <trkpt lat="43.59085" lon="5.64373">
        <ele>399.20001220703</ele>
        <time>2013-03-16T11:22:33.000Z</time>
      </trkpt>
      <trkpt lat="43.59088" lon="5.6438">
        <ele>398.79998779297</ele>
        <time>2013-03-16T11:22:34.000Z</time>
      </trkpt>
      <trkpt lat="43.59092" lon="5.64387">
        <ele>398.79998779297</ele>
        <time>2013-03-16T11:22:35.000Z</time>
      </trkpt>
      <trkpt lat="43.59097" lon="5.64393">
        <ele>398.60000610352</ele>
        <time>2013-03-16T11:22:36.000Z</time>
      </trkpt>
      <trkpt lat="43.59103" lon="5.64398">
        <ele>398.60000610352</ele>
        <time>2013-03-16T11:22:37.000Z</time>
      </trkpt>
      <trkpt lat="43.59109" lon="5.64402">
        <ele>398.39999389648</ele>
        <time>2013-03-16T11:22:38.000Z</time>
      </trkpt>
      <trkpt lat="43.59115" lon="5.64406">
        <ele>398.39999389648</ele>
        <time>2013-03-16T11:22:39.000Z</time>
      </trkpt>
      <trkpt lat="43.59142" lon="5.64425">
        <ele>398</ele>
        <time>2013-03-16T11:22:44.000Z</time>
      </trkpt>
      <trkpt lat="43.59148" lon="5.64426">
        <ele>398</ele>
        <time>2013-03-16T11:22:45.000Z</time>
      </trkpt>
      <trkpt lat="43.59168" lon="5.64428">
        <ele>398.39999389648</ele>
        <time>2013-03-16T11:22:48.000Z</time>
      </trkpt>
      <trkpt lat="43.59174" lon="5.64431">
        <ele>398.20001220703</ele>
        <time>2013-03-16T11:22:49.000Z</time>
      </trkpt>
      <trkpt lat="43.5918" lon="5.64437">
        <ele>398</ele>
        <time>2013-03-16T11:22:50.000Z</time>
      </trkpt>
      <trkpt lat="43.59183" lon="5.64445">
        <ele>397.60000610352</ele>
        <time>2013-03-16T11:22:51.000Z</time>
      </trkpt>
      <trkpt lat="43.59183" lon="5.64454">
        <ele>397.20001220703</ele>
        <time>2013-03-16T11:22:52.000Z</time>
      </trkpt>
      <trkpt lat="43.59181" lon="5.64462">
        <ele>396.79998779297</ele>
        <time>2013-03-16T11:22:53.000Z</time>
      </trkpt>
      <trkpt lat="43.59177" lon="5.64469">
        <ele>396.39999389648</ele>
        <time>2013-03-16T11:22:54.000Z</time>
      </trkpt>
      <trkpt lat="43.59173" lon="5.64476">
        <ele>396</ele>
        <time>2013-03-16T11:22:55.000Z</time>
      </trkpt>
      <trkpt lat="43.5917" lon="5.64482">
        <ele>395.79998779297</ele>
        <time>2013-03-16T11:22:56.000Z</time>
      </trkpt>
      <trkpt lat="43.59169" lon="5.6449">
        <ele>395.39999389648</ele>
        <time>2013-03-16T11:22:57.000Z</time>
      </trkpt>
      <trkpt lat="43.59169" lon="5.64498">
        <ele>395</ele>
        <time>2013-03-16T11:22:58.000Z</time>
      </trkpt>
      <trkpt lat="43.59172" lon="5.64506">
        <ele>394.39999389648</ele>
        <time>2013-03-16T11:22:59.000Z</time>
      </trkpt>
      <trkpt lat="43.59176" lon="5.64512">
        <ele>394</ele>
        <time>2013-03-16T11:23:00.000Z</time>
      </trkpt>
      <trkpt lat="43.59181" lon="5.64516">
        <ele>393.60000610352</ele>
        <time>2013-03-16T11:23:01.000Z</time>
      </trkpt>
      <trkpt lat="43.59187" lon="5.64519">
        <ele>393.39999389648</ele>
        <time>2013-03-16T11:23:02.000Z</time>
      </trkpt>
      <trkpt lat="43.59193" lon="5.64521">
        <ele>393.39999389648</ele>
        <time>2013-03-16T11:23:03.000Z</time>
      </trkpt>
      <trkpt lat="43.592" lon="5.64523">
        <ele>393.39999389648</ele>
        <time>2013-03-16T11:23:04.000Z</time>
      </trkpt>
      <trkpt lat="43.59219" lon="5.64524">
        <ele>393.39999389648</ele>
        <time>2013-03-16T11:23:07.000Z</time>
      </trkpt>
      <trkpt lat="43.59225" lon="5.64524">
        <ele>393.60000610352</ele>
        <time>2013-03-16T11:23:08.000Z</time>
      </trkpt>
      <trkpt lat="43.59265" lon="5.64516">
        <ele>394</ele>
        <time>2013-03-16T11:23:14.000Z</time>
      </trkpt>
      <trkpt lat="43.59273" lon="5.64517">
        <ele>393.79998779297</ele>
        <time>2013-03-16T11:23:15.000Z</time>
      </trkpt>
      <trkpt lat="43.5928" lon="5.64521">
        <ele>393.60000610352</ele>
        <time>2013-03-16T11:23:16.000Z</time>
      </trkpt>
      <trkpt lat="43.59287" lon="5.64527">
        <ele>393.20001220703</ele>
        <time>2013-03-16T11:23:17.000Z</time>
      </trkpt>
      <trkpt lat="43.59293" lon="5.64535">
        <ele>393</ele>
        <time>2013-03-16T11:23:18.000Z</time>
      </trkpt>
      <trkpt lat="43.59298" lon="5.64543">
        <ele>392.60000610352</ele>
        <time>2013-03-16T11:23:19.000Z</time>
      </trkpt>
      <trkpt lat="43.59323" lon="5.64585">
        <ele>390.79998779297</ele>
        <time>2013-03-16T11:23:24.000Z</time>
      </trkpt>
      <trkpt lat="43.5933" lon="5.64591">
        <ele>390.39999389648</ele>
        <time>2013-03-16T11:23:25.000Z</time>
      </trkpt>
      <trkpt lat="43.59337" lon="5.64594">
        <ele>390</ele>
        <time>2013-03-16T11:23:26.000Z</time>
      </trkpt>
      <trkpt lat="43.59345" lon="5.64594">
        <ele>389.60000610352</ele>
        <time>2013-03-16T11:23:27.000Z</time>
      </trkpt>
      <trkpt lat="43.59353" lon="5.64592">
        <ele>389.39999389648</ele>
        <time>2013-03-16T11:23:28.000Z</time>
      </trkpt>
      <trkpt lat="43.59362" lon="5.6459">
        <ele>389.20001220703</ele>
        <time>2013-03-16T11:23:29.000Z</time>
      </trkpt>
      <trkpt lat="43.59413" lon="5.64569">
        <ele>387.39999389648</ele>
        <time>2013-03-16T11:23:35.000Z</time>
      </trkpt>
      <trkpt lat="43.59422" lon="5.64565">
        <ele>387</ele>
        <time>2013-03-16T11:23:36.000Z</time>
      </trkpt>
      <trkpt lat="43.59439" lon="5.64557">
        <ele>386.39999389648</ele>
        <time>2013-03-16T11:23:38.000Z</time>
      </trkpt>
      <trkpt lat="43.59501" lon="5.64528">
        <ele>383.60000610352</ele>
        <time>2013-03-16T11:23:45.000Z</time>
      </trkpt>
      <trkpt lat="43.59519" lon="5.64518">
        <ele>383.20001220703</ele>
        <time>2013-03-16T11:23:47.000Z</time>
      </trkpt>
      <trkpt lat="43.59568" lon="5.6449">
        <ele>383</ele>
        <time>2013-03-16T11:23:53.000Z</time>
      </trkpt>
      <trkpt lat="43.596" lon="5.64473">
        <ele>383.39999389648</ele>
        <time>2013-03-16T11:23:57.000Z</time>
      </trkpt>
      <trkpt lat="43.5961" lon="5.64473">
        <ele>383.39999389648</ele>
        <time>2013-03-16T11:23:58.000Z</time>
      </trkpt>
      <trkpt lat="43.59619" lon="5.64476">
        <ele>383</ele>
        <time>2013-03-16T11:23:59.000Z</time>
      </trkpt>
      <trkpt lat="43.59628" lon="5.64482">
        <ele>382.39999389648</ele>
        <time>2013-03-16T11:24:00.000Z</time>
      </trkpt>
      <trkpt lat="43.59637" lon="5.64489">
        <ele>381.79998779297</ele>
        <time>2013-03-16T11:24:01.000Z</time>
      </trkpt>
      <trkpt lat="43.59685" lon="5.64527">
        <ele>381</ele>
        <time>2013-03-16T11:24:07.000Z</time>
      </trkpt>
      <trkpt lat="43.59693" lon="5.64532">
        <ele>380.79998779297</ele>
        <time>2013-03-16T11:24:08.000Z</time>
      </trkpt>
      <trkpt lat="43.59701" lon="5.64535">
        <ele>380.79998779297</ele>
        <time>2013-03-16T11:24:09.000Z</time>
      </trkpt>
      <trkpt lat="43.5971" lon="5.64535">
        <ele>380.79998779297</ele>
        <time>2013-03-16T11:24:10.000Z</time>
      </trkpt>
      <trkpt lat="43.59719" lon="5.64535">
        <ele>380.60000610352</ele>
        <time>2013-03-16T11:24:11.000Z</time>
      </trkpt>
      <trkpt lat="43.59727" lon="5.64533">
        <ele>380.39999389648</ele>
        <time>2013-03-16T11:24:12.000Z</time>
      </trkpt>
      <trkpt lat="43.59735" lon="5.64531">
        <ele>380.20001220703</ele>
        <time>2013-03-16T11:24:13.000Z</time>
      </trkpt>
      <trkpt lat="43.59828" lon="5.6451">
        <ele>384</ele>
        <time>2013-03-16T11:24:25.000Z</time>
      </trkpt>
      <trkpt lat="43.59864" lon="5.64502">
        <ele>386.20001220703</ele>
        <time>2013-03-16T11:24:30.000Z</time>
      </trkpt>
      <trkpt lat="43.59871" lon="5.64503">
        <ele>386.79998779297</ele>
        <time>2013-03-16T11:24:31.000Z</time>
      </trkpt>
      <trkpt lat="43.59876" lon="5.64508">
        <ele>387.39999389648</ele>
        <time>2013-03-16T11:24:32.000Z</time>
      </trkpt>
      <trkpt lat="43.59887" lon="5.64534">
        <ele>389.60000610352</ele>
        <time>2013-03-16T11:24:36.000Z</time>
      </trkpt>
      <trkpt lat="43.59887" lon="5.6454">
        <ele>389.79998779297</ele>
        <time>2013-03-16T11:24:37.000Z</time>
      </trkpt>
      <trkpt lat="43.59889" lon="5.64551">
        <ele>390.60000610352</ele>
        <time>2013-03-16T11:24:40.000Z</time>
      </trkpt>
      <trkpt lat="43.59889" lon="5.64555">
        <ele>390.79998779297</ele>
        <time>2013-03-16T11:24:41.000Z</time>
      </trkpt>
      <trkpt lat="43.59887" lon="5.64558">
        <ele>390.79998779297</ele>
        <time>2013-03-16T11:24:42.000Z</time>
      </trkpt>
      <trkpt lat="43.59885" lon="5.64562">
        <ele>390.79998779297</ele>
        <time>2013-03-16T11:24:43.000Z</time>
      </trkpt>
      <trkpt lat="43.59871" lon="5.64593">
        <ele>390.79998779297</ele>
        <time>2013-03-16T11:24:51.000Z</time>
      </trkpt>
      <trkpt lat="43.59871" lon="5.64596">
        <ele>390.79998779297</ele>
        <time>2013-03-16T11:24:52.000Z</time>
      </trkpt>
      <trkpt lat="43.59872" lon="5.64599">
        <ele>391</ele>
        <time>2013-03-16T11:24:53.000Z</time>
      </trkpt>
      <trkpt lat="43.59874" lon="5.64602">
        <ele>391.20001220703</ele>
        <time>2013-03-16T11:24:54.000Z</time>
      </trkpt>
      <trkpt lat="43.59876" lon="5.64604">
        <ele>391.39999389648</ele>
        <time>2013-03-16T11:24:55.000Z</time>
      </trkpt>
      <trkpt lat="43.59877" lon="5.64605">
        <ele>391.60000610352</ele>
        <time>2013-03-16T11:24:56.000Z</time>
      </trkpt>
      <trkpt lat="43.59879" lon="5.64606">
        <ele>391.79998779297</ele>
        <time>2013-03-16T11:24:57.000Z</time>
      </trkpt>
      <trkpt lat="43.59881" lon="5.64606">
        <ele>392</ele>
        <time>2013-03-16T11:24:58.000Z</time>
      </trkpt>
      <trkpt lat="43.59882" lon="5.64607">
        <ele>392</ele>
        <time>2013-03-16T11:24:59.000Z</time>
      </trkpt>
      <trkpt lat="43.59879" lon="5.64622">
        <ele>392.20001220703</ele>
        <time>2013-03-16T11:25:07.000Z</time>
      </trkpt>
      <trkpt lat="43.59882" lon="5.64632">
        <ele>392.60000610352</ele>
        <time>2013-03-16T11:25:11.000Z</time>
      </trkpt>
      <trkpt lat="43.59887" lon="5.64641">
        <ele>393</ele>
        <time>2013-03-16T11:25:21.000Z</time>
      </trkpt>
      <trkpt lat="43.59887" lon="5.64641">
        <ele>393</ele>
        <time>2013-03-16T11:25:42.000Z</time>
      </trkpt>
      <trkpt lat="43.59891" lon="5.64641">
        <ele>393.20001220703</ele>
        <time>2013-03-16T11:25:44.000Z</time>
      </trkpt>
      <trkpt lat="43.59912" lon="5.6462">
        <ele>394.60000610352</ele>
        <time>2013-03-16T11:25:51.000Z</time>
      </trkpt>
      <trkpt lat="43.59919" lon="5.64612">
        <ele>394.79998779297</ele>
        <time>2013-03-16T11:25:53.000Z</time>
      </trkpt>
      <trkpt lat="43.59937" lon="5.64594">
        <ele>394.79998779297</ele>
        <time>2013-03-16T11:25:58.000Z</time>
      </trkpt>
      <trkpt lat="43.5994" lon="5.64589">
        <ele>394.79998779297</ele>
        <time>2013-03-16T11:25:59.000Z</time>
      </trkpt>
      <trkpt lat="43.59943" lon="5.64585">
        <ele>394.79998779297</ele>
        <time>2013-03-16T11:26:00.000Z</time>
      </trkpt>
      <trkpt lat="43.59949" lon="5.64578">
        <ele>394.60000610352</ele>
        <time>2013-03-16T11:26:02.000Z</time>
      </trkpt>
      <trkpt lat="43.5996" lon="5.64564">
        <ele>394.20001220703</ele>
        <time>2013-03-16T11:26:05.000Z</time>
      </trkpt>
      <trkpt lat="43.59964" lon="5.6456">
        <ele>394</ele>
        <time>2013-03-16T11:26:06.000Z</time>
      </trkpt>
      <trkpt lat="43.59991" lon="5.64528">
        <ele>393.39999389648</ele>
        <time>2013-03-16T11:26:13.000Z</time>
      </trkpt>
      <trkpt lat="43.60024" lon="5.64486">
        <ele>392.20001220703</ele>
        <time>2013-03-16T11:26:21.000Z</time>
      </trkpt>
      <trkpt lat="43.60027" lon="5.64479">
        <ele>391.79998779297</ele>
        <time>2013-03-16T11:26:22.000Z</time>
      </trkpt>
      <trkpt lat="43.6003" lon="5.64472">
        <ele>391.39999389648</ele>
        <time>2013-03-16T11:26:23.000Z</time>
      </trkpt>
      <trkpt lat="43.60034" lon="5.64467">
        <ele>391.20001220703</ele>
        <time>2013-03-16T11:26:24.000Z</time>
      </trkpt>
      <trkpt lat="43.60038" lon="5.64463">
        <ele>391</ele>
        <time>2013-03-16T11:26:25.000Z</time>
      </trkpt>
      <trkpt lat="43.60043" lon="5.6446">
        <ele>391</ele>
        <time>2013-03-16T11:26:26.000Z</time>
      </trkpt>
      <trkpt lat="43.60048" lon="5.64455">
        <ele>391</ele>
        <time>2013-03-16T11:26:27.000Z</time>
      </trkpt>
      <trkpt lat="43.60052" lon="5.6445">
        <ele>390.79998779297</ele>
        <time>2013-03-16T11:26:28.000Z</time>
      </trkpt>
      <trkpt lat="43.60057" lon="5.64444">
        <ele>390.60000610352</ele>
        <time>2013-03-16T11:26:29.000Z</time>
      </trkpt>
      <trkpt lat="43.60062" lon="5.64438">
        <ele>390.60000610352</ele>
        <time>2013-03-16T11:26:30.000Z</time>
      </trkpt>
      <trkpt lat="43.60067" lon="5.64431">
        <ele>390.60000610352</ele>
        <time>2013-03-16T11:26:31.000Z</time>
      </trkpt>
      <trkpt lat="43.60077" lon="5.64417">
        <ele>390.60000610352</ele>
        <time>2013-03-16T11:26:33.000Z</time>
      </trkpt>
      <trkpt lat="43.60082" lon="5.64412">
        <ele>390.39999389648</ele>
        <time>2013-03-16T11:26:34.000Z</time>
      </trkpt>
      <trkpt lat="43.60088" lon="5.64406">
        <ele>390.20001220703</ele>
        <time>2013-03-16T11:26:35.000Z</time>
      </trkpt>
      <trkpt lat="43.60099" lon="5.64393">
        <ele>389.60000610352</ele>
        <time>2013-03-16T11:26:37.000Z</time>
      </trkpt>
      <trkpt lat="43.60127" lon="5.64362">
        <ele>388.60000610352</ele>
        <time>2013-03-16T11:26:42.000Z</time>
      </trkpt>
      <trkpt lat="43.60132" lon="5.64355">
        <ele>388.60000610352</ele>
        <time>2013-03-16T11:26:43.000Z</time>
      </trkpt>
      <trkpt lat="43.6015" lon="5.64336">
        <ele>388.79998779297</ele>
        <time>2013-03-16T11:26:46.000Z</time>
      </trkpt>
      <trkpt lat="43.6016" lon="5.64324">
        <ele>388.39999389648</ele>
        <time>2013-03-16T11:26:48.000Z</time>
      </trkpt>
      <trkpt lat="43.60166" lon="5.6432">
        <ele>388.39999389648</ele>
        <time>2013-03-16T11:26:49.000Z</time>
      </trkpt>
      <trkpt lat="43.6017" lon="5.64315">
        <ele>388</ele>
        <time>2013-03-16T11:26:50.000Z</time>
      </trkpt>
      <trkpt lat="43.60177" lon="5.64301">
        <ele>387</ele>
        <time>2013-03-16T11:26:52.000Z</time>
      </trkpt>
      <trkpt lat="43.60182" lon="5.64295">
        <ele>386.60000610352</ele>
        <time>2013-03-16T11:26:53.000Z</time>
      </trkpt>
      <trkpt lat="43.60202" lon="5.64273">
        <ele>386.20001220703</ele>
        <time>2013-03-16T11:26:57.000Z</time>
      </trkpt>
      <trkpt lat="43.60207" lon="5.64266">
        <ele>386.20001220703</ele>
        <time>2013-03-16T11:26:58.000Z</time>
      </trkpt>
      <trkpt lat="43.6021" lon="5.64259">
        <ele>386.20001220703</ele>
        <time>2013-03-16T11:26:59.000Z</time>
      </trkpt>
      <trkpt lat="43.60214" lon="5.64252">
        <ele>386.20001220703</ele>
        <time>2013-03-16T11:27:00.000Z</time>
      </trkpt>
      <trkpt lat="43.60219" lon="5.64246">
        <ele>386.20001220703</ele>
        <time>2013-03-16T11:27:01.000Z</time>
      </trkpt>
      <trkpt lat="43.6023" lon="5.64226">
        <ele>386.20001220703</ele>
        <time>2013-03-16T11:27:04.000Z</time>
      </trkpt>
      <trkpt lat="43.60235" lon="5.64211">
        <ele>385.79998779297</ele>
        <time>2013-03-16T11:27:06.000Z</time>
      </trkpt>
      <trkpt lat="43.60238" lon="5.64206">
        <ele>385.79998779297</ele>
        <time>2013-03-16T11:27:07.000Z</time>
      </trkpt>
      <trkpt lat="43.60239" lon="5.64203">
        <ele>385.79998779297</ele>
        <time>2013-03-16T11:27:08.000Z</time>
      </trkpt>
      <trkpt lat="43.6024" lon="5.64202">
        <ele>385.79998779297</ele>
        <time>2013-03-16T11:27:09.000Z</time>
      </trkpt>
      <trkpt lat="43.60243" lon="5.64202">
        <ele>386.20001220703</ele>
        <time>2013-03-16T11:27:12.000Z</time>
      </trkpt>
      <trkpt lat="43.60244" lon="5.64201">
        <ele>386.20001220703</ele>
        <time>2013-03-16T11:27:13.000Z</time>
      </trkpt>
      <trkpt lat="43.60245" lon="5.64198">
        <ele>386.20001220703</ele>
        <time>2013-03-16T11:27:14.000Z</time>
      </trkpt>
      <trkpt lat="43.60252" lon="5.64182">
        <ele>385.79998779297</ele>
        <time>2013-03-16T11:27:18.000Z</time>
      </trkpt>
      <trkpt lat="43.60255" lon="5.64176">
        <ele>385.60000610352</ele>
        <time>2013-03-16T11:27:19.000Z</time>
      </trkpt>
      <trkpt lat="43.60258" lon="5.64171">
        <ele>385.39999389648</ele>
        <time>2013-03-16T11:27:20.000Z</time>
      </trkpt>
      <trkpt lat="43.60263" lon="5.64165">
        <ele>385</ele>
        <time>2013-03-16T11:27:21.000Z</time>
      </trkpt>
      <trkpt lat="43.60267" lon="5.6416">
        <ele>384.60000610352</ele>
        <time>2013-03-16T11:27:22.000Z</time>
      </trkpt>
      <trkpt lat="43.60271" lon="5.64155">
        <ele>384</ele>
        <time>2013-03-16T11:27:23.000Z</time>
      </trkpt>
      <trkpt lat="43.60297" lon="5.64121">
        <ele>381.20001220703</ele>
        <time>2013-03-16T11:27:28.000Z</time>
      </trkpt>
      <trkpt lat="43.60303" lon="5.64117">
        <ele>381</ele>
        <time>2013-03-16T11:27:29.000Z</time>
      </trkpt>
      <trkpt lat="43.60308" lon="5.64113">
        <ele>380.79998779297</ele>
        <time>2013-03-16T11:27:30.000Z</time>
      </trkpt>
      <trkpt lat="43.60318" lon="5.64105">
        <ele>380.39999389648</ele>
        <time>2013-03-16T11:27:32.000Z</time>
      </trkpt>
      <trkpt lat="43.60323" lon="5.64102">
        <ele>380.20001220703</ele>
        <time>2013-03-16T11:27:33.000Z</time>
      </trkpt>
      <trkpt lat="43.60334" lon="5.64097">
        <ele>380.20001220703</ele>
        <time>2013-03-16T11:27:35.000Z</time>
      </trkpt>
      <trkpt lat="43.60339" lon="5.64097">
        <ele>380.39999389648</ele>
        <time>2013-03-16T11:27:36.000Z</time>
      </trkpt>
      <trkpt lat="43.60344" lon="5.64096">
        <ele>380.60000610352</ele>
        <time>2013-03-16T11:27:37.000Z</time>
      </trkpt>
      <trkpt lat="43.60348" lon="5.64093">
        <ele>380.39999389648</ele>
        <time>2013-03-16T11:27:38.000Z</time>
      </trkpt>
      <trkpt lat="43.60353" lon="5.6409">
        <ele>380.39999389648</ele>
        <time>2013-03-16T11:27:39.000Z</time>
      </trkpt>
      <trkpt lat="43.60359" lon="5.64089">
        <ele>380.60000610352</ele>
        <time>2013-03-16T11:27:40.000Z</time>
      </trkpt>
      <trkpt lat="43.60364" lon="5.64088">
        <ele>380.79998779297</ele>
        <time>2013-03-16T11:27:41.000Z</time>
      </trkpt>
      <trkpt lat="43.60369" lon="5.64087">
        <ele>380.79998779297</ele>
        <time>2013-03-16T11:27:42.000Z</time>
      </trkpt>
      <trkpt lat="43.60375" lon="5.64085">
        <ele>381</ele>
        <time>2013-03-16T11:27:43.000Z</time>
      </trkpt>
      <trkpt lat="43.60379" lon="5.64083">
        <ele>381</ele>
        <time>2013-03-16T11:27:44.000Z</time>
      </trkpt>
      <trkpt lat="43.60384" lon="5.64079">
        <ele>380.79998779297</ele>
        <time>2013-03-16T11:27:45.000Z</time>
      </trkpt>
      <trkpt lat="43.6039" lon="5.64071">
        <ele>380.20001220703</ele>
        <time>2013-03-16T11:27:47.000Z</time>
      </trkpt>
      <trkpt lat="43.60398" lon="5.64068">
        <ele>380.20001220703</ele>
        <time>2013-03-16T11:27:49.000Z</time>
      </trkpt>
      <trkpt lat="43.60412" lon="5.64059">
        <ele>380</ele>
        <time>2013-03-16T11:27:52.000Z</time>
      </trkpt>
      <trkpt lat="43.60422" lon="5.64051">
        <ele>379.60000610352</ele>
        <time>2013-03-16T11:27:54.000Z</time>
      </trkpt>
      <trkpt lat="43.60432" lon="5.64041">
        <ele>378.79998779297</ele>
        <time>2013-03-16T11:27:56.000Z</time>
      </trkpt>
      <trkpt lat="43.60437" lon="5.64035">
        <ele>378.39999389648</ele>
        <time>2013-03-16T11:27:57.000Z</time>
      </trkpt>
      <trkpt lat="43.60441" lon="5.6403">
        <ele>378</ele>
        <time>2013-03-16T11:27:58.000Z</time>
      </trkpt>
      <trkpt lat="43.60444" lon="5.64026">
        <ele>377.60000610352</ele>
        <time>2013-03-16T11:27:59.000Z</time>
      </trkpt>
      <trkpt lat="43.60448" lon="5.64023">
        <ele>377.39999389648</ele>
        <time>2013-03-16T11:28:00.000Z</time>
      </trkpt>
      <trkpt lat="43.6045" lon="5.64021">
        <ele>377.39999389648</ele>
        <time>2013-03-16T11:28:01.000Z</time>
      </trkpt>
      <trkpt lat="43.60452" lon="5.64021">
        <ele>377.39999389648</ele>
        <time>2013-03-16T11:28:02.000Z</time>
      </trkpt>
      <trkpt lat="43.60454" lon="5.64021">
        <ele>377.60000610352</ele>
        <time>2013-03-16T11:28:03.000Z</time>
      </trkpt>
      <trkpt lat="43.60456" lon="5.6402">
        <ele>377.60000610352</ele>
        <time>2013-03-16T11:28:04.000Z</time>
      </trkpt>
      <trkpt lat="43.60459" lon="5.64018">
        <ele>377.39999389648</ele>
        <time>2013-03-16T11:28:05.000Z</time>
      </trkpt>
      <trkpt lat="43.60461" lon="5.64014">
        <ele>377</ele>
        <time>2013-03-16T11:28:06.000Z</time>
      </trkpt>
      <trkpt lat="43.60464" lon="5.64011">
        <ele>376.79998779297</ele>
        <time>2013-03-16T11:28:07.000Z</time>
      </trkpt>
      <trkpt lat="43.60467" lon="5.64007">
        <ele>376.39999389648</ele>
        <time>2013-03-16T11:28:08.000Z</time>
      </trkpt>
      <trkpt lat="43.60469" lon="5.64002">
        <ele>376</ele>
        <time>2013-03-16T11:28:09.000Z</time>
      </trkpt>
      <trkpt lat="43.60471" lon="5.63997">
        <ele>375.39999389648</ele>
        <time>2013-03-16T11:28:10.000Z</time>
      </trkpt>
      <trkpt lat="43.60472" lon="5.63991">
        <ele>374.39999389648</ele>
        <time>2013-03-16T11:28:11.000Z</time>
      </trkpt>
      <trkpt lat="43.60475" lon="5.6398">
        <ele>373</ele>
        <time>2013-03-16T11:28:13.000Z</time>
      </trkpt>
      <trkpt lat="43.60478" lon="5.63977">
        <ele>372.60000610352</ele>
        <time>2013-03-16T11:28:14.000Z</time>
      </trkpt>
      <trkpt lat="43.60482" lon="5.63974">
        <ele>372.20001220703</ele>
        <time>2013-03-16T11:28:15.000Z</time>
      </trkpt>
      <trkpt lat="43.60485" lon="5.63971">
        <ele>371.79998779297</ele>
        <time>2013-03-16T11:28:16.000Z</time>
      </trkpt>
      <trkpt lat="43.60489" lon="5.6397">
        <ele>371.79998779297</ele>
        <time>2013-03-16T11:28:17.000Z</time>
      </trkpt>
      <trkpt lat="43.60491" lon="5.63968">
        <ele>371.60000610352</ele>
        <time>2013-03-16T11:28:18.000Z</time>
      </trkpt>
      <trkpt lat="43.60492" lon="5.63966">
        <ele>371.39999389648</ele>
        <time>2013-03-16T11:28:19.000Z</time>
      </trkpt>
      <trkpt lat="43.60494" lon="5.63964">
        <ele>371</ele>
        <time>2013-03-16T11:28:20.000Z</time>
      </trkpt>
      <trkpt lat="43.60497" lon="5.63957">
        <ele>370.20001220703</ele>
        <time>2013-03-16T11:28:23.000Z</time>
      </trkpt>
      <trkpt lat="43.60503" lon="5.63947">
        <ele>368.79998779297</ele>
        <time>2013-03-16T11:28:25.000Z</time>
      </trkpt>
      <trkpt lat="43.60521" lon="5.63917">
        <ele>365.20001220703</ele>
        <time>2013-03-16T11:28:31.000Z</time>
      </trkpt>
      <trkpt lat="43.60543" lon="5.63911">
        <ele>365.60000610352</ele>
        <time>2013-03-16T11:28:36.000Z</time>
      </trkpt>
      <trkpt lat="43.60568" lon="5.63911">
        <ele>367.20001220703</ele>
        <time>2013-03-16T11:28:42.000Z</time>
      </trkpt>
      <trkpt lat="43.60573" lon="5.63907">
        <ele>366.79998779297</ele>
        <time>2013-03-16T11:28:43.000Z</time>
      </trkpt>
      <trkpt lat="43.60583" lon="5.63899">
        <ele>366</ele>
        <time>2013-03-16T11:28:45.000Z</time>
      </trkpt>
      <trkpt lat="43.60588" lon="5.63895">
        <ele>365.79998779297</ele>
        <time>2013-03-16T11:28:46.000Z</time>
      </trkpt>
      <trkpt lat="43.60591" lon="5.6389">
        <ele>365.39999389648</ele>
        <time>2013-03-16T11:28:47.000Z</time>
      </trkpt>
      <trkpt lat="43.60592" lon="5.63884">
        <ele>364.39999389648</ele>
        <time>2013-03-16T11:28:48.000Z</time>
      </trkpt>
      <trkpt lat="43.60592" lon="5.63876">
        <ele>363</ele>
        <time>2013-03-16T11:28:49.000Z</time>
      </trkpt>
      <trkpt lat="43.60593" lon="5.63866">
        <ele>361.60000610352</ele>
        <time>2013-03-16T11:28:50.000Z</time>
      </trkpt>
      <trkpt lat="43.60595" lon="5.63856">
        <ele>360</ele>
        <time>2013-03-16T11:28:51.000Z</time>
      </trkpt>
      <trkpt lat="43.60596" lon="5.63845">
        <ele>358.39999389648</ele>
        <time>2013-03-16T11:28:52.000Z</time>
      </trkpt>
      <trkpt lat="43.60598" lon="5.63835">
        <ele>356.79998779297</ele>
        <time>2013-03-16T11:28:53.000Z</time>
      </trkpt>
      <trkpt lat="43.606" lon="5.63826">
        <ele>356.39999389648</ele>
        <time>2013-03-16T11:28:54.000Z</time>
      </trkpt>
      <trkpt lat="43.60604" lon="5.6382">
        <ele>356.39999389648</ele>
        <time>2013-03-16T11:28:55.000Z</time>
      </trkpt>
      <trkpt lat="43.6061" lon="5.63815">
        <ele>356.60000610352</ele>
        <time>2013-03-16T11:28:56.000Z</time>
      </trkpt>
      <trkpt lat="43.60616" lon="5.63809">
        <ele>356.60000610352</ele>
        <time>2013-03-16T11:28:57.000Z</time>
      </trkpt>
      <trkpt lat="43.60621" lon="5.63803">
        <ele>356.60000610352</ele>
        <time>2013-03-16T11:28:58.000Z</time>
      </trkpt>
      <trkpt lat="43.60628" lon="5.63798">
        <ele>356.39999389648</ele>
        <time>2013-03-16T11:28:59.000Z</time>
      </trkpt>
      <trkpt lat="43.60634" lon="5.63794">
        <ele>356.39999389648</ele>
        <time>2013-03-16T11:29:00.000Z</time>
      </trkpt>
      <trkpt lat="43.60641" lon="5.6379">
        <ele>356.39999389648</ele>
        <time>2013-03-16T11:29:01.000Z</time>
      </trkpt>
      <trkpt lat="43.60648" lon="5.63786">
        <ele>356.20001220703</ele>
        <time>2013-03-16T11:29:02.000Z</time>
      </trkpt>
      <trkpt lat="43.60677" lon="5.63772">
        <ele>354.39999389648</ele>
        <time>2013-03-16T11:29:06.000Z</time>
      </trkpt>
      <trkpt lat="43.60685" lon="5.63769">
        <ele>354</ele>
        <time>2013-03-16T11:29:07.000Z</time>
      </trkpt>
      <trkpt lat="43.60693" lon="5.63768">
        <ele>353.79998779297</ele>
        <time>2013-03-16T11:29:08.000Z</time>
      </trkpt>
      <trkpt lat="43.60701" lon="5.63767">
        <ele>353.60000610352</ele>
        <time>2013-03-16T11:29:09.000Z</time>
      </trkpt>
      <trkpt lat="43.60708" lon="5.63764">
        <ele>353.20001220703</ele>
        <time>2013-03-16T11:29:10.000Z</time>
      </trkpt>
      <trkpt lat="43.60714" lon="5.63761">
        <ele>352.60000610352</ele>
        <time>2013-03-16T11:29:11.000Z</time>
      </trkpt>
      <trkpt lat="43.6072" lon="5.63758">
        <ele>352.20001220703</ele>
        <time>2013-03-16T11:29:12.000Z</time>
      </trkpt>
      <trkpt lat="43.60727" lon="5.63758">
        <ele>352.20001220703</ele>
        <time>2013-03-16T11:29:13.000Z</time>
      </trkpt>
      <trkpt lat="43.60733" lon="5.6376">
        <ele>352.39999389648</ele>
        <time>2013-03-16T11:29:14.000Z</time>
      </trkpt>
      <trkpt lat="43.60741" lon="5.63764">
        <ele>352.79998779297</ele>
        <time>2013-03-16T11:29:15.000Z</time>
      </trkpt>
      <trkpt lat="43.60755" lon="5.63767">
        <ele>353</ele>
        <time>2013-03-16T11:29:17.000Z</time>
      </trkpt>
      <trkpt lat="43.60771" lon="5.63764">
        <ele>351.20001220703</ele>
        <time>2013-03-16T11:29:21.000Z</time>
      </trkpt>
      <trkpt lat="43.60797" lon="5.63764">
        <ele>349.20001220703</ele>
        <time>2013-03-16T11:29:27.000Z</time>
      </trkpt>
      <trkpt lat="43.60801" lon="5.63764">
        <ele>348.79998779297</ele>
        <time>2013-03-16T11:29:28.000Z</time>
      </trkpt>
      <trkpt lat="43.60807" lon="5.63763">
        <ele>348.20001220703</ele>
        <time>2013-03-16T11:29:29.000Z</time>
      </trkpt>
      <trkpt lat="43.60812" lon="5.6376">
        <ele>347.39999389648</ele>
        <time>2013-03-16T11:29:30.000Z</time>
      </trkpt>
      <trkpt lat="43.60818" lon="5.63758">
        <ele>346.79998779297</ele>
        <time>2013-03-16T11:29:31.000Z</time>
      </trkpt>
      <trkpt lat="43.60823" lon="5.63758">
        <ele>346.39999389648</ele>
        <time>2013-03-16T11:29:32.000Z</time>
      </trkpt>
      <trkpt lat="43.60829" lon="5.63761">
        <ele>346.20001220703</ele>
        <time>2013-03-16T11:29:33.000Z</time>
      </trkpt>
      <trkpt lat="43.60834" lon="5.63765">
        <ele>346</ele>
        <time>2013-03-16T11:29:34.000Z</time>
      </trkpt>
      <trkpt lat="43.60839" lon="5.63767">
        <ele>345.79998779297</ele>
        <time>2013-03-16T11:29:35.000Z</time>
      </trkpt>
      <trkpt lat="43.60844" lon="5.63768">
        <ele>345.60000610352</ele>
        <time>2013-03-16T11:29:36.000Z</time>
      </trkpt>
      <trkpt lat="43.60847" lon="5.63771">
        <ele>345.39999389648</ele>
        <time>2013-03-16T11:29:37.000Z</time>
      </trkpt>
      <trkpt lat="43.60849" lon="5.63775">
        <ele>345.60000610352</ele>
        <time>2013-03-16T11:29:38.000Z</time>
      </trkpt>
      <trkpt lat="43.60849" lon="5.6378">
        <ele>346.20001220703</ele>
        <time>2013-03-16T11:29:39.000Z</time>
      </trkpt>
      <trkpt lat="43.60849" lon="5.63786">
        <ele>346.60000610352</ele>
        <time>2013-03-16T11:29:40.000Z</time>
      </trkpt>
      <trkpt lat="43.6085" lon="5.63792">
        <ele>347</ele>
        <time>2013-03-16T11:29:41.000Z</time>
      </trkpt>
      <trkpt lat="43.60852" lon="5.63797">
        <ele>347.20001220703</ele>
        <time>2013-03-16T11:29:42.000Z</time>
      </trkpt>
      <trkpt lat="43.60855" lon="5.63804">
        <ele>347.60000610352</ele>
        <time>2013-03-16T11:29:43.000Z</time>
      </trkpt>
      <trkpt lat="43.60856" lon="5.63812">
        <ele>348.20001220703</ele>
        <time>2013-03-16T11:29:44.000Z</time>
      </trkpt>
      <trkpt lat="43.60859" lon="5.63819">
        <ele>348.60000610352</ele>
        <time>2013-03-16T11:29:45.000Z</time>
      </trkpt>
      <trkpt lat="43.60862" lon="5.63826">
        <ele>348.79998779297</ele>
        <time>2013-03-16T11:29:46.000Z</time>
      </trkpt>
      <trkpt lat="43.60866" lon="5.63833">
        <ele>349.20001220703</ele>
        <time>2013-03-16T11:29:47.000Z</time>
      </trkpt>
      <trkpt lat="43.60868" lon="5.6384">
        <ele>349.39999389648</ele>
        <time>2013-03-16T11:29:48.000Z</time>
      </trkpt>
      <trkpt lat="43.60868" lon="5.63848">
        <ele>350</ele>
        <time>2013-03-16T11:29:49.000Z</time>
      </trkpt>
      <trkpt lat="43.60869" lon="5.63855">
        <ele>350.39999389648</ele>
        <time>2013-03-16T11:29:50.000Z</time>
      </trkpt>
      <trkpt lat="43.60871" lon="5.63861">
        <ele>350.60000610352</ele>
        <time>2013-03-16T11:29:51.000Z</time>
      </trkpt>
      <trkpt lat="43.60875" lon="5.63864">
        <ele>350.39999389648</ele>
        <time>2013-03-16T11:29:52.000Z</time>
      </trkpt>
      <trkpt lat="43.60878" lon="5.63869">
        <ele>350.60000610352</ele>
        <time>2013-03-16T11:29:53.000Z</time>
      </trkpt>
      <trkpt lat="43.6088" lon="5.63874">
        <ele>350.60000610352</ele>
        <time>2013-03-16T11:29:54.000Z</time>
      </trkpt>
      <trkpt lat="43.60882" lon="5.63877">
        <ele>350.60000610352</ele>
        <time>2013-03-16T11:29:55.000Z</time>
      </trkpt>
      <trkpt lat="43.60885" lon="5.6388">
        <ele>350.60000610352</ele>
        <time>2013-03-16T11:29:56.000Z</time>
      </trkpt>
      <trkpt lat="43.60889" lon="5.63883">
        <ele>350.39999389648</ele>
        <time>2013-03-16T11:29:58.000Z</time>
      </trkpt>
      <trkpt lat="43.60891" lon="5.63882">
        <ele>350.20001220703</ele>
        <time>2013-03-16T11:29:59.000Z</time>
      </trkpt>
      <trkpt lat="43.60892" lon="5.63879">
        <ele>350</ele>
        <time>2013-03-16T11:30:07.000Z</time>
      </trkpt>
      <trkpt lat="43.60893" lon="5.6388">
        <ele>349.79998779297</ele>
        <time>2013-03-16T11:30:19.000Z</time>
      </trkpt>
      <trkpt lat="43.60893" lon="5.63882">
        <ele>350</ele>
        <time>2013-03-16T11:30:42.000Z</time>
      </trkpt>
      <trkpt lat="43.60894" lon="5.63882">
        <ele>349.79998779297</ele>
        <time>2013-03-16T11:31:05.000Z</time>
      </trkpt>
      <trkpt lat="43.60892" lon="5.63878">
        <ele>349.79998779297</ele>
        <time>2013-03-16T11:31:29.000Z</time>
      </trkpt>
      <trkpt lat="43.60892" lon="5.63878">
        <ele>349.79998779297</ele>
        <time>2013-03-16T11:31:47.000Z</time>
      </trkpt>
      <trkpt lat="43.60892" lon="5.63881">
        <ele>350</ele>
        <time>2013-03-16T11:32:05.000Z</time>
      </trkpt>
      <trkpt lat="43.60892" lon="5.63882">
        <ele>350</ele>
        <time>2013-03-16T11:32:28.000Z</time>
      </trkpt>
      <trkpt lat="43.60892" lon="5.63881">
        <ele>350</ele>
        <time>2013-03-16T11:32:51.000Z</time>
      </trkpt>
      <trkpt lat="43.60894" lon="5.63877">
        <ele>349.60000610352</ele>
        <time>2013-03-16T11:33:01.000Z</time>
      </trkpt>
      <trkpt lat="43.609" lon="5.63872">
        <ele>348.79998779297</ele>
        <time>2013-03-16T11:33:04.000Z</time>
      </trkpt>
      <trkpt lat="43.60903" lon="5.63873">
        <ele>348.39999389648</ele>
        <time>2013-03-16T11:33:05.000Z</time>
      </trkpt>
      <trkpt lat="43.60907" lon="5.63875">
        <ele>348.20001220703</ele>
        <time>2013-03-16T11:33:06.000Z</time>
      </trkpt>
      <trkpt lat="43.60911" lon="5.63878">
        <ele>348</ele>
        <time>2013-03-16T11:33:07.000Z</time>
      </trkpt>
      <trkpt lat="43.60915" lon="5.63882">
        <ele>348</ele>
        <time>2013-03-16T11:33:08.000Z</time>
      </trkpt>
      <trkpt lat="43.60919" lon="5.63886">
        <ele>347.79998779297</ele>
        <time>2013-03-16T11:33:09.000Z</time>
      </trkpt>
      <trkpt lat="43.60943" lon="5.63912">
        <ele>347.39999389648</ele>
        <time>2013-03-16T11:33:16.000Z</time>
      </trkpt>
      <trkpt lat="43.60957" lon="5.63925">
        <ele>346.39999389648</ele>
        <time>2013-03-16T11:33:19.000Z</time>
      </trkpt>
      <trkpt lat="43.60968" lon="5.63934">
        <ele>345.39999389648</ele>
        <time>2013-03-16T11:33:21.000Z</time>
      </trkpt>
      <trkpt lat="43.60979" lon="5.63944">
        <ele>344.60000610352</ele>
        <time>2013-03-16T11:33:23.000Z</time>
      </trkpt>
      <trkpt lat="43.60985" lon="5.63948">
        <ele>344</ele>
        <time>2013-03-16T11:33:24.000Z</time>
      </trkpt>
      <trkpt lat="43.60991" lon="5.63951">
        <ele>343.60000610352</ele>
        <time>2013-03-16T11:33:25.000Z</time>
      </trkpt>
      <trkpt lat="43.61004" lon="5.63957">
        <ele>342.79998779297</ele>
        <time>2013-03-16T11:33:27.000Z</time>
      </trkpt>
      <trkpt lat="43.61061" lon="5.63993">
        <ele>341.20001220703</ele>
        <time>2013-03-16T11:33:36.000Z</time>
      </trkpt>
      <trkpt lat="43.61074" lon="5.63997">
        <ele>341</ele>
        <time>2013-03-16T11:33:38.000Z</time>
      </trkpt>
      <trkpt lat="43.61124" lon="5.63999">
        <ele>340</ele>
        <time>2013-03-16T11:33:46.000Z</time>
      </trkpt>
      <trkpt lat="43.61129" lon="5.64001">
        <ele>339.79998779297</ele>
        <time>2013-03-16T11:33:47.000Z</time>
      </trkpt>
      <trkpt lat="43.61135" lon="5.64003">
        <ele>339.39999389648</ele>
        <time>2013-03-16T11:33:48.000Z</time>
      </trkpt>
      <trkpt lat="43.61163" lon="5.64022">
        <ele>337.39999389648</ele>
        <time>2013-03-16T11:33:53.000Z</time>
      </trkpt>
      <trkpt lat="43.61169" lon="5.64026">
        <ele>337</ele>
        <time>2013-03-16T11:33:54.000Z</time>
      </trkpt>
      <trkpt lat="43.61176" lon="5.64027">
        <ele>336.79998779297</ele>
        <time>2013-03-16T11:33:55.000Z</time>
      </trkpt>
      <trkpt lat="43.61183" lon="5.64026">
        <ele>336.60000610352</ele>
        <time>2013-03-16T11:33:56.000Z</time>
      </trkpt>
      <trkpt lat="43.61234" lon="5.64019">
        <ele>336</ele>
        <time>2013-03-16T11:34:04.000Z</time>
      </trkpt>
      <trkpt lat="43.61256" lon="5.6402">
        <ele>335.20001220703</ele>
        <time>2013-03-16T11:34:09.000Z</time>
      </trkpt>
      <trkpt lat="43.61272" lon="5.64017">
        <ele>334.39999389648</ele>
        <time>2013-03-16T11:34:16.000Z</time>
      </trkpt>
      <trkpt lat="43.61273" lon="5.64016">
        <ele>334.39999389648</ele>
        <time>2013-03-16T11:34:18.000Z</time>
      </trkpt>
      <trkpt lat="43.61274" lon="5.64014">
        <ele>334.60000610352</ele>
        <time>2013-03-16T11:34:19.000Z</time>
      </trkpt>
      <trkpt lat="43.61274" lon="5.64013">
        <ele>334.60000610352</ele>
        <time>2013-03-16T11:34:20.000Z</time>
      </trkpt>
      <trkpt lat="43.61273" lon="5.64011">
        <ele>334.79998779297</ele>
        <time>2013-03-16T11:34:21.000Z</time>
      </trkpt>
      <trkpt lat="43.61272" lon="5.6401">
        <ele>335</ele>
        <time>2013-03-16T11:34:22.000Z</time>
      </trkpt>
      <trkpt lat="43.61271" lon="5.64008">
        <ele>335.20001220703</ele>
        <time>2013-03-16T11:34:23.000Z</time>
      </trkpt>
      <trkpt lat="43.6127" lon="5.64001">
        <ele>335.60000610352</ele>
        <time>2013-03-16T11:34:27.000Z</time>
      </trkpt>
      <trkpt lat="43.61274" lon="5.63993">
        <ele>335.39999389648</ele>
        <time>2013-03-16T11:34:30.000Z</time>
      </trkpt>
      <trkpt lat="43.61276" lon="5.63989">
        <ele>335.39999389648</ele>
        <time>2013-03-16T11:34:31.000Z</time>
      </trkpt>
      <trkpt lat="43.61279" lon="5.63973">
        <ele>335.20001220703</ele>
        <time>2013-03-16T11:34:34.000Z</time>
      </trkpt>
      <trkpt lat="43.61284" lon="5.63956">
        <ele>334.79998779297</ele>
        <time>2013-03-16T11:34:37.000Z</time>
      </trkpt>
      <trkpt lat="43.61286" lon="5.63927">
        <ele>334.79998779297</ele>
        <time>2013-03-16T11:34:42.000Z</time>
      </trkpt>
      <trkpt lat="43.61291" lon="5.63908">
        <ele>333.79998779297</ele>
        <time>2013-03-16T11:34:46.000Z</time>
      </trkpt>
      <trkpt lat="43.61284" lon="5.63891">
        <ele>333.20001220703</ele>
        <time>2013-03-16T11:34:50.000Z</time>
      </trkpt>
      <trkpt lat="43.61273" lon="5.63855">
        <ele>331.20001220703</ele>
        <time>2013-03-16T11:34:58.000Z</time>
      </trkpt>
      <trkpt lat="43.61271" lon="5.63824">
        <ele>329.39999389648</ele>
        <time>2013-03-16T11:35:03.000Z</time>
      </trkpt>
      <trkpt lat="43.61269" lon="5.63813">
        <ele>328.79998779297</ele>
        <time>2013-03-16T11:35:05.000Z</time>
      </trkpt>
      <trkpt lat="43.61265" lon="5.63784">
        <ele>327</ele>
        <time>2013-03-16T11:35:10.000Z</time>
      </trkpt>
      <trkpt lat="43.61268" lon="5.63775">
        <ele>326.39999389648</ele>
        <time>2013-03-16T11:35:12.000Z</time>
      </trkpt>
      <trkpt lat="43.61282" lon="5.63762">
        <ele>325.60000610352</ele>
        <time>2013-03-16T11:35:16.000Z</time>
      </trkpt>
      <trkpt lat="43.61293" lon="5.63747">
        <ele>324.79998779297</ele>
        <time>2013-03-16T11:35:19.000Z</time>
      </trkpt>
      <trkpt lat="43.61304" lon="5.63732">
        <ele>324</ele>
        <time>2013-03-16T11:35:22.000Z</time>
      </trkpt>
      <trkpt lat="43.61324" lon="5.63724">
        <ele>323.20001220703</ele>
        <time>2013-03-16T11:35:27.000Z</time>
      </trkpt>
      <trkpt lat="43.61346" lon="5.63703">
        <ele>322</ele>
        <time>2013-03-16T11:35:32.000Z</time>
      </trkpt>
      <trkpt lat="43.61371" lon="5.63688">
        <ele>321.60000610352</ele>
        <time>2013-03-16T11:35:37.000Z</time>
      </trkpt>
      <trkpt lat="43.61375" lon="5.63688">
        <ele>321.79998779297</ele>
        <time>2013-03-16T11:35:38.000Z</time>
      </trkpt>
      <trkpt lat="43.61379" lon="5.63691">
        <ele>322.20001220703</ele>
        <time>2013-03-16T11:35:39.000Z</time>
      </trkpt>
      <trkpt lat="43.61387" lon="5.63698">
        <ele>323.20001220703</ele>
        <time>2013-03-16T11:35:41.000Z</time>
      </trkpt>
      <trkpt lat="43.61391" lon="5.63702">
        <ele>323.60000610352</ele>
        <time>2013-03-16T11:35:42.000Z</time>
      </trkpt>
      <trkpt lat="43.61396" lon="5.63704">
        <ele>324</ele>
        <time>2013-03-16T11:35:43.000Z</time>
      </trkpt>
      <trkpt lat="43.61405" lon="5.63706">
        <ele>324.79998779297</ele>
        <time>2013-03-16T11:35:45.000Z</time>
      </trkpt>
      <trkpt lat="43.6141" lon="5.63705">
        <ele>324.79998779297</ele>
        <time>2013-03-16T11:35:46.000Z</time>
      </trkpt>
      <trkpt lat="43.61414" lon="5.63703">
        <ele>324.60000610352</ele>
        <time>2013-03-16T11:35:47.000Z</time>
      </trkpt>
      <trkpt lat="43.61417" lon="5.63698">
        <ele>324.39999389648</ele>
        <time>2013-03-16T11:35:48.000Z</time>
      </trkpt>
      <trkpt lat="43.6142" lon="5.63693">
        <ele>323.60000610352</ele>
        <time>2013-03-16T11:35:49.000Z</time>
      </trkpt>
      <trkpt lat="43.61422" lon="5.63689">
        <ele>322.79998779297</ele>
        <time>2013-03-16T11:35:50.000Z</time>
      </trkpt>
      <trkpt lat="43.61429" lon="5.63679">
        <ele>321.39999389648</ele>
        <time>2013-03-16T11:35:52.000Z</time>
      </trkpt>
      <trkpt lat="43.61439" lon="5.63666">
        <ele>319.79998779297</ele>
        <time>2013-03-16T11:35:55.000Z</time>
      </trkpt>
      <trkpt lat="43.61443" lon="5.63662">
        <ele>319.39999389648</ele>
        <time>2013-03-16T11:35:56.000Z</time>
      </trkpt>
      <trkpt lat="43.61446" lon="5.63658">
        <ele>319</ele>
        <time>2013-03-16T11:35:57.000Z</time>
      </trkpt>
      <trkpt lat="43.61448" lon="5.63654">
        <ele>318.60000610352</ele>
        <time>2013-03-16T11:35:58.000Z</time>
      </trkpt>
      <trkpt lat="43.6145" lon="5.63648">
        <ele>318.20001220703</ele>
        <time>2013-03-16T11:35:59.000Z</time>
      </trkpt>
      <trkpt lat="43.61453" lon="5.63635">
        <ele>317.39999389648</ele>
        <time>2013-03-16T11:36:01.000Z</time>
      </trkpt>
      <trkpt lat="43.61455" lon="5.63629">
        <ele>317</ele>
        <time>2013-03-16T11:36:02.000Z</time>
      </trkpt>
      <trkpt lat="43.61457" lon="5.63625">
        <ele>316.60000610352</ele>
        <time>2013-03-16T11:36:03.000Z</time>
      </trkpt>
      <trkpt lat="43.61461" lon="5.63622">
        <ele>316.39999389648</ele>
        <time>2013-03-16T11:36:04.000Z</time>
      </trkpt>
      <trkpt lat="43.61465" lon="5.63621">
        <ele>316.20001220703</ele>
        <time>2013-03-16T11:36:05.000Z</time>
      </trkpt>
      <trkpt lat="43.61469" lon="5.6362">
        <ele>316</ele>
        <time>2013-03-16T11:36:06.000Z</time>
      </trkpt>
      <trkpt lat="43.61474" lon="5.6362">
        <ele>316</ele>
        <time>2013-03-16T11:36:07.000Z</time>
      </trkpt>
      <trkpt lat="43.61479" lon="5.63622">
        <ele>316</ele>
        <time>2013-03-16T11:36:08.000Z</time>
      </trkpt>
      <trkpt lat="43.61483" lon="5.63625">
        <ele>316</ele>
        <time>2013-03-16T11:36:09.000Z</time>
      </trkpt>
      <trkpt lat="43.61489" lon="5.63628">
        <ele>315.79998779297</ele>
        <time>2013-03-16T11:36:10.000Z</time>
      </trkpt>
      <trkpt lat="43.61494" lon="5.6363">
        <ele>315.79998779297</ele>
        <time>2013-03-16T11:36:11.000Z</time>
      </trkpt>
      <trkpt lat="43.61505" lon="5.63633">
        <ele>315.20001220703</ele>
        <time>2013-03-16T11:36:13.000Z</time>
      </trkpt>
      <trkpt lat="43.6152" lon="5.63634">
        <ele>313.60000610352</ele>
        <time>2013-03-16T11:36:16.000Z</time>
      </trkpt>
      <trkpt lat="43.61525" lon="5.63635">
        <ele>313.20001220703</ele>
        <time>2013-03-16T11:36:17.000Z</time>
      </trkpt>
      <trkpt lat="43.6153" lon="5.63639">
        <ele>312.79998779297</ele>
        <time>2013-03-16T11:36:18.000Z</time>
      </trkpt>
      <trkpt lat="43.61535" lon="5.63643">
        <ele>312.60000610352</ele>
        <time>2013-03-16T11:36:19.000Z</time>
      </trkpt>
      <trkpt lat="43.61538" lon="5.63649">
        <ele>312.39999389648</ele>
        <time>2013-03-16T11:36:20.000Z</time>
      </trkpt>
      <trkpt lat="43.61541" lon="5.63654">
        <ele>312.39999389648</ele>
        <time>2013-03-16T11:36:21.000Z</time>
      </trkpt>
      <trkpt lat="43.61545" lon="5.6366">
        <ele>312.20001220703</ele>
        <time>2013-03-16T11:36:22.000Z</time>
      </trkpt>
      <trkpt lat="43.6155" lon="5.63663">
        <ele>312</ele>
        <time>2013-03-16T11:36:23.000Z</time>
      </trkpt>
      <trkpt lat="43.61555" lon="5.63665">
        <ele>311.60000610352</ele>
        <time>2013-03-16T11:36:24.000Z</time>
      </trkpt>
      <trkpt lat="43.61561" lon="5.63666">
        <ele>311</ele>
        <time>2013-03-16T11:36:25.000Z</time>
      </trkpt>
      <trkpt lat="43.61568" lon="5.63666">
        <ele>310.39999389648</ele>
        <time>2013-03-16T11:36:26.000Z</time>
      </trkpt>
      <trkpt lat="43.61574" lon="5.63666">
        <ele>309.79998779297</ele>
        <time>2013-03-16T11:36:27.000Z</time>
      </trkpt>
      <trkpt lat="43.61587" lon="5.63667">
        <ele>308.79998779297</ele>
        <time>2013-03-16T11:36:29.000Z</time>
      </trkpt>
      <trkpt lat="43.61606" lon="5.63669">
        <ele>307.79998779297</ele>
        <time>2013-03-16T11:36:32.000Z</time>
      </trkpt>
      <trkpt lat="43.61617" lon="5.63671">
        <ele>307.20001220703</ele>
        <time>2013-03-16T11:36:34.000Z</time>
      </trkpt>
      <trkpt lat="43.61623" lon="5.6367">
        <ele>307</ele>
        <time>2013-03-16T11:36:35.000Z</time>
      </trkpt>
      <trkpt lat="43.61647" lon="5.63662">
        <ele>305.60000610352</ele>
        <time>2013-03-16T11:36:39.000Z</time>
      </trkpt>
      <trkpt lat="43.61654" lon="5.63661">
        <ele>305.20001220703</ele>
        <time>2013-03-16T11:36:40.000Z</time>
      </trkpt>
      <trkpt lat="43.61715" lon="5.63655">
        <ele>307</ele>
        <time>2013-03-16T11:36:48.000Z</time>
      </trkpt>
      <trkpt lat="43.61748" lon="5.63647">
        <ele>308.79998779297</ele>
        <time>2013-03-16T11:36:53.000Z</time>
      </trkpt>
      <trkpt lat="43.61753" lon="5.63642">
        <ele>308.79998779297</ele>
        <time>2013-03-16T11:36:54.000Z</time>
      </trkpt>
      <trkpt lat="43.61755" lon="5.63637">
        <ele>308.79998779297</ele>
        <time>2013-03-16T11:36:55.000Z</time>
      </trkpt>
      <trkpt lat="43.61757" lon="5.63632">
        <ele>308.79998779297</ele>
        <time>2013-03-16T11:36:56.000Z</time>
      </trkpt>
      <trkpt lat="43.6176" lon="5.63628">
        <ele>308.79998779297</ele>
        <time>2013-03-16T11:36:57.000Z</time>
      </trkpt>
      <trkpt lat="43.61764" lon="5.63626">
        <ele>308.79998779297</ele>
        <time>2013-03-16T11:36:58.000Z</time>
      </trkpt>
      <trkpt lat="43.61769" lon="5.63624">
        <ele>308.79998779297</ele>
        <time>2013-03-16T11:36:59.000Z</time>
      </trkpt>
      <trkpt lat="43.61774" lon="5.63623">
        <ele>308.79998779297</ele>
        <time>2013-03-16T11:37:00.000Z</time>
      </trkpt>
      <trkpt lat="43.61779" lon="5.63623">
        <ele>308.79998779297</ele>
        <time>2013-03-16T11:37:01.000Z</time>
      </trkpt>
      <trkpt lat="43.61785" lon="5.63624">
        <ele>308.60000610352</ele>
        <time>2013-03-16T11:37:02.000Z</time>
      </trkpt>
      <trkpt lat="43.61832" lon="5.63618">
        <ele>308.39999389648</ele>
        <time>2013-03-16T11:37:10.000Z</time>
      </trkpt>
      <trkpt lat="43.61838" lon="5.63619">
        <ele>308.20001220703</ele>
        <time>2013-03-16T11:37:11.000Z</time>
      </trkpt>
      <trkpt lat="43.61843" lon="5.63621">
        <ele>308</ele>
        <time>2013-03-16T11:37:12.000Z</time>
      </trkpt>
      <trkpt lat="43.61848" lon="5.63624">
        <ele>308</ele>
        <time>2013-03-16T11:37:13.000Z</time>
      </trkpt>
      <trkpt lat="43.61852" lon="5.63625">
        <ele>308</ele>
        <time>2013-03-16T11:37:14.000Z</time>
      </trkpt>
      <trkpt lat="43.61855" lon="5.63626">
        <ele>307.79998779297</ele>
        <time>2013-03-16T11:37:15.000Z</time>
      </trkpt>
      <trkpt lat="43.61858" lon="5.63625">
        <ele>307.79998779297</ele>
        <time>2013-03-16T11:37:16.000Z</time>
      </trkpt>
      <trkpt lat="43.6186" lon="5.63624">
        <ele>307.79998779297</ele>
        <time>2013-03-16T11:37:17.000Z</time>
      </trkpt>
      <trkpt lat="43.61862" lon="5.63626">
        <ele>307.79998779297</ele>
        <time>2013-03-16T11:37:26.000Z</time>
      </trkpt>
      <trkpt lat="43.61863" lon="5.63623">
        <ele>307.60000610352</ele>
        <time>2013-03-16T11:37:44.000Z</time>
      </trkpt>
      <trkpt lat="43.61864" lon="5.63625">
        <ele>307.60000610352</ele>
        <time>2013-03-16T11:38:00.000Z</time>
      </trkpt>
      <trkpt lat="43.61863" lon="5.63625">
        <ele>307.60000610352</ele>
        <time>2013-03-16T11:38:17.000Z</time>
      </trkpt>
      <trkpt lat="43.61867" lon="5.63623">
        <ele>307.60000610352</ele>
        <time>2013-03-16T11:38:30.000Z</time>
      </trkpt>
      <trkpt lat="43.61868" lon="5.63622">
        <ele>307.60000610352</ele>
        <time>2013-03-16T11:38:31.000Z</time>
      </trkpt>
      <trkpt lat="43.61869" lon="5.63622">
        <ele>307.39999389648</ele>
        <time>2013-03-16T11:38:32.000Z</time>
      </trkpt>
      <trkpt lat="43.61871" lon="5.63622">
        <ele>307.39999389648</ele>
        <time>2013-03-16T11:38:33.000Z</time>
      </trkpt>
      <trkpt lat="43.61874" lon="5.63623">
        <ele>307.39999389648</ele>
        <time>2013-03-16T11:38:34.000Z</time>
      </trkpt>
      <trkpt lat="43.61876" lon="5.63624">
        <ele>307.39999389648</ele>
        <time>2013-03-16T11:38:35.000Z</time>
      </trkpt>
      <trkpt lat="43.6188" lon="5.63625">
        <ele>307.20001220703</ele>
        <time>2013-03-16T11:38:36.000Z</time>
      </trkpt>
      <trkpt lat="43.61897" lon="5.63629">
        <ele>307</ele>
        <time>2013-03-16T11:38:40.000Z</time>
      </trkpt>
      <trkpt lat="43.61901" lon="5.63631">
        <ele>307</ele>
        <time>2013-03-16T11:38:41.000Z</time>
      </trkpt>
      <trkpt lat="43.61911" lon="5.63634">
        <ele>306.79998779297</ele>
        <time>2013-03-16T11:38:43.000Z</time>
      </trkpt>
      <trkpt lat="43.61916" lon="5.63634">
        <ele>306.79998779297</ele>
        <time>2013-03-16T11:38:44.000Z</time>
      </trkpt>
      <trkpt lat="43.61921" lon="5.63634">
        <ele>306.60000610352</ele>
        <time>2013-03-16T11:38:45.000Z</time>
      </trkpt>
      <trkpt lat="43.61934" lon="5.63633">
        <ele>306.20001220703</ele>
        <time>2013-03-16T11:38:48.000Z</time>
      </trkpt>
      <trkpt lat="43.61939" lon="5.63633">
        <ele>306.20001220703</ele>
        <time>2013-03-16T11:38:49.000Z</time>
      </trkpt>
      <trkpt lat="43.61944" lon="5.63634">
        <ele>306.20001220703</ele>
        <time>2013-03-16T11:38:50.000Z</time>
      </trkpt>
      <trkpt lat="43.61965" lon="5.63634">
        <ele>305.79998779297</ele>
        <time>2013-03-16T11:38:54.000Z</time>
      </trkpt>
      <trkpt lat="43.61971" lon="5.63635">
        <ele>305.60000610352</ele>
        <time>2013-03-16T11:38:55.000Z</time>
      </trkpt>
      <trkpt lat="43.62021" lon="5.6365">
        <ele>306.20001220703</ele>
        <time>2013-03-16T11:39:04.000Z</time>
      </trkpt>
      <trkpt lat="43.62027" lon="5.63651">
        <ele>306.39999389648</ele>
        <time>2013-03-16T11:39:05.000Z</time>
      </trkpt>
      <trkpt lat="43.62044" lon="5.63655">
        <ele>306.79998779297</ele>
        <time>2013-03-16T11:39:08.000Z</time>
      </trkpt>
      <trkpt lat="43.62098" lon="5.6366">
        <ele>307.60000610352</ele>
        <time>2013-03-16T11:39:18.000Z</time>
      </trkpt>
      <trkpt lat="43.6216" lon="5.63668">
        <ele>308</ele>
        <time>2013-03-16T11:39:29.000Z</time>
      </trkpt>
      <trkpt lat="43.62208" lon="5.63671">
        <ele>308.60000610352</ele>
        <time>2013-03-16T11:39:39.000Z</time>
      </trkpt>
      <trkpt lat="43.62216" lon="5.63674">
        <ele>308.79998779297</ele>
        <time>2013-03-16T11:39:41.000Z</time>
      </trkpt>
      <trkpt lat="43.62259" lon="5.63684">
        <ele>309.20001220703</ele>
        <time>2013-03-16T11:39:53.000Z</time>
      </trkpt>
      <trkpt lat="43.62271" lon="5.63686">
        <ele>309.20001220703</ele>
        <time>2013-03-16T11:39:56.000Z</time>
      </trkpt>
      <trkpt lat="43.62275" lon="5.63689">
        <ele>309.20001220703</ele>
        <time>2013-03-16T11:39:57.000Z</time>
      </trkpt>
      <trkpt lat="43.62279" lon="5.63692">
        <ele>309</ele>
        <time>2013-03-16T11:39:58.000Z</time>
      </trkpt>
      <trkpt lat="43.62283" lon="5.63695">
        <ele>309</ele>
        <time>2013-03-16T11:39:59.000Z</time>
      </trkpt>
      <trkpt lat="43.62287" lon="5.63698">
        <ele>309</ele>
        <time>2013-03-16T11:40:00.000Z</time>
      </trkpt>
      <trkpt lat="43.62319" lon="5.63714">
        <ele>308.20001220703</ele>
        <time>2013-03-16T11:40:09.000Z</time>
      </trkpt>
      <trkpt lat="43.62321" lon="5.63714">
        <ele>308.20001220703</ele>
        <time>2013-03-16T11:40:10.000Z</time>
      </trkpt>
      <trkpt lat="43.62322" lon="5.63712">
        <ele>308</ele>
        <time>2013-03-16T11:40:11.000Z</time>
      </trkpt>
      <trkpt lat="43.62324" lon="5.63711">
        <ele>308</ele>
        <time>2013-03-16T11:40:12.000Z</time>
      </trkpt>
      <trkpt lat="43.62326" lon="5.6371">
        <ele>308</ele>
        <time>2013-03-16T11:40:13.000Z</time>
      </trkpt>
      <trkpt lat="43.62329" lon="5.63711">
        <ele>308</ele>
        <time>2013-03-16T11:40:14.000Z</time>
      </trkpt>
      <trkpt lat="43.62332" lon="5.63713">
        <ele>307.79998779297</ele>
        <time>2013-03-16T11:40:15.000Z</time>
      </trkpt>
      <trkpt lat="43.62346" lon="5.63717">
        <ele>306.79998779297</ele>
        <time>2013-03-16T11:40:18.000Z</time>
      </trkpt>
      <trkpt lat="43.62351" lon="5.63719">
        <ele>306.39999389648</ele>
        <time>2013-03-16T11:40:19.000Z</time>
      </trkpt>
      <trkpt lat="43.62356" lon="5.63721">
        <ele>306</ele>
        <time>2013-03-16T11:40:20.000Z</time>
      </trkpt>
      <trkpt lat="43.62368" lon="5.63724">
        <ele>305.20001220703</ele>
        <time>2013-03-16T11:40:22.000Z</time>
      </trkpt>
      <trkpt lat="43.62408" lon="5.63721">
        <ele>302.60000610352</ele>
        <time>2013-03-16T11:40:28.000Z</time>
      </trkpt>
      <trkpt lat="43.62416" lon="5.63718">
        <ele>302.20001220703</ele>
        <time>2013-03-16T11:40:29.000Z</time>
      </trkpt>
      <trkpt lat="43.62423" lon="5.63715">
        <ele>301.60000610352</ele>
        <time>2013-03-16T11:40:30.000Z</time>
      </trkpt>
      <trkpt lat="43.62429" lon="5.6371">
        <ele>301.20001220703</ele>
        <time>2013-03-16T11:40:31.000Z</time>
      </trkpt>
      <trkpt lat="43.62435" lon="5.63705">
        <ele>300.79998779297</ele>
        <time>2013-03-16T11:40:32.000Z</time>
      </trkpt>
      <trkpt lat="43.62439" lon="5.63699">
        <ele>300.39999389648</ele>
        <time>2013-03-16T11:40:33.000Z</time>
      </trkpt>
      <trkpt lat="43.62443" lon="5.63693">
        <ele>300.20001220703</ele>
        <time>2013-03-16T11:40:34.000Z</time>
      </trkpt>
      <trkpt lat="43.62448" lon="5.63688">
        <ele>300</ele>
        <time>2013-03-16T11:40:35.000Z</time>
      </trkpt>
      <trkpt lat="43.62453" lon="5.63683">
        <ele>299.39999389648</ele>
        <time>2013-03-16T11:40:36.000Z</time>
      </trkpt>
      <trkpt lat="43.62469" lon="5.63668">
        <ele>297.60000610352</ele>
        <time>2013-03-16T11:40:39.000Z</time>
      </trkpt>
      <trkpt lat="43.62474" lon="5.63662">
        <ele>297.20001220703</ele>
        <time>2013-03-16T11:40:40.000Z</time>
      </trkpt>
      <trkpt lat="43.62479" lon="5.63655">
        <ele>297</ele>
        <time>2013-03-16T11:40:41.000Z</time>
      </trkpt>
      <trkpt lat="43.62484" lon="5.6365">
        <ele>296.60000610352</ele>
        <time>2013-03-16T11:40:42.000Z</time>
      </trkpt>
      <trkpt lat="43.6249" lon="5.63647">
        <ele>295.79998779297</ele>
        <time>2013-03-16T11:40:43.000Z</time>
      </trkpt>
      <trkpt lat="43.62497" lon="5.63646">
        <ele>295</ele>
        <time>2013-03-16T11:40:44.000Z</time>
      </trkpt>
      <trkpt lat="43.62504" lon="5.63645">
        <ele>294.39999389648</ele>
        <time>2013-03-16T11:40:45.000Z</time>
      </trkpt>
      <trkpt lat="43.62511" lon="5.63644">
        <ele>294.20001220703</ele>
        <time>2013-03-16T11:40:46.000Z</time>
      </trkpt>
      <trkpt lat="43.62518" lon="5.6364">
        <ele>294</ele>
        <time>2013-03-16T11:40:47.000Z</time>
      </trkpt>
      <trkpt lat="43.62536" lon="5.63629">
        <ele>293.79998779297</ele>
        <time>2013-03-16T11:40:50.000Z</time>
      </trkpt>
      <trkpt lat="43.62542" lon="5.63625">
        <ele>293.60000610352</ele>
        <time>2013-03-16T11:40:51.000Z</time>
      </trkpt>
      <trkpt lat="43.62547" lon="5.63621">
        <ele>293.60000610352</ele>
        <time>2013-03-16T11:40:52.000Z</time>
      </trkpt>
      <trkpt lat="43.62553" lon="5.63619">
        <ele>293.39999389648</ele>
        <time>2013-03-16T11:40:53.000Z</time>
      </trkpt>
      <trkpt lat="43.62559" lon="5.63617">
        <ele>293</ele>
        <time>2013-03-16T11:40:54.000Z</time>
      </trkpt>
      <trkpt lat="43.62565" lon="5.63614">
        <ele>293</ele>
        <time>2013-03-16T11:40:55.000Z</time>
      </trkpt>
      <trkpt lat="43.6257" lon="5.63609">
        <ele>293</ele>
        <time>2013-03-16T11:40:56.000Z</time>
      </trkpt>
      <trkpt lat="43.62575" lon="5.63603">
        <ele>293</ele>
        <time>2013-03-16T11:40:57.000Z</time>
      </trkpt>
      <trkpt lat="43.62586" lon="5.63589">
        <ele>293.39999389648</ele>
        <time>2013-03-16T11:40:59.000Z</time>
      </trkpt>
      <trkpt lat="43.62592" lon="5.63583">
        <ele>293.79998779297</ele>
        <time>2013-03-16T11:41:00.000Z</time>
      </trkpt>
      <trkpt lat="43.62599" lon="5.63577">
        <ele>293.79998779297</ele>
        <time>2013-03-16T11:41:01.000Z</time>
      </trkpt>
      <trkpt lat="43.62606" lon="5.63572">
        <ele>294</ele>
        <time>2013-03-16T11:41:02.000Z</time>
      </trkpt>
      <trkpt lat="43.62613" lon="5.63566">
        <ele>293.79998779297</ele>
        <time>2013-03-16T11:41:03.000Z</time>
      </trkpt>
      <trkpt lat="43.62626" lon="5.63555">
        <ele>293.79998779297</ele>
        <time>2013-03-16T11:41:05.000Z</time>
      </trkpt>
      <trkpt lat="43.6263" lon="5.6355">
        <ele>293.60000610352</ele>
        <time>2013-03-16T11:41:06.000Z</time>
      </trkpt>
      <trkpt lat="43.62634" lon="5.63547">
        <ele>293.60000610352</ele>
        <time>2013-03-16T11:41:07.000Z</time>
      </trkpt>
      <trkpt lat="43.62636" lon="5.63547">
        <ele>293.39999389648</ele>
        <time>2013-03-16T11:41:08.000Z</time>
      </trkpt>
      <trkpt lat="43.62638" lon="5.6355">
        <ele>293.39999389648</ele>
        <time>2013-03-16T11:41:17.000Z</time>
      </trkpt>
      <trkpt lat="43.62637" lon="5.6355">
        <ele>293.39999389648</ele>
        <time>2013-03-16T11:41:27.000Z</time>
      </trkpt>
      <trkpt lat="43.62638" lon="5.63552">
        <ele>293.39999389648</ele>
        <time>2013-03-16T11:41:42.000Z</time>
      </trkpt>
      <trkpt lat="43.62639" lon="5.63553">
        <ele>293.39999389648</ele>
        <time>2013-03-16T11:41:43.000Z</time>
      </trkpt>
      <trkpt lat="43.6264" lon="5.63555">
        <ele>293.39999389648</ele>
        <time>2013-03-16T11:41:44.000Z</time>
      </trkpt>
      <trkpt lat="43.62641" lon="5.63557">
        <ele>293.20001220703</ele>
        <time>2013-03-16T11:41:45.000Z</time>
      </trkpt>
      <trkpt lat="43.62642" lon="5.63558">
        <ele>293.20001220703</ele>
        <time>2013-03-16T11:41:46.000Z</time>
      </trkpt>
      <trkpt lat="43.62642" lon="5.63561">
        <ele>293.20001220703</ele>
        <time>2013-03-16T11:41:47.000Z</time>
      </trkpt>
      <trkpt lat="43.62643" lon="5.63563">
        <ele>293.20001220703</ele>
        <time>2013-03-16T11:41:48.000Z</time>
      </trkpt>
      <trkpt lat="43.62643" lon="5.63566">
        <ele>293.20001220703</ele>
        <time>2013-03-16T11:41:49.000Z</time>
      </trkpt>
      <trkpt lat="43.62645" lon="5.63573">
        <ele>293.20001220703</ele>
        <time>2013-03-16T11:41:51.000Z</time>
      </trkpt>
      <trkpt lat="43.62647" lon="5.63577">
        <ele>293.20001220703</ele>
        <time>2013-03-16T11:41:52.000Z</time>
      </trkpt>
      <trkpt lat="43.62654" lon="5.6359">
        <ele>292.39999389648</ele>
        <time>2013-03-16T11:41:55.000Z</time>
      </trkpt>
      <trkpt lat="43.62657" lon="5.63592">
        <ele>292.20001220703</ele>
        <time>2013-03-16T11:41:56.000Z</time>
      </trkpt>
      <trkpt lat="43.62662" lon="5.63592">
        <ele>292.20001220703</ele>
        <time>2013-03-16T11:41:57.000Z</time>
      </trkpt>
      <trkpt lat="43.62666" lon="5.63591">
        <ele>292.20001220703</ele>
        <time>2013-03-16T11:41:58.000Z</time>
      </trkpt>
      <trkpt lat="43.6267" lon="5.63589">
        <ele>292.20001220703</ele>
        <time>2013-03-16T11:41:59.000Z</time>
      </trkpt>
      <trkpt lat="43.62674" lon="5.63586">
        <ele>292.39999389648</ele>
        <time>2013-03-16T11:42:00.000Z</time>
      </trkpt>
      <trkpt lat="43.62678" lon="5.63583">
        <ele>292.39999389648</ele>
        <time>2013-03-16T11:42:01.000Z</time>
      </trkpt>
      <trkpt lat="43.62681" lon="5.63579">
        <ele>292.39999389648</ele>
        <time>2013-03-16T11:42:02.000Z</time>
      </trkpt>
      <trkpt lat="43.62694" lon="5.63563">
        <ele>292</ele>
        <time>2013-03-16T11:42:06.000Z</time>
      </trkpt>
      <trkpt lat="43.62698" lon="5.63561">
        <ele>292</ele>
        <time>2013-03-16T11:42:07.000Z</time>
      </trkpt>
      <trkpt lat="43.62711" lon="5.63552">
        <ele>292</ele>
        <time>2013-03-16T11:42:10.000Z</time>
      </trkpt>
      <trkpt lat="43.62719" lon="5.63544">
        <ele>292</ele>
        <time>2013-03-16T11:42:12.000Z</time>
      </trkpt>
      <trkpt lat="43.62726" lon="5.63535">
        <ele>292.20001220703</ele>
        <time>2013-03-16T11:42:14.000Z</time>
      </trkpt>
      <trkpt lat="43.62736" lon="5.6352">
        <ele>292.79998779297</ele>
        <time>2013-03-16T11:42:17.000Z</time>
      </trkpt>
      <trkpt lat="43.6274" lon="5.63517">
        <ele>293</ele>
        <time>2013-03-16T11:42:18.000Z</time>
      </trkpt>
      <trkpt lat="43.62745" lon="5.63514">
        <ele>293.20001220703</ele>
        <time>2013-03-16T11:42:19.000Z</time>
      </trkpt>
      <trkpt lat="43.62749" lon="5.63509">
        <ele>293.39999389648</ele>
        <time>2013-03-16T11:42:20.000Z</time>
      </trkpt>
      <trkpt lat="43.62753" lon="5.63504">
        <ele>293.39999389648</ele>
        <time>2013-03-16T11:42:21.000Z</time>
      </trkpt>
      <trkpt lat="43.62756" lon="5.63497">
        <ele>293.20001220703</ele>
        <time>2013-03-16T11:42:22.000Z</time>
      </trkpt>
      <trkpt lat="43.62762" lon="5.63484">
        <ele>291.79998779297</ele>
        <time>2013-03-16T11:42:24.000Z</time>
      </trkpt>
      <trkpt lat="43.6277" lon="5.63464">
        <ele>290.39999389648</ele>
        <time>2013-03-16T11:42:27.000Z</time>
      </trkpt>
      <trkpt lat="43.62775" lon="5.63459">
        <ele>290</ele>
        <time>2013-03-16T11:42:28.000Z</time>
      </trkpt>
      <trkpt lat="43.62783" lon="5.6345">
        <ele>289.20001220703</ele>
        <time>2013-03-16T11:42:30.000Z</time>
      </trkpt>
      <trkpt lat="43.62787" lon="5.63444">
        <ele>289</ele>
        <time>2013-03-16T11:42:31.000Z</time>
      </trkpt>
      <trkpt lat="43.62791" lon="5.63438">
        <ele>288.79998779297</ele>
        <time>2013-03-16T11:42:32.000Z</time>
      </trkpt>
      <trkpt lat="43.62794" lon="5.63431">
        <ele>288.60000610352</ele>
        <time>2013-03-16T11:42:33.000Z</time>
      </trkpt>
      <trkpt lat="43.62798" lon="5.63425">
        <ele>288.60000610352</ele>
        <time>2013-03-16T11:42:34.000Z</time>
      </trkpt>
      <trkpt lat="43.62801" lon="5.6342">
        <ele>288.60000610352</ele>
        <time>2013-03-16T11:42:35.000Z</time>
      </trkpt>
      <trkpt lat="43.62805" lon="5.63414">
        <ele>288.60000610352</ele>
        <time>2013-03-16T11:42:36.000Z</time>
      </trkpt>
      <trkpt lat="43.62809" lon="5.63408">
        <ele>288.39999389648</ele>
        <time>2013-03-16T11:42:37.000Z</time>
      </trkpt>
      <trkpt lat="43.62812" lon="5.63401">
        <ele>288.39999389648</ele>
        <time>2013-03-16T11:42:38.000Z</time>
      </trkpt>
      <trkpt lat="43.62816" lon="5.63394">
        <ele>288.39999389648</ele>
        <time>2013-03-16T11:42:39.000Z</time>
      </trkpt>
      <trkpt lat="43.62821" lon="5.63387">
        <ele>288.39999389648</ele>
        <time>2013-03-16T11:42:40.000Z</time>
      </trkpt>
      <trkpt lat="43.62825" lon="5.6338">
        <ele>288.60000610352</ele>
        <time>2013-03-16T11:42:41.000Z</time>
      </trkpt>
      <trkpt lat="43.62831" lon="5.63375">
        <ele>288.79998779297</ele>
        <time>2013-03-16T11:42:42.000Z</time>
      </trkpt>
      <trkpt lat="43.62836" lon="5.63369">
        <ele>288.60000610352</ele>
        <time>2013-03-16T11:42:43.000Z</time>
      </trkpt>
      <trkpt lat="43.62841" lon="5.63363">
        <ele>288</ele>
        <time>2013-03-16T11:42:44.000Z</time>
      </trkpt>
      <trkpt lat="43.62845" lon="5.63356">
        <ele>287.79998779297</ele>
        <time>2013-03-16T11:42:45.000Z</time>
      </trkpt>
      <trkpt lat="43.62846" lon="5.63349">
        <ele>287.79998779297</ele>
        <time>2013-03-16T11:42:46.000Z</time>
      </trkpt>
      <trkpt lat="43.62846" lon="5.63342">
        <ele>287.79998779297</ele>
        <time>2013-03-16T11:42:47.000Z</time>
      </trkpt>
      <trkpt lat="43.62846" lon="5.63334">
        <ele>288</ele>
        <time>2013-03-16T11:42:48.000Z</time>
      </trkpt>
      <trkpt lat="43.62848" lon="5.63326">
        <ele>287.39999389648</ele>
        <time>2013-03-16T11:42:49.000Z</time>
      </trkpt>
      <trkpt lat="43.62852" lon="5.63318">
        <ele>286.79998779297</ele>
        <time>2013-03-16T11:42:50.000Z</time>
      </trkpt>
      <trkpt lat="43.62856" lon="5.63309">
        <ele>286.20001220703</ele>
        <time>2013-03-16T11:42:51.000Z</time>
      </trkpt>
      <trkpt lat="43.62887" lon="5.63246">
        <ele>284.60000610352</ele>
        <time>2013-03-16T11:42:58.000Z</time>
      </trkpt>
      <trkpt lat="43.62889" lon="5.63236">
        <ele>284</ele>
        <time>2013-03-16T11:42:59.000Z</time>
      </trkpt>
      <trkpt lat="43.62893" lon="5.63215">
        <ele>282.79998779297</ele>
        <time>2013-03-16T11:43:01.000Z</time>
      </trkpt>
      <trkpt lat="43.62895" lon="5.63206">
        <ele>282.20001220703</ele>
        <time>2013-03-16T11:43:02.000Z</time>
      </trkpt>
      <trkpt lat="43.629" lon="5.63189">
        <ele>281.20001220703</ele>
        <time>2013-03-16T11:43:05.000Z</time>
      </trkpt>
      <trkpt lat="43.629" lon="5.63188">
        <ele>281.20001220703</ele>
        <time>2013-03-16T11:43:07.000Z</time>
      </trkpt>
      <trkpt lat="43.629" lon="5.63183">
        <ele>280.79998779297</ele>
        <time>2013-03-16T11:43:12.000Z</time>
      </trkpt>
      <trkpt lat="43.62902" lon="5.63174">
        <ele>280.20001220703</ele>
        <time>2013-03-16T11:43:14.000Z</time>
      </trkpt>
      <trkpt lat="43.62902" lon="5.63167">
        <ele>279.79998779297</ele>
        <time>2013-03-16T11:43:15.000Z</time>
      </trkpt>
      <trkpt lat="43.62901" lon="5.63159">
        <ele>279.20001220703</ele>
        <time>2013-03-16T11:43:16.000Z</time>
      </trkpt>
      <trkpt lat="43.62896" lon="5.63124">
        <ele>276.79998779297</ele>
        <time>2013-03-16T11:43:20.000Z</time>
      </trkpt>
      <trkpt lat="43.62896" lon="5.63104">
        <ele>275.60000610352</ele>
        <time>2013-03-16T11:43:22.000Z</time>
      </trkpt>
      <trkpt lat="43.62898" lon="5.63095">
        <ele>275</ele>
        <time>2013-03-16T11:43:23.000Z</time>
      </trkpt>
      <trkpt lat="43.62902" lon="5.63086">
        <ele>274.60000610352</ele>
        <time>2013-03-16T11:43:24.000Z</time>
      </trkpt>
      <trkpt lat="43.62907" lon="5.6308">
        <ele>274.39999389648</ele>
        <time>2013-03-16T11:43:25.000Z</time>
      </trkpt>
      <trkpt lat="43.62912" lon="5.63074">
        <ele>274.39999389648</ele>
        <time>2013-03-16T11:43:26.000Z</time>
      </trkpt>
      <trkpt lat="43.62918" lon="5.6307">
        <ele>274.60000610352</ele>
        <time>2013-03-16T11:43:27.000Z</time>
      </trkpt>
      <trkpt lat="43.62925" lon="5.63068">
        <ele>274.60000610352</ele>
        <time>2013-03-16T11:43:28.000Z</time>
      </trkpt>
      <trkpt lat="43.62932" lon="5.63069">
        <ele>274.60000610352</ele>
        <time>2013-03-16T11:43:29.000Z</time>
      </trkpt>
      <trkpt lat="43.62939" lon="5.6307">
        <ele>274.79998779297</ele>
        <time>2013-03-16T11:43:30.000Z</time>
      </trkpt>
      <trkpt lat="43.62947" lon="5.63072">
        <ele>275</ele>
        <time>2013-03-16T11:43:31.000Z</time>
      </trkpt>
      <trkpt lat="43.62961" lon="5.63076">
        <ele>275.20001220703</ele>
        <time>2013-03-16T11:43:33.000Z</time>
      </trkpt>
      <trkpt lat="43.62968" lon="5.63075">
        <ele>275.20001220703</ele>
        <time>2013-03-16T11:43:34.000Z</time>
      </trkpt>
      <trkpt lat="43.62987" lon="5.63073">
        <ele>275.39999389648</ele>
        <time>2013-03-16T11:43:37.000Z</time>
      </trkpt>
      <trkpt lat="43.63007" lon="5.63069">
        <ele>275.60000610352</ele>
        <time>2013-03-16T11:43:40.000Z</time>
      </trkpt>
      <trkpt lat="43.63014" lon="5.63068">
        <ele>275.79998779297</ele>
        <time>2013-03-16T11:43:41.000Z</time>
      </trkpt>
      <trkpt lat="43.6302" lon="5.63066">
        <ele>276</ele>
        <time>2013-03-16T11:43:42.000Z</time>
      </trkpt>
      <trkpt lat="43.63025" lon="5.63062">
        <ele>276</ele>
        <time>2013-03-16T11:43:43.000Z</time>
      </trkpt>
      <trkpt lat="43.63028" lon="5.63056">
        <ele>276</ele>
        <time>2013-03-16T11:43:44.000Z</time>
      </trkpt>
      <trkpt lat="43.6303" lon="5.63049">
        <ele>275.79998779297</ele>
        <time>2013-03-16T11:43:45.000Z</time>
      </trkpt>
      <trkpt lat="43.63033" lon="5.63042">
        <ele>275.79998779297</ele>
        <time>2013-03-16T11:43:46.000Z</time>
      </trkpt>
      <trkpt lat="43.63036" lon="5.63035">
        <ele>275.79998779297</ele>
        <time>2013-03-16T11:43:47.000Z</time>
      </trkpt>
      <trkpt lat="43.63055" lon="5.62997">
        <ele>276</ele>
        <time>2013-03-16T11:43:52.000Z</time>
      </trkpt>
      <trkpt lat="43.63063" lon="5.62973">
        <ele>274.60000610352</ele>
        <time>2013-03-16T11:43:55.000Z</time>
      </trkpt>
      <trkpt lat="43.63069" lon="5.62951">
        <ele>273.20001220703</ele>
        <time>2013-03-16T11:43:58.000Z</time>
      </trkpt>
      <trkpt lat="43.6307" lon="5.62944">
        <ele>272.79998779297</ele>
        <time>2013-03-16T11:43:59.000Z</time>
      </trkpt>
      <trkpt lat="43.63072" lon="5.62939">
        <ele>272.60000610352</ele>
        <time>2013-03-16T11:44:00.000Z</time>
      </trkpt>
      <trkpt lat="43.63074" lon="5.62937">
        <ele>272.60000610352</ele>
        <time>2013-03-16T11:44:01.000Z</time>
      </trkpt>
      <trkpt lat="43.63077" lon="5.62936">
        <ele>272.79998779297</ele>
        <time>2013-03-16T11:44:02.000Z</time>
      </trkpt>
      <trkpt lat="43.63082" lon="5.62934">
        <ele>273</ele>
        <time>2013-03-16T11:44:04.000Z</time>
      </trkpt>
      <trkpt lat="43.63087" lon="5.62934">
        <ele>272.79998779297</ele>
        <time>2013-03-16T11:44:09.000Z</time>
      </trkpt>
      <trkpt lat="43.63088" lon="5.62933">
        <ele>272.79998779297</ele>
        <time>2013-03-16T11:44:10.000Z</time>
      </trkpt>
      <trkpt lat="43.6309" lon="5.62931">
        <ele>272.39999389648</ele>
        <time>2013-03-16T11:44:11.000Z</time>
      </trkpt>
      <trkpt lat="43.63091" lon="5.62928">
        <ele>272.20001220703</ele>
        <time>2013-03-16T11:44:18.000Z</time>
      </trkpt>
      <trkpt lat="43.63092" lon="5.62927">
        <ele>272</ele>
        <time>2013-03-16T11:44:20.000Z</time>
      </trkpt>
      <trkpt lat="43.63093" lon="5.62928">
        <ele>272</ele>
        <time>2013-03-16T11:44:21.000Z</time>
      </trkpt>
      <trkpt lat="43.63096" lon="5.62928">
        <ele>271.79998779297</ele>
        <time>2013-03-16T11:44:22.000Z</time>
      </trkpt>
      <trkpt lat="43.63099" lon="5.62929">
        <ele>271.60000610352</ele>
        <time>2013-03-16T11:44:23.000Z</time>
      </trkpt>
      <trkpt lat="43.63101" lon="5.6293">
        <ele>271.60000610352</ele>
        <time>2013-03-16T11:44:24.000Z</time>
      </trkpt>
      <trkpt lat="43.63103" lon="5.6293">
        <ele>271.39999389648</ele>
        <time>2013-03-16T11:44:25.000Z</time>
      </trkpt>
      <trkpt lat="43.63102" lon="5.62932">
        <ele>271.60000610352</ele>
        <time>2013-03-16T11:44:33.000Z</time>
      </trkpt>
      <trkpt lat="43.63106" lon="5.62934">
        <ele>271.20001220703</ele>
        <time>2013-03-16T11:44:43.000Z</time>
      </trkpt>
      <trkpt lat="43.63109" lon="5.62934">
        <ele>271</ele>
        <time>2013-03-16T11:44:44.000Z</time>
      </trkpt>
      <trkpt lat="43.63132" lon="5.62938">
        <ele>269.39999389648</ele>
        <time>2013-03-16T11:44:49.000Z</time>
      </trkpt>
      <trkpt lat="43.6318" lon="5.62957">
        <ele>264.79998779297</ele>
        <time>2013-03-16T11:44:56.000Z</time>
      </trkpt>
      <trkpt lat="43.63188" lon="5.6296">
        <ele>264.20001220703</ele>
        <time>2013-03-16T11:44:57.000Z</time>
      </trkpt>
      <trkpt lat="43.63221" lon="5.62975">
        <ele>261.20001220703</ele>
        <time>2013-03-16T11:45:01.000Z</time>
      </trkpt>
      <trkpt lat="43.63229" lon="5.6298">
        <ele>260.60000610352</ele>
        <time>2013-03-16T11:45:02.000Z</time>
      </trkpt>
      <trkpt lat="43.63244" lon="5.62993">
        <ele>259.39999389648</ele>
        <time>2013-03-16T11:45:04.000Z</time>
      </trkpt>
      <trkpt lat="43.63296" lon="5.63031">
        <ele>260.20001220703</ele>
        <time>2013-03-16T11:45:12.000Z</time>
      </trkpt>
      <trkpt lat="43.63343" lon="5.63081">
        <ele>263.39999389648</ele>
        <time>2013-03-16T11:45:21.000Z</time>
      </trkpt>
      <trkpt lat="43.63354" lon="5.63092">
        <ele>263.20001220703</ele>
        <time>2013-03-16T11:45:23.000Z</time>
      </trkpt>
      <trkpt lat="43.63364" lon="5.63102">
        <ele>263</ele>
        <time>2013-03-16T11:45:25.000Z</time>
      </trkpt>
      <trkpt lat="43.63372" lon="5.63109">
        <ele>262.79998779297</ele>
        <time>2013-03-16T11:45:27.000Z</time>
      </trkpt>
      <trkpt lat="43.63376" lon="5.63112">
        <ele>262.79998779297</ele>
        <time>2013-03-16T11:45:28.000Z</time>
      </trkpt>
      <trkpt lat="43.63379" lon="5.63116">
        <ele>262.60000610352</ele>
        <time>2013-03-16T11:45:29.000Z</time>
      </trkpt>
      <trkpt lat="43.63382" lon="5.6312">
        <ele>262.60000610352</ele>
        <time>2013-03-16T11:45:30.000Z</time>
      </trkpt>
      <trkpt lat="43.63385" lon="5.63125">
        <ele>262.39999389648</ele>
        <time>2013-03-16T11:45:31.000Z</time>
      </trkpt>
      <trkpt lat="43.63389" lon="5.6313">
        <ele>262.39999389648</ele>
        <time>2013-03-16T11:45:32.000Z</time>
      </trkpt>
      <trkpt lat="43.63393" lon="5.63136">
        <ele>262.20001220703</ele>
        <time>2013-03-16T11:45:33.000Z</time>
      </trkpt>
      <trkpt lat="43.63404" lon="5.63158">
        <ele>261.79998779297</ele>
        <time>2013-03-16T11:45:36.000Z</time>
      </trkpt>
      <trkpt lat="43.63413" lon="5.63176">
        <ele>262.39999389648</ele>
        <time>2013-03-16T11:45:38.000Z</time>
      </trkpt>
      <trkpt lat="43.63419" lon="5.63185">
        <ele>262.79998779297</ele>
        <time>2013-03-16T11:45:39.000Z</time>
      </trkpt>
      <trkpt lat="43.63427" lon="5.63191">
        <ele>263</ele>
        <time>2013-03-16T11:45:40.000Z</time>
      </trkpt>
      <trkpt lat="43.63435" lon="5.63193">
        <ele>262.39999389648</ele>
        <time>2013-03-16T11:45:41.000Z</time>
      </trkpt>
      <trkpt lat="43.63444" lon="5.63192">
        <ele>261.60000610352</ele>
        <time>2013-03-16T11:45:42.000Z</time>
      </trkpt>
      <trkpt lat="43.63452" lon="5.6319">
        <ele>260.60000610352</ele>
        <time>2013-03-16T11:45:43.000Z</time>
      </trkpt>
      <trkpt lat="43.63461" lon="5.63187">
        <ele>259.60000610352</ele>
        <time>2013-03-16T11:45:44.000Z</time>
      </trkpt>
      <trkpt lat="43.63522" lon="5.63179">
        <ele>257.20001220703</ele>
        <time>2013-03-16T11:45:52.000Z</time>
      </trkpt>
      <trkpt lat="43.63574" lon="5.63187">
        <ele>259.60000610352</ele>
        <time>2013-03-16T11:46:00.000Z</time>
      </trkpt>
      <trkpt lat="43.63581" lon="5.63191">
        <ele>259.79998779297</ele>
        <time>2013-03-16T11:46:01.000Z</time>
      </trkpt>
      <trkpt lat="43.63588" lon="5.63196">
        <ele>259.79998779297</ele>
        <time>2013-03-16T11:46:02.000Z</time>
      </trkpt>
      <trkpt lat="43.63607" lon="5.63212">
        <ele>260</ele>
        <time>2013-03-16T11:46:05.000Z</time>
      </trkpt>
      <trkpt lat="43.63659" lon="5.63259">
        <ele>261</ele>
        <time>2013-03-16T11:46:14.000Z</time>
      </trkpt>
      <trkpt lat="43.63693" lon="5.63302">
        <ele>259.39999389648</ele>
        <time>2013-03-16T11:46:23.000Z</time>
      </trkpt>
      <trkpt lat="43.63722" lon="5.63348">
        <ele>258</ele>
        <time>2013-03-16T11:46:33.000Z</time>
      </trkpt>
      <trkpt lat="43.63724" lon="5.63353">
        <ele>258.20001220703</ele>
        <time>2013-03-16T11:46:34.000Z</time>
      </trkpt>
      <trkpt lat="43.63725" lon="5.63359">
        <ele>258.60000610352</ele>
        <time>2013-03-16T11:46:35.000Z</time>
      </trkpt>
      <trkpt lat="43.63726" lon="5.63365">
        <ele>258.79998779297</ele>
        <time>2013-03-16T11:46:36.000Z</time>
      </trkpt>
      <trkpt lat="43.63725" lon="5.6337">
        <ele>259.20001220703</ele>
        <time>2013-03-16T11:46:37.000Z</time>
      </trkpt>
      <trkpt lat="43.63724" lon="5.63375">
        <ele>259.39999389648</ele>
        <time>2013-03-16T11:46:38.000Z</time>
      </trkpt>
      <trkpt lat="43.63723" lon="5.6338">
        <ele>259.79998779297</ele>
        <time>2013-03-16T11:46:39.000Z</time>
      </trkpt>
      <trkpt lat="43.63721" lon="5.63385">
        <ele>260.20001220703</ele>
        <time>2013-03-16T11:46:40.000Z</time>
      </trkpt>
      <trkpt lat="43.6372" lon="5.63391">
        <ele>260.60000610352</ele>
        <time>2013-03-16T11:46:41.000Z</time>
      </trkpt>
      <trkpt lat="43.63719" lon="5.63397">
        <ele>260.79998779297</ele>
        <time>2013-03-16T11:46:42.000Z</time>
      </trkpt>
      <trkpt lat="43.63717" lon="5.63403">
        <ele>261.20001220703</ele>
        <time>2013-03-16T11:46:43.000Z</time>
      </trkpt>
      <trkpt lat="43.63714" lon="5.63416">
        <ele>261.79998779297</ele>
        <time>2013-03-16T11:46:45.000Z</time>
      </trkpt>
      <trkpt lat="43.63695" lon="5.63487">
        <ele>263.39999389648</ele>
        <time>2013-03-16T11:46:57.000Z</time>
      </trkpt>
      <trkpt lat="43.63674" lon="5.63563">
        <ele>266.20001220703</ele>
        <time>2013-03-16T11:47:09.000Z</time>
      </trkpt>
      <trkpt lat="43.63672" lon="5.63568">
        <ele>266.39999389648</ele>
        <time>2013-03-16T11:47:10.000Z</time>
      </trkpt>
      <trkpt lat="43.63671" lon="5.63574">
        <ele>266.60000610352</ele>
        <time>2013-03-16T11:47:11.000Z</time>
      </trkpt>
      <trkpt lat="43.6367" lon="5.6358">
        <ele>267</ele>
        <time>2013-03-16T11:47:12.000Z</time>
      </trkpt>
      <trkpt lat="43.63668" lon="5.63586">
        <ele>267.20001220703</ele>
        <time>2013-03-16T11:47:13.000Z</time>
      </trkpt>
      <trkpt lat="43.63666" lon="5.63593">
        <ele>267.39999389648</ele>
        <time>2013-03-16T11:47:14.000Z</time>
      </trkpt>
      <trkpt lat="43.63664" lon="5.63599">
        <ele>267.60000610352</ele>
        <time>2013-03-16T11:47:15.000Z</time>
      </trkpt>
      <trkpt lat="43.63663" lon="5.63605">
        <ele>267.79998779297</ele>
        <time>2013-03-16T11:47:16.000Z</time>
      </trkpt>
      <trkpt lat="43.63662" lon="5.6361">
        <ele>268.20001220703</ele>
        <time>2013-03-16T11:47:17.000Z</time>
      </trkpt>
      <trkpt lat="43.63661" lon="5.63623">
        <ele>268.79998779297</ele>
        <time>2013-03-16T11:47:19.000Z</time>
      </trkpt>
      <trkpt lat="43.63661" lon="5.63629">
        <ele>269</ele>
        <time>2013-03-16T11:47:20.000Z</time>
      </trkpt>
      <trkpt lat="43.6366" lon="5.63636">
        <ele>269.39999389648</ele>
        <time>2013-03-16T11:47:21.000Z</time>
      </trkpt>
      <trkpt lat="43.6366" lon="5.63641">
        <ele>269.79998779297</ele>
        <time>2013-03-16T11:47:22.000Z</time>
      </trkpt>
      <trkpt lat="43.6366" lon="5.63647">
        <ele>270</ele>
        <time>2013-03-16T11:47:23.000Z</time>
      </trkpt>
      <trkpt lat="43.63661" lon="5.63654">
        <ele>270.39999389648</ele>
        <time>2013-03-16T11:47:24.000Z</time>
      </trkpt>
      <trkpt lat="43.63668" lon="5.63725">
        <ele>268.60000610352</ele>
        <time>2013-03-16T11:47:36.000Z</time>
      </trkpt>
      <trkpt lat="43.63678" lon="5.63755">
        <ele>268.60000610352</ele>
        <time>2013-03-16T11:47:45.000Z</time>
      </trkpt>
      <trkpt lat="43.63689" lon="5.63777">
        <ele>270.20001220703</ele>
        <time>2013-03-16T11:47:54.000Z</time>
      </trkpt>
      <trkpt lat="43.63692" lon="5.63784">
        <ele>270.60000610352</ele>
        <time>2013-03-16T11:47:59.000Z</time>
      </trkpt>
      <trkpt lat="43.63692" lon="5.63786">
        <ele>270.60000610352</ele>
        <time>2013-03-16T11:48:00.000Z</time>
      </trkpt>
      <trkpt lat="43.63691" lon="5.63791">
        <ele>270.39999389648</ele>
        <time>2013-03-16T11:48:08.000Z</time>
      </trkpt>
    </trkseg>
  </trk>
</gpx>